<?xml version='1.0' encoding='UTF-8'?><gpx version="1.1" creator="JPX - https://github.com/jenetics/jpx" xmlns="http://www.topografix.com/GPX/1/1"><trk><trkseg><trkpt lat="40.61423211075249" lon="14.979047274974041"><ele>71.0</ele><time>2026-04-19T07:35:25.863Z</time></trkpt><trkpt lat="40.614371815382846" lon="14.979166692475836"><ele>71.0</ele><time>2026-04-19T07:35:27.863Z</time></trkpt><trkpt lat="40.614510819820175" lon="14.979299869150813"><ele>71.0</ele><time>2026-04-19T07:35:29.863Z</time></trkpt><trkpt lat="40.61460467139534" lon="14.979396114937137"><ele>70.8</ele><time>2026-04-19T07:35:30.863Z</time></trkpt><trkpt lat="40.61471292916444" lon="14.979515127347307"><ele>70.6</ele><time>2026-04-19T07:35:31.863Z</time></trkpt><trkpt lat="40.614804505285605" lon="14.97960409181176"><ele>70.4</ele><time>2026-04-19T07:35:32.863Z</time></trkpt><trkpt lat="40.614889149242586" lon="14.979682077471828"><ele>70.2</ele><time>2026-04-19T07:35:33.863Z</time></trkpt><trkpt lat="40.61494900967494" lon="14.979735550823634"><ele>70.0</ele><time>2026-04-19T07:35:34.863Z</time></trkpt><trkpt lat="40.61502099760547" lon="14.979794451207523"><ele>70.0</ele><time>2026-04-19T07:35:35.863Z</time></trkpt><trkpt lat="40.61508249443851" lon="14.979849362638923"><ele>70.0</ele><time>2026-04-19T07:35:36.863Z</time></trkpt><trkpt lat="40.61520466365225" lon="14.979958092035526"><ele>70.0</ele><time>2026-04-19T07:35:39.863Z</time></trkpt><trkpt lat="40.61520994072015" lon="14.980093897607677"><ele>70.0</ele><time>2026-04-19T07:35:41.863Z</time></trkpt><trkpt lat="40.61520582822276" lon="14.980222803672019"><ele>70.0</ele><time>2026-04-19T07:35:42.863Z</time></trkpt><trkpt lat="40.615178133545065" lon="14.980345058819916"><ele>70.0</ele><time>2026-04-19T07:35:43.863Z</time></trkpt><trkpt lat="40.61515615709509" lon="14.980444858369713"><ele>70.0</ele><time>2026-04-19T07:35:44.863Z</time></trkpt><trkpt lat="40.615120202632326" lon="14.98055604462349"><ele>70.0</ele><time>2026-04-19T07:35:45.863Z</time></trkpt><trkpt lat="40.61510431317086" lon="14.980643147735382"><ele>70.0</ele><time>2026-04-19T07:35:46.863Z</time></trkpt><trkpt lat="40.61509315148827" lon="14.980730148599507"><ele>70.0</ele><time>2026-04-19T07:35:47.862Z</time></trkpt><trkpt lat="40.61506000160854" lon="14.980824088093023"><ele>70.0</ele><time>2026-04-19T07:35:48.862Z</time></trkpt><trkpt lat="40.615040366022" lon="14.980918983333735"><ele>70.0</ele><time>2026-04-19T07:35:49.862Z</time></trkpt><trkpt lat="40.61501384217062" lon="14.980999313984599"><ele>70.0</ele><time>2026-04-19T07:35:50.862Z</time></trkpt><trkpt lat="40.614988372814395" lon="14.981088707147075"><ele>70.0</ele><time>2026-04-19T07:35:51.862Z</time></trkpt><trkpt lat="40.614949684790886" lon="14.981165924719008"><ele>70.0</ele><time>2026-04-19T07:35:52.862Z</time></trkpt><trkpt lat="40.6149118886123" lon="14.981236400811815"><ele>70.0</ele><time>2026-04-19T07:35:53.862Z</time></trkpt><trkpt lat="40.6148721710594" lon="14.981321281335958"><ele>70.0</ele><time>2026-04-19T07:35:54.862Z</time></trkpt><trkpt lat="40.61480590978761" lon="14.981418276145922"><ele>70.0</ele><time>2026-04-19T07:35:55.862Z</time></trkpt><trkpt lat="40.614732999836185" lon="14.981524127026182"><ele>70.0</ele><time>2026-04-19T07:35:56.862Z</time></trkpt><trkpt lat="40.61465862641501" lon="14.981588872694847"><ele>70.0</ele><time>2026-04-19T07:35:57.862Z</time></trkpt><trkpt lat="40.614616710498666" lon="14.981663417798236"><ele>70.0</ele><time>2026-04-19T07:35:58.862Z</time></trkpt><trkpt lat="40.61457696436808" lon="14.981753649268981"><ele>70.0</ele><time>2026-04-19T07:35:59.862Z</time></trkpt><trkpt lat="40.61452678472533" lon="14.981834531725527"><ele>70.0</ele><time>2026-04-19T07:36:00.862Z</time></trkpt><trkpt lat="40.614477588193914" lon="14.981924724209454"><ele>70.0</ele><time>2026-04-19T07:36:01.862Z</time></trkpt><trkpt lat="40.614410371049075" lon="14.982020084667393"><ele>69.6</ele><time>2026-04-19T07:36:02.862Z</time></trkpt><trkpt lat="40.6143442111733" lon="14.982116467090918"><ele>69.2</ele><time>2026-04-19T07:36:03.862Z</time></trkpt><trkpt lat="40.6142780871137" lon="14.982208780915803"><ele>68.8</ele><time>2026-04-19T07:36:04.862Z</time></trkpt><trkpt lat="40.61421046348106" lon="14.982291458442468"><ele>68.4</ele><time>2026-04-19T07:36:05.862Z</time></trkpt><trkpt lat="40.614143479386875" lon="14.982369759810341"><ele>68.0</ele><time>2026-04-19T07:36:06.862Z</time></trkpt><trkpt lat="40.61406291056501" lon="14.982428654289853"><ele>68.0</ele><time>2026-04-19T07:36:07.862Z</time></trkpt><trkpt lat="40.613979810527184" lon="14.982484184831742"><ele>68.0</ele><time>2026-04-19T07:36:08.862Z</time></trkpt><trkpt lat="40.61390799706963" lon="14.982539780821783"><ele>68.0</ele><time>2026-04-19T07:36:09.862Z</time></trkpt><trkpt lat="40.61382219508965" lon="14.982624993008951"><ele>68.0</ele><time>2026-04-19T07:36:10.862Z</time></trkpt><trkpt lat="40.61374823311016" lon="14.982690694898999"><ele>68.0</ele><time>2026-04-19T07:36:11.862Z</time></trkpt><trkpt lat="40.61366964484731" lon="14.982755354145505"><ele>69.0</ele><time>2026-04-19T07:36:12.862Z</time></trkpt><trkpt lat="40.61359863619779" lon="14.98281003081658"><ele>70.0</ele><time>2026-04-19T07:36:13.862Z</time></trkpt><trkpt lat="40.61354572229372" lon="14.982858471776673"><ele>71.0</ele><time>2026-04-19T07:36:14.862Z</time></trkpt><trkpt lat="40.613437464365234" lon="14.982919305540099"><ele>72.0</ele><time>2026-04-19T07:36:16.862Z</time></trkpt><trkpt lat="40.613326034525336" lon="14.982972529616799"><ele>73.0</ele><time>2026-04-19T07:36:18.862Z</time></trkpt><trkpt lat="40.613226039518054" lon="14.98305861264281"><ele>73.0</ele><time>2026-04-19T07:36:20.862Z</time></trkpt><trkpt lat="40.613126730088325" lon="14.983126385976538"><ele>73.0</ele><time>2026-04-19T07:36:22.862Z</time></trkpt><trkpt lat="40.613032797111835" lon="14.983208197558781"><ele>73.0</ele><time>2026-04-19T07:36:24.862Z</time></trkpt><trkpt lat="40.61297373358308" lon="14.983283852022746"><ele>73.0</ele><time>2026-04-19T07:36:26.862Z</time></trkpt><trkpt lat="40.6130098753549" lon="14.983467099966097"><ele>73.2</ele><time>2026-04-19T07:36:29.862Z</time></trkpt><trkpt lat="40.61305429206755" lon="14.983552278932587"><ele>73.4</ele><time>2026-04-19T07:36:30.862Z</time></trkpt><trkpt lat="40.61310162914096" lon="14.983643677807976"><ele>73.60000000000001</ele><time>2026-04-19T07:36:31.862Z</time></trkpt><trkpt lat="40.613161258082" lon="14.98374288665988"><ele>73.8</ele><time>2026-04-19T07:36:32.862Z</time></trkpt><trkpt lat="40.61322560657508" lon="14.983856136683832"><ele>74.0</ele><time>2026-04-19T07:36:33.862Z</time></trkpt><trkpt lat="40.61328619856799" lon="14.983990785087995"><ele>74.0</ele><time>2026-04-19T07:36:34.863Z</time></trkpt><trkpt lat="40.613341150314184" lon="14.984116466278623"><ele>74.0</ele><time>2026-04-19T07:36:35.863Z</time></trkpt><trkpt lat="40.613413912727516" lon="14.984227080003482"><ele>74.0</ele><time>2026-04-19T07:36:36.863Z</time></trkpt><trkpt lat="40.61348842213801" lon="14.984363911089321"><ele>74.0</ele><time>2026-04-19T07:36:37.863Z</time></trkpt><trkpt lat="40.613552346848145" lon="14.984517095605252"><ele>74.5</ele><time>2026-04-19T07:36:38.863Z</time></trkpt><trkpt lat="40.61361288239592" lon="14.984692406324662"><ele>75.0</ele><time>2026-04-19T07:36:39.863Z</time></trkpt><trkpt lat="40.6136678891438" lon="14.984843034501196"><ele>75.5</ele><time>2026-04-19T07:36:40.863Z</time></trkpt><trkpt lat="40.613724283569034" lon="14.984968079695847"><ele>76.0</ele><time>2026-04-19T07:36:41.863Z</time></trkpt><trkpt lat="40.613771715503525" lon="14.9851057917691"><ele>76.39999999999999</ele><time>2026-04-19T07:36:42.863Z</time></trkpt><trkpt lat="40.61383389848363" lon="14.985241997001566"><ele>76.8</ele><time>2026-04-19T07:36:43.863Z</time></trkpt><trkpt lat="40.61389238748023" lon="14.985365551348304"><ele>77.19999999999999</ele><time>2026-04-19T07:36:44.863Z</time></trkpt><trkpt lat="40.61394624048569" lon="14.98548694516424"><ele>77.6</ele><time>2026-04-19T07:36:45.863Z</time></trkpt><trkpt lat="40.61400158898989" lon="14.98561169671607"><ele>78.0</ele><time>2026-04-19T07:36:46.863Z</time></trkpt><trkpt lat="40.61406065968634" lon="14.985733846381011"><ele>77.8</ele><time>2026-04-19T07:36:47.863Z</time></trkpt><trkpt lat="40.614115402106016" lon="14.985859561068947"><ele>77.6</ele><time>2026-04-19T07:36:48.863Z</time></trkpt><trkpt lat="40.61415899249885" lon="14.985989911701761"><ele>77.4</ele><time>2026-04-19T07:36:49.863Z</time></trkpt><trkpt lat="40.6142180068409" lon="14.986111892141361"><ele>77.2</ele><time>2026-04-19T07:36:50.863Z</time></trkpt><trkpt lat="40.61427749866302" lon="14.986227982024417"><ele>77.0</ele><time>2026-04-19T07:36:51.863Z</time></trkpt><trkpt lat="40.61432935074485" lon="14.98633861822231"><ele>77.0</ele><time>2026-04-19T07:36:52.863Z</time></trkpt><trkpt lat="40.614389262012565" lon="14.986446039744074"><ele>77.0</ele><time>2026-04-19T07:36:53.863Z</time></trkpt><trkpt lat="40.61443408416512" lon="14.986571210199175"><ele>77.0</ele><time>2026-04-19T07:36:54.863Z</time></trkpt><trkpt lat="40.61447900376351" lon="14.986667143202816"><ele>77.0</ele><time>2026-04-19T07:36:55.863Z</time></trkpt><trkpt lat="40.61453204561992" lon="14.98676055796886"><ele>77.0</ele><time>2026-04-19T07:36:56.863Z</time></trkpt><trkpt lat="40.614578923693536" lon="14.986862333025197"><ele>77.0</ele><time>2026-04-19T07:36:57.863Z</time></trkpt><trkpt lat="40.614622632097586" lon="14.986960533819309"><ele>77.0</ele><time>2026-04-19T07:36:58.863Z</time></trkpt><trkpt lat="40.61466738015205" lon="14.987053016684284"><ele>77.0</ele><time>2026-04-19T07:36:59.862Z</time></trkpt><trkpt lat="40.61470797678658" lon="14.987146259009402"><ele>77.0</ele><time>2026-04-19T07:37:00.862Z</time></trkpt><trkpt lat="40.6147476976081" lon="14.987244891229603"><ele>77.0</ele><time>2026-04-19T07:37:01.862Z</time></trkpt><trkpt lat="40.614790269400025" lon="14.987340752064936"><ele>77.0</ele><time>2026-04-19T07:37:02.863Z</time></trkpt><trkpt lat="40.614828458874165" lon="14.987429311222623"><ele>77.0</ele><time>2026-04-19T07:37:03.863Z</time></trkpt><trkpt lat="40.61486720735078" lon="14.987510743963186"><ele>77.0</ele><time>2026-04-19T07:37:04.863Z</time></trkpt><trkpt lat="40.61489177740998" lon="14.987591129156547"><ele>77.0</ele><time>2026-04-19T07:37:05.863Z</time></trkpt><trkpt lat="40.614922848253464" lon="14.987675452608295"><ele>77.0</ele><time>2026-04-19T07:37:06.862Z</time></trkpt><trkpt lat="40.61495586761267" lon="14.98775799456647"><ele>77.0</ele><time>2026-04-19T07:37:07.862Z</time></trkpt><trkpt lat="40.61499641965864" lon="14.98788033842937"><ele>77.0</ele><time>2026-04-19T07:37:09.862Z</time></trkpt><trkpt lat="40.61503802933451" lon="14.987954701058767"><ele>77.0</ele><time>2026-04-19T07:37:12.862Z</time></trkpt><trkpt lat="40.61483784355163" lon="14.987986308531331"><ele>77.0</ele><time>2026-04-19T07:37:17.862Z</time></trkpt><trkpt lat="40.61473051188213" lon="14.988002693258675"><ele>77.0</ele><time>2026-04-19T07:37:18.862Z</time></trkpt><trkpt lat="40.61462942024366" lon="14.987997412508474"><ele>77.0</ele><time>2026-04-19T07:37:19.862Z</time></trkpt><trkpt lat="40.614507479846786" lon="14.987993698502283"><ele>77.4</ele><time>2026-04-19T07:37:20.862Z</time></trkpt><trkpt lat="40.61439536707609" lon="14.988006512916995"><ele>77.80000000000001</ele><time>2026-04-19T07:37:21.862Z</time></trkpt><trkpt lat="40.61430271114789" lon="14.988034442017307"><ele>78.2</ele><time>2026-04-19T07:37:22.862Z</time></trkpt><trkpt lat="40.61417461295616" lon="14.988085824500184"><ele>78.60000000000001</ele><time>2026-04-19T07:37:24.862Z</time></trkpt><trkpt lat="40.61409289520813" lon="14.988114206468797"><ele>79.0</ele><time>2026-04-19T07:37:26.862Z</time></trkpt><trkpt lat="40.61423511451126" lon="14.988376453623347"><ele>80.25</ele><time>2026-04-19T07:37:28.862Z</time></trkpt><trkpt lat="40.61432718631006" lon="14.98846985272072"><ele>81.5</ele><time>2026-04-19T07:37:29.862Z</time></trkpt><trkpt lat="40.61441481371971" lon="14.988560323493038"><ele>82.75</ele><time>2026-04-19T07:37:30.862Z</time></trkpt><trkpt lat="40.614483745866515" lon="14.988684752222019"><ele>84.0</ele><time>2026-04-19T07:37:31.862Z</time></trkpt><trkpt lat="40.61458874907421" lon="14.988791824384846"><ele>84.0</ele><time>2026-04-19T07:37:32.862Z</time></trkpt><trkpt lat="40.614687902890964" lon="14.988945392162803"><ele>84.0</ele><time>2026-04-19T07:37:33.862Z</time></trkpt><trkpt lat="40.614792279971546" lon="14.989106588638519"><ele>84.0</ele><time>2026-04-19T07:37:34.862Z</time></trkpt><trkpt lat="40.6148988385398" lon="14.989261884351217"><ele>84.75</ele><time>2026-04-19T07:37:35.862Z</time></trkpt><trkpt lat="40.61498150861541" lon="14.989392470090285"><ele>85.5</ele><time>2026-04-19T07:37:36.862Z</time></trkpt><trkpt lat="40.615054214182145" lon="14.98950443911129"><ele>86.25</ele><time>2026-04-19T07:37:37.862Z</time></trkpt><trkpt lat="40.615102293481755" lon="14.989623952278258"><ele>87.0</ele><time>2026-04-19T07:37:38.862Z</time></trkpt><trkpt lat="40.615174552776445" lon="14.98972828087398"><ele>87.0</ele><time>2026-04-19T07:37:39.862Z</time></trkpt><trkpt lat="40.61523429147845" lon="14.98982806272013"><ele>87.0</ele><time>2026-04-19T07:37:40.862Z</time></trkpt><trkpt lat="40.61530432640356" lon="14.989923808581832"><ele>87.0</ele><time>2026-04-19T07:37:41.862Z</time></trkpt><trkpt lat="40.615369255961994" lon="14.990020819419103"><ele>87.0</ele><time>2026-04-19T07:37:42.862Z</time></trkpt><trkpt lat="40.61543321448783" lon="14.990124210228984"><ele>87.0</ele><time>2026-04-19T07:37:43.862Z</time></trkpt><trkpt lat="40.61548413790704" lon="14.990201503431397"><ele>90.6</ele><time>2026-04-19T07:37:44.862Z</time></trkpt><trkpt lat="40.615542445612746" lon="14.990277166241507"><ele>94.19999999999999</ele><time>2026-04-19T07:37:45.862Z</time></trkpt><trkpt lat="40.6156088023821" lon="14.990335841582953"><ele>97.8</ele><time>2026-04-19T07:37:46.862Z</time></trkpt><trkpt lat="40.61569443496262" lon="14.990363844420775"><ele>101.4</ele><time>2026-04-19T07:37:47.862Z</time></trkpt><trkpt lat="40.615783071574356" lon="14.990441279093037"><ele>105.0</ele><time>2026-04-19T07:37:48.862Z</time></trkpt><trkpt lat="40.61590555553193" lon="14.990477383342014"><ele>105.0</ele><time>2026-04-19T07:37:49.862Z</time></trkpt><trkpt lat="40.61600933048531" lon="14.990537587753485"><ele>105.0</ele><time>2026-04-19T07:37:50.862Z</time></trkpt><trkpt lat="40.6160965958163" lon="14.990612585323742"><ele>105.0</ele><time>2026-04-19T07:37:51.862Z</time></trkpt><trkpt lat="40.61617275537622" lon="14.99069656453051"><ele>105.0</ele><time>2026-04-19T07:37:52.862Z</time></trkpt><trkpt lat="40.61624367032014" lon="14.990747394006814"><ele>105.0</ele><time>2026-04-19T07:37:53.862Z</time></trkpt><trkpt lat="40.61630759319781" lon="14.990754671364602"><ele>107.6</ele><time>2026-04-19T07:37:54.862Z</time></trkpt><trkpt lat="40.61637321604833" lon="14.990688254786246"><ele>110.2</ele><time>2026-04-19T07:37:55.862Z</time></trkpt><trkpt lat="40.616432434930005" lon="14.990546629975627"><ele>112.80000000000001</ele><time>2026-04-19T07:37:56.862Z</time></trkpt><trkpt lat="40.616510752084665" lon="14.990483851988971"><ele>115.4</ele><time>2026-04-19T07:37:57.862Z</time></trkpt><trkpt lat="40.61658716528171" lon="14.990411593532595"><ele>118.0</ele><time>2026-04-19T07:37:58.862Z</time></trkpt><trkpt lat="40.616676601500984" lon="14.990386176847869"><ele>118.0</ele><time>2026-04-19T07:37:59.862Z</time></trkpt><trkpt lat="40.61677216499379" lon="14.99037661546189"><ele>118.00000000000001</ele><time>2026-04-19T07:38:00.862Z</time></trkpt><trkpt lat="40.616882027306524" lon="14.990373750256019"><ele>118.00000000000001</ele><time>2026-04-19T07:38:01.862Z</time></trkpt><trkpt lat="40.61700703637929" lon="14.990418765534837"><ele>118.0</ele><time>2026-04-19T07:38:02.862Z</time></trkpt><trkpt lat="40.61710841937447" lon="14.990383107396703"><ele>118.0</ele><time>2026-04-19T07:38:03.862Z</time></trkpt><trkpt lat="40.617195092888494" lon="14.990347754454605"><ele>121.4</ele><time>2026-04-19T07:38:04.862Z</time></trkpt><trkpt lat="40.617298437147774" lon="14.990277706987072"><ele>124.80000000000001</ele><time>2026-04-19T07:38:05.862Z</time></trkpt><trkpt lat="40.61738318437448" lon="14.99024191821457"><ele>128.2</ele><time>2026-04-19T07:38:06.862Z</time></trkpt><trkpt lat="40.617473725614495" lon="14.990205303346807"><ele>131.6</ele><time>2026-04-19T07:38:07.862Z</time></trkpt><trkpt lat="40.617559791808496" lon="14.990203043035201"><ele>135.0</ele><time>2026-04-19T07:38:08.862Z</time></trkpt><trkpt lat="40.61763217841642" lon="14.990196711900277"><ele>135.0</ele><time>2026-04-19T07:38:09.862Z</time></trkpt><trkpt lat="40.61770131334691" lon="14.990191722797382"><ele>135.0</ele><time>2026-04-19T07:38:10.862Z</time></trkpt><trkpt lat="40.61773418231278" lon="14.99027969948182"><ele>135.0</ele><time>2026-04-19T07:38:11.862Z</time></trkpt><trkpt lat="40.61778238003218" lon="14.990343900192768"><ele>135.0</ele><time>2026-04-19T07:38:12.862Z</time></trkpt><trkpt lat="40.617855171934" lon="14.990471555424215"><ele>135.0</ele><time>2026-04-19T07:38:14.862Z</time></trkpt><trkpt lat="40.617870742628476" lon="14.990613690233278"><ele>135.0</ele><time>2026-04-19T07:38:16.862Z</time></trkpt><trkpt lat="40.61784076907477" lon="14.990708091071301"><ele>138.0</ele><time>2026-04-19T07:38:18.862Z</time></trkpt><trkpt lat="40.617764906516" lon="14.990846670190457"><ele>141.0</ele><time>2026-04-19T07:38:20.862Z</time></trkpt><trkpt lat="40.61774868517163" lon="14.99094182546196"><ele>144.0</ele><time>2026-04-19T07:38:21.862Z</time></trkpt><trkpt lat="40.61773518653394" lon="14.991053945506895"><ele>147.0</ele><time>2026-04-19T07:38:22.862Z</time></trkpt><trkpt lat="40.61772924110842" lon="14.991196276120542"><ele>150.0</ele><time>2026-04-19T07:38:23.862Z</time></trkpt><trkpt lat="40.61772474203246" lon="14.991305515075325"><ele>150.0</ele><time>2026-04-19T07:38:24.863Z</time></trkpt><trkpt lat="40.61772215723954" lon="14.991396098105012"><ele>150.0</ele><time>2026-04-19T07:38:25.863Z</time></trkpt><trkpt lat="40.61770437495977" lon="14.991552769053689"><ele>150.0</ele><time>2026-04-19T07:38:27.863Z</time></trkpt><trkpt lat="40.61764209139801" lon="14.991616495857201"><ele>150.0</ele><time>2026-04-19T07:38:28.863Z</time></trkpt><trkpt lat="40.61760313446471" lon="14.991692601207182"><ele>150.0</ele><time>2026-04-19T07:38:29.863Z</time></trkpt><trkpt lat="40.61748741646615" lon="14.991682528278544"><ele>151.33333333333334</ele><time>2026-04-19T07:38:30.863Z</time></trkpt><trkpt lat="40.617426672938464" lon="14.99177580059899"><ele>152.66666666666666</ele><time>2026-04-19T07:38:31.863Z</time></trkpt><trkpt lat="40.6173670542666" lon="14.991865425100043"><ele>154.0</ele><time>2026-04-19T07:38:32.863Z</time></trkpt><trkpt lat="40.617328866844154" lon="14.991957335824466"><ele>155.33333333333331</ele><time>2026-04-19T07:38:33.863Z</time></trkpt><trkpt lat="40.61726066916913" lon="14.992019172200376"><ele>156.66666666666666</ele><time>2026-04-19T07:38:34.863Z</time></trkpt><trkpt lat="40.61719596252565" lon="14.99208214308491"><ele>158.0</ele><time>2026-04-19T07:38:35.863Z</time></trkpt><trkpt lat="40.617122207904316" lon="14.99215380045501"><ele>158.0</ele><time>2026-04-19T07:38:36.863Z</time></trkpt><trkpt lat="40.61705462961433" lon="14.992217506114859"><ele>158.0</ele><time>2026-04-19T07:38:37.863Z</time></trkpt><trkpt lat="40.616971198635134" lon="14.992280445970355"><ele>158.0</ele><time>2026-04-19T07:38:38.863Z</time></trkpt><trkpt lat="40.61686946224148" lon="14.992346207947099"><ele>158.0</ele><time>2026-04-19T07:38:39.863Z</time></trkpt><trkpt lat="40.616770056368395" lon="14.992388450655191"><ele>158.0</ele><time>2026-04-19T07:38:40.863Z</time></trkpt><trkpt lat="40.61665194074526" lon="14.992414446246322"><ele>157.75</ele><time>2026-04-19T07:38:41.863Z</time></trkpt><trkpt lat="40.616529091431865" lon="14.992460414989324"><ele>157.5</ele><time>2026-04-19T07:38:42.863Z</time></trkpt><trkpt lat="40.61639122819826" lon="14.992508227754552"><ele>157.25</ele><time>2026-04-19T07:38:43.863Z</time></trkpt><trkpt lat="40.61627710319326" lon="14.992554512674726"><ele>157.0</ele><time>2026-04-19T07:38:44.863Z</time></trkpt><trkpt lat="40.61617565161035" lon="14.992605015880981"><ele>159.39999999999998</ele><time>2026-04-19T07:38:45.863Z</time></trkpt><trkpt lat="40.616077816969046" lon="14.992669438561654"><ele>161.79999999999998</ele><time>2026-04-19T07:38:46.863Z</time></trkpt><trkpt lat="40.615986822896936" lon="14.992761393175728"><ele>164.2</ele><time>2026-04-19T07:38:47.863Z</time></trkpt><trkpt lat="40.61589604268547" lon="14.99283157648567"><ele>166.6</ele><time>2026-04-19T07:38:48.863Z</time></trkpt><trkpt lat="40.615795630370926" lon="14.99290176224413"><ele>169.0</ele><time>2026-04-19T07:38:49.863Z</time></trkpt><trkpt lat="40.61570530977033" lon="14.992966480232349"><ele>169.0</ele><time>2026-04-19T07:38:50.863Z</time></trkpt><trkpt lat="40.61561547476644" lon="14.993039661436157"><ele>169.0</ele><time>2026-04-19T07:38:51.863Z</time></trkpt><trkpt lat="40.615526871791204" lon="14.99312807857474"><ele>169.0</ele><time>2026-04-19T07:38:52.863Z</time></trkpt><trkpt lat="40.61543125370656" lon="14.993244212456517"><ele>169.0</ele><time>2026-04-19T07:38:53.863Z</time></trkpt><trkpt lat="40.615344565731306" lon="14.993363240762445"><ele>169.39999999999998</ele><time>2026-04-19T07:38:54.863Z</time></trkpt><trkpt lat="40.61525787834921" lon="14.993465839712862"><ele>169.8</ele><time>2026-04-19T07:38:55.863Z</time></trkpt><trkpt lat="40.61518828146377" lon="14.993552905096376"><ele>170.2</ele><time>2026-04-19T07:38:56.863Z</time></trkpt><trkpt lat="40.615138580212204" lon="14.99366577440475"><ele>170.60000000000002</ele><time>2026-04-19T07:38:57.863Z</time></trkpt><trkpt lat="40.61508098902965" lon="14.993791251131997"><ele>171.0</ele><time>2026-04-19T07:38:58.863Z</time></trkpt><trkpt lat="40.61502776688532" lon="14.99390016992571"><ele>171.0</ele><time>2026-04-19T07:38:59.863Z</time></trkpt><trkpt lat="40.61499070088017" lon="14.994005613393753"><ele>171.0</ele><time>2026-04-19T07:39:00.864Z</time></trkpt><trkpt lat="40.614954574468214" lon="14.994091943459154"><ele>171.0</ele><time>2026-04-19T07:39:01.864Z</time></trkpt><trkpt lat="40.61488243301593" lon="14.994248017577167"><ele>171.0</ele><time>2026-04-19T07:39:03.864Z</time></trkpt><trkpt lat="40.614838359891166" lon="14.99435234342301"><ele>171.0</ele><time>2026-04-19T07:39:04.864Z</time></trkpt><trkpt lat="40.61479410003437" lon="14.994468363228439"><ele>172.4</ele><time>2026-04-19T07:39:05.864Z</time></trkpt><trkpt lat="40.61477816600131" lon="14.994595883257217"><ele>173.8</ele><time>2026-04-19T07:39:06.863Z</time></trkpt><trkpt lat="40.614746327152176" lon="14.994701976067653"><ele>175.20000000000002</ele><time>2026-04-19T07:39:07.863Z</time></trkpt><trkpt lat="40.6147192898412" lon="14.994808209366894"><ele>176.60000000000002</ele><time>2026-04-19T07:39:08.864Z</time></trkpt><trkpt lat="40.61470228879247" lon="14.994895365416419"><ele>178.0</ele><time>2026-04-19T07:39:09.863Z</time></trkpt><trkpt lat="40.61465519968135" lon="14.995041055617127"><ele>178.83333333333334</ele><time>2026-04-19T07:39:11.864Z</time></trkpt><trkpt lat="40.61462121038794" lon="14.99513239208174"><ele>179.66666666666669</ele><time>2026-04-19T07:39:12.863Z</time></trkpt><trkpt lat="40.61458288119547" lon="14.995226115836306"><ele>180.5</ele><time>2026-04-19T07:39:13.863Z</time></trkpt><trkpt lat="40.61455434794588" lon="14.995342684814789"><ele>181.33333333333334</ele><time>2026-04-19T07:39:14.863Z</time></trkpt><trkpt lat="40.61453357065109" lon="14.995456630983957"><ele>182.16666666666666</ele><time>2026-04-19T07:39:15.863Z</time></trkpt><trkpt lat="40.61452132495172" lon="14.995567523952227"><ele>183.0</ele><time>2026-04-19T07:39:16.863Z</time></trkpt><trkpt lat="40.61450871936919" lon="14.995677389929142"><ele>183.0</ele><time>2026-04-19T07:39:17.863Z</time></trkpt><trkpt lat="40.61450233008531" lon="14.995771625680575"><ele>183.0</ele><time>2026-04-19T07:39:18.863Z</time></trkpt><trkpt lat="40.614498972722956" lon="14.995863905449774"><ele>183.0</ele><time>2026-04-19T07:39:19.863Z</time></trkpt><trkpt lat="40.614487895789864" lon="14.99595516014129"><ele>183.0</ele><time>2026-04-19T07:39:20.863Z</time></trkpt><trkpt lat="40.61446230945814" lon="14.996033748419169"><ele>183.0</ele><time>2026-04-19T07:39:21.863Z</time></trkpt><trkpt lat="40.614436113324054" lon="14.996117135667424"><ele>183.0</ele><time>2026-04-19T07:39:22.863Z</time></trkpt><trkpt lat="40.61439889179445" lon="14.996203383316372"><ele>183.0</ele><time>2026-04-19T07:39:23.863Z</time></trkpt><trkpt lat="40.614349666720514" lon="14.996275554040848"><ele>181.33333333333334</ele><time>2026-04-19T07:39:24.863Z</time></trkpt><trkpt lat="40.614302165099694" lon="14.996376834988448"><ele>179.66666666666666</ele><time>2026-04-19T07:39:25.863Z</time></trkpt><trkpt lat="40.614267754086974" lon="14.99646997469793"><ele>178.0</ele><time>2026-04-19T07:39:26.863Z</time></trkpt><trkpt lat="40.61423565285577" lon="14.99655482962648"><ele>176.33333333333331</ele><time>2026-04-19T07:39:27.863Z</time></trkpt><trkpt lat="40.61419937377396" lon="14.996642389393275"><ele>174.66666666666666</ele><time>2026-04-19T07:39:28.863Z</time></trkpt><trkpt lat="40.614158710545034" lon="14.996727113907388"><ele>173.0</ele><time>2026-04-19T07:39:29.863Z</time></trkpt><trkpt lat="40.61411910652409" lon="14.996827227488016"><ele>173.0</ele><time>2026-04-19T07:39:30.863Z</time></trkpt><trkpt lat="40.61407956347345" lon="14.996943925980633"><ele>173.0</ele><time>2026-04-19T07:39:31.863Z</time></trkpt><trkpt lat="40.614056367997726" lon="14.997055721382637"><ele>173.0</ele><time>2026-04-19T07:39:32.863Z</time></trkpt><trkpt lat="40.61401613407264" lon="14.99714419361985"><ele>173.0</ele><time>2026-04-19T07:39:33.863Z</time></trkpt><trkpt lat="40.613973657212625" lon="14.99724256161545"><ele>173.0</ele><time>2026-04-19T07:39:34.863Z</time></trkpt><trkpt lat="40.61394726363072" lon="14.997328214745037"><ele>173.0</ele><time>2026-04-19T07:39:35.863Z</time></trkpt><trkpt lat="40.61391199764881" lon="14.99742855079473"><ele>174.33333333333331</ele><time>2026-04-19T07:39:36.863Z</time></trkpt><trkpt lat="40.61389552396652" lon="14.997516280250696"><ele>175.66666666666666</ele><time>2026-04-19T07:39:37.863Z</time></trkpt><trkpt lat="40.613887254993266" lon="14.997616667245296"><ele>177.0</ele><time>2026-04-19T07:39:38.863Z</time></trkpt><trkpt lat="40.61387395391656" lon="14.997712026945546"><ele>178.33333333333334</ele><time>2026-04-19T07:39:39.863Z</time></trkpt><trkpt lat="40.61384504981484" lon="14.99782469085558"><ele>179.66666666666669</ele><time>2026-04-19T07:39:40.863Z</time></trkpt><trkpt lat="40.61382062953444" lon="14.9979215712427"><ele>181.0</ele><time>2026-04-19T07:39:41.863Z</time></trkpt><trkpt lat="40.61378929026931" lon="14.998016790321547"><ele>181.0</ele><time>2026-04-19T07:39:42.863Z</time></trkpt><trkpt lat="40.613761770226084" lon="14.998108330363733"><ele>181.0</ele><time>2026-04-19T07:39:43.863Z</time></trkpt><trkpt lat="40.613729303344094" lon="14.998200848624652"><ele>181.0</ele><time>2026-04-19T07:39:44.863Z</time></trkpt><trkpt lat="40.613669847788664" lon="14.998353136795425"><ele>181.0</ele><time>2026-04-19T07:39:46.863Z</time></trkpt><trkpt lat="40.613615091565045" lon="14.998497757419054"><ele>181.0</ele><time>2026-04-19T07:39:48.863Z</time></trkpt><trkpt lat="40.61359286829711" lon="14.998576188330135"><ele>178.0</ele><time>2026-04-19T07:39:49.863Z</time></trkpt><trkpt lat="40.6135604336431" lon="14.998740456020721"><ele>175.0</ele><time>2026-04-19T07:39:51.863Z</time></trkpt><trkpt lat="40.613538328270415" lon="14.998834727302265"><ele>172.0</ele><time>2026-04-19T07:39:52.863Z</time></trkpt><trkpt lat="40.61350106258458" lon="14.998932376710057"><ele>169.0</ele><time>2026-04-19T07:39:53.863Z</time></trkpt><trkpt lat="40.61348145349394" lon="14.99904497941019"><ele>166.0</ele><time>2026-04-19T07:39:54.863Z</time></trkpt><trkpt lat="40.61346254090449" lon="14.999144426790753"><ele>166.5</ele><time>2026-04-19T07:39:55.863Z</time></trkpt><trkpt lat="40.613443059386455" lon="14.999262264066793"><ele>167.0</ele><time>2026-04-19T07:39:56.863Z</time></trkpt><trkpt lat="40.613433440232654" lon="14.999370740341998"><ele>167.5</ele><time>2026-04-19T07:39:57.863Z</time></trkpt><trkpt lat="40.61339989911927" lon="14.999470277662326"><ele>168.0</ele><time>2026-04-19T07:39:58.863Z</time></trkpt><trkpt lat="40.61336795972902" lon="14.999587594350059"><ele>168.5</ele><time>2026-04-19T07:39:59.863Z</time></trkpt><trkpt lat="40.61333812712766" lon="14.999700812136618"><ele>169.0</ele><time>2026-04-19T07:40:00.863Z</time></trkpt><trkpt lat="40.61332312474179" lon="14.999806444205197"><ele>169.0</ele><time>2026-04-19T07:40:01.863Z</time></trkpt><trkpt lat="40.61332135081486" lon="14.999891010870499"><ele>169.0</ele><time>2026-04-19T07:40:02.863Z</time></trkpt><trkpt lat="40.61332118252205" lon="15.000061095531889"><ele>169.0</ele><time>2026-04-19T07:40:04.863Z</time></trkpt><trkpt lat="40.613320383534514" lon="15.000177160690633"><ele>169.0</ele><time>2026-04-19T07:40:05.863Z</time></trkpt><trkpt lat="40.61331805471785" lon="15.000283985748034"><ele>169.0</ele><time>2026-04-19T07:40:06.863Z</time></trkpt><trkpt lat="40.61331119142174" lon="15.000380160019722"><ele>169.0</ele><time>2026-04-19T07:40:07.863Z</time></trkpt><trkpt lat="40.613297565596106" lon="15.000475853810704"><ele>169.0</ele><time>2026-04-19T07:40:08.863Z</time></trkpt><trkpt lat="40.61327669715764" lon="15.000587333190664"><ele>169.0</ele><time>2026-04-19T07:40:09.863Z</time></trkpt><trkpt lat="40.61325729101768" lon="15.00068379994396"><ele>169.0</ele><time>2026-04-19T07:40:10.863Z</time></trkpt><trkpt lat="40.613235913312174" lon="15.00078408716269"><ele>169.0</ele><time>2026-04-19T07:40:11.863Z</time></trkpt><trkpt lat="40.61321641663553" lon="15.000875801327519"><ele>169.0</ele><time>2026-04-19T07:40:12.863Z</time></trkpt><trkpt lat="40.6131955212123" lon="15.000976296378436"><ele>169.0</ele><time>2026-04-19T07:40:13.863Z</time></trkpt><trkpt lat="40.61317234597524" lon="15.001087755972332"><ele>169.5</ele><time>2026-04-19T07:40:14.863Z</time></trkpt><trkpt lat="40.613143355921586" lon="15.001200097837858"><ele>170.0</ele><time>2026-04-19T07:40:15.863Z</time></trkpt><trkpt lat="40.61311880293747" lon="15.001285261553907"><ele>170.5</ele><time>2026-04-19T07:40:16.863Z</time></trkpt><trkpt lat="40.61309607972986" lon="15.001388858465686"><ele>171.0</ele><time>2026-04-19T07:40:17.863Z</time></trkpt><trkpt lat="40.613075024935185" lon="15.001501997117995"><ele>171.5</ele><time>2026-04-19T07:40:18.863Z</time></trkpt><trkpt lat="40.61305640455154" lon="15.001614341483107"><ele>172.0</ele><time>2026-04-19T07:40:19.863Z</time></trkpt><trkpt lat="40.61305436579299" lon="15.001740990621753"><ele>172.5</ele><time>2026-04-19T07:40:20.863Z</time></trkpt><trkpt lat="40.613038726920536" lon="15.001862237787847"><ele>173.0</ele><time>2026-04-19T07:40:21.863Z</time></trkpt><trkpt lat="40.613011382514344" lon="15.001975501805596"><ele>173.5</ele><time>2026-04-19T07:40:22.863Z</time></trkpt><trkpt lat="40.612989978818035" lon="15.002087761633064"><ele>174.0</ele><time>2026-04-19T07:40:23.863Z</time></trkpt><trkpt lat="40.61296209943948" lon="15.002194943657123"><ele>174.5</ele><time>2026-04-19T07:40:24.863Z</time></trkpt><trkpt lat="40.61293876830754" lon="15.002301848956462"><ele>175.0</ele><time>2026-04-19T07:40:25.863Z</time></trkpt><trkpt lat="40.612918700066245" lon="15.002384334523942"><ele>175.5</ele><time>2026-04-19T07:40:26.863Z</time></trkpt><trkpt lat="40.612899615098655" lon="15.002503981178007"><ele>176.0</ele><time>2026-04-19T07:40:28.863Z</time></trkpt><trkpt lat="40.612885962739384" lon="15.002598323181074"><ele>176.5</ele><time>2026-04-19T07:40:30.863Z</time></trkpt><trkpt lat="40.61286985885765" lon="15.002708598890836"><ele>177.0</ele><time>2026-04-19T07:40:33.863Z</time></trkpt><trkpt lat="40.61284164673369" lon="15.0028058441953"><ele>177.5</ele><time>2026-04-19T07:40:35.863Z</time></trkpt><trkpt lat="40.61281292114869" lon="15.002918956614446"><ele>178.0</ele><time>2026-04-19T07:40:37.863Z</time></trkpt><trkpt lat="40.61279452261658" lon="15.003032883482962"><ele>174.33333333333334</ele><time>2026-04-19T07:40:39.863Z</time></trkpt><trkpt lat="40.61277666655382" lon="15.003119017962142"><ele>170.66666666666669</ele><time>2026-04-19T07:40:41.863Z</time></trkpt><trkpt lat="40.612758882952676" lon="15.003241959284413"><ele>167.0</ele><time>2026-04-19T07:40:43.863Z</time></trkpt><trkpt lat="40.61275453126056" lon="15.003373986051477"><ele>163.33333333333334</ele><time>2026-04-19T07:40:45.863Z</time></trkpt><trkpt lat="40.612740894080204" lon="15.003458832017103"><ele>159.66666666666666</ele><time>2026-04-19T07:40:46.863Z</time></trkpt><trkpt lat="40.6127339680404" lon="15.003555729908566"><ele>156.0</ele><time>2026-04-19T07:40:47.863Z</time></trkpt><trkpt lat="40.61273800130374" lon="15.003648413975341"><ele>156.0</ele><time>2026-04-19T07:40:48.863Z</time></trkpt><trkpt lat="40.61274350774389" lon="15.003745090523578"><ele>156.0</ele><time>2026-04-19T07:40:49.863Z</time></trkpt><trkpt lat="40.61273557292508" lon="15.003913284052445"><ele>156.0</ele><time>2026-04-19T07:40:51.863Z</time></trkpt><trkpt lat="40.61272254105164" lon="15.004067480951074"><ele>156.0</ele><time>2026-04-19T07:40:53.863Z</time></trkpt><trkpt lat="40.61269601918689" lon="15.004221006247104"><ele>156.0</ele><time>2026-04-19T07:40:55.864Z</time></trkpt><trkpt lat="40.612678320274405" lon="15.004304414351274"><ele>156.5</ele><time>2026-04-19T07:40:56.864Z</time></trkpt><trkpt lat="40.61266200331479" lon="15.00439876507244"><ele>157.0</ele><time>2026-04-19T07:40:57.864Z</time></trkpt><trkpt lat="40.612641789273965" lon="15.004487961031211"><ele>157.5</ele><time>2026-04-19T07:40:58.864Z</time></trkpt><trkpt lat="40.61262963130629" lon="15.004576890749481"><ele>158.0</ele><time>2026-04-19T07:40:59.864Z</time></trkpt><trkpt lat="40.61261895675584" lon="15.004727599468588"><ele>158.5</ele><time>2026-04-19T07:41:01.864Z</time></trkpt><trkpt lat="40.61261413570171" lon="15.004818145897534"><ele>159.0</ele><time>2026-04-19T07:41:02.864Z</time></trkpt><trkpt lat="40.61262961990386" lon="15.004952039902921"><ele>158.83333333333334</ele><time>2026-04-19T07:41:04.864Z</time></trkpt><trkpt lat="40.61265062432176" lon="15.00505626358804"><ele>158.66666666666666</ele><time>2026-04-19T07:41:07.865Z</time></trkpt><trkpt lat="40.6126552769417" lon="15.0051441483623"><ele>158.5</ele><time>2026-04-19T07:41:09.864Z</time></trkpt><trkpt lat="40.612655500123005" lon="15.005230651411486"><ele>158.33333333333331</ele><time>2026-04-19T07:41:12.864Z</time></trkpt><trkpt lat="40.61263842947351" lon="15.005324370678366"><ele>158.16666666666666</ele><time>2026-04-19T07:41:14.864Z</time></trkpt><trkpt lat="40.61262730574793" lon="15.00544786788321"><ele>158.0</ele><time>2026-04-19T07:41:17.864Z</time></trkpt><trkpt lat="40.612614823422135" lon="15.005552480512376"><ele>158.0</ele><time>2026-04-19T07:41:19.864Z</time></trkpt><trkpt lat="40.612603037952034" lon="15.00566821630646"><ele>158.0</ele><time>2026-04-19T07:41:21.864Z</time></trkpt><trkpt lat="40.6125918600775" lon="15.005777929323342"><ele>158.0</ele><time>2026-04-19T07:41:23.864Z</time></trkpt><trkpt lat="40.612571979847935" lon="15.005898226119939"><ele>158.0</ele><time>2026-04-19T07:41:25.864Z</time></trkpt><trkpt lat="40.612545507779124" lon="15.006019952819294"><ele>158.0</ele><time>2026-04-19T07:41:27.864Z</time></trkpt><trkpt lat="40.61250914265181" lon="15.006129526659981"><ele>157.8</ele><time>2026-04-19T07:41:29.864Z</time></trkpt><trkpt lat="40.612483164163805" lon="15.006269279739183"><ele>157.60000000000002</ele><time>2026-04-19T07:41:31.864Z</time></trkpt><trkpt lat="40.61246838162362" lon="15.006353473244404"><ele>157.39999999999998</ele><time>2026-04-19T07:41:32.864Z</time></trkpt><trkpt lat="40.612445481669326" lon="15.006467135292395"><ele>157.2</ele><time>2026-04-19T07:41:33.864Z</time></trkpt><trkpt lat="40.61240828695545" lon="15.00663958759543"><ele>157.0</ele><time>2026-04-19T07:41:35.864Z</time></trkpt><trkpt lat="40.612380486693816" lon="15.006718949422984"><ele>157.0</ele><time>2026-04-19T07:41:36.864Z</time></trkpt><trkpt lat="40.612362754908574" lon="15.006799328139252"><ele>157.0</ele><time>2026-04-19T07:41:37.864Z</time></trkpt><trkpt lat="40.612344733677475" lon="15.006900484963063"><ele>157.0</ele><time>2026-04-19T07:41:38.864Z</time></trkpt><trkpt lat="40.6123267641591" lon="15.007011939078081"><ele>157.0</ele><time>2026-04-19T07:41:39.864Z</time></trkpt><trkpt lat="40.612299947328026" lon="15.007132217677341"><ele>157.0</ele><time>2026-04-19T07:41:40.864Z</time></trkpt><trkpt lat="40.61227010525093" lon="15.00725824093145"><ele>157.0</ele><time>2026-04-19T07:41:41.864Z</time></trkpt><trkpt lat="40.612222621355" lon="15.007384811905283"><ele>157.2</ele><time>2026-04-19T07:41:42.864Z</time></trkpt><trkpt lat="40.612191343032514" lon="15.007511482749075"><ele>157.39999999999998</ele><time>2026-04-19T07:41:43.864Z</time></trkpt><trkpt lat="40.61216153483204" lon="15.007632199834509"><ele>157.60000000000002</ele><time>2026-04-19T07:41:44.864Z</time></trkpt><trkpt lat="40.612130009214376" lon="15.007759872134464"><ele>157.8</ele><time>2026-04-19T07:41:45.864Z</time></trkpt><trkpt lat="40.61209834162332" lon="15.007888119466925"><ele>158.0</ele><time>2026-04-19T07:41:46.864Z</time></trkpt><trkpt lat="40.61206241491416" lon="15.008013753833298"><ele>158.0</ele><time>2026-04-19T07:41:47.864Z</time></trkpt><trkpt lat="40.61202456664884" lon="15.008138368560681"><ele>158.0</ele><time>2026-04-19T07:41:48.864Z</time></trkpt><trkpt lat="40.61198674693613" lon="15.008283937228535"><ele>158.0</ele><time>2026-04-19T07:41:49.864Z</time></trkpt><trkpt lat="40.61194287376924" lon="15.008438598537248"><ele>158.0</ele><time>2026-04-19T07:41:50.864Z</time></trkpt><trkpt lat="40.611904210907" lon="15.00858723188572"><ele>154.0</ele><time>2026-04-19T07:41:51.864Z</time></trkpt><trkpt lat="40.61186112021773" lon="15.008732184085744"><ele>150.0</ele><time>2026-04-19T07:41:52.864Z</time></trkpt><trkpt lat="40.6118114135304" lon="15.00890848464094"><ele>146.0</ele><time>2026-04-19T07:41:53.864Z</time></trkpt><trkpt lat="40.61178421949398" lon="15.009079647787651"><ele>142.0</ele><time>2026-04-19T07:41:54.864Z</time></trkpt><trkpt lat="40.6117513618856" lon="15.009246274757935"><ele>141.75</ele><time>2026-04-19T07:41:55.864Z</time></trkpt><trkpt lat="40.61171931715409" lon="15.00938991884366"><ele>141.5</ele><time>2026-04-19T07:41:56.864Z</time></trkpt><trkpt lat="40.61168946667848" lon="15.009525951894881"><ele>141.25</ele><time>2026-04-19T07:41:57.864Z</time></trkpt><trkpt lat="40.61162948769101" lon="15.009685153181563"><ele>141.0</ele><time>2026-04-19T07:41:58.864Z</time></trkpt><trkpt lat="40.611594559203745" lon="15.009817840578451"><ele>141.0</ele><time>2026-04-19T07:41:59.864Z</time></trkpt><trkpt lat="40.61157437275592" lon="15.009945164872834"><ele>141.0</ele><time>2026-04-19T07:42:00.864Z</time></trkpt><trkpt lat="40.61153951298632" lon="15.010060279230284"><ele>141.0</ele><time>2026-04-19T07:42:01.864Z</time></trkpt><trkpt lat="40.611515566995564" lon="15.010165601238004"><ele>141.0</ele><time>2026-04-19T07:42:02.864Z</time></trkpt><trkpt lat="40.61149810471163" lon="15.01028988186425"><ele>141.0</ele><time>2026-04-19T07:42:03.864Z</time></trkpt><trkpt lat="40.61148383408554" lon="15.010406978802708"><ele>141.75</ele><time>2026-04-19T07:42:04.864Z</time></trkpt><trkpt lat="40.61147312006264" lon="15.010565487668307"><ele>142.5</ele><time>2026-04-19T07:42:05.864Z</time></trkpt><trkpt lat="40.6114615195574" lon="15.010714476058425"><ele>143.25</ele><time>2026-04-19T07:42:06.864Z</time></trkpt><trkpt lat="40.61144920724849" lon="15.010868168137929"><ele>144.0</ele><time>2026-04-19T07:42:07.864Z</time></trkpt><trkpt lat="40.61144864431405" lon="15.01101139299163"><ele>144.0</ele><time>2026-04-19T07:42:08.864Z</time></trkpt><trkpt lat="40.61144901068117" lon="15.01117218920765"><ele>144.0</ele><time>2026-04-19T07:42:09.864Z</time></trkpt><trkpt lat="40.6114381222209" lon="15.011338220631696"><ele>144.0</ele><time>2026-04-19T07:42:10.864Z</time></trkpt><trkpt lat="40.61142367426303" lon="15.01151986014938"><ele>144.0</ele><time>2026-04-19T07:42:11.864Z</time></trkpt><trkpt lat="40.61140357970931" lon="15.011703417072027"><ele>144.0</ele><time>2026-04-19T07:42:12.864Z</time></trkpt><trkpt lat="40.61138373152157" lon="15.011876678453797"><ele>144.0</ele><time>2026-04-19T07:42:13.864Z</time></trkpt><trkpt lat="40.611360885382354" lon="15.012055840381114"><ele>144.0</ele><time>2026-04-19T07:42:14.864Z</time></trkpt><trkpt lat="40.611333850382174" lon="15.012219092924466"><ele>144.0</ele><time>2026-04-19T07:42:15.864Z</time></trkpt><trkpt lat="40.611296506164294" lon="15.012395928646253"><ele>145.5</ele><time>2026-04-19T07:42:16.864Z</time></trkpt><trkpt lat="40.61127394023836" lon="15.012559874759537"><ele>147.0</ele><time>2026-04-19T07:42:17.864Z</time></trkpt><trkpt lat="40.61124787075925" lon="15.012735105978358"><ele>148.5</ele><time>2026-04-19T07:42:18.864Z</time></trkpt><trkpt lat="40.61122580681342" lon="15.012891109409345"><ele>150.0</ele><time>2026-04-19T07:42:19.864Z</time></trkpt><trkpt lat="40.61118784374074" lon="15.013045886655648"><ele>147.75</ele><time>2026-04-19T07:42:20.864Z</time></trkpt><trkpt lat="40.61114618021631" lon="15.013217057309221"><ele>145.5</ele><time>2026-04-19T07:42:21.864Z</time></trkpt><trkpt lat="40.611109982703084" lon="15.013389370015835"><ele>143.25</ele><time>2026-04-19T07:42:22.864Z</time></trkpt><trkpt lat="40.611074616989306" lon="15.013562635302117"><ele>141.0</ele><time>2026-04-19T07:42:23.864Z</time></trkpt><trkpt lat="40.611045762141885" lon="15.01372261330602"><ele>141.0</ele><time>2026-04-19T07:42:24.864Z</time></trkpt><trkpt lat="40.610998683489925" lon="15.013896778760161"><ele>141.0</ele><time>2026-04-19T07:42:25.864Z</time></trkpt><trkpt lat="40.61095224537916" lon="15.014079986389808"><ele>141.0</ele><time>2026-04-19T07:42:26.864Z</time></trkpt><trkpt lat="40.610910543296505" lon="15.01424646239256"><ele>141.0</ele><time>2026-04-19T07:42:27.864Z</time></trkpt><trkpt lat="40.61086348248447" lon="15.014398978412606"><ele>141.0</ele><time>2026-04-19T07:42:28.864Z</time></trkpt><trkpt lat="40.61082108784847" lon="15.014542239152338"><ele>141.0</ele><time>2026-04-19T07:42:29.864Z</time></trkpt><trkpt lat="40.61078507446805" lon="15.014664565107637"><ele>141.0</ele><time>2026-04-19T07:42:30.864Z</time></trkpt><trkpt lat="40.61075861742145" lon="15.014776106372745"><ele>141.0</ele><time>2026-04-19T07:42:31.864Z</time></trkpt><trkpt lat="40.610725495652325" lon="15.01488712847202"><ele>141.0</ele><time>2026-04-19T07:42:32.864Z</time></trkpt><trkpt lat="40.610682137904234" lon="15.014985692067814"><ele>141.0</ele><time>2026-04-19T07:42:33.864Z</time></trkpt><trkpt lat="40.610646273672685" lon="15.015099139383624"><ele>141.0</ele><time>2026-04-19T07:42:34.864Z</time></trkpt><trkpt lat="40.610618470074286" lon="15.015212874128688"><ele>141.0</ele><time>2026-04-19T07:42:35.864Z</time></trkpt><trkpt lat="40.610590569551285" lon="15.01532362148784"><ele>141.0</ele><time>2026-04-19T07:42:36.864Z</time></trkpt><trkpt lat="40.610563277310966" lon="15.01542458069177"><ele>141.0</ele><time>2026-04-19T07:42:37.864Z</time></trkpt><trkpt lat="40.610538123009526" lon="15.015530848302909"><ele>141.0</ele><time>2026-04-19T07:42:38.864Z</time></trkpt><trkpt lat="40.610518076712026" lon="15.015617967858503"><ele>141.0</ele><time>2026-04-19T07:42:39.864Z</time></trkpt><trkpt lat="40.61049589819003" lon="15.015721806514012"><ele>141.0</ele><time>2026-04-19T07:42:40.864Z</time></trkpt><trkpt lat="40.61047410281683" lon="15.015818965166703"><ele>141.0</ele><time>2026-04-19T07:42:41.864Z</time></trkpt><trkpt lat="40.61044614914386" lon="15.015912159262552"><ele>141.0</ele><time>2026-04-19T07:42:42.864Z</time></trkpt><trkpt lat="40.61042049550383" lon="15.016020126686593"><ele>141.0</ele><time>2026-04-19T07:42:43.864Z</time></trkpt><trkpt lat="40.61039452250726" lon="15.016121507724685"><ele>141.0</ele><time>2026-04-19T07:42:44.864Z</time></trkpt><trkpt lat="40.61036827760085" lon="15.016204737826609"><ele>141.2</ele><time>2026-04-19T07:42:45.864Z</time></trkpt><trkpt lat="40.610332206803086" lon="15.016341779982874"><ele>141.39999999999998</ele><time>2026-04-19T07:42:47.864Z</time></trkpt><trkpt lat="40.61029084476971" lon="15.016475481842352"><ele>141.6</ele><time>2026-04-19T07:42:49.864Z</time></trkpt><trkpt lat="40.61026019690365" lon="15.016594499706832"><ele>141.79999999999998</ele><time>2026-04-19T07:42:51.864Z</time></trkpt><trkpt lat="40.61023597367657" lon="15.016755259505636"><ele>142.0</ele><time>2026-04-19T07:42:53.864Z</time></trkpt><trkpt lat="40.61022482985718" lon="15.016846301060168"><ele>143.2</ele><time>2026-04-19T07:42:54.864Z</time></trkpt><trkpt lat="40.610190173140396" lon="15.016941716379751"><ele>144.39999999999998</ele><time>2026-04-19T07:42:55.864Z</time></trkpt><trkpt lat="40.61016376683672" lon="15.017042006618128"><ele>145.60000000000002</ele><time>2026-04-19T07:42:56.864Z</time></trkpt><trkpt lat="40.61015299452047" lon="15.017163133953359"><ele>146.8</ele><time>2026-04-19T07:42:57.864Z</time></trkpt><trkpt lat="40.61014944680107" lon="15.017303040263009"><ele>148.0</ele><time>2026-04-19T07:42:58.864Z</time></trkpt><trkpt lat="40.61016619948942" lon="15.017429645827026"><ele>148.0</ele><time>2026-04-19T07:42:59.864Z</time></trkpt><trkpt lat="40.610153887547355" lon="15.01760703021437"><ele>148.0</ele><time>2026-04-19T07:43:00.864Z</time></trkpt><trkpt lat="40.61015437632426" lon="15.017769503960412"><ele>148.0</ele><time>2026-04-19T07:43:01.864Z</time></trkpt><trkpt lat="40.61015287764955" lon="15.0179425745545"><ele>148.0</ele><time>2026-04-19T07:43:02.864Z</time></trkpt><trkpt lat="40.610157409636706" lon="15.018096028393071"><ele>148.0</ele><time>2026-04-19T07:43:03.864Z</time></trkpt><trkpt lat="40.61015372717104" lon="15.018224910851293"><ele>148.0</ele><time>2026-04-19T07:43:04.864Z</time></trkpt><trkpt lat="40.61013085917851" lon="15.018373193477373"><ele>148.0</ele><time>2026-04-19T07:43:05.864Z</time></trkpt><trkpt lat="40.61011116606604" lon="15.018501310456877"><ele>148.0</ele><time>2026-04-19T07:43:06.864Z</time></trkpt><trkpt lat="40.61011191650926" lon="15.01864511748204"><ele>148.0</ele><time>2026-04-19T07:43:07.864Z</time></trkpt><trkpt lat="40.61009069834328" lon="15.018828570422967"><ele>148.0</ele><time>2026-04-19T07:43:08.864Z</time></trkpt><trkpt lat="40.61005589654317" lon="15.019006632941897"><ele>148.0</ele><time>2026-04-19T07:43:09.864Z</time></trkpt><trkpt lat="40.610043350505855" lon="15.019179716341071"><ele>148.0</ele><time>2026-04-19T07:43:10.865Z</time></trkpt><trkpt lat="40.61004621519276" lon="15.019351850203103"><ele>148.0</ele><time>2026-04-19T07:43:11.865Z</time></trkpt><trkpt lat="40.61001119000901" lon="15.019520598185279"><ele>148.75</ele><time>2026-04-19T07:43:12.865Z</time></trkpt><trkpt lat="40.60999429305357" lon="15.01969944470575"><ele>149.5</ele><time>2026-04-19T07:43:13.866Z</time></trkpt><trkpt lat="40.60997962106744" lon="15.019864807221076"><ele>150.25</ele><time>2026-04-19T07:43:14.865Z</time></trkpt><trkpt lat="40.60995864565071" lon="15.020062721770339"><ele>151.0</ele><time>2026-04-19T07:43:15.865Z</time></trkpt><trkpt lat="40.609951751469815" lon="15.020261234390372"><ele>151.5</ele><time>2026-04-19T07:43:16.865Z</time></trkpt><trkpt lat="40.60993978493526" lon="15.020467380010956"><ele>152.0</ele><time>2026-04-19T07:43:17.865Z</time></trkpt><trkpt lat="40.60992281084002" lon="15.020665468182175"><ele>152.5</ele><time>2026-04-19T07:43:18.865Z</time></trkpt><trkpt lat="40.609918324642756" lon="15.020843343409013"><ele>153.0</ele><time>2026-04-19T07:43:19.865Z</time></trkpt><trkpt lat="40.60990609052317" lon="15.02103689123098"><ele>153.5</ele><time>2026-04-19T07:43:20.865Z</time></trkpt><trkpt lat="40.609894027762635" lon="15.02121768657806"><ele>154.0</ele><time>2026-04-19T07:43:21.865Z</time></trkpt><trkpt lat="40.609881149666805" lon="15.02140230183297"><ele>154.5</ele><time>2026-04-19T07:43:22.865Z</time></trkpt><trkpt lat="40.60986435527183" lon="15.021578495069976"><ele>155.0</ele><time>2026-04-19T07:43:23.865Z</time></trkpt><trkpt lat="40.60985190901243" lon="15.02173556534926"><ele>155.4</ele><time>2026-04-19T07:43:24.865Z</time></trkpt><trkpt lat="40.60983647993418" lon="15.021868722495121"><ele>155.8</ele><time>2026-04-19T07:43:25.865Z</time></trkpt><trkpt lat="40.60982470890928" lon="15.022005840537634"><ele>156.2</ele><time>2026-04-19T07:43:26.865Z</time></trkpt><trkpt lat="40.60981500104872" lon="15.022126073273471"><ele>156.6</ele><time>2026-04-19T07:43:27.865Z</time></trkpt><trkpt lat="40.60980865695053" lon="15.022262839005174"><ele>157.0</ele><time>2026-04-19T07:43:28.865Z</time></trkpt><trkpt lat="40.60980803718583" lon="15.022415069066717"><ele>157.25</ele><time>2026-04-19T07:43:29.865Z</time></trkpt><trkpt lat="40.609814000846065" lon="15.022588638022311"><ele>157.5</ele><time>2026-04-19T07:43:30.865Z</time></trkpt><trkpt lat="40.60983257936546" lon="15.022748387356893"><ele>157.75</ele><time>2026-04-19T07:43:31.865Z</time></trkpt><trkpt lat="40.6098420206034" lon="15.022918385061129"><ele>158.0</ele><time>2026-04-19T07:43:32.865Z</time></trkpt><trkpt lat="40.60985373568685" lon="15.023108051868356"><ele>158.0</ele><time>2026-04-19T07:43:33.865Z</time></trkpt><trkpt lat="40.60986659696196" lon="15.023277851892699"><ele>158.0</ele><time>2026-04-19T07:43:34.865Z</time></trkpt><trkpt lat="40.609885962834845" lon="15.023427429722442"><ele>158.0</ele><time>2026-04-19T07:43:35.865Z</time></trkpt><trkpt lat="40.609890567953165" lon="15.02358249725606"><ele>158.0</ele><time>2026-04-19T07:43:36.865Z</time></trkpt><trkpt lat="40.60989962931617" lon="15.023724758199268"><ele>158.0</ele><time>2026-04-19T07:43:37.865Z</time></trkpt><trkpt lat="40.60991365603318" lon="15.023855058432634"><ele>158.0</ele><time>2026-04-19T07:43:38.865Z</time></trkpt><trkpt lat="40.60992639608338" lon="15.023957663021445"><ele>158.0</ele><time>2026-04-19T07:43:39.865Z</time></trkpt><trkpt lat="40.609942166537024" lon="15.024041144405983"><ele>158.0</ele><time>2026-04-19T07:43:40.865Z</time></trkpt><trkpt lat="40.60992898161737" lon="15.024140482332202"><ele>158.0</ele><time>2026-04-19T07:43:41.865Z</time></trkpt><trkpt lat="40.609938532014986" lon="15.024240450052773"><ele>158.0</ele><time>2026-04-19T07:43:43.865Z</time></trkpt><trkpt lat="40.609947011083555" lon="15.024322674271149"><ele>158.0</ele><time>2026-04-19T07:43:45.865Z</time></trkpt><trkpt lat="40.609945358305644" lon="15.02440698103212"><ele>158.0</ele><time>2026-04-19T07:43:51.865Z</time></trkpt><trkpt lat="40.60997732977675" lon="15.024535004321589"><ele>158.0</ele><time>2026-04-19T07:43:58.865Z</time></trkpt><trkpt lat="40.60998577673649" lon="15.02466960015394"><ele>158.0</ele><time>2026-04-19T07:44:00.865Z</time></trkpt><trkpt lat="40.60999704429166" lon="15.024759555420584"><ele>158.0</ele><time>2026-04-19T07:44:01.865Z</time></trkpt><trkpt lat="40.61000382269435" lon="15.024848922077796"><ele>158.0</ele><time>2026-04-19T07:44:02.865Z</time></trkpt><trkpt lat="40.61000102842408" lon="15.024981695116265"><ele>158.0</ele><time>2026-04-19T07:44:04.865Z</time></trkpt><trkpt lat="40.6100078786788" lon="15.025070365201717"><ele>158.0</ele><time>2026-04-19T07:44:08.865Z</time></trkpt><trkpt lat="40.6101687293644" lon="15.02512442796911"><ele>158.0</ele><time>2026-04-19T07:44:12.865Z</time></trkpt><trkpt lat="40.610255095148844" lon="15.02510634363462"><ele>158.0</ele><time>2026-04-19T07:49:15.868Z</time></trkpt><trkpt lat="40.610350809965176" lon="15.02509113573096"><ele>158.0</ele><time>2026-04-19T07:49:17.868Z</time></trkpt><trkpt lat="40.610415004457046" lon="15.025054313920354"><ele>159.0</ele><time>2026-04-19T07:49:18.868Z</time></trkpt><trkpt lat="40.610493725219115" lon="15.025032878149442"><ele>160.0</ele><time>2026-04-19T07:49:19.868Z</time></trkpt><trkpt lat="40.61057680203967" lon="15.024991864295293"><ele>161.0</ele><time>2026-04-19T07:49:20.868Z</time></trkpt><trkpt lat="40.61065729337503" lon="15.024979926265749"><ele>162.0</ele><time>2026-04-19T07:49:21.868Z</time></trkpt><trkpt lat="40.61073724130012" lon="15.025022842234891"><ele>163.0</ele><time>2026-04-19T07:49:22.868Z</time></trkpt><trkpt lat="40.61097150689133" lon="15.025028445318545"><ele>163.0</ele><time>2026-04-19T07:49:26.868Z</time></trkpt><trkpt lat="40.61100143043921" lon="15.025107939979959"><ele>163.0</ele><time>2026-04-19T07:49:27.868Z</time></trkpt><trkpt lat="40.61100019783811" lon="15.025210180280311"><ele>163.0</ele><time>2026-04-19T07:49:28.868Z</time></trkpt><trkpt lat="40.61104098174233" lon="15.025310362984131"><ele>163.0</ele><time>2026-04-19T07:49:29.868Z</time></trkpt><trkpt lat="40.61107648049313" lon="15.025518368671522"><ele>163.0</ele><time>2026-04-19T07:49:30.868Z</time></trkpt><trkpt lat="40.61109912132077" lon="15.025633129544623"><ele>163.0</ele><time>2026-04-19T07:49:31.868Z</time></trkpt><trkpt lat="40.611133889467176" lon="15.025734807668833"><ele>163.0</ele><time>2026-04-19T07:49:32.868Z</time></trkpt><trkpt lat="40.61114660300642" lon="15.025849931774875"><ele>163.0</ele><time>2026-04-19T07:49:33.868Z</time></trkpt><trkpt lat="40.61116096941617" lon="15.025965439680009"><ele>163.0</ele><time>2026-04-19T07:49:34.868Z</time></trkpt><trkpt lat="40.61116818413919" lon="15.026062287803143"><ele>163.0</ele><time>2026-04-19T07:49:35.868Z</time></trkpt><trkpt lat="40.61122597097127" lon="15.026166590535851"><ele>163.0</ele><time>2026-04-19T07:49:37.867Z</time></trkpt><trkpt lat="40.61130044251592" lon="15.026196794297592"><ele>166.4</ele><time>2026-04-19T07:49:39.868Z</time></trkpt><trkpt lat="40.61138669354103" lon="15.02615922302475"><ele>169.8</ele><time>2026-04-19T07:49:41.868Z</time></trkpt><trkpt lat="40.61145224654038" lon="15.026055314707834"><ele>173.2</ele><time>2026-04-19T07:49:43.868Z</time></trkpt><trkpt lat="40.61148259423089" lon="15.02591020980586"><ele>176.6</ele><time>2026-04-19T07:49:45.868Z</time></trkpt><trkpt lat="40.6114768064032" lon="15.02577070686625"><ele>180.0</ele><time>2026-04-19T07:49:47.868Z</time></trkpt><trkpt lat="40.61146418261472" lon="15.025675445091588"><ele>181.75</ele><time>2026-04-19T07:49:48.868Z</time></trkpt><trkpt lat="40.61144971248041" lon="15.025554243447889"><ele>183.5</ele><time>2026-04-19T07:49:49.868Z</time></trkpt><trkpt lat="40.611427520172136" lon="15.025404697517809"><ele>185.25</ele><time>2026-04-19T07:49:50.868Z</time></trkpt><trkpt lat="40.611405765656755" lon="15.025256199987107"><ele>187.0</ele><time>2026-04-19T07:49:51.868Z</time></trkpt><trkpt lat="40.61139140199604" lon="15.025076720210997"><ele>187.5</ele><time>2026-04-19T07:49:52.868Z</time></trkpt><trkpt lat="40.61135704462359" lon="15.024881982908006"><ele>188.0</ele><time>2026-04-19T07:49:53.868Z</time></trkpt><trkpt lat="40.611347536422116" lon="15.024706095153963"><ele>188.5</ele><time>2026-04-19T07:49:54.868Z</time></trkpt><trkpt lat="40.61134284552202" lon="15.024540099493565"><ele>189.0</ele><time>2026-04-19T07:49:55.868Z</time></trkpt><trkpt lat="40.61135866458176" lon="15.024384941078866"><ele>189.0</ele><time>2026-04-19T07:49:56.868Z</time></trkpt><trkpt lat="40.61136410172311" lon="15.024240369661719"><ele>189.0</ele><time>2026-04-19T07:49:57.868Z</time></trkpt><trkpt lat="40.611365799553944" lon="15.02409968608704"><ele>189.0</ele><time>2026-04-19T07:49:58.868Z</time></trkpt><trkpt lat="40.61137427027097" lon="15.023968132807429"><ele>189.0</ele><time>2026-04-19T07:49:59.868Z</time></trkpt><trkpt lat="40.61137310779105" lon="15.023849436220877"><ele>189.0</ele><time>2026-04-19T07:50:00.868Z</time></trkpt><trkpt lat="40.61137941240668" lon="15.02371728679562"><ele>189.0</ele><time>2026-04-19T07:50:01.868Z</time></trkpt><trkpt lat="40.6113832181294" lon="15.023583071015297"><ele>189.0</ele><time>2026-04-19T07:50:02.868Z</time></trkpt><trkpt lat="40.61139306172297" lon="15.023425584083354"><ele>189.0</ele><time>2026-04-19T07:50:03.868Z</time></trkpt><trkpt lat="40.611406175539805" lon="15.02324758478697"><ele>189.0</ele><time>2026-04-19T07:50:04.868Z</time></trkpt><trkpt lat="40.61141750529846" lon="15.023076875046026"><ele>189.0</ele><time>2026-04-19T07:50:05.868Z</time></trkpt><trkpt lat="40.61143060575697" lon="15.02289700313545"><ele>189.0</ele><time>2026-04-19T07:50:06.868Z</time></trkpt><trkpt lat="40.61145320511773" lon="15.02269777009899"><ele>189.0</ele><time>2026-04-19T07:50:07.868Z</time></trkpt><trkpt lat="40.61148440851204" lon="15.022491945238762"><ele>189.0</ele><time>2026-04-19T07:50:08.868Z</time></trkpt><trkpt lat="40.6114991160132" lon="15.022275597959831"><ele>189.0</ele><time>2026-04-19T07:50:09.868Z</time></trkpt><trkpt lat="40.61152193676514" lon="15.022052998476191"><ele>189.0</ele><time>2026-04-19T07:50:10.868Z</time></trkpt><trkpt lat="40.61151900363571" lon="15.021845792019057"><ele>189.0</ele><time>2026-04-19T07:50:11.868Z</time></trkpt><trkpt lat="40.61151744175954" lon="15.021647231481053"><ele>189.25</ele><time>2026-04-19T07:50:12.868Z</time></trkpt><trkpt lat="40.61151601677419" lon="15.021481325192303"><ele>189.5</ele><time>2026-04-19T07:50:13.868Z</time></trkpt><trkpt lat="40.61152623768412" lon="15.021329525661768"><ele>189.75</ele><time>2026-04-19T07:50:14.868Z</time></trkpt><trkpt lat="40.611532857000185" lon="15.021161112126373"><ele>190.0</ele><time>2026-04-19T07:50:15.868Z</time></trkpt><trkpt lat="40.611549236085175" lon="15.021008089581278"><ele>190.0</ele><time>2026-04-19T07:50:16.868Z</time></trkpt><trkpt lat="40.61158416965988" lon="15.020833249094366"><ele>190.0</ele><time>2026-04-19T07:50:17.868Z</time></trkpt><trkpt lat="40.61160988876047" lon="15.020630334318295"><ele>190.0</ele><time>2026-04-19T07:50:18.868Z</time></trkpt><trkpt lat="40.611651120292706" lon="15.02042795320668"><ele>189.0</ele><time>2026-04-19T07:50:19.868Z</time></trkpt><trkpt lat="40.6116841885105" lon="15.020224333350258"><ele>188.0</ele><time>2026-04-19T07:50:20.868Z</time></trkpt><trkpt lat="40.61173508506798" lon="15.020013035160616"><ele>187.0</ele><time>2026-04-19T07:50:21.868Z</time></trkpt><trkpt lat="40.61178632050521" lon="15.019831375172961"><ele>185.6</ele><time>2026-04-19T07:50:22.868Z</time></trkpt><trkpt lat="40.61182995915685" lon="15.01968913741476"><ele>184.2</ele><time>2026-04-19T07:50:23.868Z</time></trkpt><trkpt lat="40.611882230062136" lon="15.019584172005397"><ele>182.8</ele><time>2026-04-19T07:50:24.868Z</time></trkpt><trkpt lat="40.611953469128316" lon="15.019470009050881"><ele>181.4</ele><time>2026-04-19T07:50:25.868Z</time></trkpt><trkpt lat="40.612029535837685" lon="15.019364052436057"><ele>180.0</ele><time>2026-04-19T07:50:26.868Z</time></trkpt><trkpt lat="40.61210061895948" lon="15.01927217938048"><ele>183.16666666666666</ele><time>2026-04-19T07:50:27.868Z</time></trkpt><trkpt lat="40.61216923968826" lon="15.019202957397043"><ele>186.33333333333331</ele><time>2026-04-19T07:50:28.868Z</time></trkpt><trkpt lat="40.61227780979689" lon="15.019162712887235"><ele>189.5</ele><time>2026-04-19T07:50:30.868Z</time></trkpt><trkpt lat="40.612359641626334" lon="15.019181962510807"><ele>192.66666666666666</ele><time>2026-04-19T07:50:31.868Z</time></trkpt><trkpt lat="40.612434634251954" lon="15.019218888343318"><ele>195.83333333333331</ele><time>2026-04-19T07:50:32.868Z</time></trkpt><trkpt lat="40.61251456195844" lon="15.01925498514016"><ele>199.0</ele><time>2026-04-19T07:50:33.868Z</time></trkpt><trkpt lat="40.61260009622554" lon="15.019313862500471"><ele>199.0</ele><time>2026-04-19T07:50:34.868Z</time></trkpt><trkpt lat="40.612676281295386" lon="15.019400851796277"><ele>199.0</ele><time>2026-04-19T07:50:35.868Z</time></trkpt><trkpt lat="40.61273329395626" lon="15.01949926654715"><ele>199.0</ele><time>2026-04-19T07:50:36.868Z</time></trkpt><trkpt lat="40.612786035727495" lon="15.019599942294303"><ele>199.0</ele><time>2026-04-19T07:50:37.868Z</time></trkpt><trkpt lat="40.612841044484476" lon="15.019680671345675"><ele>199.0</ele><time>2026-04-19T07:50:38.868Z</time></trkpt><trkpt lat="40.61289817562367" lon="15.019757044853277"><ele>201.49999999999997</ele><time>2026-04-19T07:50:39.868Z</time></trkpt><trkpt lat="40.61295640437505" lon="15.019833172546763"><ele>204.0</ele><time>2026-04-19T07:50:40.868Z</time></trkpt><trkpt lat="40.61301562803804" lon="15.01989266014924"><ele>206.5</ele><time>2026-04-19T07:50:41.868Z</time></trkpt><trkpt lat="40.61306954251812" lon="15.019956938824606"><ele>209.0</ele><time>2026-04-19T07:50:42.868Z</time></trkpt><trkpt lat="40.61317887415324" lon="15.019986309358588"><ele>211.49999999999997</ele><time>2026-04-19T07:50:44.868Z</time></trkpt><trkpt lat="40.6132635244381" lon="15.019973769973573"><ele>214.0</ele><time>2026-04-19T07:50:46.868Z</time></trkpt><trkpt lat="40.61332461888965" lon="15.019859535850982"><ele>214.39999999999998</ele><time>2026-04-19T07:50:48.868Z</time></trkpt><trkpt lat="40.61336248212168" lon="15.019770749681388"><ele>214.79999999999998</ele><time>2026-04-19T07:50:49.868Z</time></trkpt><trkpt lat="40.613389151952234" lon="15.019670485513421"><ele>215.20000000000002</ele><time>2026-04-19T07:50:50.868Z</time></trkpt><trkpt lat="40.61340878590413" lon="15.019536520735182"><ele>215.60000000000002</ele><time>2026-04-19T07:50:51.868Z</time></trkpt><trkpt lat="40.61341241995523" lon="15.019393202474568"><ele>216.0</ele><time>2026-04-19T07:50:52.868Z</time></trkpt><trkpt lat="40.61342150174146" lon="15.019217492133345"><ele>215.0</ele><time>2026-04-19T07:50:53.868Z</time></trkpt><trkpt lat="40.61342659203663" lon="15.0190106149036"><ele>214.0</ele><time>2026-04-19T07:50:54.868Z</time></trkpt><trkpt lat="40.61342288553588" lon="15.018805408467642"><ele>213.0</ele><time>2026-04-19T07:50:55.868Z</time></trkpt><trkpt lat="40.61342937345293" lon="15.018591690553293"><ele>213.0</ele><time>2026-04-19T07:50:56.868Z</time></trkpt><trkpt lat="40.61345026173166" lon="15.018385073858585"><ele>213.0</ele><time>2026-04-19T07:50:57.868Z</time></trkpt><trkpt lat="40.61345909334681" lon="15.018178755209581"><ele>213.0</ele><time>2026-04-19T07:50:58.868Z</time></trkpt><trkpt lat="40.61346708717257" lon="15.017955357587676"><ele>212.33333333333331</ele><time>2026-04-19T07:50:59.868Z</time></trkpt><trkpt lat="40.613483703754795" lon="15.017733266527221"><ele>211.66666666666666</ele><time>2026-04-19T07:51:00.868Z</time></trkpt><trkpt lat="40.61348897068082" lon="15.017527929949003"><ele>211.0</ele><time>2026-04-19T07:51:01.868Z</time></trkpt><trkpt lat="40.61347864155227" lon="15.017328925131157"><ele>212.25</ele><time>2026-04-19T07:51:02.868Z</time></trkpt><trkpt lat="40.61347563587686" lon="15.017144208215322"><ele>213.5</ele><time>2026-04-19T07:51:03.868Z</time></trkpt><trkpt lat="40.61348312098421" lon="15.016975528984434"><ele>214.75</ele><time>2026-04-19T07:51:04.868Z</time></trkpt><trkpt lat="40.61348191747748" lon="15.016808588691537"><ele>216.0</ele><time>2026-04-19T07:51:05.868Z</time></trkpt><trkpt lat="40.613483677906935" lon="15.016651283642766"><ele>216.4</ele><time>2026-04-19T07:51:06.868Z</time></trkpt><trkpt lat="40.61348801824389" lon="15.016535773775121"><ele>216.8</ele><time>2026-04-19T07:51:07.868Z</time></trkpt><trkpt lat="40.61350902793158" lon="15.01639819876499"><ele>217.20000000000002</ele><time>2026-04-19T07:51:09.868Z</time></trkpt><trkpt lat="40.61356923105292" lon="15.01633370618021"><ele>217.60000000000002</ele><time>2026-04-19T07:51:11.868Z</time></trkpt><trkpt lat="40.61363302976103" lon="15.016366455456481"><ele>218.0</ele><time>2026-04-19T07:51:12.868Z</time></trkpt><trkpt lat="40.613718876568086" lon="15.016476584073615"><ele>223.8</ele><time>2026-04-19T07:51:14.869Z</time></trkpt><trkpt lat="40.61377245467411" lon="15.016620593244348"><ele>229.60000000000002</ele><time>2026-04-19T07:51:16.869Z</time></trkpt><trkpt lat="40.61379820381649" lon="15.016722537650807"><ele>235.39999999999998</ele><time>2026-04-19T07:51:17.869Z</time></trkpt><trkpt lat="40.61381328517951" lon="15.016822451172633"><ele>241.2</ele><time>2026-04-19T07:51:18.869Z</time></trkpt><trkpt lat="40.61383409714184" lon="15.016930048461735"><ele>247.0</ele><time>2026-04-19T07:51:19.869Z</time></trkpt><trkpt lat="40.61386043198079" lon="15.017042900092013"><ele>247.0</ele><time>2026-04-19T07:51:20.869Z</time></trkpt><trkpt lat="40.613897119840196" lon="15.017168121681939"><ele>247.0</ele><time>2026-04-19T07:51:21.869Z</time></trkpt><trkpt lat="40.61394348862481" lon="15.017301971047267"><ele>247.0</ele><time>2026-04-19T07:51:22.869Z</time></trkpt><trkpt lat="40.61399465248433" lon="15.017437290356746"><ele>247.0</ele><time>2026-04-19T07:51:23.869Z</time></trkpt><trkpt lat="40.614037752610315" lon="15.017571481964993"><ele>247.0</ele><time>2026-04-19T07:51:24.869Z</time></trkpt><trkpt lat="40.614070717069886" lon="15.017666686139295"><ele>246.0</ele><time>2026-04-19T07:51:25.869Z</time></trkpt><trkpt lat="40.61409307651296" lon="15.017756615231376"><ele>245.0</ele><time>2026-04-19T07:51:26.869Z</time></trkpt><trkpt lat="40.614124961443586" lon="15.017838669897134"><ele>244.0</ele><time>2026-04-19T07:51:28.869Z</time></trkpt><trkpt lat="40.614210033522475" lon="15.018003262866713"><ele>243.0</ele><time>2026-04-19T07:51:43.869Z</time></trkpt><trkpt lat="40.61425584331779" lon="15.018091434390554"><ele>242.0</ele><time>2026-04-19T07:51:44.869Z</time></trkpt><trkpt lat="40.61429981090911" lon="15.018203565621286"><ele>240.75</ele><time>2026-04-19T07:51:45.869Z</time></trkpt><trkpt lat="40.61433337868831" lon="15.018332668748572"><ele>239.5</ele><time>2026-04-19T07:51:46.869Z</time></trkpt><trkpt lat="40.61436801487179" lon="15.018478544329563"><ele>238.25</ele><time>2026-04-19T07:51:47.869Z</time></trkpt><trkpt lat="40.614388280294435" lon="15.018626259768293"><ele>237.0</ele><time>2026-04-19T07:51:48.869Z</time></trkpt><trkpt lat="40.61443581768537" lon="15.01878390762735"><ele>237.0</ele><time>2026-04-19T07:51:49.869Z</time></trkpt><trkpt lat="40.61448282484328" lon="15.018939067317554"><ele>237.0</ele><time>2026-04-19T07:51:50.869Z</time></trkpt><trkpt lat="40.61452755377964" lon="15.019080704619688"><ele>237.0</ele><time>2026-04-19T07:51:51.869Z</time></trkpt><trkpt lat="40.614576246972" lon="15.019195096221605"><ele>237.0</ele><time>2026-04-19T07:51:52.869Z</time></trkpt><trkpt lat="40.614618740899694" lon="15.019308141779275"><ele>237.0</ele><time>2026-04-19T07:51:53.869Z</time></trkpt><trkpt lat="40.61465701434327" lon="15.01942541276091"><ele>240.33333333333334</ele><time>2026-04-19T07:51:54.869Z</time></trkpt><trkpt lat="40.61469510653981" lon="15.019524884214984"><ele>243.66666666666669</ele><time>2026-04-19T07:51:55.869Z</time></trkpt><trkpt lat="40.61471773839586" lon="15.019645030357372"><ele>247.0</ele><time>2026-04-19T07:51:56.869Z</time></trkpt><trkpt lat="40.61475418080903" lon="15.019742322199251"><ele>250.33333333333334</ele><time>2026-04-19T07:51:57.869Z</time></trkpt><trkpt lat="40.61478550004233" lon="15.01982593653834"><ele>253.66666666666669</ele><time>2026-04-19T07:51:58.869Z</time></trkpt><trkpt lat="40.614824947925065" lon="15.019899482761696"><ele>257.0</ele><time>2026-04-19T07:51:59.869Z</time></trkpt><trkpt lat="40.61486829138361" lon="15.020046757937239"><ele>257.0</ele><time>2026-04-19T07:52:01.869Z</time></trkpt><trkpt lat="40.61491333149852" lon="15.020121102201001"><ele>257.0</ele><time>2026-04-19T07:52:02.869Z</time></trkpt><trkpt lat="40.61493544953887" lon="15.020222704501428"><ele>257.0</ele><time>2026-04-19T07:52:03.869Z</time></trkpt><trkpt lat="40.61499083380499" lon="15.020318483908104"><ele>257.0</ele><time>2026-04-19T07:52:04.869Z</time></trkpt><trkpt lat="40.61502935021663" lon="15.020433303125182"><ele>257.0</ele><time>2026-04-19T07:52:05.869Z</time></trkpt><trkpt lat="40.615080290305315" lon="15.020559986897378"><ele>257.0</ele><time>2026-04-19T07:52:06.869Z</time></trkpt><trkpt lat="40.61513889135666" lon="15.020708733775798"><ele>255.5</ele><time>2026-04-19T07:52:07.869Z</time></trkpt><trkpt lat="40.61519523640718" lon="15.02088469790799"><ele>254.0</ele><time>2026-04-19T07:52:08.869Z</time></trkpt><trkpt lat="40.61527779824508" lon="15.02104593035368"><ele>252.5</ele><time>2026-04-19T07:52:09.869Z</time></trkpt><trkpt lat="40.61533920359142" lon="15.02120569656964"><ele>251.0</ele><time>2026-04-19T07:52:10.869Z</time></trkpt><trkpt lat="40.61539010257097" lon="15.021318005043787"><ele>254.50000000000003</ele><time>2026-04-19T07:52:11.869Z</time></trkpt><trkpt lat="40.6154353043468" lon="15.021425956698678"><ele>258.0</ele><time>2026-04-19T07:52:12.869Z</time></trkpt><trkpt lat="40.61547416448955" lon="15.021519214608098"><ele>261.5</ele><time>2026-04-19T07:52:13.869Z</time></trkpt><trkpt lat="40.61554599157994" lon="15.021627010749887"><ele>265.0</ele><time>2026-04-19T07:52:15.869Z</time></trkpt><trkpt lat="40.61559735166174" lon="15.021676954562459"><ele>268.5</ele><time>2026-04-19T07:52:17.869Z</time></trkpt><trkpt lat="40.615681787538634" lon="15.02166541192055"><ele>272.0</ele><time>2026-04-19T07:52:19.869Z</time></trkpt><trkpt lat="40.61574124690221" lon="15.021532710621578"><ele>273.33333333333337</ele><time>2026-04-19T07:52:21.869Z</time></trkpt><trkpt lat="40.61572969708319" lon="15.021437287074447"><ele>274.6666666666667</ele><time>2026-04-19T07:52:22.869Z</time></trkpt><trkpt lat="40.61569774744344" lon="15.021345694159757"><ele>276.0</ele><time>2026-04-19T07:52:23.869Z</time></trkpt><trkpt lat="40.61566175181817" lon="15.021241557811758"><ele>277.3333333333333</ele><time>2026-04-19T07:52:25.869Z</time></trkpt><trkpt lat="40.61562523167252" lon="15.021126775402312"><ele>278.66666666666663</ele><time>2026-04-19T07:52:27.869Z</time></trkpt><trkpt lat="40.61559724125009" lon="15.021032892931727"><ele>280.0</ele><time>2026-04-19T07:52:28.869Z</time></trkpt><trkpt lat="40.615584785734306" lon="15.020919413073772"><ele>281.6</ele><time>2026-04-19T07:52:29.869Z</time></trkpt><trkpt lat="40.615573196252804" lon="15.020811245843252"><ele>283.2</ele><time>2026-04-19T07:52:30.869Z</time></trkpt><trkpt lat="40.61556210580267" lon="15.020678801125092"><ele>284.8</ele><time>2026-04-19T07:52:31.869Z</time></trkpt><trkpt lat="40.61555234474802" lon="15.020543698148856"><ele>286.4</ele><time>2026-04-19T07:52:32.869Z</time></trkpt><trkpt lat="40.61552734314655" lon="15.02038780399047"><ele>288.0</ele><time>2026-04-19T07:52:33.869Z</time></trkpt><trkpt lat="40.61552425844372" lon="15.020210511030962"><ele>288.0</ele><time>2026-04-19T07:52:34.869Z</time></trkpt><trkpt lat="40.615513875451946" lon="15.020015026736496"><ele>288.0</ele><time>2026-04-19T07:52:35.869Z</time></trkpt><trkpt lat="40.61550244415014" lon="15.019816019393618"><ele>288.0</ele><time>2026-04-19T07:52:36.869Z</time></trkpt><trkpt lat="40.61551260720813" lon="15.01963208113338"><ele>288.0</ele><time>2026-04-19T07:52:37.869Z</time></trkpt><trkpt lat="40.61551372948666" lon="15.019458249822222"><ele>289.0</ele><time>2026-04-19T07:52:38.869Z</time></trkpt><trkpt lat="40.61552059936262" lon="15.019268313807038"><ele>290.0</ele><time>2026-04-19T07:52:39.869Z</time></trkpt><trkpt lat="40.61551802324253" lon="15.019080664371016"><ele>291.0</ele><time>2026-04-19T07:52:40.869Z</time></trkpt><trkpt lat="40.61554072308788" lon="15.018886498290849"><ele>292.0</ele><time>2026-04-19T07:52:41.869Z</time></trkpt><trkpt lat="40.615573870741144" lon="15.018680118309328"><ele>292.6</ele><time>2026-04-19T07:52:42.869Z</time></trkpt><trkpt lat="40.61559967499526" lon="15.018502881733225"><ele>293.2</ele><time>2026-04-19T07:52:43.869Z</time></trkpt><trkpt lat="40.615621906598584" lon="15.018351768656364"><ele>293.8</ele><time>2026-04-19T07:52:44.869Z</time></trkpt><trkpt lat="40.61564793091738" lon="15.01822704488666"><ele>294.4</ele><time>2026-04-19T07:52:45.869Z</time></trkpt><trkpt lat="40.61570105771365" lon="15.018124980639788"><ele>295.0</ele><time>2026-04-19T07:52:46.869Z</time></trkpt><trkpt lat="40.6157439565858" lon="15.018015284997313"><ele>295.8333333333333</ele><time>2026-04-19T07:52:47.869Z</time></trkpt><trkpt lat="40.61580514541039" lon="15.01790933225757"><ele>296.66666666666663</ele><time>2026-04-19T07:52:48.869Z</time></trkpt><trkpt lat="40.615867228858136" lon="15.017808067420662"><ele>297.5</ele><time>2026-04-19T07:52:49.869Z</time></trkpt><trkpt lat="40.61589719195767" lon="15.017733726168746"><ele>298.3333333333333</ele><time>2026-04-19T07:52:50.869Z</time></trkpt><trkpt lat="40.615931319731835" lon="15.01766276201409"><ele>299.1666666666667</ele><time>2026-04-19T07:52:51.869Z</time></trkpt><trkpt lat="40.61593886323994" lon="15.01756458342069"><ele>300.0</ele><time>2026-04-19T07:52:52.869Z</time></trkpt><trkpt lat="40.615939749017805" lon="15.017479049405383"><ele>300.8</ele><time>2026-04-19T07:52:53.869Z</time></trkpt><trkpt lat="40.61592668170588" lon="15.01735931034608"><ele>301.6</ele><time>2026-04-19T07:52:54.869Z</time></trkpt><trkpt lat="40.61589217393455" lon="15.01722149030527"><ele>302.4</ele><time>2026-04-19T07:52:55.869Z</time></trkpt><trkpt lat="40.615862345044086" lon="15.017077150641905"><ele>303.2</ele><time>2026-04-19T07:52:56.869Z</time></trkpt><trkpt lat="40.6158612572355" lon="15.016911863947039"><ele>304.0</ele><time>2026-04-19T07:52:57.869Z</time></trkpt><trkpt lat="40.61584872616864" lon="15.016763874121745"><ele>304.25</ele><time>2026-04-19T07:52:58.869Z</time></trkpt><trkpt lat="40.61583915959074" lon="15.016595088675087"><ele>304.5</ele><time>2026-04-19T07:52:59.869Z</time></trkpt><trkpt lat="40.615814450336416" lon="15.016426705647003"><ele>304.75</ele><time>2026-04-19T07:53:00.869Z</time></trkpt><trkpt lat="40.61581173203504" lon="15.016258894103652"><ele>305.0</ele><time>2026-04-19T07:53:01.869Z</time></trkpt><trkpt lat="40.615800932302356" lon="15.016114123354017"><ele>305.0</ele><time>2026-04-19T07:53:02.869Z</time></trkpt><trkpt lat="40.61581306404573" lon="15.01600839359379"><ele>305.0</ele><time>2026-04-19T07:53:03.869Z</time></trkpt><trkpt lat="40.61582946879785" lon="15.015902997186684"><ele>305.0</ele><time>2026-04-19T07:53:05.869Z</time></trkpt><trkpt lat="40.615908198931" lon="15.015871554465594"><ele>305.0</ele><time>2026-04-19T07:53:08.869Z</time></trkpt><trkpt lat="40.615977072906496" lon="15.015898485994542"><ele>305.0</ele><time>2026-04-19T07:53:09.869Z</time></trkpt><trkpt lat="40.6160399223337" lon="15.01596229390359"><ele>305.0</ele><time>2026-04-19T07:53:10.869Z</time></trkpt><trkpt lat="40.6161008433832" lon="15.016022914637194"><ele>308.0</ele><time>2026-04-19T07:53:11.869Z</time></trkpt><trkpt lat="40.61619831961881" lon="15.016094095566611"><ele>311.0</ele><time>2026-04-19T07:53:13.869Z</time></trkpt><trkpt lat="40.61629888324457" lon="15.016179840777408"><ele>314.0</ele><time>2026-04-19T07:53:15.869Z</time></trkpt><trkpt lat="40.61637504429819" lon="15.016264249945486"><ele>317.0</ele><time>2026-04-19T07:53:16.869Z</time></trkpt><trkpt lat="40.616449976326436" lon="15.016337215156032"><ele>320.0</ele><time>2026-04-19T07:53:17.869Z</time></trkpt><trkpt lat="40.61654598462685" lon="15.01640713711496"><ele>320.0</ele><time>2026-04-19T07:53:19.869Z</time></trkpt><trkpt lat="40.61664677978332" lon="15.016451809275967"><ele>320.0</ele><time>2026-04-19T07:53:21.869Z</time></trkpt><trkpt lat="40.61671166103762" lon="15.016469850229615"><ele>320.0</ele><time>2026-04-19T07:53:22.869Z</time></trkpt><trkpt lat="40.61678552869518" lon="15.016482760133623"><ele>320.0</ele><time>2026-04-19T07:53:23.869Z</time></trkpt><trkpt lat="40.616855135145116" lon="15.016479411750831"><ele>320.0</ele><time>2026-04-19T07:53:24.869Z</time></trkpt><trkpt lat="40.61696007690254" lon="15.016471733694754"><ele>320.0</ele><time>2026-04-19T07:53:26.869Z</time></trkpt><trkpt lat="40.61703357076508" lon="15.016483558127"><ele>320.0</ele><time>2026-04-19T07:53:28.869Z</time></trkpt><trkpt lat="40.617035501862276" lon="15.016320529132908"><ele>320.0</ele><time>2026-04-19T07:53:55.878Z</time></trkpt><trkpt lat="40.61703937686944" lon="15.01613615409885"><ele>320.0</ele><time>2026-04-19T07:53:57.878Z</time></trkpt><trkpt lat="40.617035522775076" lon="15.01602404093962"><ele>320.0</ele><time>2026-04-19T07:53:58.878Z</time></trkpt><trkpt lat="40.617012277312185" lon="15.015891345140885"><ele>320.1666666666667</ele><time>2026-04-19T07:53:59.878Z</time></trkpt><trkpt lat="40.61699529451332" lon="15.015774617911674"><ele>320.33333333333337</ele><time>2026-04-19T07:54:00.878Z</time></trkpt><trkpt lat="40.616979025866385" lon="15.015681616269669"><ele>320.5</ele><time>2026-04-19T07:54:01.878Z</time></trkpt><trkpt lat="40.61695996408841" lon="15.015583376033014"><ele>320.6666666666667</ele><time>2026-04-19T07:54:02.878Z</time></trkpt><trkpt lat="40.616960446606875" lon="15.015473880650207"><ele>320.8333333333333</ele><time>2026-04-19T07:54:03.878Z</time></trkpt><trkpt lat="40.61694409549884" lon="15.0153218806028"><ele>321.0</ele><time>2026-04-19T07:54:05.879Z</time></trkpt><trkpt lat="40.616915410218816" lon="15.015170509053279"><ele>321.25</ele><time>2026-04-19T07:54:07.879Z</time></trkpt><trkpt lat="40.616920195274005" lon="15.015017507627022"><ele>321.5</ele><time>2026-04-19T07:54:09.879Z</time></trkpt><trkpt lat="40.616908727137904" lon="15.014852825406598"><ele>321.75</ele><time>2026-04-19T07:54:11.879Z</time></trkpt><trkpt lat="40.61689890097401" lon="15.01470401297657"><ele>322.0</ele><time>2026-04-19T07:54:13.879Z</time></trkpt><trkpt lat="40.61688887286187" lon="15.014552142221703"><ele>322.16666666666663</ele><time>2026-04-19T07:54:15.879Z</time></trkpt><trkpt lat="40.616871163507426" lon="15.014431113214604"><ele>322.3333333333333</ele><time>2026-04-19T07:54:17.879Z</time></trkpt><trkpt lat="40.61686328164918" lon="15.014348013460623"><ele>322.5</ele><time>2026-04-19T07:54:19.879Z</time></trkpt><trkpt lat="40.61685314471005" lon="15.014263891576375"><ele>322.6666666666667</ele><time>2026-04-19T07:54:22.879Z</time></trkpt><trkpt lat="40.616853079934906" lon="15.014140357628811"><ele>322.83333333333337</ele><time>2026-04-19T07:54:26.879Z</time></trkpt><trkpt lat="40.61685337609321" lon="15.014037269798626"><ele>323.0</ele><time>2026-04-19T07:54:29.879Z</time></trkpt><trkpt lat="40.61683603834907" lon="15.013955072239792"><ele>323.6666666666667</ele><time>2026-04-19T07:54:31.88Z</time></trkpt><trkpt lat="40.61682032259522" lon="15.013826360240415"><ele>324.33333333333337</ele><time>2026-04-19T07:54:34.88Z</time></trkpt><trkpt lat="40.61680919355975" lon="15.013724862873545"><ele>325.0</ele><time>2026-04-19T07:54:36.88Z</time></trkpt><trkpt lat="40.61681463410482" lon="15.01364053057286"><ele>325.6666666666667</ele><time>2026-04-19T07:54:38.88Z</time></trkpt><trkpt lat="40.61679245012673" lon="15.01353204457308"><ele>326.3333333333333</ele><time>2026-04-19T07:54:40.88Z</time></trkpt><trkpt lat="40.616793274908694" lon="15.013429362467717"><ele>327.0</ele><time>2026-04-19T07:54:42.88Z</time></trkpt><trkpt lat="40.61679348065788" lon="15.013313142390144"><ele>327.6</ele><time>2026-04-19T07:54:44.88Z</time></trkpt><trkpt lat="40.616802718484216" lon="15.013214550025742"><ele>328.20000000000005</ele><time>2026-04-19T07:54:46.88Z</time></trkpt><trkpt lat="40.61695661743502" lon="15.013175276205658"><ele>328.8</ele><time>2026-04-19T07:55:12.88Z</time></trkpt><trkpt lat="40.617056927102986" lon="15.013155912767807"><ele>329.4</ele><time>2026-04-19T07:55:14.88Z</time></trkpt><trkpt lat="40.61717184108565" lon="15.013149141235125"><ele>330.0</ele><time>2026-04-19T07:55:16.88Z</time></trkpt><trkpt lat="40.617272773732445" lon="15.013125885705533"><ele>329.0</ele><time>2026-04-19T07:55:18.88Z</time></trkpt><trkpt lat="40.61735741846471" lon="15.01313286695292"><ele>328.0</ele><time>2026-04-19T07:55:20.88Z</time></trkpt><trkpt lat="40.61743023501629" lon="15.013136554084793"><ele>327.0</ele><time>2026-04-19T07:55:22.88Z</time></trkpt><trkpt lat="40.617504469321155" lon="15.013137438040241"><ele>326.0</ele><time>2026-04-19T07:55:24.88Z</time></trkpt><trkpt lat="40.61757448388899" lon="15.013129585385661"><ele>325.0</ele><time>2026-04-19T07:55:26.88Z</time></trkpt><trkpt lat="40.61765035513948" lon="15.013144068436485"><ele>324.0</ele><time>2026-04-19T07:55:28.88Z</time></trkpt><trkpt lat="40.6177247316904" lon="15.013143664210473"><ele>324.0</ele><time>2026-04-19T07:55:30.88Z</time></trkpt><trkpt lat="40.61779499322573" lon="15.01314328235908"><ele>324.0</ele><time>2026-04-19T07:55:32.88Z</time></trkpt><trkpt lat="40.61788039566822" lon="15.01314134697982"><ele>324.0</ele><time>2026-04-19T07:55:35.88Z</time></trkpt><trkpt lat="40.61794858475817" lon="15.013138722815858"><ele>324.0</ele><time>2026-04-19T07:55:38.88Z</time></trkpt><trkpt lat="40.61803989523521" lon="15.013114003438211"><ele>324.0</ele><time>2026-04-19T07:55:40.88Z</time></trkpt><trkpt lat="40.6181075190195" lon="15.013111904069538"><ele>324.0</ele><time>2026-04-19T07:55:41.88Z</time></trkpt><trkpt lat="40.6181847498171" lon="15.013110667552919"><ele>324.3333333333333</ele><time>2026-04-19T07:55:42.88Z</time></trkpt><trkpt lat="40.61826889529298" lon="15.013101929750668"><ele>324.6666666666667</ele><time>2026-04-19T07:55:43.88Z</time></trkpt><trkpt lat="40.618351413468616" lon="15.01311131463199"><ele>325.0</ele><time>2026-04-19T07:55:44.88Z</time></trkpt><trkpt lat="40.618426818919104" lon="15.013086591722297"><ele>325.33333333333337</ele><time>2026-04-19T07:55:45.879Z</time></trkpt><trkpt lat="40.61850448897884" lon="15.01308171332475"><ele>325.6666666666667</ele><time>2026-04-19T07:55:46.88Z</time></trkpt><trkpt lat="40.618582000327144" lon="15.01307419577462"><ele>326.0</ele><time>2026-04-19T07:55:47.88Z</time></trkpt><trkpt lat="40.61865933315535" lon="15.013068037105011"><ele>328.83333333333337</ele><time>2026-04-19T07:55:48.88Z</time></trkpt><trkpt lat="40.61874355073533" lon="15.013058445719421"><ele>331.6666666666667</ele><time>2026-04-19T07:55:49.88Z</time></trkpt><trkpt lat="40.618817159121875" lon="15.013053715949951"><ele>334.5</ele><time>2026-04-19T07:55:50.88Z</time></trkpt><trkpt lat="40.61888797239689" lon="15.0130524131023"><ele>337.3333333333333</ele><time>2026-04-19T07:55:51.88Z</time></trkpt><trkpt lat="40.61895168001389" lon="15.01308307979162"><ele>340.16666666666663</ele><time>2026-04-19T07:55:52.88Z</time></trkpt><trkpt lat="40.619057820602315" lon="15.01311114893486"><ele>343.0</ele><time>2026-04-19T07:55:54.88Z</time></trkpt><trkpt lat="40.6191172966692" lon="15.013159776361933"><ele>343.0</ele><time>2026-04-19T07:55:56.88Z</time></trkpt><trkpt lat="40.619134550536195" lon="15.013249576586725"><ele>343.0</ele><time>2026-04-19T07:55:58.879Z</time></trkpt><trkpt lat="40.61914945970424" lon="15.013339442742003"><ele>343.0</ele><time>2026-04-19T07:55:59.879Z</time></trkpt><trkpt lat="40.619186588114914" lon="15.013447481930204"><ele>343.0</ele><time>2026-04-19T07:56:00.879Z</time></trkpt><trkpt lat="40.61920594202506" lon="15.013575588371182"><ele>343.0</ele><time>2026-04-19T07:56:01.879Z</time></trkpt><trkpt lat="40.619217392151675" lon="15.01372003636135"><ele>343.0</ele><time>2026-04-19T07:56:02.879Z</time></trkpt><trkpt lat="40.61924618034185" lon="15.013846859294313"><ele>343.0</ele><time>2026-04-19T07:56:03.879Z</time></trkpt><trkpt lat="40.61928951895242" lon="15.013961911167248"><ele>343.0</ele><time>2026-04-19T07:56:04.879Z</time></trkpt><trkpt lat="40.619377340652434" lon="15.01406201101047"><ele>343.0</ele><time>2026-04-19T07:56:05.879Z</time></trkpt><trkpt lat="40.619448075928965" lon="15.014158197619818"><ele>343.0</ele><time>2026-04-19T07:56:06.88Z</time></trkpt><trkpt lat="40.61952183078001" lon="15.01424342353421"><ele>343.0</ele><time>2026-04-19T07:56:07.88Z</time></trkpt><trkpt lat="40.619590376618966" lon="15.014331069887037"><ele>346.79999999999995</ele><time>2026-04-19T07:56:08.88Z</time></trkpt><trkpt lat="40.619651873662086" lon="15.014400834567013"><ele>350.6</ele><time>2026-04-19T07:56:09.88Z</time></trkpt><trkpt lat="40.619764331562216" lon="15.014489109351496"><ele>354.4</ele><time>2026-04-19T07:56:10.88Z</time></trkpt><trkpt lat="40.619844579799015" lon="15.014586290552081"><ele>358.20000000000005</ele><time>2026-04-19T07:56:11.88Z</time></trkpt><trkpt lat="40.619922335325064" lon="15.014662699289406"><ele>362.0</ele><time>2026-04-19T07:56:12.88Z</time></trkpt><trkpt lat="40.62001008513014" lon="15.014750377237114"><ele>362.0</ele><time>2026-04-19T07:56:13.88Z</time></trkpt><trkpt lat="40.62009195000816" lon="15.014804780289253"><ele>362.0</ele><time>2026-04-19T07:56:14.88Z</time></trkpt><trkpt lat="40.62014864430022" lon="15.014897864035408"><ele>362.0</ele><time>2026-04-19T07:56:15.88Z</time></trkpt><trkpt lat="40.62021001481366" lon="15.014999025908116"><ele>362.0</ele><time>2026-04-19T07:56:16.88Z</time></trkpt><trkpt lat="40.62026199133987" lon="15.015099230926664"><ele>362.0</ele><time>2026-04-19T07:56:17.88Z</time></trkpt><trkpt lat="40.620303677246596" lon="15.015192508457444"><ele>366.20000000000005</ele><time>2026-04-19T07:56:18.88Z</time></trkpt><trkpt lat="40.62035033836649" lon="15.015306150715203"><ele>370.4</ele><time>2026-04-19T07:56:19.88Z</time></trkpt><trkpt lat="40.620317620504665" lon="15.015225196967663"><ele>374.6</ele><time>2026-04-19T07:56:20.88Z</time></trkpt><trkpt lat="40.62037121561697" lon="15.015340690968994"><ele>378.79999999999995</ele><time>2026-04-19T07:56:21.88Z</time></trkpt><trkpt lat="40.62042304129146" lon="15.01549289100061"><ele>383.0</ele><time>2026-04-19T07:56:22.88Z</time></trkpt><trkpt lat="40.62046220042265" lon="15.01559200269721"><ele>383.0</ele><time>2026-04-19T07:56:23.88Z</time></trkpt><trkpt lat="40.62049980999775" lon="15.015702273181656"><ele>383.0</ele><time>2026-04-19T07:56:24.88Z</time></trkpt><trkpt lat="40.62051254124427" lon="15.015812796450444"><ele>383.0</ele><time>2026-04-19T07:56:25.88Z</time></trkpt><trkpt lat="40.62054301107936" lon="15.015910490489679"><ele>383.0</ele><time>2026-04-19T07:56:26.88Z</time></trkpt><trkpt lat="40.620593430882096" lon="15.016005605767091"><ele>383.0</ele><time>2026-04-19T07:56:27.88Z</time></trkpt><trkpt lat="40.620658233795844" lon="15.016084811864236"><ele>383.0</ele><time>2026-04-19T07:56:28.88Z</time></trkpt><trkpt lat="40.6207336442619" lon="15.016159303367557"><ele>382.1666666666667</ele><time>2026-04-19T07:56:29.88Z</time></trkpt><trkpt lat="40.62080642050116" lon="15.016212327342942"><ele>381.33333333333337</ele><time>2026-04-19T07:56:30.88Z</time></trkpt><trkpt lat="40.62087449254992" lon="15.016244084853732"><ele>380.5</ele><time>2026-04-19T07:56:31.88Z</time></trkpt><trkpt lat="40.620942366568585" lon="15.016278670886582"><ele>379.6666666666667</ele><time>2026-04-19T07:56:34.88Z</time></trkpt><trkpt lat="40.62101623054953" lon="15.016326878409055"><ele>378.8333333333333</ele><time>2026-04-19T07:56:47.88Z</time></trkpt><trkpt lat="40.62106515977332" lon="15.01638926684591"><ele>378.0</ele><time>2026-04-19T07:57:00.88Z</time></trkpt><trkpt lat="40.62112446475471" lon="15.01644688400007"><ele>378.0</ele><time>2026-04-19T07:57:11.88Z</time></trkpt><trkpt lat="40.62116426825193" lon="15.016524482667869"><ele>378.0</ele><time>2026-04-19T07:57:13.88Z</time></trkpt><trkpt lat="40.62119323997243" lon="15.016606979871755"><ele>378.0</ele><time>2026-04-19T07:57:15.88Z</time></trkpt><trkpt lat="40.62123151952275" lon="15.016688739451975"><ele>378.0</ele><time>2026-04-19T07:57:28.88Z</time></trkpt><trkpt lat="40.62120980641202" lon="15.016610146005865"><ele>378.0</ele><time>2026-04-19T07:57:34.88Z</time></trkpt><trkpt lat="40.621129338656495" lon="15.016489417990169"><ele>378.0</ele><time>2026-04-19T07:57:38.88Z</time></trkpt><trkpt lat="40.62107716441308" lon="15.01639593544301"><ele>378.0</ele><time>2026-04-19T07:57:39.88Z</time></trkpt><trkpt lat="40.620993743887304" lon="15.016287120912024"><ele>378.0</ele><time>2026-04-19T07:57:40.88Z</time></trkpt><trkpt lat="40.62089934344173" lon="15.016152100018509"><ele>378.0</ele><time>2026-04-19T07:57:41.88Z</time></trkpt><trkpt lat="40.62086891481134" lon="15.015942102165695"><ele>378.0</ele><time>2026-04-19T07:57:42.88Z</time></trkpt><trkpt lat="40.62081762237924" lon="15.015775985973026"><ele>379.0</ele><time>2026-04-19T07:57:43.88Z</time></trkpt><trkpt lat="40.62078769788763" lon="15.015610197181438"><ele>380.0</ele><time>2026-04-19T07:57:44.88Z</time></trkpt><trkpt lat="40.62077734034703" lon="15.015470480424472"><ele>381.0</ele><time>2026-04-19T07:57:45.88Z</time></trkpt><trkpt lat="40.6207760280369" lon="15.015339479560279"><ele>382.0</ele><time>2026-04-19T07:57:46.88Z</time></trkpt><trkpt lat="40.62077425863231" lon="15.015207302591095"><ele>383.0</ele><time>2026-04-19T07:57:47.88Z</time></trkpt><trkpt lat="40.62075743633654" lon="15.01506399775171"><ele>384.75</ele><time>2026-04-19T07:57:48.88Z</time></trkpt><trkpt lat="40.620732825182834" lon="15.014892124222769"><ele>386.5</ele><time>2026-04-19T07:57:49.88Z</time></trkpt><trkpt lat="40.62069972111933" lon="15.014722097533006"><ele>388.25</ele><time>2026-04-19T07:57:50.88Z</time></trkpt><trkpt lat="40.62068692497235" lon="15.014553380473723"><ele>390.0</ele><time>2026-04-19T07:57:51.881Z</time></trkpt><trkpt lat="40.620672673123174" lon="15.014386833473493"><ele>390.0</ele><time>2026-04-19T07:57:52.881Z</time></trkpt><trkpt lat="40.62067003334302" lon="15.014250475537319"><ele>390.0</ele><time>2026-04-19T07:57:53.881Z</time></trkpt><trkpt lat="40.620665786150035" lon="15.014108506798264"><ele>390.0</ele><time>2026-04-19T07:57:54.881Z</time></trkpt><trkpt lat="40.62065460140788" lon="15.013971803988223"><ele>390.0</ele><time>2026-04-19T07:57:55.88Z</time></trkpt><trkpt lat="40.62066127243428" lon="15.013851504581336"><ele>390.0</ele><time>2026-04-19T07:57:56.88Z</time></trkpt><trkpt lat="40.620665246747194" lon="15.01372261584667"><ele>390.1666666666667</ele><time>2026-04-19T07:57:57.88Z</time></trkpt><trkpt lat="40.620666902443325" lon="15.01362971881641"><ele>390.33333333333337</ele><time>2026-04-19T07:57:58.88Z</time></trkpt><trkpt lat="40.62065997988415" lon="15.013530286444297"><ele>390.5</ele><time>2026-04-19T07:57:59.88Z</time></trkpt><trkpt lat="40.62065547061551" lon="15.013439898173422"><ele>390.6666666666667</ele><time>2026-04-19T07:58:00.881Z</time></trkpt><trkpt lat="40.620657076589886" lon="15.013349507538406"><ele>390.83333333333337</ele><time>2026-04-19T07:58:01.881Z</time></trkpt><trkpt lat="40.620654631536155" lon="15.01319698669094"><ele>391.0</ele><time>2026-04-19T07:58:03.881Z</time></trkpt><trkpt lat="40.62065675780205" lon="15.013100484157674"><ele>391.4</ele><time>2026-04-19T07:58:05.881Z</time></trkpt><trkpt lat="40.62068236903963" lon="15.013004380972482"><ele>391.8</ele><time>2026-04-19T07:58:09.881Z</time></trkpt><trkpt lat="40.620826002648116" lon="15.012900967479345"><ele>392.2</ele><time>2026-04-19T07:58:10.881Z</time></trkpt><trkpt lat="40.62085548648389" lon="15.012976994128401"><ele>392.59999999999997</ele><time>2026-04-19T07:58:44.881Z</time></trkpt><trkpt lat="40.620771617725886" lon="15.013067265983732"><ele>393.0</ele><time>2026-04-19T08:01:19.882Z</time></trkpt><trkpt lat="40.62084180527082" lon="15.013073733940624"><ele>393.0</ele><time>2026-04-19T08:04:12.883Z</time></trkpt><trkpt lat="40.62092943475029" lon="15.013114573694448"><ele>393.0</ele><time>2026-04-19T08:04:14.882Z</time></trkpt><trkpt lat="40.62099277214733" lon="15.013219949616056"><ele>393.0</ele><time>2026-04-19T08:04:16.882Z</time></trkpt><trkpt lat="40.621030829052515" lon="15.013334679827304"><ele>393.0</ele><time>2026-04-19T08:04:17.883Z</time></trkpt><trkpt lat="40.62109121217756" lon="15.013485708565753"><ele>393.0</ele><time>2026-04-19T08:04:18.883Z</time></trkpt><trkpt lat="40.62112724339674" lon="15.013689891900102"><ele>393.5</ele><time>2026-04-19T08:04:19.883Z</time></trkpt><trkpt lat="40.621188062396946" lon="15.013861065793352"><ele>394.0</ele><time>2026-04-19T08:04:20.883Z</time></trkpt><trkpt lat="40.62125552697137" lon="15.014011969509186"><ele>394.5</ele><time>2026-04-19T08:04:21.882Z</time></trkpt><trkpt lat="40.6213054047032" lon="15.014180977014279"><ele>395.0</ele><time>2026-04-19T08:04:22.882Z</time></trkpt><trkpt lat="40.621359779993384" lon="15.014356308537415"><ele>395.75</ele><time>2026-04-19T08:04:23.882Z</time></trkpt><trkpt lat="40.621424356753714" lon="15.014552642254312"><ele>396.5</ele><time>2026-04-19T08:04:24.882Z</time></trkpt><trkpt lat="40.62148004198098" lon="15.014701238494684"><ele>397.25</ele><time>2026-04-19T08:04:25.882Z</time></trkpt><trkpt lat="40.62151931420726" lon="15.014830911264463"><ele>398.0</ele><time>2026-04-19T08:04:26.882Z</time></trkpt><trkpt lat="40.62155296783984" lon="15.014941491238252"><ele>397.4</ele><time>2026-04-19T08:04:27.882Z</time></trkpt><trkpt lat="40.6215851034706" lon="15.015056025737518"><ele>396.79999999999995</ele><time>2026-04-19T08:04:28.882Z</time></trkpt><trkpt lat="40.621607711806746" lon="15.015186063994339"><ele>396.2</ele><time>2026-04-19T08:04:29.882Z</time></trkpt><trkpt lat="40.621629387504335" lon="15.015305208865023"><ele>395.6</ele><time>2026-04-19T08:04:30.882Z</time></trkpt><trkpt lat="40.62166241617491" lon="15.01543617864962"><ele>395.0</ele><time>2026-04-19T08:04:31.882Z</time></trkpt><trkpt lat="40.62168284732581" lon="15.015558360475184"><ele>395.0</ele><time>2026-04-19T08:04:32.882Z</time></trkpt><trkpt lat="40.62171343161874" lon="15.015679974961845"><ele>395.0</ele><time>2026-04-19T08:04:33.882Z</time></trkpt><trkpt lat="40.621729489779334" lon="15.015819036982586"><ele>395.0</ele><time>2026-04-19T08:04:34.882Z</time></trkpt><trkpt lat="40.62175761047168" lon="15.015955900043387"><ele>395.0</ele><time>2026-04-19T08:04:35.882Z</time></trkpt><trkpt lat="40.621791856302636" lon="15.016069057466552"><ele>395.0</ele><time>2026-04-19T08:04:36.882Z</time></trkpt><trkpt lat="40.62181692107544" lon="15.01618536207553"><ele>394.16666666666663</ele><time>2026-04-19T08:04:37.882Z</time></trkpt><trkpt lat="40.621841057573405" lon="15.016302443586188"><ele>393.3333333333333</ele><time>2026-04-19T08:04:38.883Z</time></trkpt><trkpt lat="40.62186686476351" lon="15.01641465570512"><ele>392.5</ele><time>2026-04-19T08:04:39.883Z</time></trkpt><trkpt lat="40.62189036133344" lon="15.016517822048899"><ele>391.66666666666663</ele><time>2026-04-19T08:04:40.883Z</time></trkpt><trkpt lat="40.621916226067015" lon="15.016625732295898"><ele>390.8333333333333</ele><time>2026-04-19T08:04:41.883Z</time></trkpt><trkpt lat="40.62193727392263" lon="15.016717939917983"><ele>390.0</ele><time>2026-04-19T08:04:42.883Z</time></trkpt><trkpt lat="40.621957186701835" lon="15.016817891176338"><ele>389.5</ele><time>2026-04-19T08:04:43.883Z</time></trkpt><trkpt lat="40.62197679440271" lon="15.016901120533849"><ele>389.0</ele><time>2026-04-19T08:04:44.883Z</time></trkpt><trkpt lat="40.622010013476064" lon="15.017069159701672"><ele>388.5</ele><time>2026-04-19T08:04:46.883Z</time></trkpt><trkpt lat="40.62203258968608" lon="15.017209458566656"><ele>388.0</ele><time>2026-04-19T08:04:48.883Z</time></trkpt><trkpt lat="40.62204231769188" lon="15.017304714214943"><ele>387.5</ele><time>2026-04-19T08:04:50.883Z</time></trkpt><trkpt lat="40.62205159638034" lon="15.017391766146158"><ele>387.0</ele><time>2026-04-19T08:04:52.883Z</time></trkpt><trkpt lat="40.621936524475444" lon="15.017431818102379"><ele>387.0</ele><time>2026-04-19T08:04:54.883Z</time></trkpt><trkpt lat="40.621828566940714" lon="15.017476988551314"><ele>387.0</ele><time>2026-04-19T08:04:56.883Z</time></trkpt><trkpt lat="40.62177353712312" lon="15.017377569243763"><ele>387.0</ele><time>2026-04-19T08:04:57.883Z</time></trkpt><trkpt lat="40.62170908543521" lon="15.017346926305985"><ele>387.0</ele><time>2026-04-19T08:04:58.883Z</time></trkpt><trkpt lat="40.62163707659201" lon="15.01731979672559"><ele>387.0</ele><time>2026-04-19T08:04:59.883Z</time></trkpt><trkpt lat="40.62156402615324" lon="15.017233588269864"><ele>387.0</ele><time>2026-04-19T08:05:00.883Z</time></trkpt><trkpt lat="40.621500205101015" lon="15.017148603505273"><ele>387.0</ele><time>2026-04-19T08:05:01.883Z</time></trkpt><trkpt lat="40.6214458462696" lon="15.017054540531857"><ele>387.0</ele><time>2026-04-19T08:05:02.883Z</time></trkpt><trkpt lat="40.621384215157335" lon="15.016951719029246"><ele>387.0</ele><time>2026-04-19T08:05:03.883Z</time></trkpt><trkpt lat="40.62133437166547" lon="15.016851662870817"><ele>387.0</ele><time>2026-04-19T08:05:04.883Z</time></trkpt><trkpt lat="40.621294242238704" lon="15.016744674680618"><ele>387.0</ele><time>2026-04-19T08:05:05.883Z</time></trkpt><trkpt lat="40.62124234843579" lon="15.016669036689477"><ele>387.0</ele><time>2026-04-19T08:05:06.883Z</time></trkpt><trkpt lat="40.62121386709793" lon="15.01658634168149"><ele>387.5</ele><time>2026-04-19T08:05:07.883Z</time></trkpt><trkpt lat="40.621170687519346" lon="15.016474713284683"><ele>388.0</ele><time>2026-04-19T08:05:09.883Z</time></trkpt><trkpt lat="40.62110718590337" lon="15.016376628195534"><ele>388.5</ele><time>2026-04-19T08:05:11.883Z</time></trkpt><trkpt lat="40.621059468923555" lon="15.016319753647034"><ele>389.0</ele><time>2026-04-19T08:05:14.883Z</time></trkpt><trkpt lat="40.62100775058593" lon="15.016269464498269"><ele>389.5</ele><time>2026-04-19T08:05:31.883Z</time></trkpt><trkpt lat="40.620927434710566" lon="15.016232393518704"><ele>390.0</ele><time>2026-04-19T08:05:34.883Z</time></trkpt><trkpt lat="40.620789672100145" lon="15.016613076495526"><ele>388.0</ele><time>2026-04-19T08:05:35.883Z</time></trkpt><trkpt lat="40.62073280545787" lon="15.016681990298604"><ele>386.0</ele><time>2026-04-19T08:05:36.883Z</time></trkpt><trkpt lat="40.62067272717733" lon="15.016765214237287"><ele>384.0</ele><time>2026-04-19T08:05:37.883Z</time></trkpt><trkpt lat="40.62060195936502" lon="15.016840230611148"><ele>382.0</ele><time>2026-04-19T08:05:38.883Z</time></trkpt><trkpt lat="40.6205403240417" lon="15.01690270050778"><ele>380.0</ele><time>2026-04-19T08:05:39.883Z</time></trkpt><trkpt lat="40.62048311863474" lon="15.016974017536823"><ele>378.0</ele><time>2026-04-19T08:05:40.883Z</time></trkpt><trkpt lat="40.62044481687557" lon="15.017039891278863"><ele>378.0</ele><time>2026-04-19T08:05:41.883Z</time></trkpt><trkpt lat="40.62040281363634" lon="15.017182006402107"><ele>378.0</ele><time>2026-04-19T08:05:43.883Z</time></trkpt><trkpt lat="40.620399500741975" lon="15.017359769092641"><ele>378.0</ele><time>2026-04-19T08:05:45.883Z</time></trkpt><trkpt lat="40.620394758856285" lon="15.017465785291481"><ele>378.0</ele><time>2026-04-19T08:05:46.883Z</time></trkpt><trkpt lat="40.620379665493054" lon="15.017570961822198"><ele>378.0</ele><time>2026-04-19T08:05:47.883Z</time></trkpt><trkpt lat="40.620357909180115" lon="15.017673918131178"><ele>377.6666666666667</ele><time>2026-04-19T08:05:48.883Z</time></trkpt><trkpt lat="40.620325893248605" lon="15.017778126106492"><ele>377.3333333333333</ele><time>2026-04-19T08:05:49.883Z</time></trkpt><trkpt lat="40.62028701789417" lon="15.01788437582462"><ele>377.0</ele><time>2026-04-19T08:05:50.883Z</time></trkpt><trkpt lat="40.62025905461023" lon="15.01799019229044"><ele>376.66666666666663</ele><time>2026-04-19T08:05:51.883Z</time></trkpt><trkpt lat="40.620254371868064" lon="15.018105125118042"><ele>376.3333333333333</ele><time>2026-04-19T08:05:52.883Z</time></trkpt><trkpt lat="40.620258658584326" lon="15.018197379473989"><ele>376.0</ele><time>2026-04-19T08:05:53.883Z</time></trkpt><trkpt lat="40.62031191878508" lon="15.018347404581766"><ele>376.5</ele><time>2026-04-19T08:05:55.883Z</time></trkpt><trkpt lat="40.620369534528116" lon="15.018446804177799"><ele>377.0</ele><time>2026-04-19T08:05:56.883Z</time></trkpt><trkpt lat="40.620439539321545" lon="15.018563625982873"><ele>377.5</ele><time>2026-04-19T08:05:57.883Z</time></trkpt><trkpt lat="40.62049869390062" lon="15.01871196876902"><ele>378.0</ele><time>2026-04-19T08:05:58.883Z</time></trkpt><trkpt lat="40.62056192745822" lon="15.018867459378466"><ele>378.0</ele><time>2026-04-19T08:05:59.883Z</time></trkpt><trkpt lat="40.62062123453304" lon="15.01900232124466"><ele>378.0</ele><time>2026-04-19T08:06:00.883Z</time></trkpt><trkpt lat="40.620673120642564" lon="15.019124488495402"><ele>378.0</ele><time>2026-04-19T08:06:01.883Z</time></trkpt><trkpt lat="40.62071992651745" lon="15.019231965417188"><ele>378.0</ele><time>2026-04-19T08:06:02.883Z</time></trkpt><trkpt lat="40.62075274886091" lon="15.019358445698568"><ele>378.0</ele><time>2026-04-19T08:06:03.883Z</time></trkpt><trkpt lat="40.62079955782108" lon="15.019476799342389"><ele>378.79999999999995</ele><time>2026-04-19T08:06:04.883Z</time></trkpt><trkpt lat="40.620863111851264" lon="15.019594145791949"><ele>379.6</ele><time>2026-04-19T08:06:05.883Z</time></trkpt><trkpt lat="40.62090693649085" lon="15.019728131904305"><ele>380.4</ele><time>2026-04-19T08:06:06.883Z</time></trkpt><trkpt lat="40.62095861099838" lon="15.019857557385295"><ele>381.20000000000005</ele><time>2026-04-19T08:06:07.883Z</time></trkpt><trkpt lat="40.621007159673674" lon="15.019980863740551"><ele>382.0</ele><time>2026-04-19T08:06:08.883Z</time></trkpt><trkpt lat="40.621043047585076" lon="15.020110035908045"><ele>382.0</ele><time>2026-04-19T08:06:09.883Z</time></trkpt><trkpt lat="40.62109071218661" lon="15.020232410393968"><ele>382.0</ele><time>2026-04-19T08:06:10.883Z</time></trkpt><trkpt lat="40.621136847841704" lon="15.020350590793234"><ele>382.0</ele><time>2026-04-19T08:06:11.883Z</time></trkpt><trkpt lat="40.621183299868974" lon="15.020469581567749"><ele>382.0</ele><time>2026-04-19T08:06:12.883Z</time></trkpt><trkpt lat="40.62124488081806" lon="15.020579489943476"><ele>382.0</ele><time>2026-04-19T08:06:13.883Z</time></trkpt><trkpt lat="40.62128396470585" lon="15.020699604867433"><ele>382.5</ele><time>2026-04-19T08:06:14.883Z</time></trkpt><trkpt lat="40.62132598728081" lon="15.02079947426546"><ele>383.0</ele><time>2026-04-19T08:06:15.883Z</time></trkpt><trkpt lat="40.62137024833911" lon="15.020896835932755"><ele>383.5</ele><time>2026-04-19T08:06:16.883Z</time></trkpt><trkpt lat="40.62140286612794" lon="15.021007783931555"><ele>384.0</ele><time>2026-04-19T08:06:17.883Z</time></trkpt><trkpt lat="40.62144401727293" lon="15.021106027258261"><ele>384.50000000000006</ele><time>2026-04-19T08:06:18.883Z</time></trkpt><trkpt lat="40.6214709841636" lon="15.021197175154887"><ele>385.0</ele><time>2026-04-19T08:06:19.883Z</time></trkpt><trkpt lat="40.621523599424364" lon="15.021279072160489"><ele>385.00000000000006</ele><time>2026-04-19T08:06:20.883Z</time></trkpt><trkpt lat="40.62155011762106" lon="15.021378381196024"><ele>385.0</ele><time>2026-04-19T08:06:21.883Z</time></trkpt><trkpt lat="40.621585263959" lon="15.021480749562413"><ele>385.0</ele><time>2026-04-19T08:06:22.883Z</time></trkpt><trkpt lat="40.621619884097434" lon="15.021582536957744"><ele>385.0</ele><time>2026-04-19T08:06:23.883Z</time></trkpt><trkpt lat="40.621668851922635" lon="15.021684765108041"><ele>385.00000000000006</ele><time>2026-04-19T08:06:24.883Z</time></trkpt><trkpt lat="40.621725401809016" lon="15.021776809285361"><ele>385.0</ele><time>2026-04-19T08:06:25.883Z</time></trkpt><trkpt lat="40.6217842496515" lon="15.021881869036402"><ele>385.50000000000006</ele><time>2026-04-19T08:06:26.883Z</time></trkpt><trkpt lat="40.62183414554224" lon="15.021978956470683"><ele>386.0</ele><time>2026-04-19T08:06:27.883Z</time></trkpt><trkpt lat="40.62188514724221" lon="15.02207132031874"><ele>386.5</ele><time>2026-04-19T08:06:28.883Z</time></trkpt><trkpt lat="40.62193810906559" lon="15.022168111525763"><ele>387.0</ele><time>2026-04-19T08:06:29.883Z</time></trkpt><trkpt lat="40.62199431832839" lon="15.022257418013792"><ele>387.50000000000006</ele><time>2026-04-19T08:06:30.883Z</time></trkpt><trkpt lat="40.622043049687434" lon="15.022364202419826"><ele>388.0</ele><time>2026-04-19T08:06:31.883Z</time></trkpt><trkpt lat="40.622083069409186" lon="15.02245901602049"><ele>388.0</ele><time>2026-04-19T08:06:32.883Z</time></trkpt><trkpt lat="40.62212299399348" lon="15.022570636287089"><ele>388.0</ele><time>2026-04-19T08:06:33.883Z</time></trkpt><trkpt lat="40.62216461839108" lon="15.022685368584817"><ele>388.0</ele><time>2026-04-19T08:06:34.883Z</time></trkpt><trkpt lat="40.62222001176228" lon="15.022822821102675"><ele>388.0</ele><time>2026-04-19T08:06:35.883Z</time></trkpt><trkpt lat="40.62227936456067" lon="15.022960795795958"><ele>388.0</ele><time>2026-04-19T08:06:36.883Z</time></trkpt><trkpt lat="40.622338738280355" lon="15.023102879476378"><ele>388.0</ele><time>2026-04-19T08:06:37.883Z</time></trkpt><trkpt lat="40.622393900239146" lon="15.023234967866042"><ele>388.0</ele><time>2026-04-19T08:06:38.883Z</time></trkpt><trkpt lat="40.62243964579782" lon="15.023356287018945"><ele>388.0</ele><time>2026-04-19T08:06:39.883Z</time></trkpt><trkpt lat="40.62247981882671" lon="15.023480904498141"><ele>388.0</ele><time>2026-04-19T08:06:40.883Z</time></trkpt><trkpt lat="40.62253294724688" lon="15.023607627189886"><ele>388.0</ele><time>2026-04-19T08:06:41.883Z</time></trkpt><trkpt lat="40.62258431792963" lon="15.023733963008356"><ele>387.59999999999997</ele><time>2026-04-19T08:06:42.883Z</time></trkpt><trkpt lat="40.62263402709102" lon="15.023841011973785"><ele>387.2</ele><time>2026-04-19T08:06:43.883Z</time></trkpt><trkpt lat="40.62267768874106" lon="15.023954111075195"><ele>386.8</ele><time>2026-04-19T08:06:44.883Z</time></trkpt><trkpt lat="40.622726384063895" lon="15.024067546239756"><ele>386.4</ele><time>2026-04-19T08:06:45.883Z</time></trkpt><trkpt lat="40.62277460537884" lon="15.024176064303617"><ele>386.0</ele><time>2026-04-19T08:06:46.883Z</time></trkpt><trkpt lat="40.62282176173449" lon="15.024291258992879"><ele>389.20000000000005</ele><time>2026-04-19T08:06:47.883Z</time></trkpt><trkpt lat="40.62285022478896" lon="15.024421258511694"><ele>392.40000000000003</ele><time>2026-04-19T08:06:48.884Z</time></trkpt><trkpt lat="40.62289251166301" lon="15.024523622169458"><ele>395.6</ele><time>2026-04-19T08:06:49.884Z</time></trkpt><trkpt lat="40.622936738791495" lon="15.024630682991203"><ele>398.8</ele><time>2026-04-19T08:06:50.884Z</time></trkpt><trkpt lat="40.62297218630862" lon="15.024716490992105"><ele>402.0</ele><time>2026-04-19T08:06:51.884Z</time></trkpt><trkpt lat="40.6230259157997" lon="15.02483847703469"><ele>402.0</ele><time>2026-04-19T08:06:53.884Z</time></trkpt><trkpt lat="40.62310275337067" lon="15.02491310179016"><ele>402.0</ele><time>2026-04-19T08:06:55.884Z</time></trkpt><trkpt lat="40.623221993841376" lon="15.02484522311003"><ele>402.0</ele><time>2026-04-19T08:06:57.884Z</time></trkpt><trkpt lat="40.62327783086915" lon="15.024883989461905"><ele>402.0</ele><time>2026-04-19T08:06:59.884Z</time></trkpt><trkpt lat="40.623301916501774" lon="15.024992731289572"><ele>402.0</ele><time>2026-04-19T08:07:02.884Z</time></trkpt><trkpt lat="40.623372477230134" lon="15.025123248543634"><ele>402.1666666666667</ele><time>2026-04-19T08:07:04.884Z</time></trkpt><trkpt lat="40.623429689528265" lon="15.025229074586893"><ele>402.33333333333337</ele><time>2026-04-19T08:07:06.884Z</time></trkpt><trkpt lat="40.6234830045025" lon="15.025326761755851"><ele>402.5</ele><time>2026-04-19T08:07:08.884Z</time></trkpt><trkpt lat="40.623518247066194" lon="15.025400227166152"><ele>402.6666666666667</ele><time>2026-04-19T08:07:11.884Z</time></trkpt><trkpt lat="40.62355980823043" lon="15.025465951786055"><ele>402.83333333333337</ele><time>2026-04-19T08:07:34.884Z</time></trkpt><trkpt lat="40.62362932490978" lon="15.025568278936479"><ele>403.0</ele><time>2026-04-19T08:07:36.884Z</time></trkpt><trkpt lat="40.62371386281639" lon="15.025581673188057"><ele>402.33333333333337</ele><time>2026-04-19T08:07:37.884Z</time></trkpt><trkpt lat="40.62376926056093" lon="15.025662368059695"><ele>401.6666666666667</ele><time>2026-04-19T08:07:38.884Z</time></trkpt><trkpt lat="40.623817458019396" lon="15.025753796242764"><ele>401.0</ele><time>2026-04-19T08:07:39.884Z</time></trkpt><trkpt lat="40.623860393794025" lon="15.025848237735861"><ele>400.33333333333337</ele><time>2026-04-19T08:07:40.884Z</time></trkpt><trkpt lat="40.62390030041615" lon="15.025934758436117"><ele>399.6666666666667</ele><time>2026-04-19T08:07:41.884Z</time></trkpt><trkpt lat="40.623942927501545" lon="15.026023452529342"><ele>399.0</ele><time>2026-04-19T08:07:42.884Z</time></trkpt><trkpt lat="40.62398363606031" lon="15.026107691404752"><ele>399.0</ele><time>2026-04-19T08:07:43.884Z</time></trkpt><trkpt lat="40.62401910186365" lon="15.026180941231152"><ele>399.0</ele><time>2026-04-19T08:07:44.884Z</time></trkpt><trkpt lat="40.6240731049449" lon="15.02629247704924"><ele>399.0</ele><time>2026-04-19T08:07:46.884Z</time></trkpt><trkpt lat="40.62410806735007" lon="15.026364687024746"><ele>399.0</ele><time>2026-04-19T08:07:49.884Z</time></trkpt><trkpt lat="40.62414716656951" lon="15.026445441122581"><ele>399.0</ele><time>2026-04-19T08:07:51.884Z</time></trkpt><trkpt lat="40.62419231345315" lon="15.026538685792982"><ele>399.0</ele><time>2026-04-19T08:07:53.884Z</time></trkpt><trkpt lat="40.624227827424406" lon="15.026612034694907"><ele>398.6</ele><time>2026-04-19T08:07:55.884Z</time></trkpt><trkpt lat="40.62428366684444" lon="15.026729033443575"><ele>398.2</ele><time>2026-04-19T08:07:57.884Z</time></trkpt><trkpt lat="40.62433774147157" lon="15.02684138510428"><ele>397.8</ele><time>2026-04-19T08:07:58.884Z</time></trkpt><trkpt lat="40.62439567654945" lon="15.026957571565017"><ele>397.40000000000003</ele><time>2026-04-19T08:07:59.884Z</time></trkpt><trkpt lat="40.62446693497173" lon="15.027061555063705"><ele>397.0</ele><time>2026-04-19T08:08:00.884Z</time></trkpt><trkpt lat="40.62451296994236" lon="15.027157497676551"><ele>395.83333333333337</ele><time>2026-04-19T08:08:01.884Z</time></trkpt><trkpt lat="40.624557074101254" lon="15.0272403906121"><ele>394.6666666666667</ele><time>2026-04-19T08:08:02.884Z</time></trkpt><trkpt lat="40.62459498711166" lon="15.027310579319307"><ele>393.5</ele><time>2026-04-19T08:08:03.884Z</time></trkpt><trkpt lat="40.624627027425205" lon="15.027399048212416"><ele>392.33333333333337</ele><time>2026-04-19T08:08:04.884Z</time></trkpt><trkpt lat="40.62466336097599" lon="15.027467969388294"><ele>391.1666666666667</ele><time>2026-04-19T08:08:05.884Z</time></trkpt><trkpt lat="40.624707093098145" lon="15.027550924846926"><ele>390.0</ele><time>2026-04-19T08:08:06.884Z</time></trkpt><trkpt lat="40.62477897410317" lon="15.02765937975804"><ele>390.0</ele><time>2026-04-19T08:08:08.884Z</time></trkpt><trkpt lat="40.6248399009146" lon="15.02776979628555"><ele>390.0</ele><time>2026-04-19T08:08:10.884Z</time></trkpt><trkpt lat="40.62489211834573" lon="15.027893969935343"><ele>390.0</ele><time>2026-04-19T08:08:12.884Z</time></trkpt><trkpt lat="40.62495202481813" lon="15.02800410890226"><ele>390.0</ele><time>2026-04-19T08:08:14.884Z</time></trkpt><trkpt lat="40.62502159970704" lon="15.02810330494801"><ele>390.0</ele><time>2026-04-19T08:08:16.884Z</time></trkpt><trkpt lat="40.62507275350528" lon="15.02820470796357"><ele>390.0</ele><time>2026-04-19T08:08:18.884Z</time></trkpt><trkpt lat="40.62511999979417" lon="15.028285823666723"><ele>390.0</ele><time>2026-04-19T08:08:20.883Z</time></trkpt><trkpt lat="40.6251654841316" lon="15.028347375553237"><ele>390.0</ele><time>2026-04-19T08:08:22.884Z</time></trkpt><trkpt lat="40.625218008852734" lon="15.028433039222849"><ele>390.0</ele><time>2026-04-19T08:08:24.883Z</time></trkpt><trkpt lat="40.625272471900814" lon="15.028503660662588"><ele>390.0</ele><time>2026-04-19T08:08:26.883Z</time></trkpt><trkpt lat="40.6253176634891" lon="15.028588850191037"><ele>390.0</ele><time>2026-04-19T08:08:28.884Z</time></trkpt><trkpt lat="40.62538296449998" lon="15.028647898356288"><ele>388.0</ele><time>2026-04-19T08:08:30.883Z</time></trkpt><trkpt lat="40.62543848271947" lon="15.028727059225323"><ele>386.0</ele><time>2026-04-19T08:08:32.883Z</time></trkpt><trkpt lat="40.62548895562012" lon="15.028822093565424"><ele>384.0</ele><time>2026-04-19T08:08:34.883Z</time></trkpt><trkpt lat="40.62555336943009" lon="15.028909416437681"><ele>382.0</ele><time>2026-04-19T08:08:36.883Z</time></trkpt><trkpt lat="40.62562084470759" lon="15.028978865427153"><ele>380.0</ele><time>2026-04-19T08:08:38.883Z</time></trkpt><trkpt lat="40.62568639612469" lon="15.02908977834076"><ele>379.6</ele><time>2026-04-19T08:08:40.883Z</time></trkpt><trkpt lat="40.62577980074275" lon="15.0291915447747"><ele>379.2</ele><time>2026-04-19T08:08:42.883Z</time></trkpt><trkpt lat="40.625845638493665" lon="15.029303526354436"><ele>378.79999999999995</ele><time>2026-04-19T08:08:44.883Z</time></trkpt><trkpt lat="40.62592891394762" lon="15.029413390252495"><ele>378.4</ele><time>2026-04-19T08:08:46.883Z</time></trkpt><trkpt lat="40.62598150302555" lon="15.029482667511306"><ele>378.0</ele><time>2026-04-19T08:08:47.883Z</time></trkpt><trkpt lat="40.62603865924936" lon="15.029525281281261"><ele>378.0</ele><time>2026-04-19T08:08:48.883Z</time></trkpt><trkpt lat="40.62607584642358" lon="15.029595078603556"><ele>378.0</ele><time>2026-04-19T08:08:49.883Z</time></trkpt><trkpt lat="40.626137913715944" lon="15.029679208978784"><ele>378.0</ele><time>2026-04-19T08:08:51.883Z</time></trkpt><trkpt lat="40.62621730371696" lon="15.029775881925548"><ele>378.0</ele><time>2026-04-19T08:08:53.883Z</time></trkpt><trkpt lat="40.62627775232215" lon="15.029820822620795"><ele>378.0</ele><time>2026-04-19T08:08:54.883Z</time></trkpt><trkpt lat="40.62638170574116" lon="15.029874631122798"><ele>378.0</ele><time>2026-04-19T08:08:56.883Z</time></trkpt><trkpt lat="40.62649190320182" lon="15.02989853310629"><ele>376.59999999999997</ele><time>2026-04-19T08:08:58.883Z</time></trkpt><trkpt lat="40.62662068313979" lon="15.02990011943033"><ele>375.2</ele><time>2026-04-19T08:09:00.883Z</time></trkpt><trkpt lat="40.62669910554515" lon="15.029903258169508"><ele>373.8</ele><time>2026-04-19T08:09:01.883Z</time></trkpt><trkpt lat="40.6267875727446" lon="15.029910297315755"><ele>372.4</ele><time>2026-04-19T08:09:02.883Z</time></trkpt><trkpt lat="40.6268831778806" lon="15.029900263895135"><ele>371.0</ele><time>2026-04-19T08:09:03.883Z</time></trkpt><trkpt lat="40.6270134130319" lon="15.029893313093472"><ele>367.0</ele><time>2026-04-19T08:09:04.883Z</time></trkpt><trkpt lat="40.627174573841884" lon="15.029885052289089"><ele>363.0</ele><time>2026-04-19T08:09:05.883Z</time></trkpt><trkpt lat="40.627333186535054" lon="15.029880296150168"><ele>359.0</ele><time>2026-04-19T08:09:06.883Z</time></trkpt><trkpt lat="40.62749524781075" lon="15.029874033696569"><ele>359.0</ele><time>2026-04-19T08:09:07.883Z</time></trkpt><trkpt lat="40.62764773504539" lon="15.029873204005815"><ele>359.0</ele><time>2026-04-19T08:09:08.883Z</time></trkpt><trkpt lat="40.6278130691007" lon="15.029873233952605"><ele>359.0</ele><time>2026-04-19T08:09:09.883Z</time></trkpt><trkpt lat="40.6279624156397" lon="15.029878421884703"><ele>358.0</ele><time>2026-04-19T08:09:10.883Z</time></trkpt><trkpt lat="40.628110919118015" lon="15.029877543106114"><ele>357.0</ele><time>2026-04-19T08:09:11.883Z</time></trkpt><trkpt lat="40.62826351981798" lon="15.02987861397733"><ele>356.0</ele><time>2026-04-19T08:09:12.883Z</time></trkpt><trkpt lat="40.628412568715376" lon="15.029874924958037"><ele>356.0</ele><time>2026-04-19T08:09:13.883Z</time></trkpt><trkpt lat="40.62856932206908" lon="15.029876796136298"><ele>356.0</ele><time>2026-04-19T08:09:14.883Z</time></trkpt><trkpt lat="40.628726016586434" lon="15.029871075878129"><ele>356.0</ele><time>2026-04-19T08:09:15.883Z</time></trkpt><trkpt lat="40.628873200637834" lon="15.029871283102297"><ele>354.6666666666667</ele><time>2026-04-19T08:09:16.883Z</time></trkpt><trkpt lat="40.62902505959518" lon="15.029865910780405"><ele>353.3333333333333</ele><time>2026-04-19T08:09:17.883Z</time></trkpt><trkpt lat="40.62917507911108" lon="15.029868356534683"><ele>352.0</ele><time>2026-04-19T08:09:18.883Z</time></trkpt><trkpt lat="40.62932605848654" lon="15.029867880759419"><ele>352.0</ele><time>2026-04-19T08:09:19.883Z</time></trkpt><trkpt lat="40.62947117309432" lon="15.02986605693946"><ele>352.0</ele><time>2026-04-19T08:09:20.883Z</time></trkpt><trkpt lat="40.62961142633428" lon="15.029867973121501"><ele>352.0</ele><time>2026-04-19T08:09:21.883Z</time></trkpt><trkpt lat="40.62974803355684" lon="15.029872072167139"><ele>352.0</ele><time>2026-04-19T08:09:22.883Z</time></trkpt><trkpt lat="40.62987932074577" lon="15.029868769972897"><ele>352.20000000000005</ele><time>2026-04-19T08:09:23.883Z</time></trkpt><trkpt lat="40.62999546253125" lon="15.029862456508285"><ele>352.4</ele><time>2026-04-19T08:09:24.883Z</time></trkpt><trkpt lat="40.630102983164086" lon="15.02985881045643"><ele>352.6</ele><time>2026-04-19T08:09:25.883Z</time></trkpt><trkpt lat="40.63017570712215" lon="15.029864657612185"><ele>352.79999999999995</ele><time>2026-04-19T08:09:26.883Z</time></trkpt><trkpt lat="40.63023456521126" lon="15.029918052769487"><ele>353.0</ele><time>2026-04-19T08:09:27.883Z</time></trkpt><trkpt lat="40.63026750056905" lon="15.030021193715793"><ele>353.6666666666667</ele><time>2026-04-19T08:09:28.883Z</time></trkpt><trkpt lat="40.630279802039944" lon="15.030142909486216"><ele>354.33333333333337</ele><time>2026-04-19T08:09:29.883Z</time></trkpt><trkpt lat="40.63028289460086" lon="15.030251680773032"><ele>355.0</ele><time>2026-04-19T08:09:30.883Z</time></trkpt><trkpt lat="40.63029540715711" lon="15.030353103061174"><ele>355.6666666666667</ele><time>2026-04-19T08:09:31.883Z</time></trkpt><trkpt lat="40.630314780158216" lon="15.030455304949578"><ele>356.3333333333333</ele><time>2026-04-19T08:09:32.883Z</time></trkpt><trkpt lat="40.63032770160882" lon="15.030552710356318"><ele>357.0</ele><time>2026-04-19T08:09:33.883Z</time></trkpt><trkpt lat="40.630349518231725" lon="15.030633099627154"><ele>357.2857142857143</ele><time>2026-04-19T08:09:34.883Z</time></trkpt><trkpt lat="40.63034943778994" lon="15.03075993603598"><ele>357.57142857142856</ele><time>2026-04-19T08:09:36.883Z</time></trkpt><trkpt lat="40.630366078764204" lon="15.030872122546613"><ele>357.8571428571429</ele><time>2026-04-19T08:09:38.883Z</time></trkpt><trkpt lat="40.63037918014841" lon="15.03095950423098"><ele>358.1428571428571</ele><time>2026-04-19T08:09:40.883Z</time></trkpt><trkpt lat="40.63039847826843" lon="15.031042830238071"><ele>358.42857142857144</ele><time>2026-04-19T08:09:42.883Z</time></trkpt><trkpt lat="40.63040810239436" lon="15.031124963846793"><ele>358.7142857142857</ele><time>2026-04-19T08:09:44.883Z</time></trkpt><trkpt lat="40.630433590763445" lon="15.031206738299558"><ele>359.0</ele><time>2026-04-19T08:09:46.883Z</time></trkpt><trkpt lat="40.6305060046324" lon="15.031260700943015"><ele>360.0</ele><time>2026-04-19T08:09:49.883Z</time></trkpt><trkpt lat="40.63060799054366" lon="15.031220396539343"><ele>361.0</ele><time>2026-04-19T08:09:51.883Z</time></trkpt><trkpt lat="40.63068058943106" lon="15.031178861223738"><ele>362.0</ele><time>2026-04-19T08:09:52.883Z</time></trkpt><trkpt lat="40.63077040851578" lon="15.031114007035765"><ele>363.0</ele><time>2026-04-19T08:09:53.883Z</time></trkpt><trkpt lat="40.63087520067836" lon="15.031044633252954"><ele>364.0</ele><time>2026-04-19T08:09:54.883Z</time></trkpt><trkpt lat="40.63098899971927" lon="15.030972419234045"><ele>364.0</ele><time>2026-04-19T08:09:55.883Z</time></trkpt><trkpt lat="40.63110635674752" lon="15.030874622945477"><ele>364.0</ele><time>2026-04-19T08:09:56.883Z</time></trkpt><trkpt lat="40.63125052213198" lon="15.0307743454323"><ele>364.0</ele><time>2026-04-19T08:09:57.883Z</time></trkpt><trkpt lat="40.63140103439099" lon="15.030681422846945"><ele>361.66666666666663</ele><time>2026-04-19T08:09:58.883Z</time></trkpt><trkpt lat="40.631559130382605" lon="15.030598535112166"><ele>359.3333333333333</ele><time>2026-04-19T08:09:59.883Z</time></trkpt><trkpt lat="40.631701621461616" lon="15.030512318487173"><ele>357.0</ele><time>2026-04-19T08:10:00.883Z</time></trkpt><trkpt lat="40.63183149803956" lon="15.030424554962634"><ele>357.0</ele><time>2026-04-19T08:10:01.883Z</time></trkpt><trkpt lat="40.631951883968206" lon="15.030354716720378"><ele>357.0</ele><time>2026-04-19T08:10:02.883Z</time></trkpt><trkpt lat="40.63207054740645" lon="15.030283394496559"><ele>357.0</ele><time>2026-04-19T08:10:03.883Z</time></trkpt><trkpt lat="40.63218115657904" lon="15.030213577440719"><ele>357.0</ele><time>2026-04-19T08:10:04.883Z</time></trkpt><trkpt lat="40.63230176175316" lon="15.030170249952299"><ele>355.8</ele><time>2026-04-19T08:10:05.883Z</time></trkpt><trkpt lat="40.63239909951256" lon="15.03010511271028"><ele>354.6</ele><time>2026-04-19T08:10:06.883Z</time></trkpt><trkpt lat="40.63248686213834" lon="15.030029020618203"><ele>353.40000000000003</ele><time>2026-04-19T08:10:07.883Z</time></trkpt><trkpt lat="40.632585683833945" lon="15.02998746264104"><ele>352.20000000000005</ele><time>2026-04-19T08:10:08.884Z</time></trkpt><trkpt lat="40.632673357971974" lon="15.029985558370655"><ele>351.0</ele><time>2026-04-19T08:10:09.884Z</time></trkpt><trkpt lat="40.632740073221015" lon="15.029999596018994"><ele>350.5</ele><time>2026-04-19T08:10:10.884Z</time></trkpt><trkpt lat="40.63281376807455" lon="15.030021945592583"><ele>350.0</ele><time>2026-04-19T08:10:11.884Z</time></trkpt><trkpt lat="40.63288686988443" lon="15.030038783053838"><ele>349.5</ele><time>2026-04-19T08:10:12.884Z</time></trkpt><trkpt lat="40.63302427654747" lon="15.03004908797628"><ele>349.0</ele><time>2026-04-19T08:10:14.883Z</time></trkpt><trkpt lat="40.633093420261865" lon="15.030071946562742"><ele>348.5</ele><time>2026-04-19T08:10:15.883Z</time></trkpt><trkpt lat="40.6331649220901" lon="15.030094910657304"><ele>348.0</ele><time>2026-04-19T08:10:16.883Z</time></trkpt><trkpt lat="40.633232831604424" lon="15.030110581927687"><ele>348.0</ele><time>2026-04-19T08:10:17.882Z</time></trkpt><trkpt lat="40.63330836310737" lon="15.030128642772913"><ele>348.0</ele><time>2026-04-19T08:10:18.882Z</time></trkpt><trkpt lat="40.633388153317675" lon="15.030141856316376"><ele>348.0</ele><time>2026-04-19T08:10:19.882Z</time></trkpt><trkpt lat="40.63346846870125" lon="15.030166859777077"><ele>348.0</ele><time>2026-04-19T08:10:20.882Z</time></trkpt><trkpt lat="40.63355582490593" lon="15.030196828912306"><ele>348.0</ele><time>2026-04-19T08:10:21.881Z</time></trkpt><trkpt lat="40.63363607618376" lon="15.030249329606873"><ele>348.0</ele><time>2026-04-19T08:10:22.881Z</time></trkpt><trkpt lat="40.63372875126298" lon="15.030308943374807"><ele>345.25</ele><time>2026-04-19T08:10:23.881Z</time></trkpt><trkpt lat="40.633805097063515" lon="15.030410127171868"><ele>342.5</ele><time>2026-04-19T08:10:24.881Z</time></trkpt><trkpt lat="40.633904773145744" lon="15.03050409137999"><ele>339.75</ele><time>2026-04-19T08:10:25.881Z</time></trkpt><trkpt lat="40.63399918695994" lon="15.03058866112893"><ele>337.0</ele><time>2026-04-19T08:10:26.881Z</time></trkpt><trkpt lat="40.63409186478941" lon="15.030671675862804"><ele>337.0</ele><time>2026-04-19T08:10:27.88Z</time></trkpt><trkpt lat="40.634181000201714" lon="15.030752666873207"><ele>337.0</ele><time>2026-04-19T08:10:28.88Z</time></trkpt><trkpt lat="40.63426611408118" lon="15.030831150822959"><ele>337.0</ele><time>2026-04-19T08:10:29.88Z</time></trkpt><trkpt lat="40.63435756492881" lon="15.030896934039161"><ele>337.0</ele><time>2026-04-19T08:10:30.88Z</time></trkpt><trkpt lat="40.63443498908977" lon="15.030970103302634"><ele>337.0</ele><time>2026-04-19T08:10:31.879Z</time></trkpt><trkpt lat="40.63451290972288" lon="15.031039914348629"><ele>335.8</ele><time>2026-04-19T08:10:32.879Z</time></trkpt><trkpt lat="40.634566785466895" lon="15.031138467714632"><ele>334.6</ele><time>2026-04-19T08:10:33.879Z</time></trkpt><trkpt lat="40.63462637914074" lon="15.031225835424078"><ele>333.40000000000003</ele><time>2026-04-19T08:10:34.879Z</time></trkpt><trkpt lat="40.6346946559377" lon="15.031326674644946"><ele>332.20000000000005</ele><time>2026-04-19T08:10:35.88Z</time></trkpt><trkpt lat="40.63477232239619" lon="15.031411716667387"><ele>331.0</ele><time>2026-04-19T08:10:36.88Z</time></trkpt><trkpt lat="40.6348324714046" lon="15.031504532834184"><ele>331.0</ele><time>2026-04-19T08:10:37.879Z</time></trkpt><trkpt lat="40.63488988621091" lon="15.03159186207414"><ele>331.0</ele><time>2026-04-19T08:10:38.879Z</time></trkpt><trkpt lat="40.63494626833705" lon="15.031673084357571"><ele>331.0</ele><time>2026-04-19T08:10:39.879Z</time></trkpt><trkpt lat="40.634990795242565" lon="15.031758436046525"><ele>331.0</ele><time>2026-04-19T08:10:40.879Z</time></trkpt><trkpt lat="40.6350675682632" lon="15.031801353384926"><ele>331.0</ele><time>2026-04-19T08:10:41.879Z</time></trkpt><trkpt lat="40.635153704562136" lon="15.031798955130437"><ele>331.0</ele><time>2026-04-19T08:10:42.879Z</time></trkpt><trkpt lat="40.635222098903775" lon="15.031745529794641"><ele>331.20000000000005</ele><time>2026-04-19T08:10:43.879Z</time></trkpt><trkpt lat="40.63527999176855" lon="15.03167216144888"><ele>331.40000000000003</ele><time>2026-04-19T08:10:44.879Z</time></trkpt><trkpt lat="40.63532373878215" lon="15.031560409259573"><ele>331.6</ele><time>2026-04-19T08:10:45.879Z</time></trkpt><trkpt lat="40.63534465946078" lon="15.031438868459567"><ele>331.8</ele><time>2026-04-19T08:10:46.879Z</time></trkpt><trkpt lat="40.63535656282685" lon="15.031301353245741"><ele>332.0</ele><time>2026-04-19T08:10:47.879Z</time></trkpt><trkpt lat="40.63538958233152" lon="15.031195315219605"><ele>329.0</ele><time>2026-04-19T08:10:48.879Z</time></trkpt><trkpt lat="40.63541094195142" lon="15.031083406611966"><ele>326.0</ele><time>2026-04-19T08:10:49.879Z</time></trkpt><trkpt lat="40.63543234940462" lon="15.03097203773471"><ele>323.0</ele><time>2026-04-19T08:10:50.879Z</time></trkpt><trkpt lat="40.63545474453682" lon="15.030856155257998"><ele>320.0</ele><time>2026-04-19T08:10:51.879Z</time></trkpt><trkpt lat="40.63547642639988" lon="15.030744957855525"><ele>317.0</ele><time>2026-04-19T08:10:52.879Z</time></trkpt><trkpt lat="40.63549389996922" lon="15.030640867087314"><ele>314.0</ele><time>2026-04-19T08:10:53.879Z</time></trkpt><trkpt lat="40.63550069094309" lon="15.030521298288905"><ele>312.0</ele><time>2026-04-19T08:10:54.879Z</time></trkpt><trkpt lat="40.63549852588265" lon="15.030379731257144"><ele>310.0</ele><time>2026-04-19T08:10:55.879Z</time></trkpt><trkpt lat="40.63549402351187" lon="15.03019260258163"><ele>308.0</ele><time>2026-04-19T08:10:56.879Z</time></trkpt><trkpt lat="40.63547599721334" lon="15.030028541751454"><ele>306.0</ele><time>2026-04-19T08:10:57.879Z</time></trkpt><trkpt lat="40.63547501331749" lon="15.029861267745659"><ele>304.75</ele><time>2026-04-19T08:10:58.879Z</time></trkpt><trkpt lat="40.63547348649331" lon="15.029695653071087"><ele>303.5</ele><time>2026-04-19T08:10:59.879Z</time></trkpt><trkpt lat="40.63547243258983" lon="15.02951956216671"><ele>302.25</ele><time>2026-04-19T08:11:00.879Z</time></trkpt><trkpt lat="40.63546937889411" lon="15.029359110149889"><ele>301.0</ele><time>2026-04-19T08:11:01.879Z</time></trkpt><trkpt lat="40.63546693101447" lon="15.02919595041105"><ele>299.75</ele><time>2026-04-19T08:11:02.879Z</time></trkpt><trkpt lat="40.6354646713735" lon="15.02903844999042"><ele>298.5</ele><time>2026-04-19T08:11:03.879Z</time></trkpt><trkpt lat="40.63545898924797" lon="15.028885863382715"><ele>297.25</ele><time>2026-04-19T08:11:04.879Z</time></trkpt><trkpt lat="40.63545254097231" lon="15.028734490673061"><ele>296.0</ele><time>2026-04-19T08:11:05.879Z</time></trkpt><trkpt lat="40.63546446395901" lon="15.028577472967013"><ele>296.0</ele><time>2026-04-19T08:11:06.879Z</time></trkpt><trkpt lat="40.63546185206847" lon="15.028423998188652"><ele>296.0</ele><time>2026-04-19T08:11:07.879Z</time></trkpt><trkpt lat="40.63546035883813" lon="15.028269516713188"><ele>296.0</ele><time>2026-04-19T08:11:08.879Z</time></trkpt><trkpt lat="40.63546495834492" lon="15.02814029700714"><ele>296.0</ele><time>2026-04-19T08:11:09.879Z</time></trkpt><trkpt lat="40.63547323630751" lon="15.02803295792468"><ele>296.0</ele><time>2026-04-19T08:11:10.879Z</time></trkpt><trkpt lat="40.635563063040884" lon="15.027931001356084"><ele>295.40000000000003</ele><time>2026-04-19T08:11:12.879Z</time></trkpt><trkpt lat="40.635681385845885" lon="15.027931970239036"><ele>294.8</ele><time>2026-04-19T08:11:14.879Z</time></trkpt><trkpt lat="40.63575129318557" lon="15.027971427579649"><ele>294.20000000000005</ele><time>2026-04-19T08:11:15.879Z</time></trkpt><trkpt lat="40.63585993083068" lon="15.028019255866557"><ele>293.6</ele><time>2026-04-19T08:11:16.879Z</time></trkpt><trkpt lat="40.635971015632386" lon="15.028073141338226"><ele>293.0</ele><time>2026-04-19T08:11:17.879Z</time></trkpt><trkpt lat="40.636072275214815" lon="15.028117045653998"><ele>291.6</ele><time>2026-04-19T08:11:18.879Z</time></trkpt><trkpt lat="40.63615384145196" lon="15.028181688762919"><ele>290.20000000000005</ele><time>2026-04-19T08:11:19.879Z</time></trkpt><trkpt lat="40.63623423575986" lon="15.028264157656816"><ele>288.8</ele><time>2026-04-19T08:11:20.879Z</time></trkpt><trkpt lat="40.63627520024041" lon="15.028406421801655"><ele>287.40000000000003</ele><time>2026-04-19T08:11:21.879Z</time></trkpt><trkpt lat="40.63633388581721" lon="15.028536430610393"><ele>286.0</ele><time>2026-04-19T08:11:22.879Z</time></trkpt><trkpt lat="40.63639254808433" lon="15.028660109078173"><ele>285.6</ele><time>2026-04-19T08:11:23.879Z</time></trkpt><trkpt lat="40.63644982149362" lon="15.028754356856426"><ele>285.20000000000005</ele><time>2026-04-19T08:11:24.879Z</time></trkpt><trkpt lat="40.636505000790294" lon="15.028868838520573"><ele>284.79999999999995</ele><time>2026-04-19T08:11:25.879Z</time></trkpt><trkpt lat="40.63656411160816" lon="15.02897981378785"><ele>284.4</ele><time>2026-04-19T08:11:26.879Z</time></trkpt><trkpt lat="40.636616513512266" lon="15.029094111699598"><ele>284.0</ele><time>2026-04-19T08:11:27.879Z</time></trkpt><trkpt lat="40.63665180290628" lon="15.029202513905773"><ele>284.0</ele><time>2026-04-19T08:11:28.879Z</time></trkpt><trkpt lat="40.63669924737436" lon="15.02930096587146"><ele>284.0</ele><time>2026-04-19T08:11:29.879Z</time></trkpt><trkpt lat="40.636755013332575" lon="15.02937580399711"><ele>284.0</ele><time>2026-04-19T08:11:30.879Z</time></trkpt><trkpt lat="40.63679550737887" lon="15.029459313750959"><ele>284.0</ele><time>2026-04-19T08:11:31.879Z</time></trkpt><trkpt lat="40.636822238200125" lon="15.029553460013167"><ele>284.0</ele><time>2026-04-19T08:11:32.879Z</time></trkpt><trkpt lat="40.63686654039093" lon="15.029646211265764"><ele>284.0</ele><time>2026-04-19T08:11:33.879Z</time></trkpt><trkpt lat="40.63691231547061" lon="15.029740068269783"><ele>284.0</ele><time>2026-04-19T08:11:34.879Z</time></trkpt><trkpt lat="40.636950945388996" lon="15.029835848655713"><ele>284.0</ele><time>2026-04-19T08:11:35.879Z</time></trkpt><trkpt lat="40.636977439233206" lon="15.029940490498987"><ele>284.0</ele><time>2026-04-19T08:11:36.879Z</time></trkpt><trkpt lat="40.63699289753636" lon="15.03002806605304"><ele>284.0</ele><time>2026-04-19T08:11:37.879Z</time></trkpt><trkpt lat="40.637000905516715" lon="15.030111869993352"><ele>284.0</ele><time>2026-04-19T08:11:38.879Z</time></trkpt><trkpt lat="40.637004066955654" lon="15.030197489890346"><ele>284.0</ele><time>2026-04-19T08:11:39.879Z</time></trkpt><trkpt lat="40.63700163573531" lon="15.030311826845686"><ele>281.4</ele><time>2026-04-19T08:11:40.879Z</time></trkpt><trkpt lat="40.636997282138275" lon="15.030444083731311"><ele>278.79999999999995</ele><time>2026-04-19T08:11:41.879Z</time></trkpt><trkpt lat="40.63699265150927" lon="15.030584756479984"><ele>276.20000000000005</ele><time>2026-04-19T08:11:42.879Z</time></trkpt><trkpt lat="40.63699951589772" lon="15.03069642517322"><ele>273.6</ele><time>2026-04-19T08:11:43.879Z</time></trkpt><trkpt lat="40.63699443098594" lon="15.030801828768437"><ele>271.0</ele><time>2026-04-19T08:11:44.879Z</time></trkpt><trkpt lat="40.63699288947212" lon="15.030904419862342"><ele>270.8333333333333</ele><time>2026-04-19T08:11:45.879Z</time></trkpt><trkpt lat="40.636989122820964" lon="15.031009803729274"><ele>270.66666666666663</ele><time>2026-04-19T08:11:46.879Z</time></trkpt><trkpt lat="40.63696781703699" lon="15.031114600532087"><ele>270.5</ele><time>2026-04-19T08:11:47.879Z</time></trkpt><trkpt lat="40.636957102956124" lon="15.03123278697675"><ele>270.3333333333333</ele><time>2026-04-19T08:11:48.879Z</time></trkpt><trkpt lat="40.63694387626278" lon="15.031323109694283"><ele>270.1666666666667</ele><time>2026-04-19T08:11:49.879Z</time></trkpt><trkpt lat="40.636912361587896" lon="15.031465677339936"><ele>270.0</ele><time>2026-04-19T08:11:51.879Z</time></trkpt><trkpt lat="40.63685505970073" lon="15.031594875077912"><ele>270.6</ele><time>2026-04-19T08:11:53.879Z</time></trkpt><trkpt lat="40.63683452822742" lon="15.031777211856554"><ele>271.2</ele><time>2026-04-19T08:11:55.879Z</time></trkpt><trkpt lat="40.63685575994756" lon="15.031885516071892"><ele>271.8</ele><time>2026-04-19T08:11:56.879Z</time></trkpt><trkpt lat="40.63689557051025" lon="15.031983583226925"><ele>272.4</ele><time>2026-04-19T08:11:57.879Z</time></trkpt><trkpt lat="40.636927093784074" lon="15.032073125886866"><ele>273.0</ele><time>2026-04-19T08:11:58.879Z</time></trkpt><trkpt lat="40.636985608530324" lon="15.032170607018623"><ele>273.0</ele><time>2026-04-19T08:12:00.879Z</time></trkpt><trkpt lat="40.637043975934986" lon="15.032215958982645"><ele>273.0</ele><time>2026-04-19T08:12:03.879Z</time></trkpt><trkpt lat="40.63711623164011" lon="15.032279852126052"><ele>273.0</ele><time>2026-04-19T08:12:06.879Z</time></trkpt><trkpt lat="40.63719702896618" lon="15.032307317167144"><ele>273.0</ele><time>2026-04-19T08:12:08.879Z</time></trkpt><trkpt lat="40.63728649097949" lon="15.03229904026021"><ele>273.0</ele><time>2026-04-19T08:12:10.879Z</time></trkpt><trkpt lat="40.63738565139354" lon="15.032239440104533"><ele>273.0</ele><time>2026-04-19T08:12:12.879Z</time></trkpt><trkpt lat="40.6374487111714" lon="15.03220050995877"><ele>273.0</ele><time>2026-04-19T08:12:13.879Z</time></trkpt><trkpt lat="40.63751981422202" lon="15.032153298303113"><ele>273.0</ele><time>2026-04-19T08:12:14.879Z</time></trkpt><trkpt lat="40.63758504235101" lon="15.03210105700135"><ele>273.0</ele><time>2026-04-19T08:12:15.879Z</time></trkpt><trkpt lat="40.63764610595429" lon="15.032059614764478"><ele>273.0</ele><time>2026-04-19T08:12:16.879Z</time></trkpt><trkpt lat="40.63770304188751" lon="15.031976839114215"><ele>273.0</ele><time>2026-04-19T08:12:18.879Z</time></trkpt><trkpt lat="40.637748474072424" lon="15.031918764755087"><ele>273.0</ele><time>2026-04-19T08:12:22.879Z</time></trkpt><trkpt lat="40.6377340885571" lon="15.032349413949262"><ele>273.0</ele><time>2026-04-19T08:12:31.878Z</time></trkpt><trkpt lat="40.637694345675996" lon="15.032438455054363"><ele>273.0</ele><time>2026-04-19T08:12:32.878Z</time></trkpt><trkpt lat="40.63765900591534" lon="15.032515399711562"><ele>273.0</ele><time>2026-04-19T08:12:33.878Z</time></trkpt><trkpt lat="40.63760750804746" lon="15.03260806339525"><ele>273.0</ele><time>2026-04-19T08:12:34.878Z</time></trkpt><trkpt lat="40.63755430413306" lon="15.032688370826607"><ele>273.0</ele><time>2026-04-19T08:12:35.878Z</time></trkpt><trkpt lat="40.637487901286526" lon="15.03274617342872"><ele>273.0</ele><time>2026-04-19T08:12:36.878Z</time></trkpt><trkpt lat="40.63741939423506" lon="15.032797857078915"><ele>274.2</ele><time>2026-04-19T08:12:37.878Z</time></trkpt><trkpt lat="40.63735010292751" lon="15.032847601068728"><ele>275.4</ele><time>2026-04-19T08:12:38.878Z</time></trkpt><trkpt lat="40.637285682152125" lon="15.032901992922362"><ele>276.59999999999997</ele><time>2026-04-19T08:12:39.878Z</time></trkpt><trkpt lat="40.637246873525406" lon="15.03305178856976"><ele>277.8</ele><time>2026-04-19T08:12:41.878Z</time></trkpt><trkpt lat="40.63719357849662" lon="15.033214843795138"><ele>279.0</ele><time>2026-04-19T08:12:43.878Z</time></trkpt><trkpt lat="40.63717393419216" lon="15.03330873541818"><ele>279.8333333333333</ele><time>2026-04-19T08:12:44.878Z</time></trkpt><trkpt lat="40.637153695714446" lon="15.033389983203245"><ele>280.6666666666667</ele><time>2026-04-19T08:12:45.878Z</time></trkpt><trkpt lat="40.63712883250209" lon="15.033470775978167"><ele>281.5</ele><time>2026-04-19T08:12:46.878Z</time></trkpt><trkpt lat="40.63709755064015" lon="15.033551105701902"><ele>282.33333333333337</ele><time>2026-04-19T08:12:47.878Z</time></trkpt><trkpt lat="40.637064980121956" lon="15.033627593511051"><ele>283.1666666666667</ele><time>2026-04-19T08:12:48.878Z</time></trkpt><trkpt lat="40.637025917094476" lon="15.033779407862434"><ele>284.0</ele><time>2026-04-19T08:12:50.878Z</time></trkpt><trkpt lat="40.636973458702045" lon="15.033923559079458"><ele>284.6666666666667</ele><time>2026-04-19T08:12:52.878Z</time></trkpt><trkpt lat="40.636923562262915" lon="15.03406932811858"><ele>285.33333333333337</ele><time>2026-04-19T08:12:54.878Z</time></trkpt><trkpt lat="40.636889675697844" lon="15.03415045274592"><ele>286.0</ele><time>2026-04-19T08:12:55.878Z</time></trkpt><trkpt lat="40.636850430518564" lon="15.034245253887432"><ele>286.6666666666667</ele><time>2026-04-19T08:12:56.878Z</time></trkpt><trkpt lat="40.63681415877319" lon="15.034313933283777"><ele>287.3333333333333</ele><time>2026-04-19T08:12:57.878Z</time></trkpt><trkpt lat="40.63679289998655" lon="15.034416574041499"><ele>288.0</ele><time>2026-04-19T08:12:58.878Z</time></trkpt><trkpt lat="40.63677265507884" lon="15.034528154303626"><ele>288.0</ele><time>2026-04-19T08:12:59.878Z</time></trkpt><trkpt lat="40.63676431774302" lon="15.034652032227337"><ele>288.0</ele><time>2026-04-19T08:13:00.878Z</time></trkpt><trkpt lat="40.63675619519856" lon="15.034774297037059"><ele>288.0</ele><time>2026-04-19T08:13:01.878Z</time></trkpt><trkpt lat="40.63673924190659" lon="15.034904554267541"><ele>288.0</ele><time>2026-04-19T08:13:02.878Z</time></trkpt><trkpt lat="40.6367280502104" lon="15.03502941310462"><ele>288.0</ele><time>2026-04-19T08:13:03.878Z</time></trkpt><trkpt lat="40.636726134843904" lon="15.035151779335285"><ele>288.5</ele><time>2026-04-19T08:13:04.878Z</time></trkpt><trkpt lat="40.63671723716733" lon="15.035252541113351"><ele>289.0</ele><time>2026-04-19T08:13:05.878Z</time></trkpt><trkpt lat="40.63670023138512" lon="15.0353579935523"><ele>289.5</ele><time>2026-04-19T08:13:06.878Z</time></trkpt><trkpt lat="40.63669595119634" lon="15.035451299282869"><ele>290.0</ele><time>2026-04-19T08:13:07.878Z</time></trkpt><trkpt lat="40.63669332039064" lon="15.035556641968325"><ele>290.5</ele><time>2026-04-19T08:13:08.878Z</time></trkpt><trkpt lat="40.63670585756781" lon="15.035670767494755"><ele>291.0</ele><time>2026-04-19T08:13:09.878Z</time></trkpt><trkpt lat="40.6367063541693" lon="15.035779292824053"><ele>291.3333333333333</ele><time>2026-04-19T08:13:10.878Z</time></trkpt><trkpt lat="40.6366969482198" lon="15.03587766867441"><ele>291.6666666666667</ele><time>2026-04-19T08:13:11.878Z</time></trkpt><trkpt lat="40.636694754381395" lon="15.035997202070035"><ele>292.0</ele><time>2026-04-19T08:13:12.878Z</time></trkpt><trkpt lat="40.636701459539076" lon="15.036111774890687"><ele>292.33333333333337</ele><time>2026-04-19T08:13:13.878Z</time></trkpt><trkpt lat="40.63669742317795" lon="15.036228280895873"><ele>292.6666666666667</ele><time>2026-04-19T08:13:14.878Z</time></trkpt><trkpt lat="40.636687222193025" lon="15.036348164179946"><ele>293.0</ele><time>2026-04-19T08:13:15.878Z</time></trkpt><trkpt lat="40.63669394225011" lon="15.036460071142804"><ele>293.0</ele><time>2026-04-19T08:13:16.878Z</time></trkpt><trkpt lat="40.63669787194761" lon="15.036568944556308"><ele>293.0</ele><time>2026-04-19T08:13:17.878Z</time></trkpt><trkpt lat="40.63669211607619" lon="15.036666098070247"><ele>293.0</ele><time>2026-04-19T08:13:18.878Z</time></trkpt><trkpt lat="40.63667449723713" lon="15.036830650484209"><ele>293.0</ele><time>2026-04-19T08:13:20.878Z</time></trkpt><trkpt lat="40.636660665580976" lon="15.036960994538314"><ele>293.0</ele><time>2026-04-19T08:13:21.878Z</time></trkpt><trkpt lat="40.6366427213741" lon="15.037085371413891"><ele>293.2</ele><time>2026-04-19T08:13:22.878Z</time></trkpt><trkpt lat="40.636637823363834" lon="15.03720792578194"><ele>293.4</ele><time>2026-04-19T08:13:23.878Z</time></trkpt><trkpt lat="40.636630667552176" lon="15.037327239021645"><ele>293.59999999999997</ele><time>2026-04-19T08:13:24.878Z</time></trkpt><trkpt lat="40.63661931108427" lon="15.037454820584157"><ele>293.8</ele><time>2026-04-19T08:13:25.878Z</time></trkpt><trkpt lat="40.63660452408738" lon="15.037577314582098"><ele>294.0</ele><time>2026-04-19T08:13:26.878Z</time></trkpt><trkpt lat="40.636604550032395" lon="15.037686490988317"><ele>294.8333333333333</ele><time>2026-04-19T08:13:27.878Z</time></trkpt><trkpt lat="40.636612587696476" lon="15.037807344316585"><ele>295.6666666666667</ele><time>2026-04-19T08:13:28.878Z</time></trkpt><trkpt lat="40.63661509598159" lon="15.03791862205623"><ele>296.5</ele><time>2026-04-19T08:13:29.878Z</time></trkpt><trkpt lat="40.636612198878794" lon="15.038031926668394"><ele>297.33333333333337</ele><time>2026-04-19T08:13:30.878Z</time></trkpt><trkpt lat="40.636607768600975" lon="15.038166463035497"><ele>298.1666666666667</ele><time>2026-04-19T08:13:31.878Z</time></trkpt><trkpt lat="40.63660025389723" lon="15.038275993494556"><ele>299.0</ele><time>2026-04-19T08:13:32.878Z</time></trkpt><trkpt lat="40.63659642391685" lon="15.038394292887002"><ele>299.5</ele><time>2026-04-19T08:13:33.878Z</time></trkpt><trkpt lat="40.63659153955493" lon="15.038503811084432"><ele>300.0</ele><time>2026-04-19T08:13:34.878Z</time></trkpt><trkpt lat="40.636592036026315" lon="15.03859732875352"><ele>300.5</ele><time>2026-04-19T08:13:35.878Z</time></trkpt><trkpt lat="40.63660623652782" lon="15.038683986339848"><ele>301.0</ele><time>2026-04-19T08:13:36.878Z</time></trkpt><trkpt lat="40.6366110119675" lon="15.038772701229785"><ele>301.5</ele><time>2026-04-19T08:13:37.878Z</time></trkpt><trkpt lat="40.636600558594544" lon="15.038860367672877"><ele>302.0</ele><time>2026-04-19T08:13:38.878Z</time></trkpt><trkpt lat="40.63658149900659" lon="15.03899276488699"><ele>302.0</ele><time>2026-04-19T08:13:40.878Z</time></trkpt><trkpt lat="40.63656051592987" lon="15.039101905851158"><ele>302.0</ele><time>2026-04-19T08:13:42.878Z</time></trkpt><trkpt lat="40.63656657652253" lon="15.03923505424405"><ele>302.0</ele><time>2026-04-19T08:13:44.878Z</time></trkpt><trkpt lat="40.63660479921043" lon="15.039338247475506"><ele>302.0</ele><time>2026-04-19T08:13:46.878Z</time></trkpt><trkpt lat="40.63668412164267" lon="15.039372696701614"><ele>302.0</ele><time>2026-04-19T08:13:48.878Z</time></trkpt><trkpt lat="40.63681806511001" lon="15.039331335794431"><ele>303.2</ele><time>2026-04-19T08:13:50.878Z</time></trkpt><trkpt lat="40.636878815316194" lon="15.039288947724556"><ele>304.4</ele><time>2026-04-19T08:13:51.878Z</time></trkpt><trkpt lat="40.63694020450089" lon="15.039246516770582"><ele>305.6</ele><time>2026-04-19T08:13:53.878Z</time></trkpt><trkpt lat="40.63713004561607" lon="15.039194194257538"><ele>306.8</ele><time>2026-04-19T08:14:02.878Z</time></trkpt><trkpt lat="40.637191671187054" lon="15.039168095865335"><ele>308.0</ele><time>2026-04-19T08:14:03.878Z</time></trkpt><trkpt lat="40.63726149152294" lon="15.039150508033094"><ele>308.33333333333337</ele><time>2026-04-19T08:14:04.878Z</time></trkpt><trkpt lat="40.63734041330178" lon="15.03917283034127"><ele>308.6666666666667</ele><time>2026-04-19T08:14:05.878Z</time></trkpt><trkpt lat="40.63740964345473" lon="15.039152022695705"><ele>309.0</ele><time>2026-04-19T08:14:06.878Z</time></trkpt><trkpt lat="40.63747629150599" lon="15.039138423638098"><ele>309.3333333333333</ele><time>2026-04-19T08:14:07.879Z</time></trkpt><trkpt lat="40.637539114509416" lon="15.03913051527799"><ele>309.66666666666663</ele><time>2026-04-19T08:14:08.879Z</time></trkpt><trkpt lat="40.63763895500688" lon="15.039085648395673"><ele>310.0</ele><time>2026-04-19T08:14:10.879Z</time></trkpt><trkpt lat="40.63773998785964" lon="15.039091269202594"><ele>309.0</ele><time>2026-04-19T08:14:12.879Z</time></trkpt><trkpt lat="40.63784491463622" lon="15.039090380483707"><ele>308.0</ele><time>2026-04-19T08:14:14.879Z</time></trkpt><trkpt lat="40.63794065829646" lon="15.039081695320084"><ele>307.0</ele><time>2026-04-19T08:14:16.879Z</time></trkpt><trkpt lat="40.638019479351556" lon="15.039131107222278"><ele>306.0</ele><time>2026-04-19T08:14:18.879Z</time></trkpt><trkpt lat="40.6380989255614" lon="15.039203332957337"><ele>305.0</ele><time>2026-04-19T08:14:20.879Z</time></trkpt><trkpt lat="40.63818592168241" lon="15.03927013526098"><ele>305.0</ele><time>2026-04-19T08:14:22.879Z</time></trkpt><trkpt lat="40.63829718058187" lon="15.03914572819447"><ele>305.0</ele><time>2026-04-19T08:14:25.879Z</time></trkpt><trkpt lat="40.63833651873475" lon="15.039076484220216"><ele>305.0</ele><time>2026-04-19T08:14:26.879Z</time></trkpt><trkpt lat="40.638376895002956" lon="15.039009870256976"><ele>305.0</ele><time>2026-04-19T08:14:27.879Z</time></trkpt><trkpt lat="40.638483246594355" lon="15.038966801892023"><ele>305.0</ele><time>2026-04-19T08:14:29.879Z</time></trkpt><trkpt lat="40.638582037010636" lon="15.038974589712574"><ele>305.6666666666667</ele><time>2026-04-19T08:14:31.879Z</time></trkpt><trkpt lat="40.638683223568634" lon="15.03900542605532"><ele>306.33333333333337</ele><time>2026-04-19T08:14:33.879Z</time></trkpt><trkpt lat="40.63874602741363" lon="15.03903269837028"><ele>307.0</ele><time>2026-04-19T08:14:34.879Z</time></trkpt><trkpt lat="40.638824187008005" lon="15.039100719245429"><ele>307.6666666666667</ele><time>2026-04-19T08:14:36.878Z</time></trkpt><trkpt lat="40.63890415272039" lon="15.039164767546161"><ele>308.3333333333333</ele><time>2026-04-19T08:14:38.879Z</time></trkpt><trkpt lat="40.638980934895216" lon="15.03910093302894"><ele>309.0</ele><time>2026-04-19T08:14:41.878Z</time></trkpt><trkpt lat="40.63901944515596" lon="15.038947259160423"><ele>309.0</ele><time>2026-04-19T08:14:43.879Z</time></trkpt><trkpt lat="40.63905707328352" lon="15.038787123956698"><ele>309.0</ele><time>2026-04-19T08:14:45.879Z</time></trkpt><trkpt lat="40.63908751071408" lon="15.038702687375194"><ele>309.0</ele><time>2026-04-19T08:14:46.879Z</time></trkpt><trkpt lat="40.639133924693745" lon="15.038638250819416"><ele>309.0</ele><time>2026-04-19T08:14:47.879Z</time></trkpt><trkpt lat="40.63919081160696" lon="15.038580675193467"><ele>309.0</ele><time>2026-04-19T08:14:48.878Z</time></trkpt><trkpt lat="40.639253931286916" lon="15.03845264593969"><ele>309.0</ele><time>2026-04-19T08:14:50.879Z</time></trkpt><trkpt lat="40.63927485521684" lon="15.038366271820673"><ele>309.0</ele><time>2026-04-19T08:14:51.879Z</time></trkpt><trkpt lat="40.639285194884316" lon="15.038265697857904"><ele>309.0</ele><time>2026-04-19T08:14:52.879Z</time></trkpt><trkpt lat="40.639289153063125" lon="15.038149561593068"><ele>309.0</ele><time>2026-04-19T08:14:53.879Z</time></trkpt><trkpt lat="40.63927096199611" lon="15.038022554709363"><ele>309.0</ele><time>2026-04-19T08:14:54.879Z</time></trkpt><trkpt lat="40.63927372775766" lon="15.037910736775663"><ele>309.0</ele><time>2026-04-19T08:14:55.879Z</time></trkpt><trkpt lat="40.639262817916084" lon="15.037791373330082"><ele>307.3333333333333</ele><time>2026-04-19T08:14:56.879Z</time></trkpt><trkpt lat="40.63925789924203" lon="15.037702573774855"><ele>305.6666666666667</ele><time>2026-04-19T08:14:57.879Z</time></trkpt><trkpt lat="40.63925146369161" lon="15.03759952041241"><ele>304.0</ele><time>2026-04-19T08:14:59.879Z</time></trkpt><trkpt lat="40.63920828982502" lon="15.037502107721046"><ele>302.33333333333337</ele><time>2026-04-19T08:15:08.879Z</time></trkpt><trkpt lat="40.639236651324566" lon="15.037384528187234"><ele>300.6666666666667</ele><time>2026-04-19T08:15:11.879Z</time></trkpt><trkpt lat="40.639301747213864" lon="15.037338979431038"><ele>299.0</ele><time>2026-04-19T08:15:13.879Z</time></trkpt><trkpt lat="40.6393590994783" lon="15.037275566095392"><ele>297.0</ele><time>2026-04-19T08:15:15.879Z</time></trkpt><trkpt lat="40.63940432886557" lon="15.037195410258306"><ele>295.0</ele><time>2026-04-19T08:15:17.879Z</time></trkpt><trkpt lat="40.6394700260823" lon="15.037104294599398"><ele>293.0</ele><time>2026-04-19T08:15:20.879Z</time></trkpt><trkpt lat="40.63951185594661" lon="15.036977111330312"><ele>291.0</ele><time>2026-04-19T08:15:22.879Z</time></trkpt><trkpt lat="40.63955223923807" lon="15.036893644619926"><ele>289.0</ele><time>2026-04-19T08:15:24.879Z</time></trkpt><trkpt lat="40.63957922888108" lon="15.036797325648164"><ele>287.0</ele><time>2026-04-19T08:15:26.879Z</time></trkpt><trkpt lat="40.63960012384444" lon="15.036689348776461"><ele>288.6</ele><time>2026-04-19T08:15:29.879Z</time></trkpt><trkpt lat="40.63964721202354" lon="15.036579642783693"><ele>290.2</ele><time>2026-04-19T08:15:31.879Z</time></trkpt><trkpt lat="40.639699350186696" lon="15.036458494974957"><ele>291.8</ele><time>2026-04-19T08:15:33.879Z</time></trkpt><trkpt lat="40.63974186407448" lon="15.036348460284866"><ele>293.4</ele><time>2026-04-19T08:15:35.879Z</time></trkpt><trkpt lat="40.63978917777777" lon="15.036231984049335"><ele>295.0</ele><time>2026-04-19T08:15:37.879Z</time></trkpt><trkpt lat="40.63984275991896" lon="15.036129565786718"><ele>295.0</ele><time>2026-04-19T08:15:39.879Z</time></trkpt><trkpt lat="40.63987698761884" lon="15.036020141173305"><ele>295.0</ele><time>2026-04-19T08:15:41.879Z</time></trkpt><trkpt lat="40.63990023855012" lon="15.0359203535545"><ele>295.0</ele><time>2026-04-19T08:15:43.879Z</time></trkpt><trkpt lat="40.639907298904944" lon="15.035837106087842"><ele>295.0</ele><time>2026-04-19T08:15:44.879Z</time></trkpt><trkpt lat="40.63992083982338" lon="15.035689164871632"><ele>295.0</ele><time>2026-04-19T08:15:46.879Z</time></trkpt><trkpt lat="40.6399566844279" lon="15.035561727912613"><ele>295.0</ele><time>2026-04-19T08:15:48.879Z</time></trkpt><trkpt lat="40.64000245448058" lon="15.0354994767311"><ele>291.6</ele><time>2026-04-19T08:15:49.879Z</time></trkpt><trkpt lat="40.64009746975336" lon="15.035404893127302"><ele>288.2</ele><time>2026-04-19T08:15:51.879Z</time></trkpt><trkpt lat="40.64019591507462" lon="15.035347336513643"><ele>284.8</ele><time>2026-04-19T08:15:53.879Z</time></trkpt><trkpt lat="40.64025002836817" lon="15.035253143862702"><ele>281.4</ele><time>2026-04-19T08:15:55.879Z</time></trkpt><trkpt lat="40.640286587055634" lon="15.03511382199263"><ele>278.0</ele><time>2026-04-19T08:15:57.879Z</time></trkpt><trkpt lat="40.64028627665763" lon="15.035027142305683"><ele>276.7142857142857</ele><time>2026-04-19T08:15:58.879Z</time></trkpt><trkpt lat="40.640294354034864" lon="15.034939337143946"><ele>275.42857142857144</ele><time>2026-04-19T08:15:59.879Z</time></trkpt><trkpt lat="40.64030906110908" lon="15.034853179739596"><ele>274.14285714285717</ele><time>2026-04-19T08:16:00.879Z</time></trkpt><trkpt lat="40.6403205411035" lon="15.034747432621286"><ele>272.8571428571429</ele><time>2026-04-19T08:16:02.879Z</time></trkpt><trkpt lat="40.640344885613615" lon="15.034657898451005"><ele>271.5714285714286</ele><time>2026-04-19T08:16:04.879Z</time></trkpt><trkpt lat="40.64035281837589" lon="15.034557670411944"><ele>270.2857142857143</ele><time>2026-04-19T08:16:06.879Z</time></trkpt><trkpt lat="40.640359449775325" lon="15.034474796090525"><ele>269.0</ele><time>2026-04-19T08:16:08.879Z</time></trkpt><trkpt lat="40.64034920315229" lon="15.03436134914065"><ele>270.75</ele><time>2026-04-19T08:16:11.879Z</time></trkpt><trkpt lat="40.640534333889796" lon="15.03406972991935"><ele>272.5</ele><time>2026-04-19T08:16:21.879Z</time></trkpt><trkpt lat="40.640557722846815" lon="15.033978425337194"><ele>274.25</ele><time>2026-04-19T08:16:22.879Z</time></trkpt><trkpt lat="40.64058604603654" lon="15.033873877455061"><ele>276.0</ele><time>2026-04-19T08:16:23.879Z</time></trkpt><trkpt lat="40.64062325255977" lon="15.033802589453837"><ele>276.0</ele><time>2026-04-19T08:16:24.879Z</time></trkpt><trkpt lat="40.64067012180963" lon="15.033731029099513"><ele>276.0</ele><time>2026-04-19T08:16:25.879Z</time></trkpt><trkpt lat="40.640720855451136" lon="15.033658917288559"><ele>276.0</ele><time>2026-04-19T08:16:26.879Z</time></trkpt><trkpt lat="40.6407771797152" lon="15.033585852081782"><ele>276.0</ele><time>2026-04-19T08:16:27.879Z</time></trkpt><trkpt lat="40.64089474002584" lon="15.033497893196659"><ele>276.0</ele><time>2026-04-19T08:16:28.879Z</time></trkpt><trkpt lat="40.64097833782094" lon="15.033431477446426"><ele>276.0</ele><time>2026-04-19T08:16:29.879Z</time></trkpt><trkpt lat="40.641050657053604" lon="15.033381266344351"><ele>276.0</ele><time>2026-04-19T08:16:30.879Z</time></trkpt><trkpt lat="40.64110555704555" lon="15.033334560867209"><ele>276.0</ele><time>2026-04-19T08:16:31.879Z</time></trkpt><trkpt lat="40.64116596410461" lon="15.033232354704081"><ele>276.0</ele><time>2026-04-19T08:16:33.879Z</time></trkpt><trkpt lat="40.641206722427974" lon="15.033139905857784"><ele>276.0</ele><time>2026-04-19T08:16:34.879Z</time></trkpt><trkpt lat="40.64124911478322" lon="15.033027599108424"><ele>276.0</ele><time>2026-04-19T08:16:35.879Z</time></trkpt><trkpt lat="40.64130890427516" lon="15.03291777312055"><ele>278.2</ele><time>2026-04-19T08:16:36.879Z</time></trkpt><trkpt lat="40.64135989025619" lon="15.032809359075893"><ele>280.40000000000003</ele><time>2026-04-19T08:16:37.879Z</time></trkpt><trkpt lat="40.641417777484605" lon="15.032720886021323"><ele>282.6</ele><time>2026-04-19T08:16:38.879Z</time></trkpt><trkpt lat="40.64145473626497" lon="15.032641496699503"><ele>284.8</ele><time>2026-04-19T08:16:39.879Z</time></trkpt><trkpt lat="40.64151499217671" lon="15.032502011887471"><ele>287.0</ele><time>2026-04-19T08:16:41.879Z</time></trkpt><trkpt lat="40.641579072066456" lon="15.03241980205146"><ele>286.2</ele><time>2026-04-19T08:16:43.879Z</time></trkpt><trkpt lat="40.641660259475145" lon="15.032355729476391"><ele>285.4</ele><time>2026-04-19T08:16:45.879Z</time></trkpt><trkpt lat="40.641752478708284" lon="15.03232940053189"><ele>284.6</ele><time>2026-04-19T08:16:47.879Z</time></trkpt><trkpt lat="40.64184636454892" lon="15.03233629514099"><ele>283.8</ele><time>2026-04-19T08:16:49.878Z</time></trkpt><trkpt lat="40.641928807867636" lon="15.032357849738865"><ele>283.0</ele><time>2026-04-19T08:16:51.879Z</time></trkpt><trkpt lat="40.641981984616294" lon="15.032447444364875"><ele>283.0</ele><time>2026-04-19T08:16:56.879Z</time></trkpt><trkpt lat="40.64206993693915" lon="15.032494095765657"><ele>283.0</ele><time>2026-04-19T08:16:58.879Z</time></trkpt><trkpt lat="40.642138529832614" lon="15.032546288342571"><ele>283.0</ele><time>2026-04-19T08:17:00.879Z</time></trkpt><trkpt lat="40.642217399033306" lon="15.032541645247521"><ele>283.0</ele><time>2026-04-19T08:17:02.879Z</time></trkpt><trkpt lat="40.64224894095464" lon="15.032461832081035"><ele>283.0</ele><time>2026-04-19T08:17:04.879Z</time></trkpt><trkpt lat="40.642263659358875" lon="15.032349479872805"><ele>283.0</ele><time>2026-04-19T08:17:06.879Z</time></trkpt><trkpt lat="40.642282070726125" lon="15.032206442437165"><ele>283.0</ele><time>2026-04-19T08:17:08.879Z</time></trkpt><trkpt lat="40.642310319413326" lon="15.032116088793606"><ele>283.0</ele><time>2026-04-19T08:17:09.879Z</time></trkpt><trkpt lat="40.64236019875755" lon="15.032029639961264"><ele>283.0</ele><time>2026-04-19T08:17:11.879Z</time></trkpt><trkpt lat="40.64243768264253" lon="15.03203696571877"><ele>283.0</ele><time>2026-04-19T08:17:13.879Z</time></trkpt><trkpt lat="40.64252056643783" lon="15.032104860595467"><ele>283.0</ele><time>2026-04-19T08:17:15.879Z</time></trkpt><trkpt lat="40.64256030661362" lon="15.032180617821405"><ele>283.0</ele><time>2026-04-19T08:17:17.879Z</time></trkpt><trkpt lat="40.642646536768396" lon="15.032251718384572"><ele>283.0</ele><time>2026-04-19T08:17:19.879Z</time></trkpt><trkpt lat="40.64271189090302" lon="15.032293728993727"><ele>283.0</ele><time>2026-04-19T08:17:20.879Z</time></trkpt><trkpt lat="40.64276996406655" lon="15.032347174992308"><ele>283.0</ele><time>2026-04-19T08:17:21.879Z</time></trkpt><trkpt lat="40.64283220928665" lon="15.032487233643444"><ele>283.0</ele><time>2026-04-19T08:17:23.879Z</time></trkpt><trkpt lat="40.64285311230261" lon="15.032568215449743"><ele>283.0</ele><time>2026-04-19T08:17:24.879Z</time></trkpt><trkpt lat="40.64287557491216" lon="15.032655439878825"><ele>283.0</ele><time>2026-04-19T08:17:25.879Z</time></trkpt><trkpt lat="40.64289111586427" lon="15.032746655907898"><ele>285.3333333333333</ele><time>2026-04-19T08:17:26.879Z</time></trkpt><trkpt lat="40.64294056873814" lon="15.032875964757995"><ele>287.66666666666663</ele><time>2026-04-19T08:17:28.879Z</time></trkpt><trkpt lat="40.6429845379069" lon="15.032943390435426"><ele>290.0</ele><time>2026-04-19T08:17:29.879Z</time></trkpt><trkpt lat="40.643036680149685" lon="15.0330145176916"><ele>292.3333333333333</ele><time>2026-04-19T08:17:30.879Z</time></trkpt><trkpt lat="40.643094003431145" lon="15.033068692198775"><ele>294.6666666666667</ele><time>2026-04-19T08:17:31.879Z</time></trkpt><trkpt lat="40.64320201118246" lon="15.033134519177313"><ele>297.0</ele><time>2026-04-19T08:17:33.879Z</time></trkpt><trkpt lat="40.643279404909116" lon="15.033239386065466"><ele>298.6666666666667</ele><time>2026-04-19T08:17:35.879Z</time></trkpt><trkpt lat="40.6432836027686" lon="15.03337079704877"><ele>300.3333333333333</ele><time>2026-04-19T08:17:37.879Z</time></trkpt><trkpt lat="40.643279346536936" lon="15.033462569168176"><ele>302.0</ele><time>2026-04-19T08:17:40.879Z</time></trkpt><trkpt lat="40.64336337047339" lon="15.033498532959742"><ele>303.66666666666663</ele><time>2026-04-19T08:17:42.879Z</time></trkpt><trkpt lat="40.643454396042" lon="15.03356446602578"><ele>305.3333333333333</ele><time>2026-04-19T08:17:44.879Z</time></trkpt><trkpt lat="40.64349007867875" lon="15.03364714623179"><ele>307.0</ele><time>2026-04-19T08:17:47.879Z</time></trkpt><trkpt lat="40.643512475011136" lon="15.033757491264087"><ele>307.0</ele><time>2026-04-19T08:17:56.879Z</time></trkpt><trkpt lat="40.643567008048755" lon="15.03389105132391"><ele>307.0</ele><time>2026-04-19T08:17:58.879Z</time></trkpt><trkpt lat="40.64362536660782" lon="15.0340017269015"><ele>307.0</ele><time>2026-04-19T08:18:00.879Z</time></trkpt><trkpt lat="40.64371031822954" lon="15.034104113527667"><ele>307.0</ele><time>2026-04-19T08:18:02.879Z</time></trkpt><trkpt lat="40.6437630609369" lon="15.034161517355786"><ele>307.0</ele><time>2026-04-19T08:18:03.879Z</time></trkpt><trkpt lat="40.64381990962128" lon="15.03419920305969"><ele>307.0</ele><time>2026-04-19T08:18:04.879Z</time></trkpt><trkpt lat="40.64387333376936" lon="15.034283882418707"><ele>307.0</ele><time>2026-04-19T08:18:05.879Z</time></trkpt><trkpt lat="40.64393938879594" lon="15.034368744274188"><ele>307.0</ele><time>2026-04-19T08:18:06.879Z</time></trkpt><trkpt lat="40.6439899991619" lon="15.034454283782699"><ele>307.0</ele><time>2026-04-19T08:18:07.879Z</time></trkpt><trkpt lat="40.644043750839835" lon="15.034535880541974"><ele>307.0</ele><time>2026-04-19T08:18:08.879Z</time></trkpt><trkpt lat="40.644089416459536" lon="15.034624055385818"><ele>307.0</ele><time>2026-04-19T08:18:09.879Z</time></trkpt><trkpt lat="40.644141889167926" lon="15.034694440604929"><ele>307.0</ele><time>2026-04-19T08:18:10.879Z</time></trkpt><trkpt lat="40.644183923942414" lon="15.034795107518772"><ele>307.0</ele><time>2026-04-19T08:18:11.879Z</time></trkpt><trkpt lat="40.64421255461777" lon="15.034882507577331"><ele>307.0</ele><time>2026-04-19T08:18:12.879Z</time></trkpt><trkpt lat="40.64426089189245" lon="15.034938930930688"><ele>307.0</ele><time>2026-04-19T08:18:13.879Z</time></trkpt><trkpt lat="40.6443463556268" lon="15.034950352906675"><ele>307.0</ele><time>2026-04-19T08:18:15.879Z</time></trkpt><trkpt lat="40.64440462845172" lon="15.034884918867228"><ele>307.0</ele><time>2026-04-19T08:18:17.879Z</time></trkpt><trkpt lat="40.64442340853867" lon="15.034792582619481"><ele>307.0</ele><time>2026-04-19T08:18:19.879Z</time></trkpt><trkpt lat="40.64441404666803" lon="15.034702815289299"><ele>307.0</ele><time>2026-04-19T08:18:20.879Z</time></trkpt><trkpt lat="40.644385047802096" lon="15.034607286740341"><ele>307.0</ele><time>2026-04-19T08:18:21.879Z</time></trkpt><trkpt lat="40.64438069422836" lon="15.03450428742221"><ele>307.0</ele><time>2026-04-19T08:18:22.879Z</time></trkpt><trkpt lat="40.64438502675699" lon="15.034402651065337"><ele>307.0</ele><time>2026-04-19T08:18:23.879Z</time></trkpt><trkpt lat="40.644377158308" lon="15.034316864315304"><ele>307.0</ele><time>2026-04-19T08:18:25.879Z</time></trkpt><trkpt lat="40.64431238734632" lon="15.034241051872797"><ele>306.99999999999994</ele><time>2026-04-19T08:18:28.879Z</time></trkpt><trkpt lat="40.6442902056365" lon="15.034154944161811"><ele>307.0</ele><time>2026-04-19T08:18:30.879Z</time></trkpt><trkpt lat="40.64429800975557" lon="15.034062219748762"><ele>307.0</ele><time>2026-04-19T08:18:32.879Z</time></trkpt><trkpt lat="40.64428969306057" lon="15.033966464437455"><ele>307.0</ele><time>2026-04-19T08:18:37.879Z</time></trkpt><trkpt lat="40.644316967352246" lon="15.033875746551772"><ele>307.0</ele><time>2026-04-19T08:18:41.879Z</time></trkpt><trkpt lat="40.64437847395067" lon="15.033807664175434"><ele>306.99999999999994</ele><time>2026-04-19T08:18:44.88Z</time></trkpt><trkpt lat="40.64442878892729" lon="15.033726210227524"><ele>307.0</ele><time>2026-04-19T08:18:47.88Z</time></trkpt><trkpt lat="40.64447463573815" lon="15.03366681700122"><ele>301.4</ele><time>2026-04-19T08:18:51.879Z</time></trkpt><trkpt lat="40.6445397643459" lon="15.033628937136154"><ele>295.79999999999995</ele><time>2026-04-19T08:18:55.879Z</time></trkpt><trkpt lat="40.64473429139519" lon="15.033603615772282"><ele>290.2</ele><time>2026-04-19T08:19:05.88Z</time></trkpt><trkpt lat="40.64482303764275" lon="15.033613226350194"><ele>284.59999999999997</ele><time>2026-04-19T08:19:08.88Z</time></trkpt><trkpt lat="40.644885739249496" lon="15.033622825286646"><ele>279.0</ele><time>2026-04-19T08:19:10.88Z</time></trkpt><trkpt lat="40.645019419494545" lon="15.033652593591116"><ele>279.0</ele><time>2026-04-19T08:19:14.88Z</time></trkpt><trkpt lat="40.645079981209264" lon="15.033686830216986"><ele>279.0</ele><time>2026-04-19T08:19:16.88Z</time></trkpt><trkpt lat="40.64515022044293" lon="15.033715569742965"><ele>279.0</ele><time>2026-04-19T08:19:18.88Z</time></trkpt><trkpt lat="40.64521405371368" lon="15.033743367665972"><ele>279.0</ele><time>2026-04-19T08:19:20.88Z</time></trkpt><trkpt lat="40.64529103065202" lon="15.033793516867487"><ele>279.0</ele><time>2026-04-19T08:19:24.88Z</time></trkpt><trkpt lat="40.64536630070184" lon="15.033843981932312"><ele>279.0</ele><time>2026-04-19T08:19:27.88Z</time></trkpt><trkpt lat="40.6454396121916" lon="15.033881982578794"><ele>274.8</ele><time>2026-04-19T08:19:31.88Z</time></trkpt><trkpt lat="40.64549260839662" lon="15.033960311961243"><ele>270.59999999999997</ele><time>2026-04-19T08:19:34.88Z</time></trkpt><trkpt lat="40.64552462984679" lon="15.034066254458484"><ele>266.4</ele><time>2026-04-19T08:19:37.88Z</time></trkpt><trkpt lat="40.64562287533005" lon="15.034094348967347"><ele>262.2</ele><time>2026-04-19T08:19:40.88Z</time></trkpt><trkpt lat="40.645738469615104" lon="15.034107542988782"><ele>258.0</ele><time>2026-04-19T08:19:42.88Z</time></trkpt><trkpt lat="40.645824893960764" lon="15.034093651256105"><ele>258.0</ele><time>2026-04-19T08:19:44.88Z</time></trkpt><trkpt lat="40.64589999728873" lon="15.034066810875602"><ele>258.0</ele><time>2026-04-19T08:19:47.88Z</time></trkpt><trkpt lat="40.64597503377116" lon="15.034039591752915"><ele>258.0</ele><time>2026-04-19T08:20:07.88Z</time></trkpt><trkpt lat="40.646041320691666" lon="15.034010315793182"><ele>258.0</ele><time>2026-04-19T08:20:09.88Z</time></trkpt><trkpt lat="40.64610392549217" lon="15.034037057288256"><ele>258.0</ele><time>2026-04-19T08:20:12.88Z</time></trkpt><trkpt lat="40.64615427596247" lon="15.034103571341936"><ele>258.0</ele><time>2026-04-19T08:20:16.88Z</time></trkpt><trkpt lat="40.64622167449194" lon="15.034181071442047"><ele>257.6666666666667</ele><time>2026-04-19T08:20:19.88Z</time></trkpt><trkpt lat="40.64629970775535" lon="15.0342273021382"><ele>257.3333333333333</ele><time>2026-04-19T08:20:21.88Z</time></trkpt><trkpt lat="40.64638247778917" lon="15.034248942618927"><ele>257.0</ele><time>2026-04-19T08:20:23.88Z</time></trkpt><trkpt lat="40.646472401711165" lon="15.034241883981382"><ele>256.66666666666663</ele><time>2026-04-19T08:20:25.88Z</time></trkpt><trkpt lat="40.646541951520106" lon="15.034267640673473"><ele>256.3333333333333</ele><time>2026-04-19T08:20:27.88Z</time></trkpt><trkpt lat="40.646628946028414" lon="15.034344028327881"><ele>256.0</ele><time>2026-04-19T08:20:30.88Z</time></trkpt><trkpt lat="40.64669681144808" lon="15.034410147008947"><ele>256.0</ele><time>2026-04-19T08:20:32.88Z</time></trkpt><trkpt lat="40.64676168227653" lon="15.034430757318543"><ele>255.99999999999997</ele><time>2026-04-19T08:20:34.88Z</time></trkpt><trkpt lat="40.64682768983293" lon="15.034474297751526"><ele>256.0</ele><time>2026-04-19T08:20:37.88Z</time></trkpt><trkpt lat="40.646876122733026" lon="15.03453140149517"><ele>256.0</ele><time>2026-04-19T08:20:39.88Z</time></trkpt><trkpt lat="40.64690934157307" lon="15.03462625656498"><ele>255.99999999999997</ele><time>2026-04-19T08:20:41.88Z</time></trkpt><trkpt lat="40.64696770721637" lon="15.034706559206246"><ele>256.0</ele><time>2026-04-19T08:20:43.88Z</time></trkpt><trkpt lat="40.64700252988897" lon="15.034790043314244"><ele>256.0</ele><time>2026-04-19T08:20:45.88Z</time></trkpt><trkpt lat="40.647068955424324" lon="15.034881357900026"><ele>256.1428571428571</ele><time>2026-04-19T08:20:47.88Z</time></trkpt><trkpt lat="40.64712386944825" lon="15.034935048291764"><ele>256.2857142857143</ele><time>2026-04-19T08:20:49.88Z</time></trkpt><trkpt lat="40.647167490879404" lon="15.035019871864487"><ele>256.42857142857144</ele><time>2026-04-19T08:20:52.88Z</time></trkpt><trkpt lat="40.6472140497278" lon="15.035079879903554"><ele>256.57142857142856</ele><time>2026-04-19T08:21:09.88Z</time></trkpt><trkpt lat="40.64721120641947" lon="15.035165316372348"><ele>256.7142857142857</ele><time>2026-04-19T08:21:26.88Z</time></trkpt><trkpt lat="40.64723303794908" lon="15.035269867607107"><ele>256.85714285714283</ele><time>2026-04-19T08:21:28.88Z</time></trkpt><trkpt lat="40.647263065199525" lon="15.035362604707462"><ele>257.0</ele><time>2026-04-19T08:21:31.88Z</time></trkpt><trkpt lat="40.64732402138015" lon="15.035385475816641"><ele>257.0</ele><time>2026-04-19T08:21:34.88Z</time></trkpt><trkpt lat="40.64740118848717" lon="15.035310320872025"><ele>257.0</ele><time>2026-04-19T08:21:37.88Z</time></trkpt><trkpt lat="40.64746477508577" lon="15.03519798401178"><ele>257.0</ele><time>2026-04-19T08:21:39.88Z</time></trkpt><trkpt lat="40.64748955595642" lon="15.035061078060089"><ele>257.0</ele><time>2026-04-19T08:21:41.88Z</time></trkpt><trkpt lat="40.64751837574875" lon="15.03490419862865"><ele>257.0</ele><time>2026-04-19T08:21:43.88Z</time></trkpt><trkpt lat="40.647532857533044" lon="15.034811571306689"><ele>257.0</ele><time>2026-04-19T08:21:44.88Z</time></trkpt><trkpt lat="40.647549339807135" lon="15.034697469003026"><ele>257.0</ele><time>2026-04-19T08:21:45.88Z</time></trkpt><trkpt lat="40.64755235564098" lon="15.034595623349805"><ele>257.0</ele><time>2026-04-19T08:21:46.88Z</time></trkpt><trkpt lat="40.64752817593651" lon="15.034488613385811"><ele>257.0</ele><time>2026-04-19T08:21:47.88Z</time></trkpt><trkpt lat="40.64750717344676" lon="15.034391234081763"><ele>257.0</ele><time>2026-04-19T08:21:48.88Z</time></trkpt><trkpt lat="40.64748853321063" lon="15.034213065869817"><ele>256.6</ele><time>2026-04-19T08:21:49.88Z</time></trkpt><trkpt lat="40.64747284522455" lon="15.034095682588042"><ele>256.2</ele><time>2026-04-19T08:21:50.88Z</time></trkpt><trkpt lat="40.64745391287337" lon="15.033923596200745"><ele>255.8</ele><time>2026-04-19T08:21:52.88Z</time></trkpt><trkpt lat="40.64746989359668" lon="15.033778095693593"><ele>255.4</ele><time>2026-04-19T08:21:54.88Z</time></trkpt><trkpt lat="40.64745460120726" lon="15.033644753715807"><ele>255.0</ele><time>2026-04-19T08:21:56.88Z</time></trkpt><trkpt lat="40.64748944859502" lon="15.03347640194895"><ele>255.0</ele><time>2026-04-19T08:21:58.88Z</time></trkpt><trkpt lat="40.64754856679028" lon="15.033418308715058"><ele>255.0</ele><time>2026-04-19T08:21:59.88Z</time></trkpt><trkpt lat="40.64764141369125" lon="15.03338407431353"><ele>255.0</ele><time>2026-04-19T08:22:01.88Z</time></trkpt><trkpt lat="40.64773209203323" lon="15.03336740279378"><ele>255.0</ele><time>2026-04-19T08:22:03.88Z</time></trkpt><trkpt lat="40.64783075078268" lon="15.03331053547716"><ele>255.0</ele><time>2026-04-19T08:22:05.88Z</time></trkpt><trkpt lat="40.64789040883689" lon="15.033269028127917"><ele>255.0</ele><time>2026-04-19T08:22:06.88Z</time></trkpt><trkpt lat="40.64795414026342" lon="15.033232236123276"><ele>253.8</ele><time>2026-04-19T08:22:07.88Z</time></trkpt><trkpt lat="40.648001272651456" lon="15.033176452498285"><ele>252.6</ele><time>2026-04-19T08:22:08.88Z</time></trkpt><trkpt lat="40.648077057726766" lon="15.033126693983117"><ele>251.39999999999998</ele><time>2026-04-19T08:22:10.88Z</time></trkpt><trkpt lat="40.64818588591197" lon="15.033097537745451"><ele>250.2</ele><time>2026-04-19T08:22:12.88Z</time></trkpt><trkpt lat="40.648276665882165" lon="15.03305783631626"><ele>249.0</ele><time>2026-04-19T08:22:14.88Z</time></trkpt><trkpt lat="40.648368204720974" lon="15.03301122962424"><ele>249.0</ele><time>2026-04-19T08:22:16.88Z</time></trkpt><trkpt lat="40.648471431853295" lon="15.032943482234819"><ele>248.99999999999997</ele><time>2026-04-19T08:22:18.88Z</time></trkpt><trkpt lat="40.64854385251277" lon="15.03291680991991"><ele>248.99999999999997</ele><time>2026-04-19T08:22:19.88Z</time></trkpt><trkpt lat="40.648648533603996" lon="15.032863505243055"><ele>249.0</ele><time>2026-04-19T08:22:21.88Z</time></trkpt><trkpt lat="40.64870931053277" lon="15.032808773913047"><ele>249.0</ele><time>2026-04-19T08:22:23.88Z</time></trkpt><trkpt lat="40.648806755532746" lon="15.032734647260492"><ele>248.6</ele><time>2026-04-19T08:22:25.88Z</time></trkpt><trkpt lat="40.64886102320253" lon="15.032676076004236"><ele>248.2</ele><time>2026-04-19T08:22:26.88Z</time></trkpt><trkpt lat="40.64894066564049" lon="15.032568203278412"><ele>247.79999999999998</ele><time>2026-04-19T08:22:28.88Z</time></trkpt><trkpt lat="40.649052544171234" lon="15.032483504103729"><ele>247.39999999999998</ele><time>2026-04-19T08:22:30.88Z</time></trkpt><trkpt lat="40.64911404022777" lon="15.03245442190685"><ele>247.0</ele><time>2026-04-19T08:22:31.88Z</time></trkpt><trkpt lat="40.649218973931845" lon="15.032393287948906"><ele>246.99999999999997</ele><time>2026-04-19T08:22:33.88Z</time></trkpt><trkpt lat="40.649341877040264" lon="15.032368583098515"><ele>247.0</ele><time>2026-04-19T08:22:35.88Z</time></trkpt><trkpt lat="40.64940602204632" lon="15.03235038913477"><ele>247.0</ele><time>2026-04-19T08:22:36.88Z</time></trkpt><trkpt lat="40.64947082245954" lon="15.032325597086727"><ele>247.0</ele><time>2026-04-19T08:22:37.88Z</time></trkpt><trkpt lat="40.649534798173" lon="15.032295466218724"><ele>246.99999999999997</ele><time>2026-04-19T08:22:38.88Z</time></trkpt><trkpt lat="40.64964913371538" lon="15.032232265200774"><ele>247.0</ele><time>2026-04-19T08:22:40.88Z</time></trkpt><trkpt lat="40.6497052184874" lon="15.032176688150232"><ele>245.99999999999997</ele><time>2026-04-19T08:22:41.88Z</time></trkpt><trkpt lat="40.64975895373818" lon="15.032062979721092"><ele>245.0</ele><time>2026-04-19T08:22:43.88Z</time></trkpt><trkpt lat="40.64978872607539" lon="15.031967416513258"><ele>244.0</ele><time>2026-04-19T08:22:45.88Z</time></trkpt><trkpt lat="40.64984950876366" lon="15.031938056260264"><ele>243.0</ele><time>2026-04-19T08:22:47.88Z</time></trkpt><trkpt lat="40.64989854695224" lon="15.032014783969506"><ele>241.99999999999997</ele><time>2026-04-19T08:22:49.88Z</time></trkpt><trkpt lat="40.649922481723124" lon="15.032130395215693"><ele>241.0</ele><time>2026-04-19T08:22:51.88Z</time></trkpt><trkpt lat="40.64999350959386" lon="15.032196635988383"><ele>241.0</ele><time>2026-04-19T08:22:53.88Z</time></trkpt><trkpt lat="40.65006189146307" lon="15.032181695665567"><ele>241.00000000000003</ele><time>2026-04-19T08:22:54.88Z</time></trkpt><trkpt lat="40.65014702777056" lon="15.032174980628383"><ele>241.00000000000003</ele><time>2026-04-19T08:22:55.88Z</time></trkpt><trkpt lat="40.65023682843103" lon="15.032150778264679"><ele>241.0</ele><time>2026-04-19T08:22:56.88Z</time></trkpt><trkpt lat="40.65036224007352" lon="15.032169357878711"><ele>241.0</ele><time>2026-04-19T08:22:58.88Z</time></trkpt><trkpt lat="40.65046411315644" lon="15.032242985688354"><ele>241.83333333333331</ele><time>2026-04-19T08:23:00.879Z</time></trkpt><trkpt lat="40.650578753799486" lon="15.03226186597477"><ele>242.66666666666666</ele><time>2026-04-19T08:23:02.88Z</time></trkpt><trkpt lat="40.65064762959317" lon="15.032239686562802"><ele>243.5</ele><time>2026-04-19T08:23:03.879Z</time></trkpt><trkpt lat="40.65071556913343" lon="15.032166711143258"><ele>244.33333333333331</ele><time>2026-04-19T08:23:04.879Z</time></trkpt><trkpt lat="40.65076036736254" lon="15.032095330332506"><ele>245.16666666666666</ele><time>2026-04-19T08:23:05.879Z</time></trkpt><trkpt lat="40.650811222918115" lon="15.032031604655552"><ele>246.0</ele><time>2026-04-19T08:23:06.879Z</time></trkpt><trkpt lat="40.65087451382433" lon="15.032022562934937"><ele>246.0</ele><time>2026-04-19T08:23:07.879Z</time></trkpt><trkpt lat="40.65094225286105" lon="15.032007448447835"><ele>246.0</ele><time>2026-04-19T08:23:08.879Z</time></trkpt><trkpt lat="40.65101394046057" lon="15.031995534075769"><ele>246.0</ele><time>2026-04-19T08:23:09.88Z</time></trkpt><trkpt lat="40.65108051388794" lon="15.031986938831395"><ele>246.0</ele><time>2026-04-19T08:23:10.88Z</time></trkpt><trkpt lat="40.65114770632626" lon="15.031984353643322"><ele>246.0</ele><time>2026-04-19T08:23:11.879Z</time></trkpt><trkpt lat="40.65123875214658" lon="15.031965523624406"><ele>246.0</ele><time>2026-04-19T08:23:13.879Z</time></trkpt><trkpt lat="40.65130329987786" lon="15.031844440604464"><ele>246.66666666666666</ele><time>2026-04-19T08:23:15.879Z</time></trkpt><trkpt lat="40.6513446616147" lon="15.031767812999128"><ele>247.33333333333331</ele><time>2026-04-19T08:23:16.879Z</time></trkpt><trkpt lat="40.65139354255898" lon="15.03170308674302"><ele>248.0</ele><time>2026-04-19T08:23:17.879Z</time></trkpt><trkpt lat="40.65149382532979" lon="15.031621072547251"><ele>248.66666666666666</ele><time>2026-04-19T08:23:19.879Z</time></trkpt><trkpt lat="40.65156504357872" lon="15.031607344550125"><ele>249.33333333333331</ele><time>2026-04-19T08:23:20.879Z</time></trkpt><trkpt lat="40.65163362270061" lon="15.031596149344974"><ele>250.0</ele><time>2026-04-19T08:23:21.879Z</time></trkpt><trkpt lat="40.6517408444967" lon="15.031621135761805"><ele>250.0</ele><time>2026-04-19T08:23:23.879Z</time></trkpt><trkpt lat="40.65184970281086" lon="15.0316993580452"><ele>250.0</ele><time>2026-04-19T08:23:25.879Z</time></trkpt><trkpt lat="40.65190233134053" lon="15.03175316293172"><ele>250.0</ele><time>2026-04-19T08:23:26.879Z</time></trkpt><trkpt lat="40.651986611257364" lon="15.031848884405445"><ele>250.0</ele><time>2026-04-19T08:23:28.879Z</time></trkpt><trkpt lat="40.6520561461093" lon="15.031974641481103"><ele>250.0</ele><time>2026-04-19T08:23:30.879Z</time></trkpt><trkpt lat="40.65208693604311" lon="15.032077304857212"><ele>248.6</ele><time>2026-04-19T08:23:32.879Z</time></trkpt><trkpt lat="40.65217076066806" lon="15.032113487469443"><ele>247.2</ele><time>2026-04-19T08:23:34.879Z</time></trkpt><trkpt lat="40.652244579101165" lon="15.032076231847793"><ele>245.8</ele><time>2026-04-19T08:23:36.879Z</time></trkpt><trkpt lat="40.65231001197448" lon="15.032028716949165"><ele>244.4</ele><time>2026-04-19T08:23:38.879Z</time></trkpt><trkpt lat="40.65241508808073" lon="15.032001858266863"><ele>243.0</ele><time>2026-04-19T08:23:40.879Z</time></trkpt><trkpt lat="40.65252378536045" lon="15.031999232405422"><ele>243.0</ele><time>2026-04-19T08:23:42.879Z</time></trkpt><trkpt lat="40.6526220520324" lon="15.031997446254326"><ele>243.0</ele><time>2026-04-19T08:23:44.879Z</time></trkpt><trkpt lat="40.65269719991009" lon="15.031904856523067"><ele>243.0</ele><time>2026-04-19T08:23:46.879Z</time></trkpt><trkpt lat="40.652755154662636" lon="15.031767599158513"><ele>243.0</ele><time>2026-04-19T08:23:48.879Z</time></trkpt><trkpt lat="40.65283905838851" lon="15.031688631573704"><ele>243.0</ele><time>2026-04-19T08:23:50.879Z</time></trkpt><trkpt lat="40.65295401919603" lon="15.031656889741978"><ele>243.0</ele><time>2026-04-19T08:23:52.879Z</time></trkpt><trkpt lat="40.65305492316131" lon="15.031652724152003"><ele>243.0</ele><time>2026-04-19T08:23:53.879Z</time></trkpt><trkpt lat="40.65313098054865" lon="15.03166476187866"><ele>243.0</ele><time>2026-04-19T08:23:54.88Z</time></trkpt><trkpt lat="40.65320402932384" lon="15.03167511794763"><ele>243.0</ele><time>2026-04-19T08:23:55.88Z</time></trkpt><trkpt lat="40.65331356601427" lon="15.03168666800406"><ele>243.0</ele><time>2026-04-19T08:23:57.88Z</time></trkpt><trkpt lat="40.65341993813231" lon="15.031670128048992"><ele>239.8</ele><time>2026-04-19T08:23:59.88Z</time></trkpt><trkpt lat="40.65351469278882" lon="15.031594219694348"><ele>236.60000000000002</ele><time>2026-04-19T08:24:01.88Z</time></trkpt><trkpt lat="40.65355847237545" lon="15.031518333735145"><ele>233.39999999999998</ele><time>2026-04-19T08:24:02.88Z</time></trkpt><trkpt lat="40.65363492060142" lon="15.031404306062475"><ele>230.2</ele><time>2026-04-19T08:24:04.88Z</time></trkpt><trkpt lat="40.653714777662195" lon="15.031351323303172"><ele>227.0</ele><time>2026-04-19T08:24:06.88Z</time></trkpt><trkpt lat="40.65381349930256" lon="15.031320465255218"><ele>225.2</ele><time>2026-04-19T08:24:08.88Z</time></trkpt><trkpt lat="40.65394819602669" lon="15.031251286362055"><ele>223.39999999999998</ele><time>2026-04-19T08:24:10.88Z</time></trkpt><trkpt lat="40.65404143257855" lon="15.031208068555555"><ele>221.60000000000002</ele><time>2026-04-19T08:24:11.88Z</time></trkpt><trkpt lat="40.65412083405513" lon="15.031140663303745"><ele>219.8</ele><time>2026-04-19T08:24:12.88Z</time></trkpt><trkpt lat="40.65420454531742" lon="15.03110979487238"><ele>218.0</ele><time>2026-04-19T08:24:13.88Z</time></trkpt><trkpt lat="40.654285022867576" lon="15.031075123033483"><ele>218.0</ele><time>2026-04-19T08:24:14.88Z</time></trkpt><trkpt lat="40.65440577127444" lon="15.031026450004623"><ele>218.0</ele><time>2026-04-19T08:24:16.88Z</time></trkpt><trkpt lat="40.65447824011803" lon="15.030974113071158"><ele>218.0</ele><time>2026-04-19T08:24:18.88Z</time></trkpt><trkpt lat="40.6545235775739" lon="15.03090796599571"><ele>218.0</ele><time>2026-04-19T08:24:19.88Z</time></trkpt><trkpt lat="40.654564043160015" lon="15.0307591026897"><ele>218.0</ele><time>2026-04-19T08:24:21.88Z</time></trkpt><trkpt lat="40.654561727928034" lon="15.030675660072031"><ele>212.2</ele><time>2026-04-19T08:24:22.88Z</time></trkpt><trkpt lat="40.654617405623796" lon="15.030567405348927"><ele>206.4</ele><time>2026-04-19T08:24:24.88Z</time></trkpt><trkpt lat="40.65470905954246" lon="15.030538683229578"><ele>200.6</ele><time>2026-04-19T08:24:26.88Z</time></trkpt><trkpt lat="40.65482835550295" lon="15.030599593742862"><ele>194.79999999999998</ele><time>2026-04-19T08:24:28.88Z</time></trkpt><trkpt lat="40.65489349807593" lon="15.030641842024105"><ele>189.0</ele><time>2026-04-19T08:24:29.88Z</time></trkpt><trkpt lat="40.65496391626028" lon="15.030676860568951"><ele>189.0</ele><time>2026-04-19T08:24:30.88Z</time></trkpt><trkpt lat="40.65509387157806" lon="15.030578970098404"><ele>189.0</ele><time>2026-04-19T08:24:32.88Z</time></trkpt><trkpt lat="40.65516459528525" lon="15.030487805004357"><ele>189.0</ele><time>2026-04-19T08:24:33.88Z</time></trkpt><trkpt lat="40.65521427509771" lon="15.0304032403641"><ele>189.0</ele><time>2026-04-19T08:24:34.88Z</time></trkpt><trkpt lat="40.65525611662529" lon="15.030310632216308"><ele>189.0</ele><time>2026-04-19T08:24:35.88Z</time></trkpt><trkpt lat="40.655304651929136" lon="15.03024678317523"><ele>187.5</ele><time>2026-04-19T08:24:36.88Z</time></trkpt><trkpt lat="40.655354707288154" lon="15.030169899657391"><ele>186.0</ele><time>2026-04-19T08:24:37.88Z</time></trkpt><trkpt lat="40.65540630804208" lon="15.030103475282392"><ele>184.5</ele><time>2026-04-19T08:24:38.88Z</time></trkpt><trkpt lat="40.65545664197047" lon="15.030032039944281"><ele>183.0</ele><time>2026-04-19T08:24:39.88Z</time></trkpt><trkpt lat="40.65550090354059" lon="15.029890431618261"><ele>181.5</ele><time>2026-04-19T08:24:41.88Z</time></trkpt><trkpt lat="40.655474043812106" lon="15.029812611533622"><ele>180.0</ele><time>2026-04-19T08:24:42.88Z</time></trkpt><trkpt lat="40.65541224310646" lon="15.02974957123821"><ele>178.66666666666666</ele><time>2026-04-19T08:24:43.88Z</time></trkpt><trkpt lat="40.655360696084834" lon="15.029677454618437"><ele>177.33333333333334</ele><time>2026-04-19T08:24:44.88Z</time></trkpt><trkpt lat="40.65530491225432" lon="15.029623370879463"><ele>176.0</ele><time>2026-04-19T08:24:45.88Z</time></trkpt><trkpt lat="40.655259561168926" lon="15.029517808634528"><ele>174.66666666666669</ele><time>2026-04-19T08:24:47.88Z</time></trkpt><trkpt lat="40.6552691395506" lon="15.029434955003289"><ele>173.33333333333334</ele><time>2026-04-19T08:24:48.88Z</time></trkpt><trkpt lat="40.65529484943728" lon="15.029349560017605"><ele>172.0</ele><time>2026-04-19T08:24:49.88Z</time></trkpt><trkpt lat="40.65534034152034" lon="15.029253075223751"><ele>171.0</ele><time>2026-04-19T08:24:50.88Z</time></trkpt><trkpt lat="40.65539436310846" lon="15.029177658367061"><ele>170.0</ele><time>2026-04-19T08:24:51.88Z</time></trkpt><trkpt lat="40.65545583257355" lon="15.029093163363035"><ele>169.0</ele><time>2026-04-19T08:24:52.88Z</time></trkpt><trkpt lat="40.6554914058809" lon="15.029024485267751"><ele>168.0</ele><time>2026-04-19T08:24:53.88Z</time></trkpt><trkpt lat="40.65554091614561" lon="15.028953647236143"><ele>167.0</ele><time>2026-04-19T08:24:54.88Z</time></trkpt><trkpt lat="40.65560943119785" lon="15.028825256863543"><ele>166.0</ele><time>2026-04-19T08:24:56.88Z</time></trkpt><trkpt lat="40.65565020852365" lon="15.0287472842107"><ele>163.8</ele><time>2026-04-19T08:24:57.88Z</time></trkpt><trkpt lat="40.65568916366703" lon="15.02867357868837"><ele>161.60000000000002</ele><time>2026-04-19T08:24:58.88Z</time></trkpt><trkpt lat="40.65576871258819" lon="15.028560487017948"><ele>159.4</ele><time>2026-04-19T08:25:00.88Z</time></trkpt><trkpt lat="40.655850499508325" lon="15.02844604931425"><ele>157.2</ele><time>2026-04-19T08:25:02.88Z</time></trkpt><trkpt lat="40.65594606748033" lon="15.028372066405701"><ele>155.0</ele><time>2026-04-19T08:25:04.88Z</time></trkpt><trkpt lat="40.65603433742983" lon="15.028294160868175"><ele>154.33333333333331</ele><time>2026-04-19T08:25:06.878Z</time></trkpt><trkpt lat="40.65609457983563" lon="15.028207560658549"><ele>153.66666666666666</ele><time>2026-04-19T08:25:08.878Z</time></trkpt><trkpt lat="40.65614496646264" lon="15.028146731996305"><ele>153.0</ele><time>2026-04-19T08:25:10.878Z</time></trkpt><trkpt lat="40.656178551039" lon="15.028043340283459"><ele>152.33333333333334</ele><time>2026-04-19T08:25:12.878Z</time></trkpt><trkpt lat="40.65621411977608" lon="15.02793742374154"><ele>151.66666666666669</ele><time>2026-04-19T08:25:15.877Z</time></trkpt><trkpt lat="40.65628967620421" lon="15.027917504022652"><ele>151.0</ele><time>2026-04-19T08:25:21.878Z</time></trkpt><trkpt lat="40.65636224448482" lon="15.027971154424192"><ele>151.0</ele><time>2026-04-19T08:25:23.878Z</time></trkpt><trkpt lat="40.65643826879911" lon="15.02801378848944"><ele>151.0</ele><time>2026-04-19T08:25:26.88Z</time></trkpt><trkpt lat="40.65656350766915" lon="15.027991162004547"><ele>151.0</ele><time>2026-04-19T08:36:38.894Z</time></trkpt><trkpt lat="40.656638462035055" lon="15.028033058278906"><ele>151.0</ele><time>2026-04-19T08:36:40.894Z</time></trkpt><trkpt lat="40.65670777628748" lon="15.02806092723711"><ele>151.0</ele><time>2026-04-19T08:36:42.894Z</time></trkpt><trkpt lat="40.65679536977987" lon="15.028117267168264"><ele>151.0</ele><time>2026-04-19T08:36:45.894Z</time></trkpt><trkpt lat="40.65688777284663" lon="15.028179510012603"><ele>151.0</ele><time>2026-04-19T08:36:47.894Z</time></trkpt><trkpt lat="40.65699292382932" lon="15.028279100111305"><ele>151.0</ele><time>2026-04-19T08:36:49.894Z</time></trkpt><trkpt lat="40.657058442436025" lon="15.0283205578135"><ele>151.0</ele><time>2026-04-19T08:36:50.894Z</time></trkpt><trkpt lat="40.657119036275645" lon="15.02835968679547"><ele>151.0</ele><time>2026-04-19T08:36:51.894Z</time></trkpt><trkpt lat="40.657212479301656" lon="15.02846035072573"><ele>151.4</ele><time>2026-04-19T08:36:53.894Z</time></trkpt><trkpt lat="40.657295052969864" lon="15.028545113431786"><ele>151.8</ele><time>2026-04-19T08:36:55.894Z</time></trkpt><trkpt lat="40.657360859542585" lon="15.02861553714026"><ele>152.20000000000002</ele><time>2026-04-19T08:36:56.894Z</time></trkpt><trkpt lat="40.657437973632014" lon="15.028711229542061"><ele>152.6</ele><time>2026-04-19T08:36:57.894Z</time></trkpt><trkpt lat="40.65751370019255" lon="15.028832258093056"><ele>153.0</ele><time>2026-04-19T08:36:58.894Z</time></trkpt><trkpt lat="40.657576092622634" lon="15.02894843130517"><ele>153.0</ele><time>2026-04-19T08:36:59.894Z</time></trkpt><trkpt lat="40.65763152422508" lon="15.029037575856066"><ele>153.0</ele><time>2026-04-19T08:37:00.894Z</time></trkpt><trkpt lat="40.657675284168185" lon="15.029124742265"><ele>153.0</ele><time>2026-04-19T08:37:01.894Z</time></trkpt><trkpt lat="40.65769141043726" lon="15.029235532903133"><ele>153.0</ele><time>2026-04-19T08:37:02.894Z</time></trkpt><trkpt lat="40.657676140138484" lon="15.029350964890309"><ele>153.0</ele><time>2026-04-19T08:37:03.894Z</time></trkpt><trkpt lat="40.657637157359005" lon="15.029489397106392"><ele>153.6</ele><time>2026-04-19T08:37:04.894Z</time></trkpt><trkpt lat="40.657585687242324" lon="15.029646686899083"><ele>154.20000000000002</ele><time>2026-04-19T08:37:05.894Z</time></trkpt><trkpt lat="40.65752968010375" lon="15.02977687488826"><ele>154.8</ele><time>2026-04-19T08:37:06.895Z</time></trkpt><trkpt lat="40.65748843542405" lon="15.029884408187613"><ele>155.4</ele><time>2026-04-19T08:37:07.895Z</time></trkpt><trkpt lat="40.65748436812035" lon="15.029997276807949"><ele>156.0</ele><time>2026-04-19T08:37:08.895Z</time></trkpt><trkpt lat="40.65752318318422" lon="15.030101242567556"><ele>156.4</ele><time>2026-04-19T08:37:09.895Z</time></trkpt><trkpt lat="40.657566130007744" lon="15.030203670109897"><ele>156.8</ele><time>2026-04-19T08:37:10.895Z</time></trkpt><trkpt lat="40.65764254078562" lon="15.030304351500734"><ele>157.20000000000002</ele><time>2026-04-19T08:37:11.895Z</time></trkpt><trkpt lat="40.65772684531954" lon="15.030386892202664"><ele>157.6</ele><time>2026-04-19T08:37:12.895Z</time></trkpt><trkpt lat="40.65781604524709" lon="15.030465331406738"><ele>158.0</ele><time>2026-04-19T08:37:13.895Z</time></trkpt><trkpt lat="40.65790045880897" lon="15.030542846739044"><ele>158.0</ele><time>2026-04-19T08:37:14.895Z</time></trkpt><trkpt lat="40.65798093879132" lon="15.030576850025293"><ele>158.0</ele><time>2026-04-19T08:37:15.895Z</time></trkpt><trkpt lat="40.65806360559694" lon="15.030606060188967"><ele>158.0</ele><time>2026-04-19T08:37:16.895Z</time></trkpt><trkpt lat="40.65812484442129" lon="15.030649024650408"><ele>158.0</ele><time>2026-04-19T08:37:17.895Z</time></trkpt><trkpt lat="40.65817185382774" lon="15.030709586648529"><ele>158.0</ele><time>2026-04-19T08:37:18.895Z</time></trkpt><trkpt lat="40.65824206691649" lon="15.030842857910526"><ele>158.0</ele><time>2026-04-19T08:37:20.895Z</time></trkpt><trkpt lat="40.65825563075302" lon="15.030962469124725"><ele>159.83333333333331</ele><time>2026-04-19T08:37:21.895Z</time></trkpt><trkpt lat="40.658279760485705" lon="15.031083104836929"><ele>161.66666666666666</ele><time>2026-04-19T08:37:22.895Z</time></trkpt><trkpt lat="40.658316385131144" lon="15.03120134809354"><ele>163.5</ele><time>2026-04-19T08:37:23.895Z</time></trkpt><trkpt lat="40.65833483334477" lon="15.031322333735313"><ele>165.33333333333334</ele><time>2026-04-19T08:37:24.895Z</time></trkpt><trkpt lat="40.658363895471695" lon="15.031428874142849"><ele>167.16666666666669</ele><time>2026-04-19T08:37:25.895Z</time></trkpt><trkpt lat="40.658399231041855" lon="15.031513026543605"><ele>169.0</ele><time>2026-04-19T08:37:26.895Z</time></trkpt><trkpt lat="40.65843575968495" lon="15.03160708341677"><ele>168.0</ele><time>2026-04-19T08:37:27.895Z</time></trkpt><trkpt lat="40.65849265129889" lon="15.031672679952445"><ele>167.0</ele><time>2026-04-19T08:37:28.895Z</time></trkpt><trkpt lat="40.658537739608505" lon="15.031737781287015"><ele>166.0</ele><time>2026-04-19T08:37:29.895Z</time></trkpt><trkpt lat="40.658601105349" lon="15.03178343981874"><ele>165.0</ele><time>2026-04-19T08:37:30.895Z</time></trkpt><trkpt lat="40.6586532690901" lon="15.031837495593795"><ele>164.0</ele><time>2026-04-19T08:37:31.895Z</time></trkpt><trkpt lat="40.658711951924126" lon="15.031894229633153"><ele>163.0</ele><time>2026-04-19T08:37:32.895Z</time></trkpt><trkpt lat="40.658772878111954" lon="15.031938034765487"><ele>162.0</ele><time>2026-04-19T08:37:33.895Z</time></trkpt><trkpt lat="40.658855516452014" lon="15.032003215098172"><ele>162.0</ele><time>2026-04-19T08:37:34.895Z</time></trkpt><trkpt lat="40.65895423042169" lon="15.032046008768823"><ele>162.0</ele><time>2026-04-19T08:37:35.895Z</time></trkpt><trkpt lat="40.65904194154771" lon="15.032095792164707"><ele>162.0</ele><time>2026-04-19T08:37:36.895Z</time></trkpt><trkpt lat="40.65911634522313" lon="15.032137747626233"><ele>162.0</ele><time>2026-04-19T08:37:37.895Z</time></trkpt><trkpt lat="40.65919268220137" lon="15.032187434329295"><ele>162.0</ele><time>2026-04-19T08:37:38.895Z</time></trkpt><trkpt lat="40.65925197223289" lon="15.032228131043642"><ele>162.0</ele><time>2026-04-19T08:37:39.895Z</time></trkpt><trkpt lat="40.65931139437068" lon="15.032271947536934"><ele>162.0</ele><time>2026-04-19T08:37:40.895Z</time></trkpt><trkpt lat="40.659425895093825" lon="15.032346329231004"><ele>162.0</ele><time>2026-04-19T08:37:42.894Z</time></trkpt><trkpt lat="40.659492330258914" lon="15.03239079561103"><ele>162.0</ele><time>2026-04-19T08:37:43.894Z</time></trkpt><trkpt lat="40.65955573378086" lon="15.032443744429942"><ele>162.0</ele><time>2026-04-19T08:37:44.894Z</time></trkpt><trkpt lat="40.65962076685079" lon="15.032497619666916"><ele>162.0</ele><time>2026-04-19T08:37:45.894Z</time></trkpt><trkpt lat="40.6596833662079" lon="15.032542886688638"><ele>162.0</ele><time>2026-04-19T08:37:46.894Z</time></trkpt><trkpt lat="40.659738914156314" lon="15.032604067713747"><ele>162.39999999999998</ele><time>2026-04-19T08:37:47.894Z</time></trkpt><trkpt lat="40.6597929637462" lon="15.03268300905363"><ele>162.79999999999998</ele><time>2026-04-19T08:37:48.894Z</time></trkpt><trkpt lat="40.659845604223996" lon="15.032763874660546"><ele>163.2</ele><time>2026-04-19T08:37:49.894Z</time></trkpt><trkpt lat="40.65990238609736" lon="15.032860178986152"><ele>163.6</ele><time>2026-04-19T08:37:50.894Z</time></trkpt><trkpt lat="40.65995356008501" lon="15.032981516218271"><ele>164.0</ele><time>2026-04-19T08:37:51.894Z</time></trkpt><trkpt lat="40.66001020290041" lon="15.033080040907207"><ele>164.0</ele><time>2026-04-19T08:37:52.894Z</time></trkpt><trkpt lat="40.660073334157325" lon="15.033160047907428"><ele>164.0</ele><time>2026-04-19T08:37:53.894Z</time></trkpt><trkpt lat="40.66013944591811" lon="15.03325057231742"><ele>164.0</ele><time>2026-04-19T08:37:54.893Z</time></trkpt><trkpt lat="40.660199997211336" lon="15.03332073338154"><ele>164.0</ele><time>2026-04-19T08:37:55.893Z</time></trkpt><trkpt lat="40.660267616754844" lon="15.033395770837027"><ele>164.0</ele><time>2026-04-19T08:37:56.893Z</time></trkpt><trkpt lat="40.660327647702005" lon="15.033482412554461"><ele>164.0</ele><time>2026-04-19T08:37:57.893Z</time></trkpt><trkpt lat="40.66039921978979" lon="15.033577456589944"><ele>164.66666666666666</ele><time>2026-04-19T08:37:58.893Z</time></trkpt><trkpt lat="40.66045761043303" lon="15.033674979784823"><ele>165.33333333333331</ele><time>2026-04-19T08:37:59.893Z</time></trkpt><trkpt lat="40.66051629375293" lon="15.033778941936408"><ele>166.0</ele><time>2026-04-19T08:38:00.893Z</time></trkpt><trkpt lat="40.66057535751423" lon="15.03388404242925"><ele>166.66666666666666</ele><time>2026-04-19T08:38:01.893Z</time></trkpt><trkpt lat="40.66063343121574" lon="15.03394497747747"><ele>167.33333333333334</ele><time>2026-04-19T08:38:02.893Z</time></trkpt><trkpt lat="40.66069234711817" lon="15.03400196228585"><ele>168.0</ele><time>2026-04-19T08:38:03.893Z</time></trkpt><trkpt lat="40.66073848012434" lon="15.034061768464547"><ele>168.66666666666666</ele><time>2026-04-19T08:38:04.893Z</time></trkpt><trkpt lat="40.66078679603959" lon="15.034172645412553"><ele>169.33333333333334</ele><time>2026-04-19T08:38:06.893Z</time></trkpt><trkpt lat="40.66074605258826" lon="15.034307841569678"><ele>170.0</ele><time>2026-04-19T08:38:09.893Z</time></trkpt><trkpt lat="40.66069568719584" lon="15.034382843987867"><ele>170.66666666666669</ele><time>2026-04-19T08:38:10.893Z</time></trkpt><trkpt lat="40.66068393388475" lon="15.0344675022107"><ele>171.33333333333334</ele><time>2026-04-19T08:38:11.893Z</time></trkpt><trkpt lat="40.660684141866916" lon="15.034564117334062"><ele>172.0</ele><time>2026-04-19T08:38:12.893Z</time></trkpt><trkpt lat="40.660694561215536" lon="15.034680076598562"><ele>172.0</ele><time>2026-04-19T08:38:14.894Z</time></trkpt><trkpt lat="40.660791722924984" lon="15.034709764564209"><ele>172.0</ele><time>2026-04-19T08:38:17.894Z</time></trkpt><trkpt lat="40.660877346608466" lon="15.034623387725558"><ele>172.0</ele><time>2026-04-19T08:38:19.894Z</time></trkpt><trkpt lat="40.660951540684906" lon="15.034580137165822"><ele>172.0</ele><time>2026-04-19T08:38:21.894Z</time></trkpt><trkpt lat="40.66105877809214" lon="15.034670227074663"><ele>172.0</ele><time>2026-04-19T08:38:23.894Z</time></trkpt><trkpt lat="40.66108773283006" lon="15.034784088500427"><ele>172.16666666666669</ele><time>2026-04-19T08:38:25.894Z</time></trkpt><trkpt lat="40.66112393044791" lon="15.034923143300672"><ele>172.33333333333334</ele><time>2026-04-19T08:38:27.894Z</time></trkpt><trkpt lat="40.661175836391166" lon="15.034973996009974"><ele>172.5</ele><time>2026-04-19T08:38:28.894Z</time></trkpt><trkpt lat="40.66123874649143" lon="15.035036467975582"><ele>172.66666666666666</ele><time>2026-04-19T08:38:29.894Z</time></trkpt><trkpt lat="40.661282719813215" lon="15.035127487051595"><ele>172.83333333333331</ele><time>2026-04-19T08:38:30.894Z</time></trkpt><trkpt lat="40.66132447883232" lon="15.035196455741564"><ele>173.0</ele><time>2026-04-19T08:38:31.894Z</time></trkpt><trkpt lat="40.66140640113229" lon="15.03527189593678"><ele>174.33333333333331</ele><time>2026-04-19T08:38:33.894Z</time></trkpt><trkpt lat="40.66151628247355" lon="15.035341025079612"><ele>175.66666666666666</ele><time>2026-04-19T08:38:35.894Z</time></trkpt><trkpt lat="40.66157418295693" lon="15.035385430513818"><ele>177.0</ele><time>2026-04-19T08:38:36.894Z</time></trkpt><trkpt lat="40.66163561585086" lon="15.035411324881006"><ele>178.33333333333334</ele><time>2026-04-19T08:38:37.894Z</time></trkpt><trkpt lat="40.66172220465633" lon="15.03541662388082"><ele>179.66666666666669</ele><time>2026-04-19T08:38:38.894Z</time></trkpt><trkpt lat="40.66181702859095" lon="15.035425219266022"><ele>181.0</ele><time>2026-04-19T08:38:39.894Z</time></trkpt><trkpt lat="40.661909499712266" lon="15.035421904795362"><ele>180.5</ele><time>2026-04-19T08:38:40.894Z</time></trkpt><trkpt lat="40.66198819436497" lon="15.03542758724099"><ele>180.0</ele><time>2026-04-19T08:38:41.894Z</time></trkpt><trkpt lat="40.662059151072235" lon="15.0354310710144"><ele>179.5</ele><time>2026-04-19T08:38:42.894Z</time></trkpt><trkpt lat="40.662132977753366" lon="15.035428857434697"><ele>179.0</ele><time>2026-04-19T08:38:43.894Z</time></trkpt><trkpt lat="40.662209111800685" lon="15.035445770162825"><ele>178.5</ele><time>2026-04-19T08:38:44.894Z</time></trkpt><trkpt lat="40.662274333372665" lon="15.035470637660787"><ele>178.0</ele><time>2026-04-19T08:38:45.894Z</time></trkpt><trkpt lat="40.66237327026581" lon="15.035516321003348"><ele>178.0</ele><time>2026-04-19T08:38:47.894Z</time></trkpt><trkpt lat="40.66246228353053" lon="15.035599574175304"><ele>178.0</ele><time>2026-04-19T08:38:49.894Z</time></trkpt><trkpt lat="40.66251006341475" lon="15.035659662125905"><ele>178.0</ele><time>2026-04-19T08:38:50.894Z</time></trkpt><trkpt lat="40.66260179776692" lon="15.035688752463658"><ele>178.0</ele><time>2026-04-19T08:38:52.894Z</time></trkpt><trkpt lat="40.662698273153374" lon="15.035696502588339"><ele>178.0</ele><time>2026-04-19T08:38:54.894Z</time></trkpt><trkpt lat="40.662814308983705" lon="15.035720416943223"><ele>179.0</ele><time>2026-04-19T08:38:56.894Z</time></trkpt><trkpt lat="40.662927841752534" lon="15.03574889220752"><ele>180.0</ele><time>2026-04-19T08:38:58.894Z</time></trkpt><trkpt lat="40.66300915609374" lon="15.035826029674118"><ele>181.0</ele><time>2026-04-19T08:39:00.894Z</time></trkpt><trkpt lat="40.663041791943385" lon="15.035914694435156"><ele>182.0</ele><time>2026-04-19T08:39:02.894Z</time></trkpt><trkpt lat="40.66306719095786" lon="15.036011646700418"><ele>183.0</ele><time>2026-04-19T08:39:04.894Z</time></trkpt><trkpt lat="40.66309366325807" lon="15.03609719619844"><ele>184.0</ele><time>2026-04-19T08:39:06.894Z</time></trkpt><trkpt lat="40.66310086200183" lon="15.036188109234995"><ele>185.2</ele><time>2026-04-19T08:39:08.894Z</time></trkpt><trkpt lat="40.66311982169245" lon="15.036318789894905"><ele>186.39999999999998</ele><time>2026-04-19T08:39:10.894Z</time></trkpt><trkpt lat="40.66312302996696" lon="15.03647666578747"><ele>187.6</ele><time>2026-04-19T08:39:12.894Z</time></trkpt><trkpt lat="40.66316177832494" lon="15.036570163140775"><ele>188.8</ele><time>2026-04-19T08:39:14.894Z</time></trkpt><trkpt lat="40.66326678321951" lon="15.036554154268178"><ele>190.0</ele><time>2026-04-19T08:39:16.894Z</time></trkpt><trkpt lat="40.66333504336336" lon="15.036460313073807"><ele>190.0</ele><time>2026-04-19T08:39:18.894Z</time></trkpt><trkpt lat="40.66336458717667" lon="15.036381659002771"><ele>190.0</ele><time>2026-04-19T08:39:19.894Z</time></trkpt><trkpt lat="40.66340202000273" lon="15.0362938330084"><ele>190.0</ele><time>2026-04-19T08:39:20.894Z</time></trkpt><trkpt lat="40.66344564539773" lon="15.03621592755926"><ele>190.0</ele><time>2026-04-19T08:39:21.894Z</time></trkpt><trkpt lat="40.66350127886467" lon="15.036154207399075"><ele>190.0</ele><time>2026-04-19T08:39:22.894Z</time></trkpt><trkpt lat="40.66355432914597" lon="15.036096454694656"><ele>190.0</ele><time>2026-04-19T08:39:23.894Z</time></trkpt><trkpt lat="40.66363972149473" lon="15.036023385687152"><ele>191.4</ele><time>2026-04-19T08:39:25.894Z</time></trkpt><trkpt lat="40.6637515223278" lon="15.035998679289166"><ele>192.8</ele><time>2026-04-19T08:39:27.894Z</time></trkpt><trkpt lat="40.663832646228464" lon="15.03602729810158"><ele>194.2</ele><time>2026-04-19T08:39:28.894Z</time></trkpt><trkpt lat="40.66392563041116" lon="15.036077937070154"><ele>195.6</ele><time>2026-04-19T08:39:29.894Z</time></trkpt><trkpt lat="40.66400397235596" lon="15.036141040644443"><ele>197.0</ele><time>2026-04-19T08:39:30.894Z</time></trkpt><trkpt lat="40.66407967531556" lon="15.036218040071592"><ele>197.0</ele><time>2026-04-19T08:39:31.894Z</time></trkpt><trkpt lat="40.66414474357888" lon="15.03624248119279"><ele>197.0</ele><time>2026-04-19T08:39:32.894Z</time></trkpt><trkpt lat="40.66425713152196" lon="15.036302504622654"><ele>197.0</ele><time>2026-04-19T08:39:34.894Z</time></trkpt><trkpt lat="40.664352503968026" lon="15.036397421963002"><ele>197.0</ele><time>2026-04-19T08:39:36.894Z</time></trkpt><trkpt lat="40.664404187401466" lon="15.036448147863618"><ele>197.0</ele><time>2026-04-19T08:39:37.894Z</time></trkpt><trkpt lat="40.6645329286221" lon="15.036454381473007"><ele>198.5</ele><time>2026-04-19T08:39:39.894Z</time></trkpt><trkpt lat="40.66462156154633" lon="15.036386345494241"><ele>200.0</ele><time>2026-04-19T08:39:41.894Z</time></trkpt><trkpt lat="40.66468769375584" lon="15.036265645228106"><ele>201.5</ele><time>2026-04-19T08:39:43.894Z</time></trkpt><trkpt lat="40.6648140680995" lon="15.036235353417656"><ele>203.0</ele><time>2026-04-19T08:39:45.894Z</time></trkpt><trkpt lat="40.664943229394595" lon="15.036293576763851"><ele>203.00000000000003</ele><time>2026-04-19T08:39:47.894Z</time></trkpt><trkpt lat="40.66502702461141" lon="15.036369494232407"><ele>203.0</ele><time>2026-04-19T08:39:49.894Z</time></trkpt><trkpt lat="40.66508747851299" lon="15.036396296593889"><ele>203.0</ele><time>2026-04-19T08:39:50.894Z</time></trkpt><trkpt lat="40.66518111617529" lon="15.036428008949512"><ele>203.0</ele><time>2026-04-19T08:39:52.893Z</time></trkpt><trkpt lat="40.66524935572917" lon="15.036455068309218"><ele>203.00000000000003</ele><time>2026-04-19T08:39:54.894Z</time></trkpt><trkpt lat="40.66532514555373" lon="15.036480169000955"><ele>203.0</ele><time>2026-04-19T08:39:56.894Z</time></trkpt><trkpt lat="40.66541333825847" lon="15.036487353074573"><ele>201.85714285714286</ele><time>2026-04-19T08:39:59.893Z</time></trkpt><trkpt lat="40.665475612926464" lon="15.036516090424291"><ele>200.71428571428572</ele><time>2026-04-19T08:40:01.893Z</time></trkpt><trkpt lat="40.66554285140761" lon="15.036525406247208"><ele>199.57142857142856</ele><time>2026-04-19T08:40:03.893Z</time></trkpt><trkpt lat="40.66561286085162" lon="15.036539884839444"><ele>198.42857142857144</ele><time>2026-04-19T08:40:06.893Z</time></trkpt><trkpt lat="40.665653475241086" lon="15.036620010354072"><ele>197.28571428571428</ele><time>2026-04-19T08:40:08.893Z</time></trkpt><trkpt lat="40.6657069230256" lon="15.036731949680474"><ele>196.14285714285714</ele><time>2026-04-19T08:40:10.893Z</time></trkpt><trkpt lat="40.665767647718795" lon="15.036775477672268"><ele>195.0</ele><time>2026-04-19T08:40:12.893Z</time></trkpt><trkpt lat="40.66583351400983" lon="15.036807150648968"><ele>195.75</ele><time>2026-04-19T08:40:14.893Z</time></trkpt><trkpt lat="40.66608460818448" lon="15.036828861506413"><ele>196.5</ele><time>2026-04-19T08:40:19.893Z</time></trkpt><trkpt lat="40.66614620459757" lon="15.036938210107357"><ele>197.25</ele><time>2026-04-19T08:40:21.893Z</time></trkpt><trkpt lat="40.666165368102725" lon="15.03703259952645"><ele>198.0</ele><time>2026-04-19T08:40:23.893Z</time></trkpt><trkpt lat="40.66616696142756" lon="15.037165424854367"><ele>198.0</ele><time>2026-04-19T08:40:26.893Z</time></trkpt><trkpt lat="40.66619472196853" lon="15.037277937015139"><ele>198.0</ele><time>2026-04-19T08:40:28.893Z</time></trkpt><trkpt lat="40.66627623356564" lon="15.037298644351297"><ele>198.0</ele><time>2026-04-19T08:40:30.894Z</time></trkpt><trkpt lat="40.66642656602691" lon="15.037283029094656"><ele>198.0</ele><time>2026-04-19T08:40:33.894Z</time></trkpt><trkpt lat="40.66652631615686" lon="15.037202259777807"><ele>198.0</ele><time>2026-04-19T08:40:35.894Z</time></trkpt><trkpt lat="40.666601636354734" lon="15.037129633340621"><ele>198.0</ele><time>2026-04-19T08:40:37.894Z</time></trkpt><trkpt lat="40.66669714974656" lon="15.03712647204875"><ele>198.0</ele><time>2026-04-19T08:40:39.894Z</time></trkpt><trkpt lat="40.66681648137916" lon="15.03716682106105"><ele>198.0</ele><time>2026-04-19T08:40:41.894Z</time></trkpt><trkpt lat="40.666934156108795" lon="15.037169922171817"><ele>198.0</ele><time>2026-04-19T08:40:43.894Z</time></trkpt><trkpt lat="40.667039661780066" lon="15.037143823096118"><ele>198.0</ele><time>2026-04-19T08:40:45.894Z</time></trkpt><trkpt lat="40.66713083620404" lon="15.037184477271206"><ele>199.0</ele><time>2026-04-19T08:40:47.894Z</time></trkpt><trkpt lat="40.66721651603904" lon="15.037232610636728"><ele>200.0</ele><time>2026-04-19T08:40:49.894Z</time></trkpt><trkpt lat="40.66729683673001" lon="15.03735505710864"><ele>201.0</ele><time>2026-04-19T08:40:51.894Z</time></trkpt><trkpt lat="40.66734757141457" lon="15.03743846930175"><ele>202.0</ele><time>2026-04-19T08:40:52.894Z</time></trkpt><trkpt lat="40.667389093553446" lon="15.037510937819105"><ele>203.0</ele><time>2026-04-19T08:40:53.894Z</time></trkpt><trkpt lat="40.66742185269134" lon="15.037620078407272"><ele>203.50000000000003</ele><time>2026-04-19T08:40:55.894Z</time></trkpt><trkpt lat="40.66752384264918" lon="15.03763192253525"><ele>204.0</ele><time>2026-04-19T08:40:57.894Z</time></trkpt><trkpt lat="40.667606421588324" lon="15.037611900566828"><ele>204.5</ele><time>2026-04-19T08:40:58.894Z</time></trkpt><trkpt lat="40.667689612030934" lon="15.037589951422417"><ele>205.0</ele><time>2026-04-19T08:40:59.894Z</time></trkpt><trkpt lat="40.667783187915255" lon="15.037575832641734"><ele>205.50000000000003</ele><time>2026-04-19T08:41:01.894Z</time></trkpt><trkpt lat="40.667861572303515" lon="15.037612572429865"><ele>206.0</ele><time>2026-04-19T08:41:03.894Z</time></trkpt><trkpt lat="40.66796698717351" lon="15.037616064292864"><ele>206.00000000000003</ele><time>2026-04-19T08:41:05.894Z</time></trkpt><trkpt lat="40.66804017952636" lon="15.037591016785438"><ele>206.0</ele><time>2026-04-19T08:41:06.894Z</time></trkpt><trkpt lat="40.668114019781164" lon="15.037598268948004"><ele>206.0</ele><time>2026-04-19T08:41:07.894Z</time></trkpt><trkpt lat="40.66819236852728" lon="15.037578973558176"><ele>206.0</ele><time>2026-04-19T08:41:08.894Z</time></trkpt><trkpt lat="40.66827904361157" lon="15.03759084107037"><ele>206.00000000000003</ele><time>2026-04-19T08:41:09.894Z</time></trkpt><trkpt lat="40.6683612591092" lon="15.037569450243788"><ele>206.0</ele><time>2026-04-19T08:41:10.894Z</time></trkpt><trkpt lat="40.66844073864122" lon="15.037643935013564"><ele>206.00000000000003</ele><time>2026-04-19T08:41:11.894Z</time></trkpt><trkpt lat="40.66849551281681" lon="15.037711893413158"><ele>206.0</ele><time>2026-04-19T08:41:12.894Z</time></trkpt><trkpt lat="40.668556595069454" lon="15.037771323478237"><ele>206.0</ele><time>2026-04-19T08:41:13.894Z</time></trkpt><trkpt lat="40.668651013893765" lon="15.037872411238927"><ele>206.0</ele><time>2026-04-19T08:41:15.894Z</time></trkpt><trkpt lat="40.668687804412116" lon="15.037958293069808"><ele>206.00000000000003</ele><time>2026-04-19T08:41:16.894Z</time></trkpt><trkpt lat="40.66871712585048" lon="15.038056440188004"><ele>206.0</ele><time>2026-04-19T08:41:17.894Z</time></trkpt><trkpt lat="40.66873623007928" lon="15.03818888727637"><ele>206.4</ele><time>2026-04-19T08:41:19.894Z</time></trkpt><trkpt lat="40.66876523461848" lon="15.038266297819781"><ele>206.8</ele><time>2026-04-19T08:41:24.894Z</time></trkpt><trkpt lat="40.66884619817019" lon="15.038204554349603"><ele>207.20000000000002</ele><time>2026-04-19T08:41:25.894Z</time></trkpt><trkpt lat="40.66896697704774" lon="15.038129433599021"><ele>207.60000000000002</ele><time>2026-04-19T08:41:27.894Z</time></trkpt><trkpt lat="40.669083695762" lon="15.038091186379889"><ele>208.0</ele><time>2026-04-19T08:41:29.894Z</time></trkpt><trkpt lat="40.66915465145422" lon="15.038117941663494"><ele>208.0</ele><time>2026-04-19T08:41:30.894Z</time></trkpt><trkpt lat="40.66922545636669" lon="15.038139129038933"><ele>208.0</ele><time>2026-04-19T08:41:31.894Z</time></trkpt><trkpt lat="40.669297447654486" lon="15.038185344130412"><ele>208.0</ele><time>2026-04-19T08:41:32.894Z</time></trkpt><trkpt lat="40.669371652173" lon="15.03818550438875"><ele>208.0</ele><time>2026-04-19T08:41:33.894Z</time></trkpt><trkpt lat="40.66944748824534" lon="15.038191558016612"><ele>208.0</ele><time>2026-04-19T08:41:34.894Z</time></trkpt><trkpt lat="40.669517975035276" lon="15.038178442218241"><ele>208.0</ele><time>2026-04-19T08:41:35.894Z</time></trkpt><trkpt lat="40.6695900463345" lon="15.038178044693083"><ele>208.0</ele><time>2026-04-19T08:41:36.894Z</time></trkpt><trkpt lat="40.669667080670315" lon="15.038154681269443"><ele>208.2</ele><time>2026-04-19T08:41:37.894Z</time></trkpt><trkpt lat="40.66976073414053" lon="15.038182785427825"><ele>208.4</ele><time>2026-04-19T08:41:38.894Z</time></trkpt><trkpt lat="40.66985579012225" lon="15.038250822999888"><ele>208.6</ele><time>2026-04-19T08:41:39.894Z</time></trkpt><trkpt lat="40.66994097733885" lon="15.038334922649126"><ele>208.79999999999998</ele><time>2026-04-19T08:41:40.894Z</time></trkpt><trkpt lat="40.670006084308106" lon="15.038393222647098"><ele>209.0</ele><time>2026-04-19T08:41:41.894Z</time></trkpt><trkpt lat="40.67003940313942" lon="15.038466979915121"><ele>213.6</ele><time>2026-04-19T08:41:42.894Z</time></trkpt><trkpt lat="40.67009259543551" lon="15.038563263053899"><ele>218.2</ele><time>2026-04-19T08:41:43.894Z</time></trkpt><trkpt lat="40.670139820878546" lon="15.03871065711279"><ele>222.79999999999998</ele><time>2026-04-19T08:41:45.894Z</time></trkpt><trkpt lat="40.670161938242664" lon="15.038847026388783"><ele>227.39999999999998</ele><time>2026-04-19T08:41:47.894Z</time></trkpt><trkpt lat="40.67020399533379" lon="15.038951748088488"><ele>232.0</ele><time>2026-04-19T08:41:49.894Z</time></trkpt><trkpt lat="40.67022990103582" lon="15.039056223082461"><ele>232.2</ele><time>2026-04-19T08:41:51.894Z</time></trkpt><trkpt lat="40.67026675687834" lon="15.039164711238506"><ele>232.39999999999998</ele><time>2026-04-19T08:41:53.894Z</time></trkpt><trkpt lat="40.670355422251646" lon="15.03918747147023"><ele>232.60000000000002</ele><time>2026-04-19T08:41:55.894Z</time></trkpt><trkpt lat="40.67045964495" lon="15.03915111225885"><ele>232.8</ele><time>2026-04-19T08:41:57.894Z</time></trkpt><trkpt lat="40.67055844776671" lon="15.039135172536483"><ele>233.0</ele><time>2026-04-19T08:41:59.894Z</time></trkpt><trkpt lat="40.67068582569207" lon="15.039169842957149"><ele>233.0</ele><time>2026-04-19T08:42:01.894Z</time></trkpt><trkpt lat="40.67080112307077" lon="15.039186519217273"><ele>233.0</ele><time>2026-04-19T08:42:03.894Z</time></trkpt><trkpt lat="40.67087438892759" lon="15.039160320428014"><ele>233.0</ele><time>2026-04-19T08:42:04.894Z</time></trkpt><trkpt lat="40.670976803580714" lon="15.039132166429091"><ele>233.0</ele><time>2026-04-19T08:42:05.894Z</time></trkpt><trkpt lat="40.67107110952719" lon="15.039085109937295"><ele>233.0</ele><time>2026-04-19T08:42:06.894Z</time></trkpt><trkpt lat="40.67114367773654" lon="15.039004500383614"><ele>228.8</ele><time>2026-04-19T08:42:07.894Z</time></trkpt><trkpt lat="40.67122554500516" lon="15.038950499609966"><ele>224.60000000000002</ele><time>2026-04-19T08:42:08.894Z</time></trkpt><trkpt lat="40.67131769400919" lon="15.03890061301838"><ele>220.39999999999998</ele><time>2026-04-19T08:42:09.894Z</time></trkpt><trkpt lat="40.671427204268" lon="15.038851280801506"><ele>216.2</ele><time>2026-04-19T08:42:10.894Z</time></trkpt><trkpt lat="40.671536936205" lon="15.038827149473347"><ele>212.0</ele><time>2026-04-19T08:42:11.894Z</time></trkpt><trkpt lat="40.67161131747786" lon="15.03880638173769"><ele>212.0</ele><time>2026-04-19T08:42:12.894Z</time></trkpt><trkpt lat="40.67169272162534" lon="15.038783532864361"><ele>212.0</ele><time>2026-04-19T08:42:13.894Z</time></trkpt><trkpt lat="40.67184019329662" lon="15.038880109599601"><ele>212.0</ele><time>2026-04-19T08:42:15.894Z</time></trkpt><trkpt lat="40.67194012070228" lon="15.0389393573021"><ele>212.0</ele><time>2026-04-19T08:42:16.894Z</time></trkpt><trkpt lat="40.67203424992621" lon="15.038997551483494"><ele>212.50000000000003</ele><time>2026-04-19T08:42:17.894Z</time></trkpt><trkpt lat="40.67212046296036" lon="15.039027779991445"><ele>213.0</ele><time>2026-04-19T08:42:18.894Z</time></trkpt><trkpt lat="40.672196582052415" lon="15.039061933061612"><ele>213.5</ele><time>2026-04-19T08:42:19.894Z</time></trkpt><trkpt lat="40.672264771795334" lon="15.039107348026581"><ele>214.0</ele><time>2026-04-19T08:42:20.894Z</time></trkpt><trkpt lat="40.67233790620148" lon="15.03916790515885"><ele>214.50000000000003</ele><time>2026-04-19T08:42:21.894Z</time></trkpt><trkpt lat="40.672392631614514" lon="15.039259163621571"><ele>215.0</ele><time>2026-04-19T08:42:22.894Z</time></trkpt><trkpt lat="40.6724376465709" lon="15.03933515153029"><ele>216.4</ele><time>2026-04-19T08:42:23.894Z</time></trkpt><trkpt lat="40.67256302802438" lon="15.039412105967202"><ele>217.8</ele><time>2026-04-19T08:42:25.894Z</time></trkpt><trkpt lat="40.67264555523387" lon="15.03942458550096"><ele>219.2</ele><time>2026-04-19T08:42:26.894Z</time></trkpt><trkpt lat="40.67271049122444" lon="15.039463076812025"><ele>220.6</ele><time>2026-04-19T08:42:27.894Z</time></trkpt><trkpt lat="40.672780809966106" lon="15.039519596047585"><ele>222.0</ele><time>2026-04-19T08:42:28.894Z</time></trkpt><trkpt lat="40.672847743167104" lon="15.039565860264844"><ele>222.0</ele><time>2026-04-19T08:42:29.894Z</time></trkpt><trkpt lat="40.67289590133943" lon="15.039620933625903"><ele>222.0</ele><time>2026-04-19T08:42:30.894Z</time></trkpt><trkpt lat="40.67293525423356" lon="15.039729574015414"><ele>222.0</ele><time>2026-04-19T08:42:31.894Z</time></trkpt><trkpt lat="40.672970617237326" lon="15.039820279544124"><ele>222.0</ele><time>2026-04-19T08:42:32.894Z</time></trkpt><trkpt lat="40.67300193439913" lon="15.039924061856695"><ele>222.0</ele><time>2026-04-19T08:42:33.894Z</time></trkpt><trkpt lat="40.67304945004651" lon="15.040010411479345"><ele>222.0</ele><time>2026-04-19T08:42:34.894Z</time></trkpt><trkpt lat="40.67316930069195" lon="15.040087943280012"><ele>223.33333333333334</ele><time>2026-04-19T08:42:36.894Z</time></trkpt><trkpt lat="40.67322272253129" lon="15.040169041677412"><ele>224.66666666666669</ele><time>2026-04-19T08:42:37.895Z</time></trkpt><trkpt lat="40.67326302539363" lon="15.0402743096898"><ele>226.0</ele><time>2026-04-19T08:42:38.895Z</time></trkpt><trkpt lat="40.6733071980759" lon="15.040377744837233"><ele>227.33333333333334</ele><time>2026-04-19T08:42:39.895Z</time></trkpt><trkpt lat="40.673363797184884" lon="15.040459555531"><ele>228.66666666666669</ele><time>2026-04-19T08:42:40.895Z</time></trkpt><trkpt lat="40.67340742369256" lon="15.040545731290585"><ele>230.0</ele><time>2026-04-19T08:42:41.895Z</time></trkpt><trkpt lat="40.67343463563932" lon="15.040649169996913"><ele>230.00000000000003</ele><time>2026-04-19T08:42:42.895Z</time></trkpt><trkpt lat="40.673487348581986" lon="15.040728928428294"><ele>230.0</ele><time>2026-04-19T08:42:43.895Z</time></trkpt><trkpt lat="40.673540351904386" lon="15.04081263961486"><ele>230.0</ele><time>2026-04-19T08:42:44.895Z</time></trkpt><trkpt lat="40.67360410096996" lon="15.040869321518867"><ele>230.0</ele><time>2026-04-19T08:42:45.895Z</time></trkpt><trkpt lat="40.673661414891185" lon="15.040915400899753"><ele>230.00000000000003</ele><time>2026-04-19T08:42:47.895Z</time></trkpt><trkpt lat="40.67371975709612" lon="15.040966418975524"><ele>230.0</ele><time>2026-04-19T08:43:20.895Z</time></trkpt><trkpt lat="40.67377699401626" lon="15.041045135679495"><ele>229.00000000000003</ele><time>2026-04-19T08:43:34.895Z</time></trkpt><trkpt lat="40.67382938740371" lon="15.041130029446004"><ele>228.0</ele><time>2026-04-19T08:43:37.895Z</time></trkpt><trkpt lat="40.673880070859624" lon="15.041182435246307"><ele>227.0</ele><time>2026-04-19T08:43:39.895Z</time></trkpt><trkpt lat="40.67395640142268" lon="15.041221566995473"><ele>226.0</ele><time>2026-04-19T08:43:42.895Z</time></trkpt><trkpt lat="40.67407612187595" lon="15.04121673256388"><ele>225.00000000000003</ele><time>2026-04-19T08:44:03.895Z</time></trkpt><trkpt lat="40.67413285825847" lon="15.041278144847965"><ele>224.0</ele><time>2026-04-19T08:44:05.895Z</time></trkpt><trkpt lat="40.6741845921872" lon="15.041332085330389"><ele>224.00000000000003</ele><time>2026-04-19T08:44:06.895Z</time></trkpt><trkpt lat="40.674267899712966" lon="15.041354525442397"><ele>224.0</ele><time>2026-04-19T08:44:08.894Z</time></trkpt><trkpt lat="40.67434380555213" lon="15.041327701157378"><ele>224.0</ele><time>2026-04-19T08:44:10.894Z</time></trkpt><trkpt lat="40.674448276196024" lon="15.04131401814414"><ele>224.0</ele><time>2026-04-19T08:44:14.894Z</time></trkpt><trkpt lat="40.67450783652484" lon="15.041415853440245"><ele>224.00000000000003</ele><time>2026-04-19T08:45:43.895Z</time></trkpt><trkpt lat="40.67454744180894" lon="15.041510367138224"><ele>224.0</ele><time>2026-04-19T08:47:16.896Z</time></trkpt><trkpt lat="40.67461502875463" lon="15.041541530685082"><ele>226.6</ele><time>2026-04-19T08:47:18.896Z</time></trkpt><trkpt lat="40.674694643301216" lon="15.04158046727388"><ele>229.2</ele><time>2026-04-19T08:47:21.896Z</time></trkpt><trkpt lat="40.67478859372766" lon="15.041638996960682"><ele>231.79999999999998</ele><time>2026-04-19T08:47:23.896Z</time></trkpt><trkpt lat="40.67486350220476" lon="15.041682429626372"><ele>234.39999999999998</ele><time>2026-04-19T08:47:25.896Z</time></trkpt><trkpt lat="40.67494251228397" lon="15.041740197597873"><ele>237.0</ele><time>2026-04-19T08:47:27.896Z</time></trkpt><trkpt lat="40.67501666413634" lon="15.041819401272297"><ele>237.39999999999998</ele><time>2026-04-19T08:47:29.896Z</time></trkpt><trkpt lat="40.675116778091706" lon="15.041871521907506"><ele>237.79999999999998</ele><time>2026-04-19T08:47:31.896Z</time></trkpt><trkpt lat="40.675207263917564" lon="15.041944404714307"><ele>238.2</ele><time>2026-04-19T08:47:33.896Z</time></trkpt><trkpt lat="40.67526870834364" lon="15.042031736431749"><ele>238.6</ele><time>2026-04-19T08:47:35.896Z</time></trkpt><trkpt lat="40.67534408510951" lon="15.04210430614859"><ele>239.0</ele><time>2026-04-19T08:47:37.896Z</time></trkpt><trkpt lat="40.6754339770337" lon="15.042164053879802"><ele>238.2</ele><time>2026-04-19T08:47:39.896Z</time></trkpt><trkpt lat="40.67549664606707" lon="15.042278014348843"><ele>237.39999999999998</ele><time>2026-04-19T08:47:41.896Z</time></trkpt><trkpt lat="40.67555234801413" lon="15.042335236379754"><ele>236.6</ele><time>2026-04-19T08:47:42.896Z</time></trkpt><trkpt lat="40.675598350252166" lon="15.042441009700678"><ele>235.8</ele><time>2026-04-19T08:47:43.896Z</time></trkpt><trkpt lat="40.6756605613597" lon="15.042487221162725"><ele>235.0</ele><time>2026-04-19T08:47:44.896Z</time></trkpt><trkpt lat="40.675753540822825" lon="15.042593859726457"><ele>237.66666666666666</ele><time>2026-04-19T08:47:46.896Z</time></trkpt><trkpt lat="40.67581093053758" lon="15.042633973728218"><ele>240.33333333333331</ele><time>2026-04-19T08:47:47.896Z</time></trkpt><trkpt lat="40.67586311044044" lon="15.042734372243961"><ele>243.0</ele><time>2026-04-19T08:47:49.896Z</time></trkpt><trkpt lat="40.67593797064322" lon="15.042810828586374"><ele>245.66666666666669</ele><time>2026-04-19T08:47:51.896Z</time></trkpt><trkpt lat="40.675995515584255" lon="15.04289747367002"><ele>248.33333333333334</ele><time>2026-04-19T08:47:53.896Z</time></trkpt><trkpt lat="40.67605282934089" lon="15.043007595236427"><ele>251.0</ele><time>2026-04-19T08:47:55.896Z</time></trkpt><trkpt lat="40.67609158618859" lon="15.04309158205891"><ele>251.0</ele><time>2026-04-19T08:47:56.896Z</time></trkpt><trkpt lat="40.67613920661518" lon="15.043212937238035"><ele>251.00000000000003</ele><time>2026-04-19T08:47:57.896Z</time></trkpt><trkpt lat="40.67616887288791" lon="15.043311925134724"><ele>251.00000000000003</ele><time>2026-04-19T08:47:58.896Z</time></trkpt><trkpt lat="40.676239019752515" lon="15.043407215219304"><ele>251.0</ele><time>2026-04-19T08:48:00.896Z</time></trkpt><trkpt lat="40.676334713174526" lon="15.043465467973109"><ele>251.0</ele><time>2026-04-19T08:48:03.896Z</time></trkpt><trkpt lat="40.676469091111024" lon="15.0434644482948"><ele>251.83333333333334</ele><time>2026-04-19T08:48:05.896Z</time></trkpt><trkpt lat="40.67654129073553" lon="15.043513422942603"><ele>252.66666666666669</ele><time>2026-04-19T08:48:07.896Z</time></trkpt><trkpt lat="40.67661310230452" lon="15.043593733980957"><ele>253.5</ele><time>2026-04-19T08:48:09.896Z</time></trkpt><trkpt lat="40.676673990549205" lon="15.043652497788251"><ele>254.33333333333331</ele><time>2026-04-19T08:48:11.896Z</time></trkpt><trkpt lat="40.676767338018905" lon="15.043668440556294"><ele>255.16666666666666</ele><time>2026-04-19T08:48:15.897Z</time></trkpt><trkpt lat="40.676839304560644" lon="15.043687285418878"><ele>256.0</ele><time>2026-04-19T08:48:17.897Z</time></trkpt><trkpt lat="40.676915490349664" lon="15.04370044676634"><ele>255.75</ele><time>2026-04-19T08:48:19.897Z</time></trkpt><trkpt lat="40.67703652982472" lon="15.043709169891805"><ele>255.5</ele><time>2026-04-19T08:48:22.897Z</time></trkpt><trkpt lat="40.677168914694285" lon="15.043710841091773"><ele>255.25</ele><time>2026-04-19T08:48:25.896Z</time></trkpt><trkpt lat="40.677351814012624" lon="15.043689157833079"><ele>255.0</ele><time>2026-04-19T08:48:29.897Z</time></trkpt><trkpt lat="40.67741897869498" lon="15.04369945455784"><ele>255.0</ele><time>2026-04-19T08:48:31.897Z</time></trkpt><trkpt lat="40.67752317181402" lon="15.043724048384075"><ele>255.0</ele><time>2026-04-19T08:48:33.897Z</time></trkpt><trkpt lat="40.67769028258796" lon="15.043708119667809"><ele>255.0</ele><time>2026-04-19T08:48:36.897Z</time></trkpt><trkpt lat="40.67785507880474" lon="15.043747790054773"><ele>255.0</ele><time>2026-04-19T08:49:09.897Z</time></trkpt><trkpt lat="40.677943979821144" lon="15.0437292023851"><ele>257.4</ele><time>2026-04-19T08:50:10.898Z</time></trkpt><trkpt lat="40.678041930915015" lon="15.04372028275732"><ele>259.8</ele><time>2026-04-19T08:55:53.902Z</time></trkpt><trkpt lat="40.677940592605864" lon="15.043771456832667"><ele>262.2</ele><time>2026-04-19T08:58:24.903Z</time></trkpt><trkpt lat="40.67800773938383" lon="15.043699355566298"><ele>264.6</ele><time>2026-04-19T08:59:28.904Z</time></trkpt><trkpt lat="40.67809461353283" lon="15.043609579075113"><ele>267.0</ele><time>2026-04-19T08:59:30.904Z</time></trkpt><trkpt lat="40.67814555526608" lon="15.043531431433749"><ele>267.0</ele><time>2026-04-19T08:59:31.904Z</time></trkpt><trkpt lat="40.67820465014448" lon="15.04348242432798"><ele>267.0</ele><time>2026-04-19T08:59:32.904Z</time></trkpt><trkpt lat="40.67826490542806" lon="15.043453081191892"><ele>267.0</ele><time>2026-04-19T08:59:33.904Z</time></trkpt><trkpt lat="40.67834206517883" lon="15.043482957931191"><ele>267.0</ele><time>2026-04-19T08:59:35.904Z</time></trkpt><trkpt lat="40.67838554703239" lon="15.043612745671707"><ele>267.0</ele><time>2026-04-19T08:59:37.904Z</time></trkpt><trkpt lat="40.67841200056087" lon="15.043689066931353"><ele>267.0</ele><time>2026-04-19T08:59:38.904Z</time></trkpt><trkpt lat="40.67846677692233" lon="15.043778724344417"><ele>267.00000000000006</ele><time>2026-04-19T08:59:40.904Z</time></trkpt><trkpt lat="40.678518550736115" lon="15.04386012560591"><ele>267.0</ele><time>2026-04-19T08:59:42.904Z</time></trkpt><trkpt lat="40.67857118107302" lon="15.043922506602858"><ele>267.0</ele><time>2026-04-19T08:59:45.904Z</time></trkpt><trkpt lat="40.678575566346595" lon="15.044005980038579"><ele>267.0</ele><time>2026-04-19T09:00:05.904Z</time></trkpt><trkpt lat="40.67858611170571" lon="15.044093971073117"><ele>267.0</ele><time>2026-04-19T09:01:36.905Z</time></trkpt><trkpt lat="40.67852691062566" lon="15.044178181296505"><ele>267.00000000000006</ele><time>2026-04-19T09:03:00.906Z</time></trkpt><trkpt lat="40.67858290233453" lon="15.044116179083309"><ele>267.0</ele><time>2026-04-19T09:03:01.906Z</time></trkpt><trkpt lat="40.678641482858644" lon="15.044157233617952"><ele>267.0</ele><time>2026-04-19T09:03:12.905Z</time></trkpt><trkpt lat="40.67863691742714" lon="15.044055192858263"><ele>267.0</ele><time>2026-04-19T09:04:06.906Z</time></trkpt><trkpt lat="40.67859606155646" lon="15.043979874458996"><ele>267.0</ele><time>2026-04-19T09:04:22.906Z</time></trkpt><trkpt lat="40.67878870317814" lon="15.043963029237716"><ele>267.0</ele><time>2026-04-19T09:15:13.913Z</time></trkpt><trkpt lat="40.678925462287296" lon="15.043854699158567"><ele>271.5</ele><time>2026-04-19T09:15:16.913Z</time></trkpt><trkpt lat="40.67923201927918" lon="15.043874749584168"><ele>276.0</ele><time>2026-04-19T09:15:29.913Z</time></trkpt><trkpt lat="40.67930469123813" lon="15.043687720794631"><ele>276.0</ele><time>2026-04-19T09:15:38.913Z</time></trkpt><trkpt lat="40.679240793569114" lon="15.043695216100973"><ele>276.0</ele><time>2026-04-19T09:15:39.913Z</time></trkpt><trkpt lat="40.679128816137656" lon="15.043704516078089"><ele>276.0</ele><time>2026-04-19T09:15:41.913Z</time></trkpt><trkpt lat="40.67903418140788" lon="15.04368072153607"><ele>276.0</ele><time>2026-04-19T09:15:43.913Z</time></trkpt><trkpt lat="40.67895183285502" lon="15.043677171338587"><ele>276.0</ele><time>2026-04-19T09:15:45.913Z</time></trkpt><trkpt lat="40.67893820256306" lon="15.043586983318221"><ele>276.0</ele><time>2026-04-19T09:15:48.913Z</time></trkpt><trkpt lat="40.678997756312896" lon="15.043549850714848"><ele>276.0</ele><time>2026-04-19T09:15:57.913Z</time></trkpt><trkpt lat="40.679064542856345" lon="15.043518466807894"><ele>276.0</ele><time>2026-04-19T09:16:00.913Z</time></trkpt><trkpt lat="40.67908675591708" lon="15.043436708194335"><ele>276.0</ele><time>2026-04-19T09:16:02.913Z</time></trkpt><trkpt lat="40.67913788721259" lon="15.043337391938842"><ele>276.0</ele><time>2026-04-19T09:16:05.912Z</time></trkpt><trkpt lat="40.67921083285299" lon="15.04329666679414"><ele>276.0</ele><time>2026-04-19T09:16:06.912Z</time></trkpt><trkpt lat="40.679277273494385" lon="15.043292461044874"><ele>276.0</ele><time>2026-04-19T09:16:07.912Z</time></trkpt><trkpt lat="40.679378613356306" lon="15.043312273174203"><ele>277.75</ele><time>2026-04-19T09:16:08.911Z</time></trkpt><trkpt lat="40.67945926527999" lon="15.043313481583985"><ele>279.5</ele><time>2026-04-19T09:16:09.911Z</time></trkpt><trkpt lat="40.679542200697895" lon="15.043306646764753"><ele>281.25</ele><time>2026-04-19T09:16:10.911Z</time></trkpt><trkpt lat="40.67979548980446" lon="15.04327841118213"><ele>283.0</ele><time>2026-04-19T09:16:14.048Z</time></trkpt><trkpt lat="40.679860770696884" lon="15.043237103897805"><ele>292.5</ele><time>2026-04-19T09:16:16.049Z</time></trkpt><trkpt lat="40.679956147232055" lon="15.043220611205978"><ele>302.0</ele><time>2026-04-19T09:16:17.047Z</time></trkpt><trkpt lat="40.68005401686076" lon="15.04318121274084"><ele>311.5</ele><time>2026-04-19T09:16:18.047Z</time></trkpt><trkpt lat="40.680243603951844" lon="15.04315588314743"><ele>321.0</ele><time>2026-04-19T09:16:20.049Z</time></trkpt><trkpt lat="40.68034039821294" lon="15.04314931485128"><ele>321.0</ele><time>2026-04-19T09:16:21.051Z</time></trkpt><trkpt lat="40.68044841112623" lon="15.043137616325332"><ele>321.0</ele><time>2026-04-19T09:16:22.052Z</time></trkpt><trkpt lat="40.68065975372051" lon="15.043117857721974"><ele>321.0</ele><time>2026-04-19T09:16:25.048Z</time></trkpt><trkpt lat="40.68077817612794" lon="15.043033179308663"><ele>317.0</ele><time>2026-04-19T09:16:26.048Z</time></trkpt><trkpt lat="40.68114250218944" lon="15.042803000886854"><ele>313.0</ele><time>2026-04-19T09:16:28.048Z</time></trkpt><trkpt lat="40.68121883032901" lon="15.042775204109224"><ele>313.0</ele><time>2026-04-19T09:16:29.047Z</time></trkpt><trkpt lat="40.68130220357756" lon="15.042761610947178"><ele>313.0</ele><time>2026-04-19T09:16:30.046Z</time></trkpt><trkpt lat="40.68138793118798" lon="15.042747600242262"><ele>313.0</ele><time>2026-04-19T09:16:31.047Z</time></trkpt><trkpt lat="40.68145022114606" lon="15.042712567873018"><ele>313.0</ele><time>2026-04-19T09:16:32.048Z</time></trkpt><trkpt lat="40.68157139128276" lon="15.042699833137991"><ele>313.0</ele><time>2026-04-19T09:16:34.048Z</time></trkpt><trkpt lat="40.681636992605185" lon="15.04263388036086"><ele>313.0</ele><time>2026-04-19T09:16:41.909Z</time></trkpt><trkpt lat="40.68172275737089" lon="15.04262224371405"><ele>313.0</ele><time>2026-04-19T09:16:57.909Z</time></trkpt><trkpt lat="40.681736116988674" lon="15.042528993547055"><ele>313.0</ele><time>2026-04-19T09:16:58.909Z</time></trkpt><trkpt lat="40.68169695821517" lon="15.04244592641591"><ele>313.0</ele><time>2026-04-19T09:16:59.909Z</time></trkpt><trkpt lat="40.68161745191739" lon="15.042400228172752"><ele>313.0</ele><time>2026-04-19T09:17:01.909Z</time></trkpt><trkpt lat="40.68155025869584" lon="15.042366113073793"><ele>313.0</ele><time>2026-04-19T09:17:02.909Z</time></trkpt><trkpt lat="40.68147948936716" lon="15.042314278686481"><ele>313.0</ele><time>2026-04-19T09:17:03.909Z</time></trkpt><trkpt lat="40.68139993358181" lon="15.04229319389487"><ele>313.0</ele><time>2026-04-19T09:17:04.909Z</time></trkpt><trkpt lat="40.68131789208966" lon="15.042278482541533"><ele>313.0</ele><time>2026-04-19T09:17:05.909Z</time></trkpt><trkpt lat="40.681201789822104" lon="15.042504320289341"><ele>313.0</ele><time>2026-04-19T09:17:06.909Z</time></trkpt><trkpt lat="40.68111003396477" lon="15.042503537384409"><ele>313.0</ele><time>2026-04-19T09:17:07.909Z</time></trkpt><trkpt lat="40.68099796076976" lon="15.042509110720928"><ele>314.6</ele><time>2026-04-19T09:17:08.909Z</time></trkpt><trkpt lat="40.680882310694344" lon="15.042513573056624"><ele>316.20000000000005</ele><time>2026-04-19T09:17:09.909Z</time></trkpt><trkpt lat="40.68079117987322" lon="15.042489338797193"><ele>317.8</ele><time>2026-04-19T09:17:10.909Z</time></trkpt><trkpt lat="40.6806703699523" lon="15.042467887391018"><ele>319.40000000000003</ele><time>2026-04-19T09:17:11.909Z</time></trkpt><trkpt lat="40.6805633687085" lon="15.04248047019856"><ele>321.0</ele><time>2026-04-19T09:17:12.909Z</time></trkpt><trkpt lat="40.6804695845134" lon="15.042469116498175"><ele>321.0</ele><time>2026-04-19T09:17:13.909Z</time></trkpt><trkpt lat="40.68036086299452" lon="15.042502638393891"><ele>321.0</ele><time>2026-04-19T09:17:14.909Z</time></trkpt><trkpt lat="40.68026840261876" lon="15.0424995095523"><ele>321.0</ele><time>2026-04-19T09:17:15.909Z</time></trkpt><trkpt lat="40.68018252969131" lon="15.042461348800625"><ele>321.0</ele><time>2026-04-19T09:17:16.909Z</time></trkpt><trkpt lat="40.68008921830508" lon="15.042445396015697"><ele>321.0</ele><time>2026-04-19T09:17:17.909Z</time></trkpt><trkpt lat="40.67999707215846" lon="15.042475631408495"><ele>321.8333333333333</ele><time>2026-04-19T09:17:18.909Z</time></trkpt><trkpt lat="40.67991794627231" lon="15.04248720175816"><ele>322.6666666666667</ele><time>2026-04-19T09:17:19.909Z</time></trkpt><trkpt lat="40.67986207321858" lon="15.042407879568183"><ele>323.5</ele><time>2026-04-19T09:17:20.909Z</time></trkpt><trkpt lat="40.679788050632745" lon="15.042391792679616"><ele>324.33333333333337</ele><time>2026-04-19T09:17:21.91Z</time></trkpt><trkpt lat="40.6797257895527" lon="15.042372616114315"><ele>325.1666666666667</ele><time>2026-04-19T09:17:22.91Z</time></trkpt><trkpt lat="40.679641962972745" lon="15.042475721317762"><ele>326.0</ele><time>2026-04-19T09:17:23.91Z</time></trkpt><trkpt lat="40.67953343966114" lon="15.042418231483365"><ele>332.6666666666667</ele><time>2026-04-19T09:17:25.91Z</time></trkpt><trkpt lat="40.67948920279681" lon="15.042343661401269"><ele>339.33333333333337</ele><time>2026-04-19T09:17:26.91Z</time></trkpt><trkpt lat="40.679396434492084" lon="15.042249513198671"><ele>346.0</ele><time>2026-04-19T09:17:28.91Z</time></trkpt><trkpt lat="40.67931961436481" lon="15.042253352741442"><ele>352.6666666666667</ele><time>2026-04-19T09:17:29.91Z</time></trkpt><trkpt lat="40.67926083323191" lon="15.042200816760126"><ele>359.3333333333333</ele><time>2026-04-19T09:17:30.91Z</time></trkpt><trkpt lat="40.679182101447545" lon="15.042166085132097"><ele>366.0</ele><time>2026-04-19T09:17:31.91Z</time></trkpt><trkpt lat="40.679105350910135" lon="15.04215128835745"><ele>366.0</ele><time>2026-04-19T09:17:32.91Z</time></trkpt><trkpt lat="40.67903124444125" lon="15.042196117229977"><ele>366.0</ele><time>2026-04-19T09:17:33.91Z</time></trkpt><trkpt lat="40.67891571372477" lon="15.04221868300034"><ele>366.0</ele><time>2026-04-19T09:17:35.909Z</time></trkpt><trkpt lat="40.67880399424559" lon="15.042255521107878"><ele>366.0</ele><time>2026-04-19T09:17:37.909Z</time></trkpt><trkpt lat="40.67870965880531" lon="15.042222817151108"><ele>366.0</ele><time>2026-04-19T09:17:39.909Z</time></trkpt><trkpt lat="40.67868921639357" lon="15.042143313782764"><ele>366.0</ele><time>2026-04-19T09:17:40.909Z</time></trkpt><trkpt lat="40.678655681013076" lon="15.042036283909727"><ele>366.0</ele><time>2026-04-19T09:17:41.908Z</time></trkpt><trkpt lat="40.67860576492579" lon="15.041940449404459"><ele>366.0</ele><time>2026-04-19T09:17:42.908Z</time></trkpt><trkpt lat="40.67855411507732" lon="15.04188181904924"><ele>366.0</ele><time>2026-04-19T09:17:43.909Z</time></trkpt><trkpt lat="40.678500622698145" lon="15.041837845408093"><ele>366.0</ele><time>2026-04-19T09:17:44.909Z</time></trkpt><trkpt lat="40.678449931979806" lon="15.041754834274787"><ele>366.0</ele><time>2026-04-19T09:17:45.909Z</time></trkpt><trkpt lat="40.678394833931186" lon="15.041696146109864"><ele>363.6666666666667</ele><time>2026-04-19T09:17:46.909Z</time></trkpt><trkpt lat="40.67832084390518" lon="15.041633922073434"><ele>361.3333333333333</ele><time>2026-04-19T09:17:47.908Z</time></trkpt><trkpt lat="40.67825061219909" lon="15.04158143436003"><ele>359.0</ele><time>2026-04-19T09:17:48.909Z</time></trkpt><trkpt lat="40.678171156512576" lon="15.041545378809436"><ele>356.66666666666663</ele><time>2026-04-19T09:17:49.909Z</time></trkpt><trkpt lat="40.67808680176811" lon="15.041516192784975"><ele>354.3333333333333</ele><time>2026-04-19T09:17:50.909Z</time></trkpt><trkpt lat="40.678010772438775" lon="15.041499800839292"><ele>352.0</ele><time>2026-04-19T09:17:51.909Z</time></trkpt><trkpt lat="40.67792538037664" lon="15.041489023196183"><ele>353.40000000000003</ele><time>2026-04-19T09:17:52.909Z</time></trkpt><trkpt lat="40.67785236900823" lon="15.041454342201503"><ele>354.8</ele><time>2026-04-19T09:17:53.909Z</time></trkpt><trkpt lat="40.67776122081261" lon="15.041423896436248"><ele>356.2</ele><time>2026-04-19T09:17:54.909Z</time></trkpt><trkpt lat="40.677668546853745" lon="15.041391531776462"><ele>357.6</ele><time>2026-04-19T09:17:55.909Z</time></trkpt><trkpt lat="40.67759240485077" lon="15.041311139151754"><ele>359.0</ele><time>2026-04-19T09:17:56.909Z</time></trkpt><trkpt lat="40.67748869979293" lon="15.041275839832435"><ele>359.0</ele><time>2026-04-19T09:17:57.909Z</time></trkpt><trkpt lat="40.67739022245035" lon="15.041199167351943"><ele>359.0</ele><time>2026-04-19T09:17:58.909Z</time></trkpt><trkpt lat="40.67731983398061" lon="15.041117790750604"><ele>359.0</ele><time>2026-04-19T09:17:59.909Z</time></trkpt><trkpt lat="40.6772350467489" lon="15.041045563858097"><ele>359.0</ele><time>2026-04-19T09:18:01.909Z</time></trkpt><trkpt lat="40.67721021434731" lon="15.04095230756372"><ele>359.0</ele><time>2026-04-19T09:18:02.909Z</time></trkpt><trkpt lat="40.67716066453177" lon="15.04083822347004"><ele>356.79999999999995</ele><time>2026-04-19T09:18:03.909Z</time></trkpt><trkpt lat="40.67713084454841" lon="15.040724765169127"><ele>354.59999999999997</ele><time>2026-04-19T09:18:04.909Z</time></trkpt><trkpt lat="40.677079354520636" lon="15.040616487724838"><ele>352.4</ele><time>2026-04-19T09:18:05.909Z</time></trkpt><trkpt lat="40.67703668073679" lon="15.04050855988813"><ele>350.2</ele><time>2026-04-19T09:18:06.909Z</time></trkpt><trkpt lat="40.67699007068743" lon="15.040407837667715"><ele>348.0</ele><time>2026-04-19T09:18:07.909Z</time></trkpt><trkpt lat="40.67693077634021" lon="15.040253964554623"><ele>348.0</ele><time>2026-04-19T09:18:09.909Z</time></trkpt><trkpt lat="40.67690600978115" lon="15.040160188789391"><ele>348.0</ele><time>2026-04-19T09:18:10.909Z</time></trkpt><trkpt lat="40.6768665769952" lon="15.04008719915593"><ele>348.0</ele><time>2026-04-19T09:18:11.909Z</time></trkpt><trkpt lat="40.67680302133294" lon="15.040013716721624"><ele>348.0</ele><time>2026-04-19T09:18:12.909Z</time></trkpt><trkpt lat="40.6767425028587" lon="15.039945321122497"><ele>348.0</ele><time>2026-04-19T09:18:13.909Z</time></trkpt><trkpt lat="40.67666852299447" lon="15.039886245128617"><ele>348.0</ele><time>2026-04-19T09:18:14.909Z</time></trkpt><trkpt lat="40.67660657743843" lon="15.039829758829828"><ele>351.6666666666667</ele><time>2026-04-19T09:18:15.909Z</time></trkpt><trkpt lat="40.67652367119379" lon="15.039770525433394"><ele>355.3333333333333</ele><time>2026-04-19T09:18:17.909Z</time></trkpt><trkpt lat="40.67645404995279" lon="15.03973352637089"><ele>359.0</ele><time>2026-04-19T09:18:19.909Z</time></trkpt><trkpt lat="40.676414872384804" lon="15.03962856595045"><ele>362.66666666666663</ele><time>2026-04-19T09:18:21.909Z</time></trkpt><trkpt lat="40.676415285687945" lon="15.039519044219926"><ele>366.3333333333333</ele><time>2026-04-19T09:18:23.909Z</time></trkpt><trkpt lat="40.6764281345974" lon="15.039382648625175"><ele>370.0</ele><time>2026-04-19T09:18:25.909Z</time></trkpt><trkpt lat="40.67643206911127" lon="15.03926031479506"><ele>369.99999999999994</ele><time>2026-04-19T09:18:27.909Z</time></trkpt><trkpt lat="40.676417086518185" lon="15.039161610329547"><ele>370.0</ele><time>2026-04-19T09:18:28.909Z</time></trkpt><trkpt lat="40.676404094053176" lon="15.039079686309465"><ele>370.0</ele><time>2026-04-19T09:18:29.909Z</time></trkpt><trkpt lat="40.67638242628199" lon="15.039000311573952"><ele>370.0</ele><time>2026-04-19T09:18:30.909Z</time></trkpt><trkpt lat="40.67635351600569" lon="15.038906375209002"><ele>370.0</ele><time>2026-04-19T09:18:31.909Z</time></trkpt><trkpt lat="40.67633662621598" lon="15.038814854383968"><ele>369.99999999999994</ele><time>2026-04-19T09:18:32.909Z</time></trkpt><trkpt lat="40.676331683369234" lon="15.038729697798722"><ele>370.0</ele><time>2026-04-19T09:18:33.909Z</time></trkpt><trkpt lat="40.67630190547207" lon="15.038558525251348"><ele>373.0</ele><time>2026-04-19T09:18:35.909Z</time></trkpt><trkpt lat="40.67628938047525" lon="15.038454450119671"><ele>376.0</ele><time>2026-04-19T09:18:36.909Z</time></trkpt><trkpt lat="40.67628048149431" lon="15.038364843117904"><ele>379.0</ele><time>2026-04-19T09:18:37.909Z</time></trkpt><trkpt lat="40.67627305162603" lon="15.038254041907008"><ele>382.0</ele><time>2026-04-19T09:18:38.909Z</time></trkpt><trkpt lat="40.67622795560345" lon="15.038105258468164"><ele>385.00000000000006</ele><time>2026-04-19T09:18:40.909Z</time></trkpt><trkpt lat="40.67619068840092" lon="15.038023555215993"><ele>388.0</ele><time>2026-04-19T09:18:41.909Z</time></trkpt><trkpt lat="40.676156389231004" lon="15.037953170556133"><ele>386.1666666666667</ele><time>2026-04-19T09:18:42.909Z</time></trkpt><trkpt lat="40.67607110567478" lon="15.03793468952306"><ele>384.33333333333337</ele><time>2026-04-19T09:18:43.909Z</time></trkpt><trkpt lat="40.67600505710937" lon="15.037923019285506"><ele>382.5</ele><time>2026-04-19T09:18:44.909Z</time></trkpt><trkpt lat="40.6759298463329" lon="15.037922691893561"><ele>380.6666666666667</ele><time>2026-04-19T09:18:45.909Z</time></trkpt><trkpt lat="40.67586377947364" lon="15.037916095965672"><ele>378.83333333333337</ele><time>2026-04-19T09:18:46.909Z</time></trkpt><trkpt lat="40.675794721144435" lon="15.037944209338816"><ele>377.0</ele><time>2026-04-19T09:18:47.909Z</time></trkpt><trkpt lat="40.67569111638158" lon="15.037921265050034"><ele>377.0</ele><time>2026-04-19T09:18:49.909Z</time></trkpt><trkpt lat="40.67560503443537" lon="15.037891401666169"><ele>377.0</ele><time>2026-04-19T09:18:51.909Z</time></trkpt><trkpt lat="40.67556386898229" lon="15.037806189369299"><ele>377.0</ele><time>2026-04-19T09:18:52.909Z</time></trkpt><trkpt lat="40.675509083852724" lon="15.03772166012648"><ele>377.0</ele><time>2026-04-19T09:18:53.909Z</time></trkpt><trkpt lat="40.67545324925108" lon="15.037639504013832"><ele>377.0</ele><time>2026-04-19T09:18:54.909Z</time></trkpt><trkpt lat="40.67541949145466" lon="15.037546103641136"><ele>377.0</ele><time>2026-04-19T09:18:55.909Z</time></trkpt><trkpt lat="40.675389960444285" lon="15.037462572239765"><ele>374.40000000000003</ele><time>2026-04-19T09:18:56.909Z</time></trkpt><trkpt lat="40.675359801002806" lon="15.03733787482379"><ele>371.8</ele><time>2026-04-19T09:18:57.909Z</time></trkpt><trkpt lat="40.675335492785976" lon="15.03721608809611"><ele>369.2</ele><time>2026-04-19T09:18:58.909Z</time></trkpt><trkpt lat="40.67529352873367" lon="15.037052494820669"><ele>366.6</ele><time>2026-04-19T09:19:00.909Z</time></trkpt><trkpt lat="40.6752392415438" lon="15.036990266243244"><ele>364.0</ele><time>2026-04-19T09:19:01.909Z</time></trkpt><trkpt lat="40.675160810974084" lon="15.036905221652484"><ele>364.0</ele><time>2026-04-19T09:19:02.909Z</time></trkpt><trkpt lat="40.67509981787622" lon="15.03684233025453"><ele>364.0</ele><time>2026-04-19T09:19:03.909Z</time></trkpt><trkpt lat="40.67502752193785" lon="15.03677891026664"><ele>364.0</ele><time>2026-04-19T09:19:04.909Z</time></trkpt><trkpt lat="40.67495777923482" lon="15.036738360622477"><ele>364.0</ele><time>2026-04-19T09:19:05.909Z</time></trkpt><trkpt lat="40.674868051088" lon="15.036647472354018"><ele>364.0</ele><time>2026-04-19T09:19:07.909Z</time></trkpt><trkpt lat="40.67483671991999" lon="15.036566995548089"><ele>364.0</ele><time>2026-04-19T09:19:08.909Z</time></trkpt><trkpt lat="40.67484196373904" lon="15.036409627654413"><ele>369.0</ele><time>2026-04-19T09:19:10.909Z</time></trkpt><trkpt lat="40.674848883573304" lon="15.036326485892351"><ele>374.0</ele><time>2026-04-19T09:19:11.909Z</time></trkpt><trkpt lat="40.67482732502388" lon="15.03622678568797"><ele>379.0</ele><time>2026-04-19T09:19:12.909Z</time></trkpt><trkpt lat="40.67480584935789" lon="15.036143537185866"><ele>384.0</ele><time>2026-04-19T09:19:13.909Z</time></trkpt><trkpt lat="40.67473551372817" lon="15.035995964091128"><ele>389.00000000000006</ele><time>2026-04-19T09:19:15.909Z</time></trkpt><trkpt lat="40.6746872327553" lon="15.0358730574954"><ele>394.0</ele><time>2026-04-19T09:19:16.909Z</time></trkpt><trkpt lat="40.674642720959234" lon="15.035768909730436"><ele>389.79999999999995</ele><time>2026-04-19T09:19:17.909Z</time></trkpt><trkpt lat="40.67461395953403" lon="15.035667026915165"><ele>385.59999999999997</ele><time>2026-04-19T09:19:18.909Z</time></trkpt><trkpt lat="40.67456288153355" lon="15.03558769090589"><ele>381.4</ele><time>2026-04-19T09:19:19.909Z</time></trkpt><trkpt lat="40.674431134861436" lon="15.03553085252843"><ele>377.2</ele><time>2026-04-19T09:19:21.909Z</time></trkpt><trkpt lat="40.674351467781094" lon="15.03549951568508"><ele>373.0</ele><time>2026-04-19T09:19:22.909Z</time></trkpt><trkpt lat="40.67426506251627" lon="15.035475834359707"><ele>373.0</ele><time>2026-04-19T09:19:24.909Z</time></trkpt><trkpt lat="40.67419882271371" lon="15.03542188922381"><ele>373.0</ele><time>2026-04-19T09:19:26.909Z</time></trkpt><trkpt lat="40.67420321792611" lon="15.035295760376005"><ele>373.0</ele><time>2026-04-19T09:19:28.909Z</time></trkpt><trkpt lat="40.674185499512134" lon="15.035170054889008"><ele>373.0</ele><time>2026-04-19T09:19:30.909Z</time></trkpt><trkpt lat="40.6741452540612" lon="15.03503898269074"><ele>373.0</ele><time>2026-04-19T09:19:32.909Z</time></trkpt><trkpt lat="40.67411118382023" lon="15.03495886256266"><ele>373.0</ele><time>2026-04-19T09:19:34.909Z</time></trkpt><trkpt lat="40.67407635174377" lon="15.034856056604182"><ele>374.8333333333333</ele><time>2026-04-19T09:19:36.909Z</time></trkpt><trkpt lat="40.67407503377422" lon="15.03476049700112"><ele>376.66666666666663</ele><time>2026-04-19T09:19:38.909Z</time></trkpt><trkpt lat="40.674095359678134" lon="15.03464507905772"><ele>378.5</ele><time>2026-04-19T09:19:40.909Z</time></trkpt><trkpt lat="40.67414888149835" lon="15.034532078642945"><ele>380.3333333333333</ele><time>2026-04-19T09:19:42.909Z</time></trkpt><trkpt lat="40.674191917193525" lon="15.034438343509063"><ele>382.1666666666667</ele><time>2026-04-19T09:19:44.909Z</time></trkpt><trkpt lat="40.67426519192392" lon="15.034349108371293"><ele>384.0</ele><time>2026-04-19T09:19:46.909Z</time></trkpt><trkpt lat="40.67432597207499" lon="15.034252042258863"><ele>384.0</ele><time>2026-04-19T09:19:48.909Z</time></trkpt><trkpt lat="40.67436331335186" lon="15.034183797986406"><ele>384.0</ele><time>2026-04-19T09:19:49.909Z</time></trkpt><trkpt lat="40.674400258386605" lon="15.034043488590516"><ele>384.0</ele><time>2026-04-19T09:19:51.909Z</time></trkpt><trkpt lat="40.674418647491805" lon="15.03395904469454"><ele>384.0</ele><time>2026-04-19T09:19:52.909Z</time></trkpt><trkpt lat="40.67436069849156" lon="15.033831621813473"><ele>384.0</ele><time>2026-04-19T09:19:54.909Z</time></trkpt><trkpt lat="40.67431384375433" lon="15.033755386676324"><ele>384.0</ele><time>2026-04-19T09:19:55.909Z</time></trkpt><trkpt lat="40.67425392032541" lon="15.03362953104973"><ele>386.79999999999995</ele><time>2026-04-19T09:19:57.909Z</time></trkpt><trkpt lat="40.67421385404095" lon="15.033564341141641"><ele>389.59999999999997</ele><time>2026-04-19T09:19:58.909Z</time></trkpt><trkpt lat="40.67417496205586" lon="15.033427304283254"><ele>392.4</ele><time>2026-04-19T09:20:00.909Z</time></trkpt><trkpt lat="40.67414492573891" lon="15.033255046754363"><ele>395.2</ele><time>2026-04-19T09:20:02.909Z</time></trkpt><trkpt lat="40.67415225979493" lon="15.033153271693326"><ele>398.0</ele><time>2026-04-19T09:20:03.909Z</time></trkpt><trkpt lat="40.67416277334534" lon="15.03305077676567"><ele>400.99999999999994</ele><time>2026-04-19T09:20:04.909Z</time></trkpt><trkpt lat="40.674163642798256" lon="15.032950202643722"><ele>404.0</ele><time>2026-04-19T09:20:05.909Z</time></trkpt><trkpt lat="40.67418761708659" lon="15.0328654107072"><ele>407.0</ele><time>2026-04-19T09:20:06.909Z</time></trkpt><trkpt lat="40.674211115055634" lon="15.032704916898117"><ele>410.0</ele><time>2026-04-19T09:20:08.909Z</time></trkpt><trkpt lat="40.674166094482615" lon="15.032609325133514"><ele>412.99999999999994</ele><time>2026-04-19T09:20:10.909Z</time></trkpt><trkpt lat="40.674095433344355" lon="15.032535541658476"><ele>416.0</ele><time>2026-04-19T09:20:12.909Z</time></trkpt><trkpt lat="40.674030828318564" lon="15.032552641937775"><ele>416.0</ele><time>2026-04-19T09:20:13.909Z</time></trkpt><trkpt lat="40.673946813928985" lon="15.032619576749331"><ele>416.0</ele><time>2026-04-19T09:20:15.909Z</time></trkpt><trkpt lat="40.67385535092378" lon="15.03262720074699"><ele>416.0</ele><time>2026-04-19T09:20:17.909Z</time></trkpt><trkpt lat="40.673754507316914" lon="15.032610692135092"><ele>416.0</ele><time>2026-04-19T09:20:19.909Z</time></trkpt><trkpt lat="40.67367452395187" lon="15.032567422448391"><ele>416.0</ele><time>2026-04-19T09:20:21.909Z</time></trkpt><trkpt lat="40.67356324081755" lon="15.032520273089537"><ele>424.75</ele><time>2026-04-19T09:20:23.909Z</time></trkpt><trkpt lat="40.67344609606985" lon="15.03244230626815"><ele>433.5</ele><time>2026-04-19T09:20:25.909Z</time></trkpt><trkpt lat="40.67334711861652" lon="15.032331293495151"><ele>442.25</ele><time>2026-04-19T09:20:27.909Z</time></trkpt><trkpt lat="40.67327623275942" lon="15.032254330931487"><ele>451.0</ele><time>2026-04-19T09:20:29.909Z</time></trkpt><trkpt lat="40.67323364766086" lon="15.032384619541954"><ele>443.8</ele><time>2026-04-19T09:20:41.909Z</time></trkpt><trkpt lat="40.67316133274981" lon="15.032497693786855"><ele>436.6</ele><time>2026-04-19T09:20:42.909Z</time></trkpt><trkpt lat="40.673113822675994" lon="15.032576872470873"><ele>429.4</ele><time>2026-04-19T09:20:43.909Z</time></trkpt><trkpt lat="40.67301464647111" lon="15.032637291321333"><ele>422.2</ele><time>2026-04-19T09:20:44.909Z</time></trkpt><trkpt lat="40.67291215109583" lon="15.032730680777718"><ele>415.0</ele><time>2026-04-19T09:20:45.909Z</time></trkpt><trkpt lat="40.6728284879685" lon="15.032764792528289"><ele>417.6666666666667</ele><time>2026-04-19T09:20:46.909Z</time></trkpt><trkpt lat="40.6727288143312" lon="15.032818735967279"><ele>420.33333333333337</ele><time>2026-04-19T09:20:47.909Z</time></trkpt><trkpt lat="40.67263560087624" lon="15.03284798163545"><ele>423.0</ele><time>2026-04-19T09:20:48.909Z</time></trkpt><trkpt lat="40.6725715420157" lon="15.032841430839063"><ele>425.66666666666663</ele><time>2026-04-19T09:20:49.909Z</time></trkpt><trkpt lat="40.672479057342244" lon="15.032771830207876"><ele>428.3333333333333</ele><time>2026-04-19T09:20:50.909Z</time></trkpt><trkpt lat="40.672413406884374" lon="15.03275150467674"><ele>431.0</ele><time>2026-04-19T09:20:51.909Z</time></trkpt><trkpt lat="40.67236306881003" lon="15.032690532559474"><ele>431.0</ele><time>2026-04-19T09:20:52.909Z</time></trkpt><trkpt lat="40.67228587623093" lon="15.032631861399064"><ele>431.0</ele><time>2026-04-19T09:20:53.909Z</time></trkpt><trkpt lat="40.67216404810988" lon="15.03260796111907"><ele>431.0</ele><time>2026-04-19T09:20:55.909Z</time></trkpt><trkpt lat="40.67210310403241" lon="15.032651225164232"><ele>431.0</ele><time>2026-04-19T09:20:56.909Z</time></trkpt><trkpt lat="40.67232643880221" lon="15.032515958666547"><ele>430.99999999999994</ele><time>2026-04-19T09:21:05.909Z</time></trkpt><trkpt lat="40.67239633980616" lon="15.03249755472607"><ele>431.0</ele><time>2026-04-19T09:21:06.91Z</time></trkpt><trkpt lat="40.67247403923899" lon="15.032492643830343"><ele>431.0</ele><time>2026-04-19T09:21:07.91Z</time></trkpt><trkpt lat="40.67259248386588" lon="15.032514434221936"><ele>431.0</ele><time>2026-04-19T09:21:09.91Z</time></trkpt><trkpt lat="40.67267763254578" lon="15.032464316419343"><ele>430.99999999999994</ele><time>2026-04-19T09:21:11.91Z</time></trkpt><trkpt lat="40.67275590624116" lon="15.032429352458344"><ele>431.0</ele><time>2026-04-19T09:21:13.91Z</time></trkpt><trkpt lat="40.672809400919675" lon="15.032341533843443"><ele>435.0</ele><time>2026-04-19T09:21:15.91Z</time></trkpt><trkpt lat="40.672849837589055" lon="15.032246512238052"><ele>439.0</ele><time>2026-04-19T09:21:17.91Z</time></trkpt><trkpt lat="40.67290354528597" lon="15.032098602437657"><ele>443.0</ele><time>2026-04-19T09:21:19.91Z</time></trkpt><trkpt lat="40.672936276661325" lon="15.031934971162647"><ele>447.0</ele><time>2026-04-19T09:21:21.91Z</time></trkpt><trkpt lat="40.67296533250196" lon="15.031852940029133"><ele>451.0</ele><time>2026-04-19T09:21:22.91Z</time></trkpt><trkpt lat="40.67300860814979" lon="15.03176382609783"><ele>451.0</ele><time>2026-04-19T09:21:23.91Z</time></trkpt><trkpt lat="40.673061696170706" lon="15.031716435876618"><ele>451.0</ele><time>2026-04-19T09:21:24.91Z</time></trkpt><trkpt lat="40.67313142859603" lon="15.031707581395759"><ele>451.0</ele><time>2026-04-19T09:21:25.91Z</time></trkpt><trkpt lat="40.673204269699504" lon="15.031707345426645"><ele>451.0</ele><time>2026-04-19T09:21:26.91Z</time></trkpt><trkpt lat="40.6733310043608" lon="15.031783674926434"><ele>451.0</ele><time>2026-04-19T09:21:27.91Z</time></trkpt><trkpt lat="40.67346212366908" lon="15.031835431266428"><ele>451.0</ele><time>2026-04-19T09:21:28.91Z</time></trkpt><trkpt lat="40.67358433221942" lon="15.031818664643101"><ele>451.0</ele><time>2026-04-19T09:21:29.91Z</time></trkpt><trkpt lat="40.67367999121155" lon="15.031792105103579"><ele>451.0</ele><time>2026-04-19T09:21:30.91Z</time></trkpt><trkpt lat="40.67376544501997" lon="15.031759463025805"><ele>451.0</ele><time>2026-04-19T09:21:31.91Z</time></trkpt><trkpt lat="40.67382823787708" lon="15.0317401154428"><ele>451.0</ele><time>2026-04-19T09:21:32.91Z</time></trkpt><trkpt lat="40.6739050949146" lon="15.03165925599039"><ele>453.1666666666667</ele><time>2026-04-19T09:21:33.91Z</time></trkpt><trkpt lat="40.67396353924" lon="15.03157567277706"><ele>455.33333333333337</ele><time>2026-04-19T09:21:34.91Z</time></trkpt><trkpt lat="40.674009855066814" lon="15.031499764450126"><ele>457.5</ele><time>2026-04-19T09:21:35.91Z</time></trkpt><trkpt lat="40.674018563499104" lon="15.03141451489113"><ele>459.66666666666663</ele><time>2026-04-19T09:21:36.91Z</time></trkpt><trkpt lat="40.67407124936023" lon="15.031319190862016"><ele>461.8333333333333</ele><time>2026-04-19T09:21:37.91Z</time></trkpt><trkpt lat="40.67413588523361" lon="15.031231629754155"><ele>464.0</ele><time>2026-04-19T09:21:38.91Z</time></trkpt><trkpt lat="40.67417731113037" lon="15.031140780002628"><ele>463.99999999999994</ele><time>2026-04-19T09:21:39.91Z</time></trkpt><trkpt lat="40.674240213509535" lon="15.031063830871396"><ele>464.0</ele><time>2026-04-19T09:21:40.91Z</time></trkpt><trkpt lat="40.67430370519621" lon="15.031001231013427"><ele>464.0</ele><time>2026-04-19T09:21:41.91Z</time></trkpt><trkpt lat="40.67435911493644" lon="15.030917260669035"><ele>464.0</ele><time>2026-04-19T09:21:42.91Z</time></trkpt><trkpt lat="40.674398053428725" lon="15.030840232364723"><ele>463.99999999999994</ele><time>2026-04-19T09:21:43.91Z</time></trkpt><trkpt lat="40.67444492377809" lon="15.03076760840707"><ele>464.0</ele><time>2026-04-19T09:21:44.91Z</time></trkpt><trkpt lat="40.67449104318334" lon="15.030679628558156"><ele>463.49999999999994</ele><time>2026-04-19T09:21:45.91Z</time></trkpt><trkpt lat="40.674505265960356" lon="15.030545149136339"><ele>463.0</ele><time>2026-04-19T09:21:46.909Z</time></trkpt><trkpt lat="40.67452578542601" lon="15.030426798885903"><ele>462.5</ele><time>2026-04-19T09:21:47.909Z</time></trkpt><trkpt lat="40.674549415760914" lon="15.030346265488383"><ele>462.0</ele><time>2026-04-19T09:21:48.909Z</time></trkpt><trkpt lat="40.6746066189788" lon="15.03027079209427"><ele>461.49999999999994</ele><time>2026-04-19T09:21:49.909Z</time></trkpt><trkpt lat="40.67465706982204" lon="15.03019388896847"><ele>461.0</ele><time>2026-04-19T09:21:50.909Z</time></trkpt><trkpt lat="40.67468773054495" lon="15.030098354213935"><ele>460.99999999999994</ele><time>2026-04-19T09:21:51.909Z</time></trkpt><trkpt lat="40.674690543046964" lon="15.029981370089585"><ele>461.0</ele><time>2026-04-19T09:21:52.908Z</time></trkpt><trkpt lat="40.67471403585388" lon="15.02985616253844"><ele>461.0</ele><time>2026-04-19T09:21:53.908Z</time></trkpt><trkpt lat="40.674737388451305" lon="15.029762573903536"><ele>461.0</ele><time>2026-04-19T09:21:54.908Z</time></trkpt><trkpt lat="40.674763915989296" lon="15.029672088995683"><ele>460.99999999999994</ele><time>2026-04-19T09:21:55.909Z</time></trkpt><trkpt lat="40.674800753241" lon="15.029577570834956"><ele>461.0</ele><time>2026-04-19T09:21:56.908Z</time></trkpt><trkpt lat="40.6748261947429" lon="15.029484584117263"><ele>463.4</ele><time>2026-04-19T09:21:57.908Z</time></trkpt><trkpt lat="40.67485221304731" lon="15.029360608890418"><ele>465.8</ele><time>2026-04-19T09:21:58.909Z</time></trkpt><trkpt lat="40.674863093665564" lon="15.029236017313627"><ele>468.19999999999993</ele><time>2026-04-19T09:21:59.908Z</time></trkpt><trkpt lat="40.67490081477602" lon="15.029125198971748"><ele>470.59999999999997</ele><time>2026-04-19T09:22:00.909Z</time></trkpt><trkpt lat="40.674994468327185" lon="15.029057646225983"><ele>473.0</ele><time>2026-04-19T09:22:01.909Z</time></trkpt><trkpt lat="40.674988915492975" lon="15.028923734683945"><ele>475.0</ele><time>2026-04-19T09:22:02.909Z</time></trkpt><trkpt lat="40.67504629797782" lon="15.028811237003875"><ele>476.99999999999994</ele><time>2026-04-19T09:22:03.909Z</time></trkpt><trkpt lat="40.67510531064042" lon="15.028725056648819"><ele>478.99999999999994</ele><time>2026-04-19T09:22:04.909Z</time></trkpt><trkpt lat="40.67519406287098" lon="15.028648357400971"><ele>481.0</ele><time>2026-04-19T09:22:06.909Z</time></trkpt><trkpt lat="40.67525414792855" lon="15.028602399039306"><ele>483.0</ele><time>2026-04-19T09:22:07.909Z</time></trkpt><trkpt lat="40.67533469930889" lon="15.028573257910985"><ele>483.0</ele><time>2026-04-19T09:22:09.909Z</time></trkpt><trkpt lat="40.6754045433176" lon="15.028522677947809"><ele>483.0</ele><time>2026-04-19T09:22:11.909Z</time></trkpt><trkpt lat="40.67544094405785" lon="15.028431877532515"><ele>483.0</ele><time>2026-04-19T09:22:15.909Z</time></trkpt><trkpt lat="40.67541081701706" lon="15.028320719816598"><ele>483.0</ele><time>2026-04-19T09:22:30.909Z</time></trkpt><trkpt lat="40.675318961469486" lon="15.0283258602545"><ele>483.0</ele><time>2026-04-19T09:22:33.909Z</time></trkpt><trkpt lat="40.67523423512462" lon="15.028395343126082"><ele>483.0</ele><time>2026-04-19T09:22:35.909Z</time></trkpt><trkpt lat="40.67514536774558" lon="15.028426184456425"><ele>483.0</ele><time>2026-04-19T09:22:37.909Z</time></trkpt><trkpt lat="40.67507078574817" lon="15.028427533098236"><ele>483.0</ele><time>2026-04-19T09:22:39.909Z</time></trkpt><trkpt lat="40.67503248624786" lon="15.028306792798597"><ele>483.0</ele><time>2026-04-19T09:22:42.909Z</time></trkpt><trkpt lat="40.67508399785677" lon="15.028205907923873"><ele>483.0</ele><time>2026-04-19T09:22:44.909Z</time></trkpt><trkpt lat="40.675122080270576" lon="15.028123102754252"><ele>483.0</ele><time>2026-04-19T09:22:46.909Z</time></trkpt><trkpt lat="40.675080708554766" lon="15.028037443678297"><ele>483.0</ele><time>2026-04-19T09:22:48.909Z</time></trkpt><trkpt lat="40.67495267683483" lon="15.028053900940119"><ele>481.42857142857144</ele><time>2026-04-19T09:22:50.909Z</time></trkpt><trkpt lat="40.67488138077654" lon="15.028069540213732"><ele>479.8571428571429</ele><time>2026-04-19T09:22:51.909Z</time></trkpt><trkpt lat="40.67480878145171" lon="15.028101461776336"><ele>478.2857142857143</ele><time>2026-04-19T09:22:52.909Z</time></trkpt><trkpt lat="40.67473962469272" lon="15.028119119855411"><ele>476.7142857142857</ele><time>2026-04-19T09:22:53.909Z</time></trkpt><trkpt lat="40.67466121332342" lon="15.028121471762178"><ele>475.14285714285717</ele><time>2026-04-19T09:22:54.909Z</time></trkpt><trkpt lat="40.67460078749233" lon="15.028096967507025"><ele>473.57142857142856</ele><time>2026-04-19T09:22:55.909Z</time></trkpt><trkpt lat="40.67452874140337" lon="15.028036212077117"><ele>472.0</ele><time>2026-04-19T09:22:56.909Z</time></trkpt><trkpt lat="40.674447345331835" lon="15.027957020663507"><ele>476.0</ele><time>2026-04-19T09:22:57.909Z</time></trkpt><trkpt lat="40.674365305801004" lon="15.027877832347409"><ele>480.00000000000006</ele><time>2026-04-19T09:22:58.909Z</time></trkpt><trkpt lat="40.674300527013685" lon="15.027805980129559"><ele>484.00000000000006</ele><time>2026-04-19T09:22:59.909Z</time></trkpt><trkpt lat="40.674243162508105" lon="15.027741400875339"><ele>488.0</ele><time>2026-04-19T09:23:00.909Z</time></trkpt><trkpt lat="40.67419005978979" lon="15.027680891358175"><ele>492.0</ele><time>2026-04-19T09:23:01.909Z</time></trkpt><trkpt lat="40.674062535792245" lon="15.027611914361435"><ele>492.0</ele><time>2026-04-19T09:23:03.909Z</time></trkpt><trkpt lat="40.6739893038187" lon="15.027586234137459"><ele>492.0</ele><time>2026-04-19T09:23:04.909Z</time></trkpt><trkpt lat="40.67391421962484" lon="15.027552282647251"><ele>492.0</ele><time>2026-04-19T09:23:05.909Z</time></trkpt><trkpt lat="40.673861973337885" lon="15.027479714598245"><ele>492.0</ele><time>2026-04-19T09:23:06.909Z</time></trkpt><trkpt lat="40.67381097703493" lon="15.027403639485732"><ele>492.0</ele><time>2026-04-19T09:23:07.909Z</time></trkpt><trkpt lat="40.67376218937832" lon="15.027309180959282"><ele>492.0</ele><time>2026-04-19T09:23:08.909Z</time></trkpt><trkpt lat="40.673734193006716" lon="15.027221879409868"><ele>492.40000000000003</ele><time>2026-04-19T09:23:09.909Z</time></trkpt><trkpt lat="40.673634974259784" lon="15.027182553417541"><ele>492.80000000000007</ele><time>2026-04-19T09:23:11.909Z</time></trkpt><trkpt lat="40.67355177278557" lon="15.027211912576536"><ele>493.2</ele><time>2026-04-19T09:23:12.909Z</time></trkpt><trkpt lat="40.6734656684163" lon="15.027237334865768"><ele>493.6</ele><time>2026-04-19T09:23:13.909Z</time></trkpt><trkpt lat="40.673359393611854" lon="15.027214435414496"><ele>494.0</ele><time>2026-04-19T09:23:15.909Z</time></trkpt><trkpt lat="40.67327545541895" lon="15.027154134479767"><ele>494.0</ele><time>2026-04-19T09:23:16.909Z</time></trkpt><trkpt lat="40.673190463531995" lon="15.027081462940796"><ele>494.0</ele><time>2026-04-19T09:23:17.909Z</time></trkpt><trkpt lat="40.67308773754204" lon="15.0269775078159"><ele>494.0</ele><time>2026-04-19T09:23:18.909Z</time></trkpt><trkpt lat="40.67299450124945" lon="15.026885410515435"><ele>494.0</ele><time>2026-04-19T09:23:19.909Z</time></trkpt><trkpt lat="40.67291128600491" lon="15.026790371743944"><ele>494.0</ele><time>2026-04-19T09:23:20.909Z</time></trkpt><trkpt lat="40.67284346553137" lon="15.026684525654018"><ele>494.0</ele><time>2026-04-19T09:23:21.909Z</time></trkpt><trkpt lat="40.67276829531594" lon="15.02659023918281"><ele>494.0</ele><time>2026-04-19T09:23:22.909Z</time></trkpt><trkpt lat="40.67270012596523" lon="15.026528121231564"><ele>494.0</ele><time>2026-04-19T09:23:23.909Z</time></trkpt><trkpt lat="40.67261253913698" lon="15.026430709310473"><ele>494.0</ele><time>2026-04-19T09:23:24.909Z</time></trkpt><trkpt lat="40.672543512802555" lon="15.026366245507921"><ele>495.0</ele><time>2026-04-19T09:23:25.909Z</time></trkpt><trkpt lat="40.672464734625514" lon="15.026334776056244"><ele>496.0</ele><time>2026-04-19T09:23:26.909Z</time></trkpt><trkpt lat="40.67239495397077" lon="15.02626883079221"><ele>497.0</ele><time>2026-04-19T09:23:27.909Z</time></trkpt><trkpt lat="40.67230517373453" lon="15.026229225229784"><ele>498.0</ele><time>2026-04-19T09:23:28.909Z</time></trkpt><trkpt lat="40.67220014328062" lon="15.026161932603177"><ele>499.0</ele><time>2026-04-19T09:23:30.909Z</time></trkpt><trkpt lat="40.672133761506" lon="15.026122778807947"><ele>499.0</ele><time>2026-04-19T09:23:31.909Z</time></trkpt><trkpt lat="40.672022874950216" lon="15.026083497385308"><ele>499.0</ele><time>2026-04-19T09:23:33.909Z</time></trkpt><trkpt lat="40.671910856291696" lon="15.02601273737861"><ele>499.0</ele><time>2026-04-19T09:23:35.909Z</time></trkpt><trkpt lat="40.67184138605624" lon="15.026007187962165"><ele>499.0</ele><time>2026-04-19T09:23:36.909Z</time></trkpt><trkpt lat="40.67174674570353" lon="15.026012289219368"><ele>499.0</ele><time>2026-04-19T09:23:37.909Z</time></trkpt><trkpt lat="40.671665684846516" lon="15.026008199024117"><ele>503.6666666666667</ele><time>2026-04-19T09:23:38.909Z</time></trkpt><trkpt lat="40.67157489800476" lon="15.025986479193223"><ele>508.33333333333337</ele><time>2026-04-19T09:23:39.909Z</time></trkpt><trkpt lat="40.671487165757206" lon="15.025974371082764"><ele>513.0</ele><time>2026-04-19T09:23:40.909Z</time></trkpt><trkpt lat="40.67140801228043" lon="15.025947127980707"><ele>517.6666666666666</ele><time>2026-04-19T09:23:41.909Z</time></trkpt><trkpt lat="40.67133693900143" lon="15.025906169228662"><ele>522.3333333333333</ele><time>2026-04-19T09:23:42.909Z</time></trkpt><trkpt lat="40.67126927958226" lon="15.025860881814918"><ele>527.0</ele><time>2026-04-19T09:23:43.91Z</time></trkpt><trkpt lat="40.671202141579535" lon="15.025812688179112"><ele>524.1666666666666</ele><time>2026-04-19T09:23:44.91Z</time></trkpt><trkpt lat="40.67113208095829" lon="15.02577504174593"><ele>521.3333333333333</ele><time>2026-04-19T09:23:45.91Z</time></trkpt><trkpt lat="40.67105896490716" lon="15.025746703857918"><ele>518.5</ele><time>2026-04-19T09:23:46.91Z</time></trkpt><trkpt lat="40.67098994289564" lon="15.025718562861805"><ele>515.6666666666666</ele><time>2026-04-19T09:23:47.91Z</time></trkpt><trkpt lat="40.67086965013878" lon="15.025705753290644"><ele>512.8333333333334</ele><time>2026-04-19T09:23:49.91Z</time></trkpt><trkpt lat="40.67079700717044" lon="15.025669072933939"><ele>510.0</ele><time>2026-04-19T09:23:50.91Z</time></trkpt><trkpt lat="40.670706493858006" lon="15.025629097883282"><ele>510.0</ele><time>2026-04-19T09:23:51.91Z</time></trkpt><trkpt lat="40.67062905262225" lon="15.025610229728178"><ele>510.0</ele><time>2026-04-19T09:23:52.909Z</time></trkpt><trkpt lat="40.67056065156692" lon="15.025614722959151"><ele>510.0</ele><time>2026-04-19T09:23:53.909Z</time></trkpt><trkpt lat="40.67049165714057" lon="15.025591308736097"><ele>510.0</ele><time>2026-04-19T09:23:54.909Z</time></trkpt><trkpt lat="40.67041333565459" lon="15.025549786995597"><ele>510.0</ele><time>2026-04-19T09:23:55.909Z</time></trkpt><trkpt lat="40.6703197728155" lon="15.025498491028749"><ele>510.0</ele><time>2026-04-19T09:23:56.909Z</time></trkpt><trkpt lat="40.670249057807474" lon="15.025454312495453"><ele>512.4</ele><time>2026-04-19T09:23:57.909Z</time></trkpt><trkpt lat="40.67015476741209" lon="15.025395127618756"><ele>514.8</ele><time>2026-04-19T09:23:58.908Z</time></trkpt><trkpt lat="40.6700647475741" lon="15.025387234146715"><ele>517.2</ele><time>2026-04-19T09:23:59.908Z</time></trkpt><trkpt lat="40.669966629862465" lon="15.025369209615866"><ele>519.6</ele><time>2026-04-19T09:24:00.908Z</time></trkpt><trkpt lat="40.66987652176537" lon="15.025380375996013"><ele>522.0</ele><time>2026-04-19T09:24:01.909Z</time></trkpt><trkpt lat="40.66976846546161" lon="15.02536841889267"><ele>522.0</ele><time>2026-04-19T09:24:02.909Z</time></trkpt><trkpt lat="40.66968700512015" lon="15.02539208921025"><ele>522.0</ele><time>2026-04-19T09:24:03.909Z</time></trkpt><trkpt lat="40.669596127305134" lon="15.025377593268482"><ele>522.0</ele><time>2026-04-19T09:24:04.909Z</time></trkpt><trkpt lat="40.66950649861682" lon="15.02537298601252"><ele>522.0</ele><time>2026-04-19T09:24:05.909Z</time></trkpt><trkpt lat="40.66940326404094" lon="15.025386899279773"><ele>522.0</ele><time>2026-04-19T09:24:06.909Z</time></trkpt><trkpt lat="40.669298432699094" lon="15.025375994971897"><ele>525.3333333333334</ele><time>2026-04-19T09:24:07.909Z</time></trkpt><trkpt lat="40.66921906760981" lon="15.025382576004938"><ele>528.6666666666666</ele><time>2026-04-19T09:24:08.909Z</time></trkpt><trkpt lat="40.66910959207763" lon="15.025331054480963"><ele>532.0</ele><time>2026-04-19T09:24:10.909Z</time></trkpt><trkpt lat="40.66905375513962" lon="15.02527067686331"><ele>535.3333333333333</ele><time>2026-04-19T09:24:11.909Z</time></trkpt><trkpt lat="40.66900491311214" lon="15.025205928650866"><ele>538.6666666666666</ele><time>2026-04-19T09:24:12.909Z</time></trkpt><trkpt lat="40.668927945848495" lon="15.025180676978808"><ele>542.0</ele><time>2026-04-19T09:24:13.909Z</time></trkpt><trkpt lat="40.66884309487982" lon="15.025144168814464"><ele>542.0</ele><time>2026-04-19T09:24:14.909Z</time></trkpt><trkpt lat="40.66873011141444" lon="15.02502614778143"><ele>542.0</ele><time>2026-04-19T09:24:16.909Z</time></trkpt><trkpt lat="40.668678446404016" lon="15.02497851809774"><ele>542.0</ele><time>2026-04-19T09:24:17.909Z</time></trkpt><trkpt lat="40.66864262566928" lon="15.024893631442607"><ele>542.0</ele><time>2026-04-19T09:24:18.909Z</time></trkpt><trkpt lat="40.66856533786373" lon="15.024846839823427"><ele>542.0</ele><time>2026-04-19T09:24:19.909Z</time></trkpt><trkpt lat="40.66847297036412" lon="15.024784385421718"><ele>542.6</ele><time>2026-04-19T09:24:20.909Z</time></trkpt><trkpt lat="40.668388256934826" lon="15.024735408132479"><ele>543.2</ele><time>2026-04-19T09:24:21.909Z</time></trkpt><trkpt lat="40.66832155645219" lon="15.024598351904707"><ele>543.8</ele><time>2026-04-19T09:24:23.909Z</time></trkpt><trkpt lat="40.668260063887054" lon="15.024502093380402"><ele>544.4</ele><time>2026-04-19T09:24:25.909Z</time></trkpt><trkpt lat="40.668190192056336" lon="15.024483270182825"><ele>545.0</ele><time>2026-04-19T09:24:26.909Z</time></trkpt><trkpt lat="40.66811594214211" lon="15.024455827761866"><ele>545.0</ele><time>2026-04-19T09:24:27.909Z</time></trkpt><trkpt lat="40.66802255555522" lon="15.024435282832606"><ele>545.0</ele><time>2026-04-19T09:24:28.909Z</time></trkpt><trkpt lat="40.667930545559095" lon="15.024431975912576"><ele>545.0</ele><time>2026-04-19T09:24:29.909Z</time></trkpt><trkpt lat="40.66783425108335" lon="15.024416903573039"><ele>545.0</ele><time>2026-04-19T09:24:30.909Z</time></trkpt><trkpt lat="40.66774955433252" lon="15.024420836009906"><ele>545.0</ele><time>2026-04-19T09:24:31.909Z</time></trkpt><trkpt lat="40.667678276383114" lon="15.024392718226965"><ele>545.0</ele><time>2026-04-19T09:24:32.909Z</time></trkpt><trkpt lat="40.66761101140554" lon="15.02435847307478"><ele>549.5</ele><time>2026-04-19T09:24:33.909Z</time></trkpt><trkpt lat="40.667530325257964" lon="15.024347718683261"><ele>554.0</ele><time>2026-04-19T09:24:34.909Z</time></trkpt><trkpt lat="40.66745473112692" lon="15.024338896344974"><ele>558.5</ele><time>2026-04-19T09:24:35.909Z</time></trkpt><trkpt lat="40.667380211576074" lon="15.024332329540139"><ele>563.0</ele><time>2026-04-19T09:24:36.909Z</time></trkpt><trkpt lat="40.66729581995381" lon="15.024332853780054"><ele>567.5</ele><time>2026-04-19T09:24:38.909Z</time></trkpt><trkpt lat="40.66723111661853" lon="15.02428077163642"><ele>572.0</ele><time>2026-04-19T09:24:41.909Z</time></trkpt><trkpt lat="40.66717311917801" lon="15.024339159930637"><ele>572.0</ele><time>2026-04-19T09:31:42.912Z</time></trkpt><trkpt lat="40.66716652088926" lon="15.024432454581099"><ele>572.0</ele><time>2026-04-19T09:31:44.912Z</time></trkpt><trkpt lat="40.66723663573875" lon="15.024573371688367"><ele>572.0</ele><time>2026-04-19T09:31:46.912Z</time></trkpt><trkpt lat="40.66733162052261" lon="15.024672754501742"><ele>572.0</ele><time>2026-04-19T09:31:48.912Z</time></trkpt><trkpt lat="40.667415586668476" lon="15.02477115211354"><ele>572.0</ele><time>2026-04-19T09:31:50.912Z</time></trkpt><trkpt lat="40.66743454863353" lon="15.024871426729048"><ele>572.0</ele><time>2026-04-19T09:31:53.912Z</time></trkpt><trkpt lat="40.66738195074341" lon="15.02497958267337"><ele>572.0</ele><time>2026-04-19T09:31:56.912Z</time></trkpt><trkpt lat="40.66731098006014" lon="15.024896255399053"><ele>572.0</ele><time>2026-04-19T09:31:59.912Z</time></trkpt><trkpt lat="40.66721457080131" lon="15.024815048212563"><ele>572.0</ele><time>2026-04-19T09:32:01.912Z</time></trkpt><trkpt lat="40.66715754046738" lon="15.024769741046315"><ele>572.0</ele><time>2026-04-19T09:32:02.912Z</time></trkpt><trkpt lat="40.66705502173591" lon="15.024637139675802"><ele>572.0</ele><time>2026-04-19T09:32:04.912Z</time></trkpt><trkpt lat="40.66696286541045" lon="15.024557722097"><ele>572.0</ele><time>2026-04-19T09:32:06.912Z</time></trkpt><trkpt lat="40.66686546308074" lon="15.024527532564512"><ele>572.0</ele><time>2026-04-19T09:32:08.912Z</time></trkpt><trkpt lat="40.66680410670832" lon="15.024505708954486"><ele>572.0</ele><time>2026-04-19T09:32:09.912Z</time></trkpt><trkpt lat="40.66671409100158" lon="15.024531727201342"><ele>572.0</ele><time>2026-04-19T09:32:11.912Z</time></trkpt><trkpt lat="40.66666334118238" lon="15.024639186489862"><ele>573.8571428571428</ele><time>2026-04-19T09:32:13.912Z</time></trkpt><trkpt lat="40.6665874498058" lon="15.024638732130219"><ele>575.7142857142857</ele><time>2026-04-19T09:32:19.912Z</time></trkpt><trkpt lat="40.666531971608336" lon="15.02457014726018"><ele>577.5714285714286</ele><time>2026-04-19T09:32:21.912Z</time></trkpt><trkpt lat="40.66645845988193" lon="15.02452561017328"><ele>579.4285714285713</ele><time>2026-04-19T09:32:23.911Z</time></trkpt><trkpt lat="40.66640600848315" lon="15.024457869457999"><ele>581.2857142857142</ele><time>2026-04-19T09:32:25.912Z</time></trkpt><trkpt lat="40.666345084495404" lon="15.024422022454418"><ele>583.1428571428571</ele><time>2026-04-19T09:32:29.902Z</time></trkpt><trkpt lat="40.66627829180145" lon="15.024421365887914"><ele>585.0</ele><time>2026-04-19T09:32:31.898Z</time></trkpt><trkpt lat="40.66619175810274" lon="15.02436759814497"><ele>585.0</ele><time>2026-04-19T09:32:34.891Z</time></trkpt><trkpt lat="40.66616135754318" lon="15.024278889433099"><ele>585.0</ele><time>2026-04-19T09:32:36.888Z</time></trkpt><trkpt lat="40.66612818929299" lon="15.024161717501032"><ele>585.0</ele><time>2026-04-19T09:32:38.885Z</time></trkpt><trkpt lat="40.66611042442278" lon="15.024081924377414"><ele>585.0</ele><time>2026-04-19T09:32:40.882Z</time></trkpt><trkpt lat="40.66604448230278" lon="15.024042693507573"><ele>585.0</ele><time>2026-04-19T09:32:44.877Z</time></trkpt><trkpt lat="40.666003893721395" lon="15.023941256233508"><ele>585.0</ele><time>2026-04-19T09:32:48.874Z</time></trkpt><trkpt lat="40.66598119635207" lon="15.02386011452272"><ele>582.5714285714286</ele><time>2026-04-19T09:32:51.872Z</time></trkpt><trkpt lat="40.66591592709875" lon="15.023839033896904"><ele>580.1428571428571</ele><time>2026-04-19T09:32:53.871Z</time></trkpt><trkpt lat="40.66591161397224" lon="15.023741350311385"><ele>577.7142857142857</ele><time>2026-04-19T09:32:57.869Z</time></trkpt><trkpt lat="40.66595461507095" lon="15.023812743729241"><ele>575.2857142857142</ele><time>2026-04-19T09:34:25.861Z</time></trkpt><trkpt lat="40.66591989561419" lon="15.023740729034339"><ele>572.8571428571428</ele><time>2026-04-19T09:34:58.862Z</time></trkpt><trkpt lat="40.66585265195177" lon="15.023643565705632"><ele>570.4285714285714</ele><time>2026-04-19T09:35:34.862Z</time></trkpt><trkpt lat="40.6658927408756" lon="15.023575452745451"><ele>568.0</ele><time>2026-04-19T09:35:41.862Z</time></trkpt><trkpt lat="40.66595567644939" lon="15.023551400398006"><ele>568.0</ele><time>2026-04-19T09:35:48.862Z</time></trkpt><trkpt lat="40.66589391070737" lon="15.023531736238086"><ele>568.0</ele><time>2026-04-19T09:36:13.862Z</time></trkpt><trkpt lat="40.66584228450498" lon="15.023481989027252"><ele>568.0</ele><time>2026-04-19T09:36:23.862Z</time></trkpt><trkpt lat="40.66577920252697" lon="15.023490494941747"><ele>568.0</ele><time>2026-04-19T09:36:32.861Z</time></trkpt><trkpt lat="40.66584250864745" lon="15.02349871768332"><ele>568.0</ele><time>2026-04-19T09:38:22.861Z</time></trkpt><trkpt lat="40.66583720163954" lon="15.023582949224425"><ele>568.0</ele><time>2026-04-19T09:38:51.859Z</time></trkpt><trkpt lat="40.66584315691551" lon="15.023688753097431"><ele>568.0</ele><time>2026-04-19T09:41:25.86Z</time></trkpt><trkpt lat="40.665883578008966" lon="15.02376492211743"><ele>568.0</ele><time>2026-04-19T09:41:33.86Z</time></trkpt><trkpt lat="40.66592897410308" lon="15.02383771494288"><ele>568.0</ele><time>2026-04-19T09:42:31.86Z</time></trkpt><trkpt lat="40.66597921015375" lon="15.023937634163259"><ele>568.0</ele><time>2026-04-19T09:42:37.86Z</time></trkpt><trkpt lat="40.666014259265054" lon="15.02401788798382"><ele>568.0</ele><time>2026-04-19T09:42:41.86Z</time></trkpt><trkpt lat="40.66603705422863" lon="15.024104750881625"><ele>568.0</ele><time>2026-04-19T09:42:46.859Z</time></trkpt><trkpt lat="40.666066269438616" lon="15.02422331752444"><ele>568.0</ele><time>2026-04-19T09:42:49.858Z</time></trkpt><trkpt lat="40.666126817673714" lon="15.024304522473646"><ele>570.8333333333334</ele><time>2026-04-19T09:42:52.858Z</time></trkpt><trkpt lat="40.666206555375" lon="15.024346213768906"><ele>573.6666666666667</ele><time>2026-04-19T09:42:55.858Z</time></trkpt><trkpt lat="40.66627755005477" lon="15.024361256290975"><ele>576.5</ele><time>2026-04-19T09:42:57.859Z</time></trkpt><trkpt lat="40.66635068900943" lon="15.024382576771712"><ele>579.3333333333334</ele><time>2026-04-19T09:43:00.858Z</time></trkpt><trkpt lat="40.666420894384046" lon="15.02445848614489"><ele>582.1666666666666</ele><time>2026-04-19T09:43:03.858Z</time></trkpt><trkpt lat="40.6664996163054" lon="15.024552201748469"><ele>585.0</ele><time>2026-04-19T09:43:05.858Z</time></trkpt><trkpt lat="40.6665513787103" lon="15.024611678062772"><ele>585.0</ele><time>2026-04-19T09:43:07.858Z</time></trkpt><trkpt lat="40.6665479451386" lon="15.024704486900058"><ele>585.0</ele><time>2026-04-19T09:43:11.858Z</time></trkpt><trkpt lat="40.66650742320063" lon="15.024768871816576"><ele>585.0</ele><time>2026-04-19T09:43:12.858Z</time></trkpt><trkpt lat="40.66646089927268" lon="15.024884669956881"><ele>585.0</ele><time>2026-04-19T09:43:14.858Z</time></trkpt><trkpt lat="40.66640348401455" lon="15.02496888498933"><ele>585.0</ele><time>2026-04-19T09:43:16.858Z</time></trkpt><trkpt lat="40.6663540848731" lon="15.02502451259381"><ele>585.0</ele><time>2026-04-19T09:43:18.858Z</time></trkpt><trkpt lat="40.666297875889846" lon="15.02509029400461"><ele>587.8333333333334</ele><time>2026-04-19T09:43:20.858Z</time></trkpt><trkpt lat="40.66623946456632" lon="15.025196437891841"><ele>590.6666666666666</ele><time>2026-04-19T09:43:23.858Z</time></trkpt><trkpt lat="40.66620800937408" lon="15.0253268841713"><ele>593.5</ele><time>2026-04-19T09:43:25.858Z</time></trkpt><trkpt lat="40.6662016592521" lon="15.02541522222936"><ele>596.3333333333333</ele><time>2026-04-19T09:43:28.858Z</time></trkpt><trkpt lat="40.666277738009335" lon="15.025423429930674"><ele>599.1666666666666</ele><time>2026-04-19T09:43:32.858Z</time></trkpt><trkpt lat="40.66631319910169" lon="15.025332937160567"><ele>602.0</ele><time>2026-04-19T09:43:36.858Z</time></trkpt><trkpt lat="40.666364418333835" lon="15.025282315271808"><ele>602.0</ele><time>2026-04-19T09:43:38.858Z</time></trkpt><trkpt lat="40.66641080054683" lon="15.025215249656249"><ele>602.0</ele><time>2026-04-19T09:43:40.858Z</time></trkpt><trkpt lat="40.66646759103007" lon="15.025168097530821"><ele>602.0</ele><time>2026-04-19T09:43:42.858Z</time></trkpt><trkpt lat="40.66652353801593" lon="15.025123077379197"><ele>602.0</ele><time>2026-04-19T09:43:44.858Z</time></trkpt><trkpt lat="40.66658067782921" lon="15.025063547979444"><ele>602.0</ele><time>2026-04-19T09:43:47.858Z</time></trkpt><trkpt lat="40.66660047150328" lon="15.024952768963308"><ele>602.0</ele><time>2026-04-19T09:43:50.858Z</time></trkpt><trkpt lat="40.66662710874639" lon="15.024868879564764"><ele>602.0</ele><time>2026-04-19T09:43:53.858Z</time></trkpt><trkpt lat="40.66663103286249" lon="15.024739496749003"><ele>599.1666666666666</ele><time>2026-04-19T09:43:56.858Z</time></trkpt><trkpt lat="40.666617320011454" lon="15.02463838482916"><ele>596.3333333333333</ele><time>2026-04-19T09:43:58.858Z</time></trkpt><trkpt lat="40.66664433897235" lon="15.024561690364422"><ele>593.5</ele><time>2026-04-19T09:44:00.858Z</time></trkpt><trkpt lat="40.66673663817612" lon="15.024543012162326"><ele>590.6666666666666</ele><time>2026-04-19T09:44:04.858Z</time></trkpt><trkpt lat="40.666794236901474" lon="15.024585361127794"><ele>587.8333333333334</ele><time>2026-04-19T09:44:08.858Z</time></trkpt><trkpt lat="40.66687646068316" lon="15.02461854232387"><ele>585.0</ele><time>2026-04-19T09:44:11.858Z</time></trkpt><trkpt lat="40.66695879463283" lon="15.024672377779225"><ele>582.4</ele><time>2026-04-19T09:44:14.858Z</time></trkpt><trkpt lat="40.667053196867755" lon="15.024758415105703"><ele>579.8</ele><time>2026-04-19T09:44:16.858Z</time></trkpt><trkpt lat="40.66715592395635" lon="15.024813000746052"><ele>577.2</ele><time>2026-04-19T09:44:18.858Z</time></trkpt><trkpt lat="40.667248044104944" lon="15.024890857895269"><ele>574.6</ele><time>2026-04-19T09:44:20.858Z</time></trkpt><trkpt lat="40.6673343881006" lon="15.024957664785935"><ele>572.0</ele><time>2026-04-19T09:44:22.858Z</time></trkpt><trkpt lat="40.66740077617171" lon="15.024936978278163"><ele>572.0</ele><time>2026-04-19T09:44:24.858Z</time></trkpt><trkpt lat="40.66746720533485" lon="15.024851700897957"><ele>572.0</ele><time>2026-04-19T09:44:26.858Z</time></trkpt><trkpt lat="40.66744386818549" lon="15.02476652904019"><ele>572.0</ele><time>2026-04-19T09:44:27.858Z</time></trkpt><trkpt lat="40.66739759514225" lon="15.02466056791661"><ele>572.0</ele><time>2026-04-19T09:44:30.858Z</time></trkpt><trkpt lat="40.66733059095495" lon="15.024563357940448"><ele>572.0</ele><time>2026-04-19T09:44:33.858Z</time></trkpt><trkpt lat="40.667260833521986" lon="15.024476028617643"><ele>572.0</ele><time>2026-04-19T09:44:36.858Z</time></trkpt><trkpt lat="40.667219450479664" lon="15.024376753469223"><ele>572.0</ele><time>2026-04-19T09:44:39.858Z</time></trkpt><trkpt lat="40.667257621900326" lon="15.024291337443083"><ele>572.0</ele><time>2026-04-19T09:44:41.858Z</time></trkpt><trkpt lat="40.66734809908469" lon="15.024304329306604"><ele>572.0</ele><time>2026-04-19T09:44:45.858Z</time></trkpt><trkpt lat="40.667513673815975" lon="15.02435192684006"><ele>572.0</ele><time>2026-04-19T09:44:48.858Z</time></trkpt><trkpt lat="40.66759129242133" lon="15.024362999158331"><ele>572.0</ele><time>2026-04-19T09:44:49.858Z</time></trkpt><trkpt lat="40.66766950365656" lon="15.024388445009889"><ele>572.0</ele><time>2026-04-19T09:44:50.858Z</time></trkpt><trkpt lat="40.66774420883385" lon="15.02438636548833"><ele>572.0</ele><time>2026-04-19T09:44:51.859Z</time></trkpt><trkpt lat="40.66786747017606" lon="15.024380944658978"><ele>572.0</ele><time>2026-04-19T09:44:53.858Z</time></trkpt><trkpt lat="40.66793963448706" lon="15.024389242045585"><ele>572.0</ele><time>2026-04-19T09:44:54.859Z</time></trkpt><trkpt lat="40.66803905769329" lon="15.024439209085825"><ele>567.5</ele><time>2026-04-19T09:44:56.859Z</time></trkpt><trkpt lat="40.668099379119376" lon="15.024479732046984"><ele>563.0</ele><time>2026-04-19T09:44:57.859Z</time></trkpt><trkpt lat="40.6682294834194" lon="15.024520612927029"><ele>558.5</ele><time>2026-04-19T09:44:59.859Z</time></trkpt><trkpt lat="40.668321592895936" lon="15.024555275104087"><ele>554.0</ele><time>2026-04-19T09:45:00.859Z</time></trkpt><trkpt lat="40.668382793170224" lon="15.02459862474742"><ele>549.5</ele><time>2026-04-19T09:45:01.859Z</time></trkpt><trkpt lat="40.668405281451015" lon="15.024688510018308"><ele>545.0</ele><time>2026-04-19T09:45:03.859Z</time></trkpt><trkpt lat="40.668486805539054" lon="15.024769032331264"><ele>545.0</ele><time>2026-04-19T09:45:05.859Z</time></trkpt><trkpt lat="40.66854854750253" lon="15.024798036369697"><ele>545.0</ele><time>2026-04-19T09:45:06.859Z</time></trkpt><trkpt lat="40.66864647099723" lon="15.024899601576768"><ele>545.0</ele><time>2026-04-19T09:45:08.859Z</time></trkpt><trkpt lat="40.668689602264486" lon="15.024970958868987"><ele>545.0</ele><time>2026-04-19T09:45:09.859Z</time></trkpt><trkpt lat="40.668782882280496" lon="15.025039812710414"><ele>545.0</ele><time>2026-04-19T09:45:11.859Z</time></trkpt><trkpt lat="40.668877662657074" lon="15.025119003264795"><ele>544.5</ele><time>2026-04-19T09:45:13.859Z</time></trkpt><trkpt lat="40.66893711954148" lon="15.025212870504438"><ele>544.0</ele><time>2026-04-19T09:45:15.859Z</time></trkpt><trkpt lat="40.668987033659185" lon="15.02527105693351"><ele>543.5</ele><time>2026-04-19T09:45:17.859Z</time></trkpt><trkpt lat="40.66905885734379" lon="15.025300162741262"><ele>543.0</ele><time>2026-04-19T09:45:19.859Z</time></trkpt><trkpt lat="40.66913733934886" lon="15.025334617286678"><ele>542.5</ele><time>2026-04-19T09:45:21.859Z</time></trkpt><trkpt lat="40.669212260981794" lon="15.025387549265751"><ele>542.0</ele><time>2026-04-19T09:45:23.859Z</time></trkpt><trkpt lat="40.669454959882096" lon="15.025398144509342"><ele>538.0</ele><time>2026-04-19T09:45:28.859Z</time></trkpt><trkpt lat="40.66953320647671" lon="15.02539140720299"><ele>534.0</ele><time>2026-04-19T09:45:29.859Z</time></trkpt><trkpt lat="40.669625390339355" lon="15.025374956996972"><ele>530.0</ele><time>2026-04-19T09:45:30.859Z</time></trkpt><trkpt lat="40.66972799952251" lon="15.025362188579079"><ele>526.0</ele><time>2026-04-19T09:45:31.859Z</time></trkpt><trkpt lat="40.66980644480759" lon="15.02538730010431"><ele>522.0</ele><time>2026-04-19T09:45:32.859Z</time></trkpt><trkpt lat="40.66992376191315" lon="15.02541224700403"><ele>522.0</ele><time>2026-04-19T09:45:34.859Z</time></trkpt><trkpt lat="40.670013387307065" lon="15.025401894726729"><ele>522.0</ele><time>2026-04-19T09:45:35.859Z</time></trkpt><trkpt lat="40.67009914697488" lon="15.025411876442373"><ele>522.0</ele><time>2026-04-19T09:45:36.859Z</time></trkpt><trkpt lat="40.67018724602506" lon="15.025425117326956"><ele>522.0</ele><time>2026-04-19T09:45:37.859Z</time></trkpt><trkpt lat="40.67026482543709" lon="15.02550112638324"><ele>522.0</ele><time>2026-04-19T09:45:38.859Z</time></trkpt><trkpt lat="40.67038035598995" lon="15.025544723873258"><ele>519.6</ele><time>2026-04-19T09:45:39.859Z</time></trkpt><trkpt lat="40.670467567008295" lon="15.025598568614912"><ele>517.2</ele><time>2026-04-19T09:45:40.859Z</time></trkpt><trkpt lat="40.67052963331233" lon="15.025646213054621"><ele>514.8</ele><time>2026-04-19T09:45:41.859Z</time></trkpt><trkpt lat="40.67062113778287" lon="15.025651195910596"><ele>512.4</ele><time>2026-04-19T09:45:43.859Z</time></trkpt><trkpt lat="40.670690059329786" lon="15.025639556350695"><ele>510.0</ele><time>2026-04-19T09:45:44.859Z</time></trkpt><trkpt lat="40.67081726968728" lon="15.025645534806982"><ele>510.0</ele><time>2026-04-19T09:45:46.859Z</time></trkpt><trkpt lat="40.67088253320148" lon="15.025676437640682"><ele>510.0</ele><time>2026-04-19T09:45:47.859Z</time></trkpt><trkpt lat="40.67098287926016" lon="15.025717502275523"><ele>510.0</ele><time>2026-04-19T09:45:49.859Z</time></trkpt><trkpt lat="40.67105187889024" lon="15.025717456243177"><ele>510.0</ele><time>2026-04-19T09:45:50.859Z</time></trkpt><trkpt lat="40.671174194191714" lon="15.025735377463903"><ele>510.0</ele><time>2026-04-19T09:45:52.859Z</time></trkpt><trkpt lat="40.671254855620745" lon="15.025760839579887"><ele>510.0</ele><time>2026-04-19T09:45:53.859Z</time></trkpt><trkpt lat="40.6713300102605" lon="15.02581245704649"><ele>512.8333333333334</ele><time>2026-04-19T09:45:54.859Z</time></trkpt><trkpt lat="40.67137753012797" lon="15.025879223890941"><ele>515.6666666666666</ele><time>2026-04-19T09:45:55.859Z</time></trkpt><trkpt lat="40.671471442466334" lon="15.02594482314254"><ele>518.5</ele><time>2026-04-19T09:45:57.859Z</time></trkpt><trkpt lat="40.67159424109711" lon="15.025955645095523"><ele>521.3333333333333</ele><time>2026-04-19T09:45:59.859Z</time></trkpt><trkpt lat="40.6716725456293" lon="15.025974138651444"><ele>524.1666666666666</ele><time>2026-04-19T09:46:00.859Z</time></trkpt><trkpt lat="40.67173547158636" lon="15.0259877156664"><ele>527.0</ele><time>2026-04-19T09:46:01.859Z</time></trkpt><trkpt lat="40.67183711010363" lon="15.025978802571885"><ele>527.0</ele><time>2026-04-19T09:46:02.859Z</time></trkpt><trkpt lat="40.67193897202935" lon="15.02600470910904"><ele>527.0</ele><time>2026-04-19T09:46:04.859Z</time></trkpt><trkpt lat="40.67204889430359" lon="15.026045630697926"><ele>527.0</ele><time>2026-04-19T09:46:06.859Z</time></trkpt><trkpt lat="40.67213031756384" lon="15.026115808738808"><ele>527.0</ele><time>2026-04-19T09:46:08.859Z</time></trkpt><trkpt lat="40.67225133440165" lon="15.026155581509101"><ele>527.0</ele><time>2026-04-19T09:46:10.859Z</time></trkpt><trkpt lat="40.672362938555224" lon="15.026207560471928"><ele>521.4</ele><time>2026-04-19T09:46:12.859Z</time></trkpt><trkpt lat="40.672426084560534" lon="15.026262178591768"><ele>515.8000000000001</ele><time>2026-04-19T09:46:13.859Z</time></trkpt><trkpt lat="40.67249241629429" lon="15.026298244342723"><ele>510.2</ele><time>2026-04-19T09:46:14.859Z</time></trkpt><trkpt lat="40.6725787413952" lon="15.026409828488214"><ele>504.6</ele><time>2026-04-19T09:46:16.859Z</time></trkpt><trkpt lat="40.67265209494496" lon="15.026486179354906"><ele>499.0</ele><time>2026-04-19T09:46:17.859Z</time></trkpt><trkpt lat="40.67276718770164" lon="15.026588585808284"><ele>498.0</ele><time>2026-04-19T09:46:18.859Z</time></trkpt><trkpt lat="40.67284680197211" lon="15.026686949725313"><ele>497.0</ele><time>2026-04-19T09:46:19.859Z</time></trkpt><trkpt lat="40.67292505027306" lon="15.026770668947382"><ele>496.0</ele><time>2026-04-19T09:46:20.859Z</time></trkpt><trkpt lat="40.67297884448635" lon="15.026836117709198"><ele>495.0</ele><time>2026-04-19T09:46:21.859Z</time></trkpt><trkpt lat="40.673045397072016" lon="15.026906368265866"><ele>494.0</ele><time>2026-04-19T09:46:22.859Z</time></trkpt><trkpt lat="40.6731294858189" lon="15.026966636745652"><ele>493.99999999999994</ele><time>2026-04-19T09:46:23.859Z</time></trkpt><trkpt lat="40.67315963196016" lon="15.027056098220509"><ele>494.0</ele><time>2026-04-19T09:46:24.859Z</time></trkpt><trkpt lat="40.673250233865325" lon="15.02713202402617"><ele>494.0</ele><time>2026-04-19T09:46:25.859Z</time></trkpt><trkpt lat="40.6733064979465" lon="15.027197161942684"><ele>494.0</ele><time>2026-04-19T09:46:26.859Z</time></trkpt><trkpt lat="40.67337196170224" lon="15.027237117681137"><ele>493.99999999999994</ele><time>2026-04-19T09:46:27.859Z</time></trkpt><trkpt lat="40.67345261636907" lon="15.027244602725766"><ele>494.0</ele><time>2026-04-19T09:46:28.859Z</time></trkpt><trkpt lat="40.67351704418662" lon="15.027252441198584"><ele>493.99999999999994</ele><time>2026-04-19T09:46:29.859Z</time></trkpt><trkpt lat="40.6735848992471" lon="15.02726363701504"><ele>494.0</ele><time>2026-04-19T09:46:30.859Z</time></trkpt><trkpt lat="40.6736931911151" lon="15.027326496547595"><ele>494.0</ele><time>2026-04-19T09:46:32.859Z</time></trkpt><trkpt lat="40.67374983244002" lon="15.02738407005261"><ele>494.0</ele><time>2026-04-19T09:46:33.859Z</time></trkpt><trkpt lat="40.67380977965227" lon="15.027435117714722"><ele>493.99999999999994</ele><time>2026-04-19T09:46:34.859Z</time></trkpt><trkpt lat="40.67387764165145" lon="15.027485435233723"><ele>494.0</ele><time>2026-04-19T09:46:35.859Z</time></trkpt><trkpt lat="40.67394775198366" lon="15.027546367486778"><ele>493.66666666666663</ele><time>2026-04-19T09:46:36.859Z</time></trkpt><trkpt lat="40.67401681245388" lon="15.027601085035512"><ele>493.3333333333333</ele><time>2026-04-19T09:46:37.859Z</time></trkpt><trkpt lat="40.67409086768157" lon="15.027631388663748"><ele>493.0</ele><time>2026-04-19T09:46:38.859Z</time></trkpt><trkpt lat="40.67415691477257" lon="15.027645061373349"><ele>492.66666666666663</ele><time>2026-04-19T09:46:39.859Z</time></trkpt><trkpt lat="40.67421980569689" lon="15.027668663316918"><ele>492.3333333333333</ele><time>2026-04-19T09:46:40.859Z</time></trkpt><trkpt lat="40.67430577530306" lon="15.027753520938425"><ele>492.0</ele><time>2026-04-19T09:46:42.859Z</time></trkpt><trkpt lat="40.67439535616955" lon="15.027875982271699"><ele>488.6666666666667</ele><time>2026-04-19T09:46:44.859Z</time></trkpt><trkpt lat="40.67446354567332" lon="15.02793016108719"><ele>485.33333333333337</ele><time>2026-04-19T09:46:45.859Z</time></trkpt><trkpt lat="40.67452587338397" lon="15.027978502921183"><ele>482.0</ele><time>2026-04-19T09:46:46.859Z</time></trkpt><trkpt lat="40.67458618462545" lon="15.028025901402277"><ele>478.6666666666667</ele><time>2026-04-19T09:46:47.859Z</time></trkpt><trkpt lat="40.67464811913825" lon="15.028068639504232"><ele>475.33333333333337</ele><time>2026-04-19T09:46:48.859Z</time></trkpt><trkpt lat="40.67473000590688" lon="15.028108800319469"><ele>472.0</ele><time>2026-04-19T09:46:50.859Z</time></trkpt><trkpt lat="40.674813780973494" lon="15.028105737273297"><ele>472.00000000000006</ele><time>2026-04-19T09:46:52.859Z</time></trkpt><trkpt lat="40.67487848038278" lon="15.0280753146969"><ele>472.0</ele><time>2026-04-19T09:46:53.859Z</time></trkpt><trkpt lat="40.67495446354021" lon="15.028061838958205"><ele>472.0</ele><time>2026-04-19T09:46:54.859Z</time></trkpt><trkpt lat="40.67505775228034" lon="15.02805908388611"><ele>472.0</ele><time>2026-04-19T09:46:56.859Z</time></trkpt><trkpt lat="40.67507740059043" lon="15.02819122628835"><ele>472.00000000000006</ele><time>2026-04-19T09:46:59.859Z</time></trkpt><trkpt lat="40.675013851360006" lon="15.028280986842713"><ele>472.0</ele><time>2026-04-19T09:47:01.859Z</time></trkpt><trkpt lat="40.67503594042186" lon="15.028372801984064"><ele>472.50000000000006</ele><time>2026-04-19T09:47:04.859Z</time></trkpt><trkpt lat="40.675132392098085" lon="15.028386794259308"><ele>473.0</ele><time>2026-04-19T09:47:06.859Z</time></trkpt><trkpt lat="40.67523246833985" lon="15.028371434290861"><ele>473.5</ele><time>2026-04-19T09:47:08.859Z</time></trkpt><trkpt lat="40.67531409233927" lon="15.028355062939898"><ele>474.0</ele><time>2026-04-19T09:47:10.859Z</time></trkpt><trkpt lat="40.675382072217154" lon="15.028305391757609"><ele>474.50000000000006</ele><time>2026-04-19T09:47:13.859Z</time></trkpt><trkpt lat="40.675395340900835" lon="15.028205890261773"><ele>475.0</ele><time>2026-04-19T09:47:42.859Z</time></trkpt><trkpt lat="40.675377924374345" lon="15.028109767716517"><ele>475.0</ele><time>2026-04-19T09:47:44.859Z</time></trkpt><trkpt lat="40.675342658102394" lon="15.027972432441763"><ele>475.0</ele><time>2026-04-19T09:47:46.859Z</time></trkpt><trkpt lat="40.675318675256435" lon="15.027890854169081"><ele>475.0</ele><time>2026-04-19T09:47:47.859Z</time></trkpt><trkpt lat="40.67526642763883" lon="15.027749019276527"><ele>475.0</ele><time>2026-04-19T09:47:49.859Z</time></trkpt><trkpt lat="40.67519207283035" lon="15.027654365136073"><ele>475.0</ele><time>2026-04-19T09:47:51.859Z</time></trkpt><trkpt lat="40.675119725855694" lon="15.027572121867573"><ele>474.50000000000006</ele><time>2026-04-19T09:47:53.859Z</time></trkpt><trkpt lat="40.67504544464416" lon="15.027515723340551"><ele>474.0</ele><time>2026-04-19T09:47:55.859Z</time></trkpt><trkpt lat="40.67497885520885" lon="15.027463902751311"><ele>473.5</ele><time>2026-04-19T09:47:57.859Z</time></trkpt><trkpt lat="40.674908638910075" lon="15.027372559105627"><ele>473.0</ele><time>2026-04-19T09:47:59.859Z</time></trkpt><trkpt lat="40.67485992070377" lon="15.027297845929873"><ele>472.50000000000006</ele><time>2026-04-19T09:48:00.859Z</time></trkpt><trkpt lat="40.67483110173088" lon="15.027221484790978"><ele>472.0</ele><time>2026-04-19T09:48:01.859Z</time></trkpt><trkpt lat="40.67478098996801" lon="15.027139094778711"><ele>472.00000000000006</ele><time>2026-04-19T09:48:02.859Z</time></trkpt><trkpt lat="40.674729442853284" lon="15.02703993855284"><ele>472.0</ele><time>2026-04-19T09:48:03.859Z</time></trkpt><trkpt lat="40.67468777400253" lon="15.026954336750334"><ele>472.0</ele><time>2026-04-19T09:48:04.859Z</time></trkpt><trkpt lat="40.67464222160712" lon="15.026884988816628"><ele>472.0</ele><time>2026-04-19T09:48:05.859Z</time></trkpt><trkpt lat="40.67458121591918" lon="15.02681974099662"><ele>472.00000000000006</ele><time>2026-04-19T09:48:06.859Z</time></trkpt><trkpt lat="40.67448609372532" lon="15.02672317589178"><ele>472.0</ele><time>2026-04-19T09:48:08.859Z</time></trkpt><trkpt lat="40.674428338228424" lon="15.02666849902567"><ele>467.6</ele><time>2026-04-19T09:48:09.859Z</time></trkpt><trkpt lat="40.67437708529779" lon="15.026532095665385"><ele>463.20000000000005</ele><time>2026-04-19T09:48:11.859Z</time></trkpt><trkpt lat="40.67439193603912" lon="15.026437324448159"><ele>458.8</ele><time>2026-04-19T09:48:12.859Z</time></trkpt><trkpt lat="40.67440536346304" lon="15.026325158940026"><ele>454.4</ele><time>2026-04-19T09:48:13.859Z</time></trkpt><trkpt lat="40.67441531313673" lon="15.026208385212213"><ele>450.0</ele><time>2026-04-19T09:48:14.859Z</time></trkpt><trkpt lat="40.67440469779146" lon="15.026086602809995"><ele>450.0</ele><time>2026-04-19T09:48:15.859Z</time></trkpt><trkpt lat="40.67439069439322" lon="15.025957866374524"><ele>450.0</ele><time>2026-04-19T09:48:16.859Z</time></trkpt><trkpt lat="40.67438041113719" lon="15.0258281397962"><ele>450.0</ele><time>2026-04-19T09:48:17.859Z</time></trkpt><trkpt lat="40.67437496814743" lon="15.025711791978978"><ele>450.0</ele><time>2026-04-19T09:48:18.859Z</time></trkpt><trkpt lat="40.67436570911881" lon="15.025613053463413"><ele>450.0</ele><time>2026-04-19T09:48:19.859Z</time></trkpt><trkpt lat="40.67435729288501" lon="15.025528076374197"><ele>450.0</ele><time>2026-04-19T09:48:20.859Z</time></trkpt><trkpt lat="40.67430852338765" lon="15.025411257522236"><ele>446.1666666666667</ele><time>2026-04-19T09:48:22.859Z</time></trkpt><trkpt lat="40.67425342506776" lon="15.025313424660416"><ele>442.33333333333337</ele><time>2026-04-19T09:48:24.859Z</time></trkpt><trkpt lat="40.6742742991183" lon="15.02522885414391"><ele>438.5</ele><time>2026-04-19T09:48:25.859Z</time></trkpt><trkpt lat="40.67432262142181" lon="15.025143178803797"><ele>434.6666666666667</ele><time>2026-04-19T09:48:26.859Z</time></trkpt><trkpt lat="40.67438497132291" lon="15.025117759933172"><ele>430.83333333333337</ele><time>2026-04-19T09:48:27.859Z</time></trkpt><trkpt lat="40.67444938566152" lon="15.025149720613431"><ele>427.0</ele><time>2026-04-19T09:48:28.859Z</time></trkpt><trkpt lat="40.674516968265436" lon="15.025226810220607"><ele>424.50000000000006</ele><time>2026-04-19T09:48:29.859Z</time></trkpt><trkpt lat="40.674559970790646" lon="15.02531602248708"><ele>422.0</ele><time>2026-04-19T09:48:30.859Z</time></trkpt><trkpt lat="40.67460556670639" lon="15.025420342934998"><ele>419.5</ele><time>2026-04-19T09:48:31.859Z</time></trkpt><trkpt lat="40.67463152612998" lon="15.025516724806621"><ele>417.0</ele><time>2026-04-19T09:48:32.859Z</time></trkpt><trkpt lat="40.674646035543574" lon="15.025618285898917"><ele>414.50000000000006</ele><time>2026-04-19T09:48:33.859Z</time></trkpt><trkpt lat="40.67465812457036" lon="15.025699800285377"><ele>412.0</ele><time>2026-04-19T09:48:34.859Z</time></trkpt><trkpt lat="40.67471564736639" lon="15.025796528071687"><ele>412.00000000000006</ele><time>2026-04-19T09:48:36.859Z</time></trkpt><trkpt lat="40.67478206250113" lon="15.025760455806951"><ele>412.0</ele><time>2026-04-19T09:48:38.859Z</time></trkpt><trkpt lat="40.674841695625446" lon="15.025701662493553"><ele>412.0</ele><time>2026-04-19T09:48:39.859Z</time></trkpt><trkpt lat="40.674811655518994" lon="15.025561855586727"><ele>412.0</ele><time>2026-04-19T09:48:41.859Z</time></trkpt><trkpt lat="40.674768835345745" lon="15.02549886230329"><ele>412.00000000000006</ele><time>2026-04-19T09:48:42.859Z</time></trkpt><trkpt lat="40.674721776047875" lon="15.025362851174775"><ele>412.0</ele><time>2026-04-19T09:48:44.859Z</time></trkpt><trkpt lat="40.67472146480352" lon="15.025278762626092"><ele>412.00000000000006</ele><time>2026-04-19T09:48:45.859Z</time></trkpt><trkpt lat="40.67473756525305" lon="15.025176657121296"><ele>412.0</ele><time>2026-04-19T09:48:46.859Z</time></trkpt><trkpt lat="40.674742635846926" lon="15.025068490269021"><ele>412.0</ele><time>2026-04-19T09:48:47.859Z</time></trkpt><trkpt lat="40.67470778168841" lon="15.024977363141623"><ele>412.0</ele><time>2026-04-19T09:48:48.859Z</time></trkpt><trkpt lat="40.67464481551421" lon="15.024906763589438"><ele>412.00000000000006</ele><time>2026-04-19T09:48:49.859Z</time></trkpt><trkpt lat="40.674584767372295" lon="15.024849454049578"><ele>412.0</ele><time>2026-04-19T09:48:50.859Z</time></trkpt><trkpt lat="40.67452379870638" lon="15.024800815544605"><ele>410.5</ele><time>2026-04-19T09:48:51.859Z</time></trkpt><trkpt lat="40.67442395725139" lon="15.024750438795998"><ele>409.0</ele><time>2026-04-19T09:48:53.859Z</time></trkpt><trkpt lat="40.67438411672144" lon="15.024641609860934"><ele>407.5</ele><time>2026-04-19T09:48:55.859Z</time></trkpt><trkpt lat="40.6745722001893" lon="15.024766287191328"><ele>406.0</ele><time>2026-04-19T09:49:00.859Z</time></trkpt><trkpt lat="40.674635508123245" lon="15.024801573183066"><ele>404.33333333333337</ele><time>2026-04-19T09:49:01.859Z</time></trkpt><trkpt lat="40.674777600614476" lon="15.024854106258381"><ele>402.6666666666667</ele><time>2026-04-19T09:49:03.859Z</time></trkpt><trkpt lat="40.67484442533666" lon="15.024866712669803"><ele>401.0</ele><time>2026-04-19T09:49:04.859Z</time></trkpt><trkpt lat="40.67491127942231" lon="15.024860511163794"><ele>399.33333333333337</ele><time>2026-04-19T09:49:05.859Z</time></trkpt><trkpt lat="40.67497819684067" lon="15.024825821160873"><ele>397.6666666666667</ele><time>2026-04-19T09:49:06.86Z</time></trkpt><trkpt lat="40.675048580731506" lon="15.024763150562594"><ele>396.0</ele><time>2026-04-19T09:49:07.86Z</time></trkpt><trkpt lat="40.67512357848349" lon="15.024682926698985"><ele>396.0</ele><time>2026-04-19T09:49:08.86Z</time></trkpt><trkpt lat="40.67518380763092" lon="15.024626543120338"><ele>396.0</ele><time>2026-04-19T09:49:09.859Z</time></trkpt><trkpt lat="40.67523282481743" lon="15.024499388213535"><ele>396.0</ele><time>2026-04-19T09:49:11.859Z</time></trkpt><trkpt lat="40.67526282651033" lon="15.024375747596874"><ele>396.0</ele><time>2026-04-19T09:49:13.859Z</time></trkpt><trkpt lat="40.67529098797709" lon="15.024289731025593"><ele>396.0</ele><time>2026-04-19T09:49:14.859Z</time></trkpt><trkpt lat="40.675380047359724" lon="15.02423758399561"><ele>396.0</ele><time>2026-04-19T09:49:16.859Z</time></trkpt><trkpt lat="40.6754437892054" lon="15.024117529653306"><ele>393.6</ele><time>2026-04-19T09:49:18.859Z</time></trkpt><trkpt lat="40.675497949009454" lon="15.024023955768808"><ele>391.20000000000005</ele><time>2026-04-19T09:49:20.859Z</time></trkpt><trkpt lat="40.67558968947245" lon="15.024031797497763"><ele>388.79999999999995</ele><time>2026-04-19T09:49:22.859Z</time></trkpt><trkpt lat="40.67578553704657" lon="15.0240252368992"><ele>386.4</ele><time>2026-04-19T09:49:26.859Z</time></trkpt><trkpt lat="40.67585163153309" lon="15.024005574977778"><ele>384.0</ele><time>2026-04-19T09:49:27.859Z</time></trkpt><trkpt lat="40.67595397032184" lon="15.024053053672363"><ele>384.0</ele><time>2026-04-19T09:49:29.859Z</time></trkpt><trkpt lat="40.676062279898474" lon="15.024018115772796"><ele>384.0</ele><time>2026-04-19T09:49:31.859Z</time></trkpt><trkpt lat="40.676137552225" lon="15.024016906777264"><ele>384.0</ele><time>2026-04-19T09:49:32.859Z</time></trkpt><trkpt lat="40.676218466054756" lon="15.024024498905591"><ele>384.0</ele><time>2026-04-19T09:49:33.859Z</time></trkpt><trkpt lat="40.67628330650149" lon="15.024046308185673"><ele>384.0</ele><time>2026-04-19T09:49:34.859Z</time></trkpt><trkpt lat="40.67635615291354" lon="15.02403387704078"><ele>384.0</ele><time>2026-04-19T09:49:35.859Z</time></trkpt><trkpt lat="40.67649238894525" lon="15.02406993607925"><ele>383.4</ele><time>2026-04-19T09:49:37.859Z</time></trkpt><trkpt lat="40.676596363515564" lon="15.02407611638038"><ele>382.79999999999995</ele><time>2026-04-19T09:49:38.859Z</time></trkpt><trkpt lat="40.6766994694536" lon="15.024108007580644"><ele>382.20000000000005</ele><time>2026-04-19T09:49:39.859Z</time></trkpt><trkpt lat="40.67677751125028" lon="15.024124866642813"><ele>381.6</ele><time>2026-04-19T09:49:40.859Z</time></trkpt><trkpt lat="40.676863552061036" lon="15.024174994501188"><ele>381.0</ele><time>2026-04-19T09:49:41.859Z</time></trkpt><trkpt lat="40.67697677772062" lon="15.024189517167423"><ele>383.0</ele><time>2026-04-19T09:49:42.859Z</time></trkpt><trkpt lat="40.677064508154096" lon="15.02420749763554"><ele>385.0</ele><time>2026-04-19T09:49:43.859Z</time></trkpt><trkpt lat="40.677145629529" lon="15.024239956418368"><ele>387.0</ele><time>2026-04-19T09:49:44.859Z</time></trkpt><trkpt lat="40.67721044793184" lon="15.024279261269113"><ele>389.0</ele><time>2026-04-19T09:49:45.859Z</time></trkpt><trkpt lat="40.67724200719038" lon="15.024359678378953"><ele>391.0</ele><time>2026-04-19T09:49:46.859Z</time></trkpt><trkpt lat="40.6772899009565" lon="15.024489694682295"><ele>393.0</ele><time>2026-04-19T09:49:47.859Z</time></trkpt><trkpt lat="40.67735797164087" lon="15.024606973792352"><ele>393.0</ele><time>2026-04-19T09:49:48.859Z</time></trkpt><trkpt lat="40.677436561743875" lon="15.024712128736587"><ele>393.0</ele><time>2026-04-19T09:49:49.859Z</time></trkpt><trkpt lat="40.67751649787438" lon="15.024809494415138"><ele>393.0</ele><time>2026-04-19T09:49:50.859Z</time></trkpt><trkpt lat="40.677591112972095" lon="15.024899152035408"><ele>393.0</ele><time>2026-04-19T09:49:51.859Z</time></trkpt><trkpt lat="40.67766226029069" lon="15.024992717476714"><ele>393.0</ele><time>2026-04-19T09:49:52.859Z</time></trkpt><trkpt lat="40.67773409649707" lon="15.025081004355126"><ele>394.79999999999995</ele><time>2026-04-19T09:49:53.859Z</time></trkpt><trkpt lat="40.67780454175124" lon="15.025174000440995"><ele>396.6</ele><time>2026-04-19T09:49:54.859Z</time></trkpt><trkpt lat="40.6778697332695" lon="15.025270223478344"><ele>398.4</ele><time>2026-04-19T09:49:55.859Z</time></trkpt><trkpt lat="40.677928511085305" lon="15.025360808719832"><ele>400.20000000000005</ele><time>2026-04-19T09:49:56.859Z</time></trkpt><trkpt lat="40.6779823165245" lon="15.02545283665873"><ele>402.0</ele><time>2026-04-19T09:49:57.859Z</time></trkpt><trkpt lat="40.678031728160114" lon="15.025537510257855"><ele>402.0</ele><time>2026-04-19T09:49:58.859Z</time></trkpt><trkpt lat="40.678074234401784" lon="15.02561660539504"><ele>402.0</ele><time>2026-04-19T09:49:59.859Z</time></trkpt><trkpt lat="40.678163223199405" lon="15.025686637513113"><ele>402.0</ele><time>2026-04-19T09:50:01.859Z</time></trkpt><trkpt lat="40.6782756976492" lon="15.025560252928228"><ele>402.0</ele><time>2026-04-19T09:50:02.859Z</time></trkpt><trkpt lat="40.67835420158277" lon="15.02547899281851"><ele>402.0</ele><time>2026-04-19T09:50:03.859Z</time></trkpt><trkpt lat="40.67842120014092" lon="15.025401211922183"><ele>402.0</ele><time>2026-04-19T09:50:04.859Z</time></trkpt><trkpt lat="40.67850488031805" lon="15.025306870315038"><ele>402.0</ele><time>2026-04-19T09:50:05.859Z</time></trkpt><trkpt lat="40.678572991098676" lon="15.025248904477126"><ele>402.0</ele><time>2026-04-19T09:50:06.859Z</time></trkpt><trkpt lat="40.67864831803852" lon="15.025210905250445"><ele>402.0</ele><time>2026-04-19T09:50:07.859Z</time></trkpt><trkpt lat="40.6787255063465" lon="15.025218277940647"><ele>402.0</ele><time>2026-04-19T09:50:08.859Z</time></trkpt><trkpt lat="40.678809339263005" lon="15.025257751499948"><ele>402.0</ele><time>2026-04-19T09:50:09.859Z</time></trkpt><trkpt lat="40.67890728903755" lon="15.025330364909836"><ele>403.5</ele><time>2026-04-19T09:50:10.859Z</time></trkpt><trkpt lat="40.67902225558754" lon="15.0253920683449"><ele>405.0</ele><time>2026-04-19T09:50:11.859Z</time></trkpt><trkpt lat="40.679155455495255" lon="15.02542197909589"><ele>406.5</ele><time>2026-04-19T09:50:12.859Z</time></trkpt><trkpt lat="40.67928036812498" lon="15.025420054975434"><ele>408.0</ele><time>2026-04-19T09:50:13.859Z</time></trkpt><trkpt lat="40.67939319590534" lon="15.025424781052491"><ele>409.79999999999995</ele><time>2026-04-19T09:50:14.859Z</time></trkpt><trkpt lat="40.67948926158727" lon="15.025449876943046"><ele>411.6</ele><time>2026-04-19T09:50:15.859Z</time></trkpt><trkpt lat="40.679564857815556" lon="15.025465804682215"><ele>413.4</ele><time>2026-04-19T09:50:16.859Z</time></trkpt><trkpt lat="40.67964913751523" lon="15.025440645291404"><ele>415.20000000000005</ele><time>2026-04-19T09:50:17.859Z</time></trkpt><trkpt lat="40.679725532583994" lon="15.025352375227332"><ele>417.0</ele><time>2026-04-19T09:50:18.859Z</time></trkpt><trkpt lat="40.67977941721434" lon="15.025230479502158"><ele>417.0</ele><time>2026-04-19T09:50:19.859Z</time></trkpt><trkpt lat="40.67985041680849" lon="15.02510457348965"><ele>417.0</ele><time>2026-04-19T09:50:20.859Z</time></trkpt><trkpt lat="40.67996317668674" lon="15.025013163965882"><ele>417.0</ele><time>2026-04-19T09:50:21.859Z</time></trkpt><trkpt lat="40.68007550601941" lon="15.024908930102896"><ele>417.0</ele><time>2026-04-19T09:50:22.859Z</time></trkpt><trkpt lat="40.68021105175195" lon="15.024834759706607"><ele>416.75</ele><time>2026-04-19T09:50:23.859Z</time></trkpt><trkpt lat="40.68034261306239" lon="15.024788411406897"><ele>416.5</ele><time>2026-04-19T09:50:24.859Z</time></trkpt><trkpt lat="40.68047664414126" lon="15.024767780277278"><ele>416.25</ele><time>2026-04-19T09:50:25.859Z</time></trkpt><trkpt lat="40.68059920182972" lon="15.024788066045604"><ele>416.0</ele><time>2026-04-19T09:50:26.859Z</time></trkpt><trkpt lat="40.680706500860225" lon="15.024823441910437"><ele>416.0</ele><time>2026-04-19T09:50:27.859Z</time></trkpt><trkpt lat="40.68079485833845" lon="15.024824215639645"><ele>416.0</ele><time>2026-04-19T09:50:28.859Z</time></trkpt><trkpt lat="40.68087975348141" lon="15.024782848878967"><ele>416.0</ele><time>2026-04-19T09:50:29.859Z</time></trkpt><trkpt lat="40.680953999626816" lon="15.024684108202612"><ele>416.0</ele><time>2026-04-19T09:50:30.859Z</time></trkpt><trkpt lat="40.6809914213311" lon="15.0245390086147"><ele>416.0</ele><time>2026-04-19T09:50:31.859Z</time></trkpt><trkpt lat="40.68101418967006" lon="15.024401071674472"><ele>416.0</ele><time>2026-04-19T09:50:32.859Z</time></trkpt><trkpt lat="40.681065652469144" lon="15.024296586444521"><ele>416.0</ele><time>2026-04-19T09:50:33.859Z</time></trkpt><trkpt lat="40.68113107583333" lon="15.024223016051243"><ele>416.0</ele><time>2026-04-19T09:50:34.859Z</time></trkpt><trkpt lat="40.68122716548442" lon="15.024236357036596"><ele>416.0</ele><time>2026-04-19T09:50:35.859Z</time></trkpt><trkpt lat="40.681356404266786" lon="15.02422475527776"><ele>416.0</ele><time>2026-04-19T09:50:36.859Z</time></trkpt><trkpt lat="40.681485378008276" lon="15.024157317604393"><ele>417.0</ele><time>2026-04-19T09:50:37.859Z</time></trkpt><trkpt lat="40.6816050545443" lon="15.024091627762667"><ele>418.0</ele><time>2026-04-19T09:50:38.859Z</time></trkpt><trkpt lat="40.6817104418749" lon="15.023972917258101"><ele>419.0</ele><time>2026-04-19T09:50:39.859Z</time></trkpt><trkpt lat="40.68179777649092" lon="15.023831244810907"><ele>420.0</ele><time>2026-04-19T09:50:40.859Z</time></trkpt><trkpt lat="40.6818778829256" lon="15.023665178046043"><ele>425.75</ele><time>2026-04-19T09:50:41.859Z</time></trkpt><trkpt lat="40.68195939027928" lon="15.02352081589699"><ele>431.5</ele><time>2026-04-19T09:50:42.859Z</time></trkpt><trkpt lat="40.68203126176677" lon="15.023366531462141"><ele>437.25</ele><time>2026-04-19T09:50:43.859Z</time></trkpt><trkpt lat="40.68206925558695" lon="15.023212592839059"><ele>443.0</ele><time>2026-04-19T09:50:44.859Z</time></trkpt><trkpt lat="40.682093623336726" lon="15.023065729930456"><ele>443.0</ele><time>2026-04-19T09:50:45.859Z</time></trkpt><trkpt lat="40.68213551321065" lon="15.022918943068536"><ele>443.0</ele><time>2026-04-19T09:50:46.859Z</time></trkpt><trkpt lat="40.68220195353069" lon="15.022778310771526"><ele>443.0</ele><time>2026-04-19T09:50:47.859Z</time></trkpt><trkpt lat="40.68226531507607" lon="15.022624533796517"><ele>443.0</ele><time>2026-04-19T09:50:48.859Z</time></trkpt><trkpt lat="40.68231109769022" lon="15.022478793201515"><ele>440.4</ele><time>2026-04-19T09:50:49.859Z</time></trkpt><trkpt lat="40.682316395464426" lon="15.022326755730427"><ele>437.79999999999995</ele><time>2026-04-19T09:50:50.859Z</time></trkpt><trkpt lat="40.682331325416875" lon="15.022190089870776"><ele>435.2</ele><time>2026-04-19T09:50:51.859Z</time></trkpt><trkpt lat="40.682329455390686" lon="15.022064916840908"><ele>432.6</ele><time>2026-04-19T09:50:52.859Z</time></trkpt><trkpt lat="40.682405519198184" lon="15.021990824452338"><ele>430.0</ele><time>2026-04-19T09:50:53.859Z</time></trkpt><trkpt lat="40.682484463525874" lon="15.021893349994318"><ele>430.00000000000006</ele><time>2026-04-19T09:50:54.859Z</time></trkpt><trkpt lat="40.68255309639893" lon="15.021800771952542"><ele>430.0</ele><time>2026-04-19T09:50:55.859Z</time></trkpt><trkpt lat="40.68261818129229" lon="15.021724141767384"><ele>430.0</ele><time>2026-04-19T09:50:56.859Z</time></trkpt><trkpt lat="40.682675629128305" lon="15.021661786610144"><ele>430.0</ele><time>2026-04-19T09:50:57.859Z</time></trkpt><trkpt lat="40.682741702600374" lon="15.021632326213853"><ele>430.00000000000006</ele><time>2026-04-19T09:50:58.859Z</time></trkpt><trkpt lat="40.68284238722522" lon="15.0215923526998"><ele>430.0</ele><time>2026-04-19T09:51:00.859Z</time></trkpt><trkpt lat="40.68294156403466" lon="15.021619701675352"><ele>428.50000000000006</ele><time>2026-04-19T09:51:02.859Z</time></trkpt><trkpt lat="40.683022948729366" lon="15.02164413107633"><ele>427.0</ele><time>2026-04-19T09:51:04.859Z</time></trkpt><trkpt lat="40.68311692634305" lon="15.02171764270313"><ele>425.5</ele><time>2026-04-19T09:51:06.859Z</time></trkpt><trkpt lat="40.68317009751935" lon="15.021777799967978"><ele>424.0</ele><time>2026-04-19T09:51:07.859Z</time></trkpt><trkpt lat="40.68322531172801" lon="15.021855341796668"><ele>422.50000000000006</ele><time>2026-04-19T09:51:08.859Z</time></trkpt><trkpt lat="40.68328403604273" lon="15.021937439390706"><ele>421.0</ele><time>2026-04-19T09:51:09.86Z</time></trkpt><trkpt lat="40.68334488202438" lon="15.022025117574968"><ele>421.0</ele><time>2026-04-19T09:51:10.86Z</time></trkpt><trkpt lat="40.68340409354135" lon="15.022121092488085"><ele>421.0</ele><time>2026-04-19T09:51:11.86Z</time></trkpt><trkpt lat="40.683470080548716" lon="15.022243851788863"><ele>421.0</ele><time>2026-04-19T09:51:12.86Z</time></trkpt><trkpt lat="40.68353468663501" lon="15.022371644938191"><ele>421.0</ele><time>2026-04-19T09:51:13.86Z</time></trkpt><trkpt lat="40.68358971668404" lon="15.022477488135715"><ele>421.0</ele><time>2026-04-19T09:51:14.86Z</time></trkpt><trkpt lat="40.68363350626354" lon="15.022561199422723"><ele>422.33333333333337</ele><time>2026-04-19T09:51:15.86Z</time></trkpt><trkpt lat="40.683678598331156" lon="15.022648583081622"><ele>423.6666666666667</ele><time>2026-04-19T09:51:16.86Z</time></trkpt><trkpt lat="40.68372206169561" lon="15.022735284677621"><ele>425.0</ele><time>2026-04-19T09:51:17.86Z</time></trkpt><trkpt lat="40.68378089719225" lon="15.022808107255006"><ele>426.33333333333337</ele><time>2026-04-19T09:51:18.86Z</time></trkpt><trkpt lat="40.68382340616473" lon="15.022895707852257"><ele>427.6666666666667</ele><time>2026-04-19T09:51:19.86Z</time></trkpt><trkpt lat="40.683885542224296" lon="15.022977989128583"><ele>429.0</ele><time>2026-04-19T09:51:20.86Z</time></trkpt><trkpt lat="40.683959097427795" lon="15.02303590887372"><ele>429.0</ele><time>2026-04-19T09:51:21.86Z</time></trkpt><trkpt lat="40.68403043405216" lon="15.023079944703625"><ele>429.0</ele><time>2026-04-19T09:51:22.859Z</time></trkpt><trkpt lat="40.68411092388895" lon="15.023127058856968"><ele>429.0</ele><time>2026-04-19T09:51:23.859Z</time></trkpt><trkpt lat="40.68418342733427" lon="15.02316617410098"><ele>429.0</ele><time>2026-04-19T09:51:24.859Z</time></trkpt><trkpt lat="40.684256279513605" lon="15.023183266779935"><ele>429.0</ele><time>2026-04-19T09:51:25.859Z</time></trkpt><trkpt lat="40.684321236279175" lon="15.023166823782566"><ele>429.0</ele><time>2026-04-19T09:51:26.859Z</time></trkpt><trkpt lat="40.684453013334654" lon="15.023107258676792"><ele>435.5</ele><time>2026-04-19T09:51:28.859Z</time></trkpt><trkpt lat="40.68451552075486" lon="15.02300278770306"><ele>442.0</ele><time>2026-04-19T09:51:29.859Z</time></trkpt><trkpt lat="40.6845321012768" lon="15.022754115290116"><ele>448.5</ele><time>2026-04-19T09:51:31.859Z</time></trkpt><trkpt lat="40.684513696739636" lon="15.022620026342917"><ele>455.0</ele><time>2026-04-19T09:51:32.859Z</time></trkpt><trkpt lat="40.68450160189894" lon="15.022475788126304"><ele>455.0</ele><time>2026-04-19T09:51:33.859Z</time></trkpt><trkpt lat="40.68449723501591" lon="15.022347692233716"><ele>455.0</ele><time>2026-04-19T09:51:34.859Z</time></trkpt><trkpt lat="40.68448830206292" lon="15.022213851353671"><ele>455.0</ele><time>2026-04-19T09:51:35.859Z</time></trkpt><trkpt lat="40.684478600923015" lon="15.02208485233305"><ele>455.0</ele><time>2026-04-19T09:51:36.859Z</time></trkpt><trkpt lat="40.68446925191268" lon="15.021958037304609"><ele>455.0</ele><time>2026-04-19T09:51:37.859Z</time></trkpt><trkpt lat="40.68446160587913" lon="15.021840745143107"><ele>454.99999999999994</ele><time>2026-04-19T09:51:38.859Z</time></trkpt><trkpt lat="40.6844427505611" lon="15.021732374213704"><ele>455.0</ele><time>2026-04-19T09:51:39.859Z</time></trkpt><trkpt lat="40.68442945747846" lon="15.021621349076947"><ele>455.0</ele><time>2026-04-19T09:51:40.859Z</time></trkpt><trkpt lat="40.684412657308876" lon="15.021518979397584"><ele>455.0</ele><time>2026-04-19T09:51:41.859Z</time></trkpt><trkpt lat="40.68440036202163" lon="15.021417549370165"><ele>454.99999999999994</ele><time>2026-04-19T09:51:42.859Z</time></trkpt><trkpt lat="40.68438917328595" lon="15.021325170768407"><ele>455.0</ele><time>2026-04-19T09:51:43.859Z</time></trkpt><trkpt lat="40.684394680445216" lon="15.021165938426655"><ele>452.99999999999994</ele><time>2026-04-19T09:51:45.859Z</time></trkpt><trkpt lat="40.68440042905713" lon="15.021070606344662"><ele>451.0</ele><time>2026-04-19T09:51:46.859Z</time></trkpt><trkpt lat="40.68447258401237" lon="15.020978047175534"><ele>449.0</ele><time>2026-04-19T09:51:47.859Z</time></trkpt><trkpt lat="40.68453299060566" lon="15.020896619604809"><ele>447.0</ele><time>2026-04-19T09:51:48.859Z</time></trkpt><trkpt lat="40.684596409805536" lon="15.020797554034635"><ele>444.99999999999994</ele><time>2026-04-19T09:51:49.859Z</time></trkpt><trkpt lat="40.684650485042056" lon="15.020714669103006"><ele>443.0</ele><time>2026-04-19T09:51:50.859Z</time></trkpt><trkpt lat="40.68470947714087" lon="15.020626045950594"><ele>437.79999999999995</ele><time>2026-04-19T09:51:51.859Z</time></trkpt><trkpt lat="40.68477346809482" lon="15.020531544328856"><ele>432.59999999999997</ele><time>2026-04-19T09:51:52.859Z</time></trkpt><trkpt lat="40.68484020490803" lon="15.0204356464765"><ele>427.4</ele><time>2026-04-19T09:51:53.859Z</time></trkpt><trkpt lat="40.6849049714835" lon="15.020346625645917"><ele>422.20000000000005</ele><time>2026-04-19T09:51:54.859Z</time></trkpt><trkpt lat="40.68498713985605" lon="15.020267899756904"><ele>417.0</ele><time>2026-04-19T09:51:55.859Z</time></trkpt><trkpt lat="40.68507022899881" lon="15.020162809294952"><ele>417.0</ele><time>2026-04-19T09:51:56.859Z</time></trkpt><trkpt lat="40.68515387931868" lon="15.020042358105854"><ele>417.0</ele><time>2026-04-19T09:51:57.859Z</time></trkpt><trkpt lat="40.68523156852743" lon="15.019950839910926"><ele>417.0</ele><time>2026-04-19T09:51:58.859Z</time></trkpt><trkpt lat="40.685303245687905" lon="15.01985477612053"><ele>417.0</ele><time>2026-04-19T09:51:59.859Z</time></trkpt><trkpt lat="40.68535970470375" lon="15.019747457849283"><ele>417.0</ele><time>2026-04-19T09:52:00.859Z</time></trkpt><trkpt lat="40.685437873510146" lon="15.019647327010153"><ele>419.5</ele><time>2026-04-19T09:52:01.859Z</time></trkpt><trkpt lat="40.68551600183991" lon="15.019560660051262"><ele>422.0</ele><time>2026-04-19T09:52:02.859Z</time></trkpt><trkpt lat="40.68559931660251" lon="15.019485240228208"><ele>424.5</ele><time>2026-04-19T09:52:03.859Z</time></trkpt><trkpt lat="40.68567862296693" lon="15.019430628006644"><ele>427.0</ele><time>2026-04-19T09:52:04.859Z</time></trkpt><trkpt lat="40.685745618655595" lon="15.019396419895942"><ele>429.5</ele><time>2026-04-19T09:52:05.859Z</time></trkpt><trkpt lat="40.68582649660405" lon="15.0194053685895"><ele>432.0</ele><time>2026-04-19T09:52:06.859Z</time></trkpt><trkpt lat="40.685924138661406" lon="15.019320928001664"><ele>432.0</ele><time>2026-04-19T09:52:08.859Z</time></trkpt><trkpt lat="40.6859193525889" lon="15.019154840175775"><ele>432.00000000000006</ele><time>2026-04-19T09:52:10.859Z</time></trkpt><trkpt lat="40.685857508756364" lon="15.019111621276814"><ele>432.00000000000006</ele><time>2026-04-19T09:52:11.859Z</time></trkpt><trkpt lat="40.685770149778875" lon="15.019102811463968"><ele>432.0</ele><time>2026-04-19T09:52:12.859Z</time></trkpt><trkpt lat="40.685647652926704" lon="15.019085788586828"><ele>432.0</ele><time>2026-04-19T09:52:13.859Z</time></trkpt><trkpt lat="40.68551930517576" lon="15.019080972155955"><ele>430.8</ele><time>2026-04-19T09:52:14.859Z</time></trkpt><trkpt lat="40.685388942091606" lon="15.01907083750077"><ele>429.6</ele><time>2026-04-19T09:52:15.859Z</time></trkpt><trkpt lat="40.685294140655415" lon="15.019067948153268"><ele>428.40000000000003</ele><time>2026-04-19T09:52:16.859Z</time></trkpt><trkpt lat="40.68521527759528" lon="15.019031583231861"><ele>427.20000000000005</ele><time>2026-04-19T09:52:17.859Z</time></trkpt><trkpt lat="40.68514648746626" lon="15.0189894091811"><ele>426.0</ele><time>2026-04-19T09:52:18.859Z</time></trkpt><trkpt lat="40.6850844276567" lon="15.018906059175045"><ele>426.0</ele><time>2026-04-19T09:52:19.859Z</time></trkpt><trkpt lat="40.68504120308152" lon="15.01877367831441"><ele>426.0</ele><time>2026-04-19T09:52:20.859Z</time></trkpt><trkpt lat="40.68496566681214" lon="15.01864960122749"><ele>426.0</ele><time>2026-04-19T09:52:21.859Z</time></trkpt><trkpt lat="40.68487150556637" lon="15.018550360019026"><ele>426.0</ele><time>2026-04-19T09:52:22.859Z</time></trkpt><trkpt lat="40.68478841069944" lon="15.018438954687596"><ele>426.0</ele><time>2026-04-19T09:52:23.859Z</time></trkpt><trkpt lat="40.684704224378414" lon="15.018341501739243"><ele>426.0</ele><time>2026-04-19T09:52:24.859Z</time></trkpt><trkpt lat="40.684680352281944" lon="15.018193660788487"><ele>426.0</ele><time>2026-04-19T09:52:25.859Z</time></trkpt><trkpt lat="40.68460480047367" lon="15.018072137356189"><ele>426.0</ele><time>2026-04-19T09:52:26.859Z</time></trkpt><trkpt lat="40.68450269364629" lon="15.01799690198773"><ele>429.25</ele><time>2026-04-19T09:52:27.859Z</time></trkpt><trkpt lat="40.684409275624134" lon="15.01791194370953"><ele>432.5</ele><time>2026-04-19T09:52:28.859Z</time></trkpt><trkpt lat="40.68431873047798" lon="15.017832550148208"><ele>435.75</ele><time>2026-04-19T09:52:29.859Z</time></trkpt><trkpt lat="40.68420149953458" lon="15.017782220443094"><ele>439.0</ele><time>2026-04-19T09:52:30.859Z</time></trkpt><trkpt lat="40.68406112012167" lon="15.017770352988954"><ele>439.0</ele><time>2026-04-19T09:52:31.859Z</time></trkpt><trkpt lat="40.683922453191634" lon="15.017794676284872"><ele>439.0</ele><time>2026-04-19T09:52:32.859Z</time></trkpt><trkpt lat="40.68379505654024" lon="15.017821217635667"><ele>439.0</ele><time>2026-04-19T09:52:33.859Z</time></trkpt><trkpt lat="40.68365671831215" lon="15.017825596138735"><ele>439.0</ele><time>2026-04-19T09:52:34.859Z</time></trkpt><trkpt lat="40.68351223558545" lon="15.017825654468389"><ele>436.5</ele><time>2026-04-19T09:52:35.859Z</time></trkpt><trkpt lat="40.68337530463435" lon="15.017817697828784"><ele>434.0</ele><time>2026-04-19T09:52:36.859Z</time></trkpt><trkpt lat="40.68324076670087" lon="15.017806841756292"><ele>431.5</ele><time>2026-04-19T09:52:37.859Z</time></trkpt><trkpt lat="40.68311147725476" lon="15.01780999254248"><ele>429.0</ele><time>2026-04-19T09:52:38.859Z</time></trkpt><trkpt lat="40.68299899319742" lon="15.01780125529984"><ele>429.0</ele><time>2026-04-19T09:52:39.859Z</time></trkpt><trkpt lat="40.68289142530212" lon="15.01775630248103"><ele>429.0</ele><time>2026-04-19T09:52:40.859Z</time></trkpt><trkpt lat="40.68279167823891" lon="15.01769352829787"><ele>429.0</ele><time>2026-04-19T09:52:41.859Z</time></trkpt><trkpt lat="40.68269167673373" lon="15.01761755597572"><ele>429.0</ele><time>2026-04-19T09:52:42.859Z</time></trkpt><trkpt lat="40.68257145052546" lon="15.017520862177438"><ele>426.2</ele><time>2026-04-19T09:52:43.859Z</time></trkpt><trkpt lat="40.68246709078435" lon="15.017423239293514"><ele>423.4</ele><time>2026-04-19T09:52:44.859Z</time></trkpt><trkpt lat="40.68238491026737" lon="15.017341252837864"><ele>420.6</ele><time>2026-04-19T09:52:45.859Z</time></trkpt><trkpt lat="40.68231927545895" lon="15.017276015730864"><ele>417.8</ele><time>2026-04-19T09:52:46.859Z</time></trkpt><trkpt lat="40.682270922257445" lon="15.017216271462035"><ele>415.0</ele><time>2026-04-19T09:52:47.859Z</time></trkpt><trkpt lat="40.68226206028542" lon="15.017118096834349"><ele>415.0</ele><time>2026-04-19T09:52:49.859Z</time></trkpt><trkpt lat="40.682373053815695" lon="15.017001125198806"><ele>415.0</ele><time>2026-04-19T09:52:51.859Z</time></trkpt><trkpt lat="40.682445703209986" lon="15.016955594104124"><ele>415.0</ele><time>2026-04-19T09:52:52.859Z</time></trkpt><trkpt lat="40.68253787866062" lon="15.016860152903574"><ele>415.0</ele><time>2026-04-19T09:52:53.859Z</time></trkpt><trkpt lat="40.68262600463925" lon="15.016677607903157"><ele>415.5</ele><time>2026-04-19T09:52:54.859Z</time></trkpt><trkpt lat="40.682689390115506" lon="15.016500761216802"><ele>416.0</ele><time>2026-04-19T09:52:55.859Z</time></trkpt><trkpt lat="40.682720296233285" lon="15.016343926751787"><ele>416.5</ele><time>2026-04-19T09:52:56.859Z</time></trkpt><trkpt lat="40.682746160186014" lon="15.016224003939962"><ele>417.0</ele><time>2026-04-19T09:52:57.859Z</time></trkpt><trkpt lat="40.68274385838601" lon="15.01609485642771"><ele>417.0</ele><time>2026-04-19T09:52:58.859Z</time></trkpt><trkpt lat="40.68265176221644" lon="15.015932527941777"><ele>417.0</ele><time>2026-04-19T09:52:59.859Z</time></trkpt><trkpt lat="40.682620320174344" lon="15.015770639397026"><ele>417.0</ele><time>2026-04-19T09:53:00.859Z</time></trkpt><trkpt lat="40.68261331255998" lon="15.015634486091665"><ele>417.0</ele><time>2026-04-19T09:53:01.859Z</time></trkpt><trkpt lat="40.68259367487143" lon="15.015505031032504"><ele>419.8</ele><time>2026-04-19T09:53:02.859Z</time></trkpt><trkpt lat="40.68254684029245" lon="15.015403170376109"><ele>422.6</ele><time>2026-04-19T09:53:03.859Z</time></trkpt><trkpt lat="40.68246199905617" lon="15.015372767610758"><ele>425.40000000000003</ele><time>2026-04-19T09:53:04.859Z</time></trkpt><trkpt lat="40.68237495793059" lon="15.015353261547482"><ele>428.20000000000005</ele><time>2026-04-19T09:53:05.859Z</time></trkpt><trkpt lat="40.68225678787973" lon="15.015324450581238"><ele>431.0</ele><time>2026-04-19T09:53:06.859Z</time></trkpt><trkpt lat="40.68217980911194" lon="15.01520923001554"><ele>431.0</ele><time>2026-04-19T09:53:07.859Z</time></trkpt><trkpt lat="40.6821239570989" lon="15.015081387640851"><ele>431.0</ele><time>2026-04-19T09:53:08.859Z</time></trkpt><trkpt lat="40.68208372781415" lon="15.014950808622876"><ele>431.0</ele><time>2026-04-19T09:53:09.859Z</time></trkpt><trkpt lat="40.682049179328054" lon="15.014833749558287"><ele>431.0</ele><time>2026-04-19T09:53:10.859Z</time></trkpt><trkpt lat="40.68202031383244" lon="15.014709694548436"><ele>431.0</ele><time>2026-04-19T09:53:11.859Z</time></trkpt><trkpt lat="40.68199724526216" lon="15.014623417616422"><ele>430.20000000000005</ele><time>2026-04-19T09:53:12.859Z</time></trkpt><trkpt lat="40.68202171024028" lon="15.014530241126943"><ele>429.40000000000003</ele><time>2026-04-19T09:53:13.859Z</time></trkpt><trkpt lat="40.682088145372646" lon="15.014455142879964"><ele>428.6</ele><time>2026-04-19T09:53:14.859Z</time></trkpt><trkpt lat="40.6821914937925" lon="15.014395577449921"><ele>427.8</ele><time>2026-04-19T09:53:15.86Z</time></trkpt><trkpt lat="40.68227840346149" lon="15.014290631536182"><ele>427.0</ele><time>2026-04-19T09:53:16.86Z</time></trkpt><trkpt lat="40.68237002381127" lon="15.014179967683631"><ele>426.75</ele><time>2026-04-19T09:53:17.86Z</time></trkpt><trkpt lat="40.68247326398364" lon="15.014053544807528"><ele>426.5</ele><time>2026-04-19T09:53:18.86Z</time></trkpt><trkpt lat="40.682568874522225" lon="15.013936464847099"><ele>426.25</ele><time>2026-04-19T09:53:19.86Z</time></trkpt><trkpt lat="40.68268577373936" lon="15.013819128181321"><ele>426.0</ele><time>2026-04-19T09:53:20.86Z</time></trkpt><trkpt lat="40.68278605172737" lon="15.013718888371352"><ele>426.0</ele><time>2026-04-19T09:53:21.86Z</time></trkpt><trkpt lat="40.682882039674" lon="15.013621504718817"><ele>426.0</ele><time>2026-04-19T09:53:22.859Z</time></trkpt><trkpt lat="40.68298323119792" lon="15.01354637937529"><ele>426.0</ele><time>2026-04-19T09:53:23.859Z</time></trkpt><trkpt lat="40.68310318844943" lon="15.013472170264516"><ele>426.0</ele><time>2026-04-19T09:53:24.86Z</time></trkpt><trkpt lat="40.68322420821205" lon="15.013425977117297"><ele>426.0</ele><time>2026-04-19T09:53:25.86Z</time></trkpt><trkpt lat="40.68333377320691" lon="15.01333266781617"><ele>426.0</ele><time>2026-04-19T09:53:26.86Z</time></trkpt><trkpt lat="40.683451727668405" lon="15.013243834088128"><ele>426.0</ele><time>2026-04-19T09:53:27.86Z</time></trkpt><trkpt lat="40.683585338275215" lon="15.013165460052953"><ele>426.0</ele><time>2026-04-19T09:53:28.86Z</time></trkpt><trkpt lat="40.68371927991906" lon="15.013127482981911"><ele>425.33333333333337</ele><time>2026-04-19T09:53:29.86Z</time></trkpt><trkpt lat="40.68387347628759" lon="15.013077380712343"><ele>424.6666666666667</ele><time>2026-04-19T09:53:30.86Z</time></trkpt><trkpt lat="40.684005094644625" lon="15.012965998665404"><ele>424.0</ele><time>2026-04-19T09:53:31.86Z</time></trkpt><trkpt lat="40.68415136032797" lon="15.012902184112365"><ele>424.0</ele><time>2026-04-19T09:53:32.86Z</time></trkpt><trkpt lat="40.68428172474079" lon="15.012843231073216"><ele>424.0</ele><time>2026-04-19T09:53:33.86Z</time></trkpt><trkpt lat="40.6844053096259" lon="15.012798451008047"><ele>424.0</ele><time>2026-04-19T09:53:34.86Z</time></trkpt><trkpt lat="40.684497527933985" lon="15.01275075150663"><ele>424.0</ele><time>2026-04-19T09:53:35.86Z</time></trkpt><trkpt lat="40.68451271917029" lon="15.012643214366367"><ele>424.0</ele><time>2026-04-19T09:53:36.86Z</time></trkpt><trkpt lat="40.68451706853897" lon="15.012494960065473"><ele>422.75</ele><time>2026-04-19T09:53:37.86Z</time></trkpt><trkpt lat="40.68446580487122" lon="15.012349759236148"><ele>421.5</ele><time>2026-04-19T09:53:38.86Z</time></trkpt><trkpt lat="40.68444880479404" lon="15.012210395509682"><ele>420.25</ele><time>2026-04-19T09:53:39.86Z</time></trkpt><trkpt lat="40.684426485907075" lon="15.012069853170809"><ele>419.0</ele><time>2026-04-19T09:53:40.86Z</time></trkpt><trkpt lat="40.68441799244057" lon="15.011920681892809"><ele>422.0</ele><time>2026-04-19T09:53:41.86Z</time></trkpt><trkpt lat="40.68445338826444" lon="15.011800259304268"><ele>425.0</ele><time>2026-04-19T09:53:42.86Z</time></trkpt><trkpt lat="40.68448409695941" lon="15.01171775249746"><ele>428.0</ele><time>2026-04-19T09:53:43.86Z</time></trkpt><trkpt lat="40.68458663944641" lon="15.011692136010833"><ele>431.0</ele><time>2026-04-19T09:53:45.86Z</time></trkpt><trkpt lat="40.684670825606666" lon="15.011758644107609"><ele>434.0</ele><time>2026-04-19T09:53:46.86Z</time></trkpt><trkpt lat="40.684779321148326" lon="15.011765317441888"><ele>434.0</ele><time>2026-04-19T09:53:47.86Z</time></trkpt><trkpt lat="40.68490487517124" lon="15.011772142749914"><ele>434.0</ele><time>2026-04-19T09:53:48.86Z</time></trkpt><trkpt lat="40.68503115083226" lon="15.011800646686249"><ele>434.0</ele><time>2026-04-19T09:53:49.86Z</time></trkpt><trkpt lat="40.68516561984245" lon="15.011815788724581"><ele>434.0</ele><time>2026-04-19T09:53:50.86Z</time></trkpt><trkpt lat="40.68529498800169" lon="15.011833790034128"><ele>435.75</ele><time>2026-04-19T09:53:51.86Z</time></trkpt><trkpt lat="40.68543006849658" lon="15.011861255012976"><ele>437.5</ele><time>2026-04-19T09:53:52.86Z</time></trkpt><trkpt lat="40.68555686480117" lon="15.011882962803913"><ele>439.25</ele><time>2026-04-19T09:53:53.86Z</time></trkpt><trkpt lat="40.68567550167023" lon="15.011918561919584"><ele>441.0</ele><time>2026-04-19T09:53:54.86Z</time></trkpt><trkpt lat="40.68582247429248" lon="15.011918248978235"><ele>441.0</ele><time>2026-04-19T09:53:55.86Z</time></trkpt><trkpt lat="40.68596151974658" lon="15.011890021660248"><ele>441.0</ele><time>2026-04-19T09:53:56.86Z</time></trkpt><trkpt lat="40.68609164776224" lon="15.011875327729003"><ele>441.0</ele><time>2026-04-19T09:53:57.86Z</time></trkpt><trkpt lat="40.68619269872602" lon="15.01186490154877"><ele>441.0</ele><time>2026-04-19T09:53:58.86Z</time></trkpt><trkpt lat="40.68629016398236" lon="15.011833654835314"><ele>443.20000000000005</ele><time>2026-04-19T09:53:59.86Z</time></trkpt><trkpt lat="40.68636128233617" lon="15.011796571644467"><ele>445.40000000000003</ele><time>2026-04-19T09:54:00.86Z</time></trkpt><trkpt lat="40.68640352454572" lon="15.011723216987232"><ele>447.6</ele><time>2026-04-19T09:54:01.86Z</time></trkpt><trkpt lat="40.68644428393432" lon="15.011608919708829"><ele>449.8</ele><time>2026-04-19T09:54:02.86Z</time></trkpt><trkpt lat="40.686435904166736" lon="15.01147635342741"><ele>452.0</ele><time>2026-04-19T09:54:03.86Z</time></trkpt><trkpt lat="40.686371437267894" lon="15.011347391178512"><ele>453.5</ele><time>2026-04-19T09:54:04.86Z</time></trkpt><trkpt lat="40.68629219426362" lon="15.01118127813902"><ele>455.0</ele><time>2026-04-19T09:54:05.86Z</time></trkpt><trkpt lat="40.68625252867697" lon="15.011032537790824"><ele>456.5</ele><time>2026-04-19T09:54:06.86Z</time></trkpt><trkpt lat="40.68621755959926" lon="15.010894199755594"><ele>458.0</ele><time>2026-04-19T09:54:07.86Z</time></trkpt><trkpt lat="40.686184068949686" lon="15.01074102308285"><ele>460.0</ele><time>2026-04-19T09:54:08.86Z</time></trkpt><trkpt lat="40.68614760015341" lon="15.010569005555418"><ele>462.0</ele><time>2026-04-19T09:54:09.86Z</time></trkpt><trkpt lat="40.6861099376267" lon="15.010394825506696"><ele>464.0</ele><time>2026-04-19T09:54:10.86Z</time></trkpt><trkpt lat="40.68608288628245" lon="15.010236656359437"><ele>466.0</ele><time>2026-04-19T09:54:11.86Z</time></trkpt><trkpt lat="40.68605269902711" lon="15.01009039847996"><ele>460.0</ele><time>2026-04-19T09:54:12.86Z</time></trkpt><trkpt lat="40.68603860912486" lon="15.009958130416438"><ele>454.0</ele><time>2026-04-19T09:54:13.86Z</time></trkpt><trkpt lat="40.68601977572453" lon="15.009832242859426"><ele>448.0</ele><time>2026-04-19T09:54:14.86Z</time></trkpt><trkpt lat="40.68602157668424" lon="15.009698653539724"><ele>442.0</ele><time>2026-04-19T09:54:15.86Z</time></trkpt><trkpt lat="40.686039178553315" lon="15.00957653207916"><ele>436.0</ele><time>2026-04-19T09:54:16.86Z</time></trkpt><trkpt lat="40.686043037341285" lon="15.009464843261574"><ele>436.00000000000006</ele><time>2026-04-19T09:54:17.86Z</time></trkpt><trkpt lat="40.68602308232498" lon="15.00936536072962"><ele>436.0</ele><time>2026-04-19T09:54:18.86Z</time></trkpt><trkpt lat="40.68600807633115" lon="15.00927718940276"><ele>436.0</ele><time>2026-04-19T09:54:19.86Z</time></trkpt><trkpt lat="40.68596890938857" lon="15.00918337547532"><ele>436.0</ele><time>2026-04-19T09:54:20.86Z</time></trkpt><trkpt lat="40.685888724107926" lon="15.009129534810016"><ele>436.00000000000006</ele><time>2026-04-19T09:54:21.86Z</time></trkpt><trkpt lat="40.68581475260916" lon="15.00906316682046"><ele>436.0</ele><time>2026-04-19T09:54:22.86Z</time></trkpt><trkpt lat="40.68573351366401" lon="15.009000205860623"><ele>435.8</ele><time>2026-04-19T09:54:23.86Z</time></trkpt><trkpt lat="40.68568198578451" lon="15.00891772138309"><ele>435.6</ele><time>2026-04-19T09:54:24.86Z</time></trkpt><trkpt lat="40.68568458881123" lon="15.008810576757273"><ele>435.4</ele><time>2026-04-19T09:54:25.86Z</time></trkpt><trkpt lat="40.685680085113354" lon="15.008695377047253"><ele>435.2</ele><time>2026-04-19T09:54:26.86Z</time></trkpt><trkpt lat="40.68567537292281" lon="15.008555917771492"><ele>435.0</ele><time>2026-04-19T09:54:27.86Z</time></trkpt><trkpt lat="40.68567029038332" lon="15.008386956375244"><ele>434.0</ele><time>2026-04-19T09:54:28.86Z</time></trkpt><trkpt lat="40.68566769395243" lon="15.008248834751218"><ele>433.0</ele><time>2026-04-19T09:54:29.86Z</time></trkpt><trkpt lat="40.68566539815384" lon="15.008126705613217"><ele>432.0</ele><time>2026-04-19T09:54:30.86Z</time></trkpt><trkpt lat="40.685668868292716" lon="15.008015211887729"><ele>431.0</ele><time>2026-04-19T09:54:31.86Z</time></trkpt><trkpt lat="40.68568153621449" lon="15.007917339292963"><ele>430.0</ele><time>2026-04-19T09:54:32.86Z</time></trkpt><trkpt lat="40.685724433557546" lon="15.007832132089977"><ele>429.0</ele><time>2026-04-19T09:54:33.86Z</time></trkpt><trkpt lat="40.68578987556392" lon="15.007753842522614"><ele>429.0</ele><time>2026-04-19T09:54:34.86Z</time></trkpt><trkpt lat="40.68584668976709" lon="15.007646883187562"><ele>429.0</ele><time>2026-04-19T09:54:35.86Z</time></trkpt><trkpt lat="40.6859004495698" lon="15.007520861539394"><ele>429.0</ele><time>2026-04-19T09:54:36.86Z</time></trkpt><trkpt lat="40.68592900260485" lon="15.007376234899482"><ele>429.0</ele><time>2026-04-19T09:54:37.86Z</time></trkpt><trkpt lat="40.685932399677256" lon="15.007243097708853"><ele>429.0</ele><time>2026-04-19T09:54:38.86Z</time></trkpt><trkpt lat="40.68592930780822" lon="15.007110070956323"><ele>429.6</ele><time>2026-04-19T09:54:39.86Z</time></trkpt><trkpt lat="40.6859087067776" lon="15.006974705604716"><ele>430.2</ele><time>2026-04-19T09:54:40.86Z</time></trkpt><trkpt lat="40.685868865528164" lon="15.00686402583031"><ele>430.80000000000007</ele><time>2026-04-19T09:54:41.86Z</time></trkpt><trkpt lat="40.68583385166162" lon="15.006747435500463"><ele>431.40000000000003</ele><time>2026-04-19T09:54:42.86Z</time></trkpt><trkpt lat="40.68578724920982" lon="15.006625196556739"><ele>432.0</ele><time>2026-04-19T09:54:43.86Z</time></trkpt><trkpt lat="40.685720514481275" lon="15.006507612529738"><ele>432.6</ele><time>2026-04-19T09:54:44.86Z</time></trkpt><trkpt lat="40.68564985806577" lon="15.006410007930095"><ele>433.20000000000005</ele><time>2026-04-19T09:54:45.86Z</time></trkpt><trkpt lat="40.68561221718568" lon="15.00627918799357"><ele>433.8</ele><time>2026-04-19T09:54:46.86Z</time></trkpt><trkpt lat="40.68559554520158" lon="15.006162917111409"><ele>434.4</ele><time>2026-04-19T09:54:47.86Z</time></trkpt><trkpt lat="40.68559003645387" lon="15.006064436540692"><ele>435.0</ele><time>2026-04-19T09:54:48.86Z</time></trkpt><trkpt lat="40.68566928139763" lon="15.006004647069519"><ele>435.0</ele><time>2026-04-19T09:54:49.86Z</time></trkpt><trkpt lat="40.685729251834005" lon="15.00596181122163"><ele>435.0</ele><time>2026-04-19T09:54:50.86Z</time></trkpt><trkpt lat="40.68582373049215" lon="15.005936282035586"><ele>435.0</ele><time>2026-04-19T09:54:51.86Z</time></trkpt><trkpt lat="40.68592189214337" lon="15.005870161231675"><ele>435.0</ele><time>2026-04-19T09:54:52.86Z</time></trkpt><trkpt lat="40.68600654844621" lon="15.005796953857446"><ele>435.0</ele><time>2026-04-19T09:54:53.86Z</time></trkpt><trkpt lat="40.68605986126069" lon="15.005684590680863"><ele>433.5</ele><time>2026-04-19T09:54:54.86Z</time></trkpt><trkpt lat="40.68606843543643" lon="15.005535648732806"><ele>432.0</ele><time>2026-04-19T09:54:55.86Z</time></trkpt><trkpt lat="40.68601970245209" lon="15.005378127977087"><ele>430.5</ele><time>2026-04-19T09:54:56.86Z</time></trkpt><trkpt lat="40.68595895532725" lon="15.005221778412665"><ele>429.0</ele><time>2026-04-19T09:54:57.86Z</time></trkpt><trkpt lat="40.68594818804377" lon="15.00507678404559"><ele>426.6</ele><time>2026-04-19T09:54:58.86Z</time></trkpt><trkpt lat="40.68594484965934" lon="15.004961384270091"><ele>424.2</ele><time>2026-04-19T09:54:59.86Z</time></trkpt><trkpt lat="40.68601582851233" lon="15.004892448793372"><ele>421.8</ele><time>2026-04-19T09:55:01.86Z</time></trkpt><trkpt lat="40.686139606435155" lon="15.004888818730713"><ele>419.40000000000003</ele><time>2026-04-19T09:55:03.86Z</time></trkpt><trkpt lat="40.686250380669186" lon="15.004865342840153"><ele>417.0</ele><time>2026-04-19T09:55:04.86Z</time></trkpt><trkpt lat="40.68633136871199" lon="15.004773068983377"><ele>422.6</ele><time>2026-04-19T09:55:05.86Z</time></trkpt><trkpt lat="40.68635688216861" lon="15.004622170865098"><ele>428.20000000000005</ele><time>2026-04-19T09:55:06.86Z</time></trkpt><trkpt lat="40.686328876358914" lon="15.00447960701332"><ele>433.8</ele><time>2026-04-19T09:55:07.86Z</time></trkpt><trkpt lat="40.6863291943854" lon="15.004344435412195"><ele>439.4</ele><time>2026-04-19T09:55:08.86Z</time></trkpt><trkpt lat="40.68635035692608" lon="15.004247379733295"><ele>445.0</ele><time>2026-04-19T09:55:09.86Z</time></trkpt><trkpt lat="40.68640120302392" lon="15.004187019525137"><ele>442.2</ele><time>2026-04-19T09:55:10.86Z</time></trkpt><trkpt lat="40.686471913015865" lon="15.004136331731619"><ele>439.4</ele><time>2026-04-19T09:55:11.86Z</time></trkpt><trkpt lat="40.68656776764907" lon="15.004078574409611"><ele>436.6</ele><time>2026-04-19T09:55:12.86Z</time></trkpt><trkpt lat="40.68667031034203" lon="15.004018073059004"><ele>433.8</ele><time>2026-04-19T09:55:13.86Z</time></trkpt><trkpt lat="40.68679397507264" lon="15.003969540714934"><ele>431.0</ele><time>2026-04-19T09:55:14.86Z</time></trkpt><trkpt lat="40.68692094241007" lon="15.003921263750392"><ele>434.0</ele><time>2026-04-19T09:55:15.86Z</time></trkpt><trkpt lat="40.68703985875254" lon="15.003892426062013"><ele>437.0</ele><time>2026-04-19T09:55:16.86Z</time></trkpt><trkpt lat="40.68715265477251" lon="15.003881576767906"><ele>440.0</ele><time>2026-04-19T09:55:17.86Z</time></trkpt><trkpt lat="40.687272945386866" lon="15.003870505648472"><ele>443.0</ele><time>2026-04-19T09:55:18.86Z</time></trkpt><trkpt lat="40.68739265618536" lon="15.003837659911284"><ele>443.0</ele><time>2026-04-19T09:55:19.86Z</time></trkpt><trkpt lat="40.68751135574834" lon="15.003778140023167"><ele>443.0</ele><time>2026-04-19T09:55:20.86Z</time></trkpt><trkpt lat="40.6876316176828" lon="15.00371152799018"><ele>443.0</ele><time>2026-04-19T09:55:21.861Z</time></trkpt><trkpt lat="40.687765385955906" lon="15.003652926776834"><ele>443.0</ele><time>2026-04-19T09:55:22.86Z</time></trkpt><trkpt lat="40.687913420221975" lon="15.00363466817139"><ele>446.66666666666663</ele><time>2026-04-19T09:55:23.86Z</time></trkpt><trkpt lat="40.688068214129316" lon="15.003643463725762"><ele>450.33333333333337</ele><time>2026-04-19T09:55:24.86Z</time></trkpt><trkpt lat="40.6882289577428" lon="15.003647129074022"><ele>454.0</ele><time>2026-04-19T09:55:25.86Z</time></trkpt><trkpt lat="40.688389078021004" lon="15.003645725160336"><ele>454.0</ele><time>2026-04-19T09:55:26.86Z</time></trkpt><trkpt lat="40.688551515957144" lon="15.00358264838784"><ele>454.0</ele><time>2026-04-19T09:55:27.861Z</time></trkpt><trkpt lat="40.688704266859524" lon="15.003484030406852"><ele>454.0</ele><time>2026-04-19T09:55:28.86Z</time></trkpt><trkpt lat="40.688855883313195" lon="15.003403461580877"><ele>454.79999999999995</ele><time>2026-04-19T09:55:29.86Z</time></trkpt><trkpt lat="40.688986318863755" lon="15.00334803449025"><ele>455.59999999999997</ele><time>2026-04-19T09:55:30.86Z</time></trkpt><trkpt lat="40.68909030498651" lon="15.003332777272643"><ele>456.4</ele><time>2026-04-19T09:55:31.86Z</time></trkpt><trkpt lat="40.68917760404228" lon="15.003329308348443"><ele>457.2</ele><time>2026-04-19T09:55:32.86Z</time></trkpt><trkpt lat="40.68924057788501" lon="15.003359275582001"><ele>458.0</ele><time>2026-04-19T09:55:33.861Z</time></trkpt><trkpt lat="40.68927366405905" lon="15.003463962212502"><ele>458.0</ele><time>2026-04-19T09:55:35.86Z</time></trkpt><trkpt lat="40.68923073078085" lon="15.003544732463778"><ele>457.99999999999994</ele><time>2026-04-19T09:55:36.86Z</time></trkpt><trkpt lat="40.68913985802869" lon="15.003593219806502"><ele>457.99999999999994</ele><time>2026-04-19T09:55:37.86Z</time></trkpt><trkpt lat="40.68903037856836" lon="15.003628417225356"><ele>458.0</ele><time>2026-04-19T09:55:38.86Z</time></trkpt><trkpt lat="40.68891228672775" lon="15.00371206708953"><ele>458.0</ele><time>2026-04-19T09:55:39.86Z</time></trkpt><trkpt lat="40.68878454609075" lon="15.003825913438604"><ele>458.0</ele><time>2026-04-19T09:55:40.86Z</time></trkpt><trkpt lat="40.688686504226034" lon="15.003978748377014"><ele>458.0</ele><time>2026-04-19T09:55:41.86Z</time></trkpt><trkpt lat="40.68858465522517" lon="15.004141843160783"><ele>458.0</ele><time>2026-04-19T09:55:42.86Z</time></trkpt><trkpt lat="40.688473248512814" lon="15.004254330009058"><ele>460.75</ele><time>2026-04-19T09:55:43.86Z</time></trkpt><trkpt lat="40.68834200452495" lon="15.004333638915629"><ele>463.5</ele><time>2026-04-19T09:55:44.86Z</time></trkpt><trkpt lat="40.6882110539439" lon="15.0044395790835"><ele>466.25</ele><time>2026-04-19T09:55:45.86Z</time></trkpt><trkpt lat="40.68810379946325" lon="15.004576652001488"><ele>469.0</ele><time>2026-04-19T09:55:46.86Z</time></trkpt><trkpt lat="40.68798675734511" lon="15.004719138515389"><ele>469.0</ele><time>2026-04-19T09:55:47.86Z</time></trkpt><trkpt lat="40.68788534907892" lon="15.004877028924367"><ele>469.0</ele><time>2026-04-19T09:55:48.86Z</time></trkpt><trkpt lat="40.687795313434144" lon="15.005080087134527"><ele>469.0</ele><time>2026-04-19T09:55:49.86Z</time></trkpt><trkpt lat="40.687728714754414" lon="15.005305855177953"><ele>469.33333333333337</ele><time>2026-04-19T09:55:50.86Z</time></trkpt><trkpt lat="40.68767846659527" lon="15.005518617595962"><ele>469.66666666666663</ele><time>2026-04-19T09:55:51.86Z</time></trkpt><trkpt lat="40.68767014370847" lon="15.005765427376913"><ele>470.0</ele><time>2026-04-19T09:55:52.86Z</time></trkpt><trkpt lat="40.6876594778751" lon="15.006013982810094"><ele>472.3333333333333</ele><time>2026-04-19T09:55:53.86Z</time></trkpt><trkpt lat="40.687630218953814" lon="15.006241244448544"><ele>474.66666666666663</ele><time>2026-04-19T09:55:54.86Z</time></trkpt><trkpt lat="40.687584230560134" lon="15.006441184881025"><ele>477.0</ele><time>2026-04-19T09:55:55.86Z</time></trkpt><trkpt lat="40.687528424814744" lon="15.006636845068138"><ele>479.0</ele><time>2026-04-19T09:55:56.86Z</time></trkpt><trkpt lat="40.687484307010564" lon="15.006838267244406"><ele>481.0</ele><time>2026-04-19T09:55:57.86Z</time></trkpt><trkpt lat="40.6874669652148" lon="15.007049432361518"><ele>483.0</ele><time>2026-04-19T09:55:58.86Z</time></trkpt><trkpt lat="40.687443690187806" lon="15.007256867031241"><ele>483.0</ele><time>2026-04-19T09:55:59.86Z</time></trkpt><trkpt lat="40.687407598516764" lon="15.007455362794115"><ele>483.0</ele><time>2026-04-19T09:56:00.86Z</time></trkpt><trkpt lat="40.687320986369876" lon="15.007618771593453"><ele>483.0</ele><time>2026-04-19T09:56:01.86Z</time></trkpt><trkpt lat="40.68725762093792" lon="15.007800494364202"><ele>485.25</ele><time>2026-04-19T09:56:02.86Z</time></trkpt><trkpt lat="40.687217736531906" lon="15.007986080803803"><ele>487.5</ele><time>2026-04-19T09:56:03.86Z</time></trkpt><trkpt lat="40.6871572935628" lon="15.008145750379148"><ele>489.75</ele><time>2026-04-19T09:56:04.86Z</time></trkpt><trkpt lat="40.68705122912834" lon="15.008260625704743"><ele>492.0</ele><time>2026-04-19T09:56:05.86Z</time></trkpt><trkpt lat="40.686967803477934" lon="15.008395771971433"><ele>494.6</ele><time>2026-04-19T09:56:06.86Z</time></trkpt><trkpt lat="40.68693270431972" lon="15.008537243458498"><ele>497.20000000000005</ele><time>2026-04-19T09:56:07.86Z</time></trkpt><trkpt lat="40.686894392419696" lon="15.008645904794152"><ele>499.8</ele><time>2026-04-19T09:56:08.86Z</time></trkpt><trkpt lat="40.686875076066805" lon="15.008770670625243"><ele>502.4</ele><time>2026-04-19T09:56:09.86Z</time></trkpt><trkpt lat="40.686869935358544" lon="15.008876659049657"><ele>505.0</ele><time>2026-04-19T09:56:10.86Z</time></trkpt><trkpt lat="40.68699136144281" lon="15.008933427307268"><ele>505.0</ele><time>2026-04-19T09:56:12.86Z</time></trkpt><trkpt lat="40.68711381435771" lon="15.008820267968947"><ele>505.0</ele><time>2026-04-19T09:56:13.86Z</time></trkpt><trkpt lat="40.68717906157321" lon="15.00874318172017"><ele>505.0</ele><time>2026-04-19T09:56:14.86Z</time></trkpt><trkpt lat="40.68723859025992" lon="15.008618858919608"><ele>505.0</ele><time>2026-04-19T09:56:15.86Z</time></trkpt><trkpt lat="40.687299953087134" lon="15.008493479525773"><ele>505.0</ele><time>2026-04-19T09:56:16.86Z</time></trkpt><trkpt lat="40.68737456157157" lon="15.008347761861785"><ele>505.0</ele><time>2026-04-19T09:56:17.86Z</time></trkpt><trkpt lat="40.68746324909065" lon="15.008178481499069"><ele>505.0</ele><time>2026-04-19T09:56:18.86Z</time></trkpt><trkpt lat="40.68754103395274" lon="15.008025030901086"><ele>505.0</ele><time>2026-04-19T09:56:19.86Z</time></trkpt><trkpt lat="40.68762580329766" lon="15.007870480038148"><ele>506.33333333333337</ele><time>2026-04-19T09:56:20.86Z</time></trkpt><trkpt lat="40.68771504409773" lon="15.007717919440674"><ele>507.66666666666663</ele><time>2026-04-19T09:56:21.86Z</time></trkpt><trkpt lat="40.68781720299871" lon="15.007567825309598"><ele>509.0</ele><time>2026-04-19T09:56:22.86Z</time></trkpt><trkpt lat="40.687921541251626" lon="15.007420779650575"><ele>509.0</ele><time>2026-04-19T09:56:23.86Z</time></trkpt><trkpt lat="40.68802006634859" lon="15.00725795506794"><ele>509.0</ele><time>2026-04-19T09:56:24.86Z</time></trkpt><trkpt lat="40.68811229981048" lon="15.007092192315442"><ele>509.0</ele><time>2026-04-19T09:56:25.86Z</time></trkpt><trkpt lat="40.68820157765083" lon="15.006928704004059"><ele>509.0</ele><time>2026-04-19T09:56:26.86Z</time></trkpt><trkpt lat="40.6882918577605" lon="15.006751452222442"><ele>509.0</ele><time>2026-04-19T09:56:27.86Z</time></trkpt><trkpt lat="40.688391804503205" lon="15.00659108754706"><ele>509.0</ele><time>2026-04-19T09:56:28.86Z</time></trkpt><trkpt lat="40.68850749827525" lon="15.006426466744342"><ele>512.0</ele><time>2026-04-19T09:56:29.86Z</time></trkpt><trkpt lat="40.68862526878904" lon="15.006271507998298"><ele>515.0</ele><time>2026-04-19T09:56:30.86Z</time></trkpt><trkpt lat="40.68876284469599" lon="15.006142784758294"><ele>518.0</ele><time>2026-04-19T09:56:31.86Z</time></trkpt><trkpt lat="40.68891667303576" lon="15.005999987653734"><ele>518.0</ele><time>2026-04-19T09:56:32.86Z</time></trkpt><trkpt lat="40.6890758980648" lon="15.00588731363249"><ele>518.0</ele><time>2026-04-19T09:56:33.86Z</time></trkpt><trkpt lat="40.689225863627456" lon="15.005738999950804"><ele>518.0</ele><time>2026-04-19T09:56:34.86Z</time></trkpt><trkpt lat="40.68937928065007" lon="15.005625747881927"><ele>515.0</ele><time>2026-04-19T09:56:35.86Z</time></trkpt><trkpt lat="40.68952888136923" lon="15.005546297294876"><ele>512.0</ele><time>2026-04-19T09:56:36.86Z</time></trkpt><trkpt lat="40.68969976802048" lon="15.005484683071735"><ele>509.0</ele><time>2026-04-19T09:56:37.86Z</time></trkpt><trkpt lat="40.68985989250004" lon="15.005443474476094"><ele>509.0</ele><time>2026-04-19T09:56:38.86Z</time></trkpt><trkpt lat="40.69000692133057" lon="15.005429515973052"><ele>509.0</ele><time>2026-04-19T09:56:39.86Z</time></trkpt><trkpt lat="40.69014605187351" lon="15.005423725656703"><ele>509.0</ele><time>2026-04-19T09:56:40.86Z</time></trkpt><trkpt lat="40.6902811413014" lon="15.005423122839483"><ele>509.0</ele><time>2026-04-19T09:56:41.86Z</time></trkpt><trkpt lat="40.690424348878004" lon="15.005464401171766"><ele>512.25</ele><time>2026-04-19T09:56:42.86Z</time></trkpt><trkpt lat="40.6905853473003" lon="15.00547432609802"><ele>515.5</ele><time>2026-04-19T09:56:43.86Z</time></trkpt><trkpt lat="40.69072123950628" lon="15.005444342926806"><ele>518.75</ele><time>2026-04-19T09:56:44.86Z</time></trkpt><trkpt lat="40.6908397035301" lon="15.005430252880299"><ele>522.0</ele><time>2026-04-19T09:56:45.86Z</time></trkpt><trkpt lat="40.690971557471144" lon="15.005416594374934"><ele>527.5</ele><time>2026-04-19T09:56:46.86Z</time></trkpt><trkpt lat="40.6911066190622" lon="15.005433410051735"><ele>533.0</ele><time>2026-04-19T09:56:47.86Z</time></trkpt><trkpt lat="40.69121068396985" lon="15.005357070753874"><ele>538.5</ele><time>2026-04-19T09:56:48.86Z</time></trkpt><trkpt lat="40.69128978217818" lon="15.005269699949817"><ele>544.0</ele><time>2026-04-19T09:56:49.86Z</time></trkpt><trkpt lat="40.691361051748764" lon="15.005127915329247"><ele>538.25</ele><time>2026-04-19T09:56:50.86Z</time></trkpt><trkpt lat="40.69143417911215" lon="15.004948662417883"><ele>532.5</ele><time>2026-04-19T09:56:51.86Z</time></trkpt><trkpt lat="40.691512657097306" lon="15.00478107778344"><ele>526.75</ele><time>2026-04-19T09:56:52.86Z</time></trkpt><trkpt lat="40.69160965242718" lon="15.004658237003076"><ele>521.0</ele><time>2026-04-19T09:56:53.86Z</time></trkpt><trkpt lat="40.691695008400444" lon="15.004520372704063"><ele>521.0</ele><time>2026-04-19T09:56:54.86Z</time></trkpt><trkpt lat="40.69180151476917" lon="15.00444962866301"><ele>521.0</ele><time>2026-04-19T09:56:55.86Z</time></trkpt><trkpt lat="40.69192294063423" lon="15.00442529856868"><ele>521.0</ele><time>2026-04-19T09:56:56.86Z</time></trkpt><trkpt lat="40.692050762748735" lon="15.004397543528386"><ele>521.0</ele><time>2026-04-19T09:56:57.86Z</time></trkpt><trkpt lat="40.69218313669762" lon="15.004358212967885"><ele>523.0</ele><time>2026-04-19T09:56:58.86Z</time></trkpt><trkpt lat="40.692306924313655" lon="15.004275136776856"><ele>525.0</ele><time>2026-04-19T09:56:59.86Z</time></trkpt><trkpt lat="40.6924053981935" lon="15.004139817445742"><ele>527.0</ele><time>2026-04-19T09:57:00.86Z</time></trkpt><trkpt lat="40.69251247668013" lon="15.004012180237192"><ele>529.0</ele><time>2026-04-19T09:57:01.86Z</time></trkpt><trkpt lat="40.69262411270002" lon="15.003908568607418"><ele>529.0</ele><time>2026-04-19T09:57:02.86Z</time></trkpt><trkpt lat="40.69273655860815" lon="15.00381105038567"><ele>529.0</ele><time>2026-04-19T09:57:03.86Z</time></trkpt><trkpt lat="40.69283876220557" lon="15.003692190836217"><ele>529.0</ele><time>2026-04-19T09:57:04.86Z</time></trkpt><trkpt lat="40.692862317610434" lon="15.003476224293209"><ele>529.0</ele><time>2026-04-19T09:57:05.86Z</time></trkpt><trkpt lat="40.69293265019277" lon="15.003300458818554"><ele>533.6666666666667</ele><time>2026-04-19T09:57:06.86Z</time></trkpt><trkpt lat="40.69301584136891" lon="15.003150722219445"><ele>538.3333333333334</ele><time>2026-04-19T09:57:07.86Z</time></trkpt><trkpt lat="40.69311180588563" lon="15.002980855520105"><ele>543.0</ele><time>2026-04-19T09:57:08.86Z</time></trkpt><trkpt lat="40.6931624707323" lon="15.002784344663112"><ele>543.0</ele><time>2026-04-19T09:57:09.86Z</time></trkpt><trkpt lat="40.693214415261785" lon="15.002609668307912"><ele>543.0</ele><time>2026-04-19T09:57:10.86Z</time></trkpt><trkpt lat="40.693253581815405" lon="15.00244441486724"><ele>543.0</ele><time>2026-04-19T09:57:11.86Z</time></trkpt><trkpt lat="40.693274907933485" lon="15.002295290802344"><ele>543.0</ele><time>2026-04-19T09:57:12.86Z</time></trkpt><trkpt lat="40.69329925550346" lon="15.002172874019891"><ele>539.6</ele><time>2026-04-19T09:57:13.86Z</time></trkpt><trkpt lat="40.69334043324776" lon="15.002107404600231"><ele>536.1999999999999</ele><time>2026-04-19T09:57:14.86Z</time></trkpt><trkpt lat="40.69340770548139" lon="15.002145729731481"><ele>532.8</ele><time>2026-04-19T09:57:15.86Z</time></trkpt><trkpt lat="40.69347105112529" lon="15.00222488721458"><ele>529.4</ele><time>2026-04-19T09:57:16.86Z</time></trkpt><trkpt lat="40.69351123298567" lon="15.002349445005343"><ele>526.0</ele><time>2026-04-19T09:57:17.86Z</time></trkpt><trkpt lat="40.6935845837933" lon="15.002486461966313"><ele>528.75</ele><time>2026-04-19T09:57:18.86Z</time></trkpt><trkpt lat="40.69368606631424" lon="15.00261603458486"><ele>531.5</ele><time>2026-04-19T09:57:19.86Z</time></trkpt><trkpt lat="40.69380102121036" lon="15.002740807584606"><ele>534.25</ele><time>2026-04-19T09:57:20.86Z</time></trkpt><trkpt lat="40.69389897360267" lon="15.002857203192288"><ele>537.0</ele><time>2026-04-19T09:57:21.86Z</time></trkpt><trkpt lat="40.69399955081434" lon="15.002968847530385"><ele>537.0</ele><time>2026-04-19T09:57:22.86Z</time></trkpt><trkpt lat="40.694113050047015" lon="15.003086690245059"><ele>537.0</ele><time>2026-04-19T09:57:23.86Z</time></trkpt><trkpt lat="40.694211913974016" lon="15.003203812345218"><ele>537.0</ele><time>2026-04-19T09:57:24.86Z</time></trkpt><trkpt lat="40.69429304317525" lon="15.003302092361377"><ele>537.0</ele><time>2026-04-19T09:57:25.86Z</time></trkpt><trkpt lat="40.69437226026693" lon="15.003340793052354"><ele>536.0</ele><time>2026-04-19T09:57:26.861Z</time></trkpt><trkpt lat="40.69447947505074" lon="15.003327201537013"><ele>535.0</ele><time>2026-04-19T09:57:27.86Z</time></trkpt><trkpt lat="40.69459693625497" lon="15.00322508243033"><ele>534.0</ele><time>2026-04-19T09:57:28.861Z</time></trkpt><trkpt lat="40.69467546718754" lon="15.00316746266584"><ele>533.0</ele><time>2026-04-19T09:57:29.861Z</time></trkpt><trkpt lat="40.69475412478332" lon="15.003232766984672"><ele>532.0</ele><time>2026-04-19T09:57:30.861Z</time></trkpt><trkpt lat="40.69482025391837" lon="15.003321578922833"><ele>536.5</ele><time>2026-04-19T09:57:31.861Z</time></trkpt><trkpt lat="40.69484742908104" lon="15.00342617348011"><ele>541.0</ele><time>2026-04-19T09:57:32.861Z</time></trkpt><trkpt lat="40.694801996380754" lon="15.003565195757336"><ele>545.5</ele><time>2026-04-19T09:57:33.861Z</time></trkpt><trkpt lat="40.69473305047497" lon="15.003745587695292"><ele>550.0</ele><time>2026-04-19T09:57:34.86Z</time></trkpt><trkpt lat="40.694680622891966" lon="15.00393006505562"><ele>550.0</ele><time>2026-04-19T09:57:35.86Z</time></trkpt><trkpt lat="40.69465974201038" lon="15.004144203600674"><ele>550.0</ele><time>2026-04-19T09:57:36.861Z</time></trkpt><trkpt lat="40.694669016656434" lon="15.00434344193433"><ele>550.0</ele><time>2026-04-19T09:57:37.86Z</time></trkpt><trkpt lat="40.69469739292082" lon="15.00450429637799"><ele>550.0</ele><time>2026-04-19T09:57:38.86Z</time></trkpt><trkpt lat="40.694706415101976" lon="15.004636371348075"><ele>552.2</ele><time>2026-04-19T09:57:39.86Z</time></trkpt><trkpt lat="40.69473101850527" lon="15.00473313729255"><ele>554.4</ele><time>2026-04-19T09:57:40.861Z</time></trkpt><trkpt lat="40.69478341540529" lon="15.004792580892454"><ele>556.6</ele><time>2026-04-19T09:57:41.861Z</time></trkpt><trkpt lat="40.694886283841605" lon="15.00479744073993"><ele>558.8</ele><time>2026-04-19T09:57:42.861Z</time></trkpt><trkpt lat="40.694989735196124" lon="15.004784372179094"><ele>561.0</ele><time>2026-04-19T09:57:43.861Z</time></trkpt><trkpt lat="40.69509495443377" lon="15.004804655274743"><ele>557.25</ele><time>2026-04-19T09:57:44.861Z</time></trkpt><trkpt lat="40.69528603272333" lon="15.00478590280531"><ele>553.5</ele><time>2026-04-19T09:57:45.861Z</time></trkpt><trkpt lat="40.695408367633156" lon="15.004812592296291"><ele>549.75</ele><time>2026-04-19T09:57:46.861Z</time></trkpt><trkpt lat="40.695526663274336" lon="15.00486068333089"><ele>546.0</ele><time>2026-04-19T09:57:47.861Z</time></trkpt><trkpt lat="40.69565642472392" lon="15.004946323715327"><ele>552.6666666666666</ele><time>2026-04-19T09:57:48.861Z</time></trkpt><trkpt lat="40.69576856082508" lon="15.005127926370518"><ele>559.3333333333333</ele><time>2026-04-19T09:57:49.861Z</time></trkpt><trkpt lat="40.6958407253466" lon="15.005290975858308"><ele>566.0</ele><time>2026-04-19T09:57:50.861Z</time></trkpt><trkpt lat="40.695903112154255" lon="15.005466687965782"><ele>566.0</ele><time>2026-04-19T09:57:51.861Z</time></trkpt><trkpt lat="40.69596105684698" lon="15.005652070416625"><ele>566.0</ele><time>2026-04-19T09:57:52.861Z</time></trkpt><trkpt lat="40.69600755105617" lon="15.005834802469915"><ele>566.0</ele><time>2026-04-19T09:57:53.861Z</time></trkpt><trkpt lat="40.696045812772574" lon="15.006035749353874"><ele>565.25</ele><time>2026-04-19T09:57:54.861Z</time></trkpt><trkpt lat="40.69608281316526" lon="15.006224094467303"><ele>564.5</ele><time>2026-04-19T09:57:55.861Z</time></trkpt><trkpt lat="40.69612032430896" lon="15.006399458072236"><ele>563.75</ele><time>2026-04-19T09:57:56.861Z</time></trkpt><trkpt lat="40.69616734828781" lon="15.00657337389883"><ele>563.0</ele><time>2026-04-19T09:57:57.861Z</time></trkpt><trkpt lat="40.69621447348404" lon="15.006733522181483"><ele>566.5</ele><time>2026-04-19T09:57:58.861Z</time></trkpt><trkpt lat="40.69626585931077" lon="15.006866422840599"><ele>570.0</ele><time>2026-04-19T09:57:59.861Z</time></trkpt><trkpt lat="40.696347281484464" lon="15.006997893057237"><ele>573.5</ele><time>2026-04-19T09:58:00.861Z</time></trkpt><trkpt lat="40.696417522005405" lon="15.007104989666756"><ele>577.0</ele><time>2026-04-19T09:58:01.861Z</time></trkpt><trkpt lat="40.69655600616337" lon="15.007109288130499"><ele>577.0</ele><time>2026-04-19T09:58:02.861Z</time></trkpt><trkpt lat="40.69667960818482" lon="15.007079988887757"><ele>577.0</ele><time>2026-04-19T09:58:03.861Z</time></trkpt><trkpt lat="40.696804678103035" lon="15.007113966098759"><ele>577.0</ele><time>2026-04-19T09:58:04.861Z</time></trkpt><trkpt lat="40.69685315823488" lon="15.00725033814783"><ele>577.0</ele><time>2026-04-19T09:58:06.861Z</time></trkpt><trkpt lat="40.69688729175036" lon="15.007359139129276"><ele>575.4</ele><time>2026-04-19T09:58:07.861Z</time></trkpt><trkpt lat="40.69692205477866" lon="15.007466382812312"><ele>573.8000000000001</ele><time>2026-04-19T09:58:08.861Z</time></trkpt><trkpt lat="40.696983943872915" lon="15.007599896533069"><ele>572.2</ele><time>2026-04-19T09:58:09.861Z</time></trkpt><trkpt lat="40.696990872022724" lon="15.007763842929581"><ele>570.6</ele><time>2026-04-19T09:58:10.861Z</time></trkpt><trkpt lat="40.69703002921446" lon="15.007893223805388"><ele>569.0</ele><time>2026-04-19T09:58:11.861Z</time></trkpt><trkpt lat="40.697077276081075" lon="15.008016216638008"><ele>572.8</ele><time>2026-04-19T09:58:12.861Z</time></trkpt><trkpt lat="40.69712619031393" lon="15.008121297124742"><ele>576.5999999999999</ele><time>2026-04-19T09:58:13.861Z</time></trkpt><trkpt lat="40.697210529082355" lon="15.008191091803237"><ele>580.4</ele><time>2026-04-19T09:58:14.861Z</time></trkpt><trkpt lat="40.6973003473464" lon="15.008237654243917"><ele>584.1999999999999</ele><time>2026-04-19T09:58:15.861Z</time></trkpt><trkpt lat="40.69743587529136" lon="15.00824583876545"><ele>588.0</ele><time>2026-04-19T09:58:16.861Z</time></trkpt><trkpt lat="40.69756331024005" lon="15.008193233347487"><ele>589.0</ele><time>2026-04-19T09:58:17.861Z</time></trkpt><trkpt lat="40.69775964731747" lon="15.008052368104694"><ele>590.0</ele><time>2026-04-19T09:58:18.861Z</time></trkpt><trkpt lat="40.69785597397555" lon="15.007906661062057"><ele>591.0</ele><time>2026-04-19T09:58:19.861Z</time></trkpt><trkpt lat="40.69794304607721" lon="15.007793845416405"><ele>591.0</ele><time>2026-04-19T09:58:20.861Z</time></trkpt><trkpt lat="40.69807627696386" lon="15.007776855337417"><ele>591.0</ele><time>2026-04-19T09:58:21.861Z</time></trkpt><trkpt lat="40.69822195330519" lon="15.007791327936276"><ele>591.0</ele><time>2026-04-19T09:58:22.861Z</time></trkpt><trkpt lat="40.698376564437105" lon="15.007816622002608"><ele>591.0</ele><time>2026-04-19T09:58:23.861Z</time></trkpt><trkpt lat="40.698519893534765" lon="15.007881826337393"><ele>589.6666666666666</ele><time>2026-04-19T09:58:24.861Z</time></trkpt><trkpt lat="40.698656751260636" lon="15.00796368795476"><ele>588.3333333333333</ele><time>2026-04-19T09:58:25.861Z</time></trkpt><trkpt lat="40.698786465663616" lon="15.008081861119175"><ele>587.0</ele><time>2026-04-19T09:58:26.861Z</time></trkpt><trkpt lat="40.698886545266035" lon="15.008233828962087"><ele>590.4</ele><time>2026-04-19T09:58:27.861Z</time></trkpt><trkpt lat="40.698975929274276" lon="15.008374260064652"><ele>593.8000000000001</ele><time>2026-04-19T09:58:28.861Z</time></trkpt><trkpt lat="40.69903116934933" lon="15.008502427857644"><ele>597.2</ele><time>2026-04-19T09:58:29.861Z</time></trkpt><trkpt lat="40.6990496632646" lon="15.00860036207067"><ele>600.6</ele><time>2026-04-19T09:58:30.861Z</time></trkpt><trkpt lat="40.6990450815959" lon="15.008688556371668"><ele>604.0</ele><time>2026-04-19T09:58:31.861Z</time></trkpt><trkpt lat="40.699031455458716" lon="15.009028187978465"><ele>604.0</ele><time>2026-04-19T09:58:32.861Z</time></trkpt><trkpt lat="40.69909529047613" lon="15.009105970784923"><ele>604.0</ele><time>2026-04-19T09:58:33.861Z</time></trkpt><trkpt lat="40.699333449590576" lon="15.008980943480335"><ele>604.0</ele><time>2026-04-19T09:58:35.861Z</time></trkpt><trkpt lat="40.699422632896116" lon="15.008996384943597"><ele>604.0</ele><time>2026-04-19T09:58:36.861Z</time></trkpt><trkpt lat="40.69948154164932" lon="15.008924872777838"><ele>603.6</ele><time>2026-04-19T09:58:37.861Z</time></trkpt><trkpt lat="40.699607819170204" lon="15.00889791879166"><ele>603.2</ele><time>2026-04-19T09:58:39.861Z</time></trkpt><trkpt lat="40.699702992149305" lon="15.008911483826866"><ele>602.8000000000001</ele><time>2026-04-19T09:58:40.861Z</time></trkpt><trkpt lat="40.69979822815218" lon="15.008917689319178"><ele>602.4</ele><time>2026-04-19T09:58:41.861Z</time></trkpt><trkpt lat="40.69990563179624" lon="15.008921550221759"><ele>602.0</ele><time>2026-04-19T09:58:42.861Z</time></trkpt><trkpt lat="40.700024111725014" lon="15.00892580930047"><ele>602.0</ele><time>2026-04-19T09:58:43.861Z</time></trkpt><trkpt lat="40.70015633926206" lon="15.008908362916777"><ele>602.0</ele><time>2026-04-19T09:58:44.861Z</time></trkpt><trkpt lat="40.70029562097169" lon="15.008913083852866"><ele>602.0</ele><time>2026-04-19T09:58:45.861Z</time></trkpt><trkpt lat="40.70040288365278" lon="15.008910233223673"><ele>602.0</ele><time>2026-04-19T09:58:46.861Z</time></trkpt><trkpt lat="40.70052808702085" lon="15.008878418989402"><ele>603.6666666666666</ele><time>2026-04-19T09:58:47.861Z</time></trkpt><trkpt lat="40.7006808648657" lon="15.008830193850997"><ele>605.3333333333334</ele><time>2026-04-19T09:58:48.861Z</time></trkpt><trkpt lat="40.70083383211263" lon="15.008801004158409"><ele>607.0</ele><time>2026-04-19T09:58:49.861Z</time></trkpt><trkpt lat="40.70099195392247" lon="15.008867705866953"><ele>605.25</ele><time>2026-04-19T09:58:50.861Z</time></trkpt><trkpt lat="40.70111947765973" lon="15.008973625144948"><ele>603.5</ele><time>2026-04-19T09:58:51.861Z</time></trkpt><trkpt lat="40.70112872332478" lon="15.009137460065578"><ele>601.75</ele><time>2026-04-19T09:58:52.861Z</time></trkpt><trkpt lat="40.70113507636208" lon="15.009294180096"><ele>600.0</ele><time>2026-04-19T09:58:53.861Z</time></trkpt><trkpt lat="40.701171430175634" lon="15.009449505812645"><ele>600.0</ele><time>2026-04-19T09:58:54.861Z</time></trkpt><trkpt lat="40.70119056771516" lon="15.00963355367427"><ele>600.0</ele><time>2026-04-19T09:58:55.861Z</time></trkpt><trkpt lat="40.70119719579362" lon="15.009800332105907"><ele>600.0</ele><time>2026-04-19T09:58:56.861Z</time></trkpt><trkpt lat="40.70125313271501" lon="15.010117898873533"><ele>603.8</ele><time>2026-04-19T09:58:57.861Z</time></trkpt><trkpt lat="40.70136312092823" lon="15.010220784688686"><ele>607.6</ele><time>2026-04-19T09:58:58.861Z</time></trkpt><trkpt lat="40.70142434204673" lon="15.01032622539039"><ele>611.4</ele><time>2026-04-19T09:58:59.861Z</time></trkpt><trkpt lat="40.70147244027994" lon="15.010448430167326"><ele>615.2</ele><time>2026-04-19T09:59:00.861Z</time></trkpt><trkpt lat="40.701519582226084" lon="15.010575580296381"><ele>619.0</ele><time>2026-04-19T09:59:01.861Z</time></trkpt><trkpt lat="40.70158205668275" lon="15.010741168672956"><ele>624.6666666666667</ele><time>2026-04-19T09:59:02.861Z</time></trkpt><trkpt lat="40.70167042925593" lon="15.010911748827962"><ele>630.3333333333334</ele><time>2026-04-19T09:59:03.861Z</time></trkpt><trkpt lat="40.70175699990829" lon="15.011107044889286"><ele>636.0</ele><time>2026-04-19T09:59:04.861Z</time></trkpt><trkpt lat="40.701844182131886" lon="15.011284211412416"><ele>627.0</ele><time>2026-04-19T09:59:05.861Z</time></trkpt><trkpt lat="40.701946901116436" lon="15.01139950515061"><ele>618.0</ele><time>2026-04-19T09:59:06.861Z</time></trkpt><trkpt lat="40.70207920009654" lon="15.011493160813503"><ele>609.0</ele><time>2026-04-19T09:59:07.861Z</time></trkpt><trkpt lat="40.70223086580237" lon="15.011600532333635"><ele>613.75</ele><time>2026-04-19T09:59:08.861Z</time></trkpt><trkpt lat="40.702339937185904" lon="15.01173078064331"><ele>618.5</ele><time>2026-04-19T09:59:09.861Z</time></trkpt><trkpt lat="40.70238190043752" lon="15.011870813728521"><ele>623.25</ele><time>2026-04-19T09:59:10.861Z</time></trkpt><trkpt lat="40.70239255191937" lon="15.012002506267413"><ele>628.0</ele><time>2026-04-19T09:59:11.861Z</time></trkpt><trkpt lat="40.702405950687655" lon="15.012170386670252"><ele>628.0</ele><time>2026-04-19T09:59:12.861Z</time></trkpt><trkpt lat="40.70243699154414" lon="15.012433396933893"><ele>628.0</ele><time>2026-04-19T09:59:13.861Z</time></trkpt><trkpt lat="40.702520095713176" lon="15.012680252096214"><ele>628.0</ele><time>2026-04-19T09:59:14.861Z</time></trkpt><trkpt lat="40.70260000874552" lon="15.01287110339008"><ele>624.5</ele><time>2026-04-19T09:59:15.861Z</time></trkpt><trkpt lat="40.70266546915964" lon="15.013052869854452"><ele>621.0</ele><time>2026-04-19T09:59:16.861Z</time></trkpt><trkpt lat="40.70270078849949" lon="15.013221725094684"><ele>617.5</ele><time>2026-04-19T09:59:17.861Z</time></trkpt><trkpt lat="40.702736788570654" lon="15.013416291896784"><ele>614.0</ele><time>2026-04-19T09:59:18.861Z</time></trkpt><trkpt lat="40.70277406406425" lon="15.013608571910476"><ele>614.0</ele><time>2026-04-19T09:59:19.861Z</time></trkpt><trkpt lat="40.70282351038836" lon="15.013819844707808"><ele>614.0</ele><time>2026-04-19T09:59:20.861Z</time></trkpt><trkpt lat="40.70285911808429" lon="15.014009821343238"><ele>614.0</ele><time>2026-04-19T09:59:21.861Z</time></trkpt><trkpt lat="40.70286741904882" lon="15.014167214349307"><ele>614.0</ele><time>2026-04-19T09:59:22.861Z</time></trkpt><trkpt lat="40.702844916431765" lon="15.014330326393686"><ele>616.25</ele><time>2026-04-19T09:59:23.861Z</time></trkpt><trkpt lat="40.70281878893211" lon="15.014507383594735"><ele>618.5</ele><time>2026-04-19T09:59:24.861Z</time></trkpt><trkpt lat="40.70279932446096" lon="15.014699920018117"><ele>620.75</ele><time>2026-04-19T09:59:25.861Z</time></trkpt><trkpt lat="40.70278745339445" lon="15.014851391403711"><ele>623.0</ele><time>2026-04-19T09:59:26.861Z</time></trkpt><trkpt lat="40.702769949487504" lon="15.015014474355446"><ele>634.4</ele><time>2026-04-19T09:59:27.861Z</time></trkpt><trkpt lat="40.702743461627236" lon="15.015143869112011"><ele>645.8</ele><time>2026-04-19T09:59:28.861Z</time></trkpt><trkpt lat="40.70269664727351" lon="15.01525579202967"><ele>657.2</ele><time>2026-04-19T09:59:29.861Z</time></trkpt><trkpt lat="40.702628063084745" lon="15.015380174640999"><ele>668.6</ele><time>2026-04-19T09:59:30.861Z</time></trkpt><trkpt lat="40.70258870438609" lon="15.015515141299801"><ele>680.0</ele><time>2026-04-19T09:59:31.861Z</time></trkpt><trkpt lat="40.70262379766724" lon="15.015708544716023"><ele>680.0</ele><time>2026-04-19T09:59:32.861Z</time></trkpt><trkpt lat="40.702723045419674" lon="15.015810991448001"><ele>680.0</ele><time>2026-04-19T09:59:33.861Z</time></trkpt><trkpt lat="40.702804276903294" lon="15.015911685529199"><ele>680.0</ele><time>2026-04-19T09:59:34.861Z</time></trkpt><trkpt lat="40.70289443961688" lon="15.016016249140725"><ele>680.0</ele><time>2026-04-19T09:59:35.861Z</time></trkpt><trkpt lat="40.70295794063413" lon="15.016163264821786"><ele>670.0</ele><time>2026-04-19T09:59:36.861Z</time></trkpt><trkpt lat="40.70307088705184" lon="15.016294660396344"><ele>660.0</ele><time>2026-04-19T09:59:37.861Z</time></trkpt><trkpt lat="40.703195715386215" lon="15.016434563716627"><ele>650.0</ele><time>2026-04-19T09:59:38.861Z</time></trkpt><trkpt lat="40.70333076734727" lon="15.016567516582642"><ele>653.6666666666666</ele><time>2026-04-19T09:59:39.861Z</time></trkpt><trkpt lat="40.703459364151776" lon="15.01669518618024"><ele>657.3333333333334</ele><time>2026-04-19T09:59:40.861Z</time></trkpt><trkpt lat="40.70353397311319" lon="15.016871763453995"><ele>661.0</ele><time>2026-04-19T09:59:41.861Z</time></trkpt><trkpt lat="40.7035609334587" lon="15.017096400017252"><ele>661.5</ele><time>2026-04-19T09:59:42.861Z</time></trkpt><trkpt lat="40.70362278435312" lon="15.017302849367177"><ele>662.0</ele><time>2026-04-19T09:59:43.861Z</time></trkpt><trkpt lat="40.703675031327" lon="15.017485601388069"><ele>662.5</ele><time>2026-04-19T09:59:44.861Z</time></trkpt><trkpt lat="40.70372743781842" lon="15.017643699926973"><ele>663.0</ele><time>2026-04-19T09:59:45.861Z</time></trkpt><trkpt lat="40.703817833399555" lon="15.01777934637528"><ele>663.6666666666666</ele><time>2026-04-19T09:59:46.86Z</time></trkpt><trkpt lat="40.70393109398131" lon="15.017905743404919"><ele>664.3333333333333</ele><time>2026-04-19T09:59:47.86Z</time></trkpt><trkpt lat="40.70405848069619" lon="15.0180170225851"><ele>665.0</ele><time>2026-04-19T09:59:48.86Z</time></trkpt><trkpt lat="40.7041831357109" lon="15.01812959698042"><ele>665.0</ele><time>2026-04-19T09:59:49.86Z</time></trkpt><trkpt lat="40.70432605314853" lon="15.018243501235284"><ele>665.0</ele><time>2026-04-19T09:59:50.86Z</time></trkpt><trkpt lat="40.70446871139386" lon="15.018360362441687"><ele>665.0</ele><time>2026-04-19T09:59:51.86Z</time></trkpt><trkpt lat="40.70460092677113" lon="15.018503228797531"><ele>665.3333333333333</ele><time>2026-04-19T09:59:52.86Z</time></trkpt><trkpt lat="40.70472801114196" lon="15.018647348425558"><ele>665.6666666666666</ele><time>2026-04-19T09:59:53.86Z</time></trkpt><trkpt lat="40.70482061484003" lon="15.018813171954779"><ele>666.0</ele><time>2026-04-19T09:59:54.86Z</time></trkpt><trkpt lat="40.70490693186718" lon="15.018995496827458"><ele>666.0</ele><time>2026-04-19T09:59:55.86Z</time></trkpt><trkpt lat="40.7049874783501" lon="15.019186703388986"><ele>666.0</ele><time>2026-04-19T09:59:56.86Z</time></trkpt><trkpt lat="40.70505926746277" lon="15.019383832038201"><ele>666.0</ele><time>2026-04-19T09:59:57.86Z</time></trkpt><trkpt lat="40.70512552416173" lon="15.019560424639277"><ele>666.0</ele><time>2026-04-19T09:59:58.86Z</time></trkpt><trkpt lat="40.70519480324594" lon="15.019697185153372"><ele>666.0</ele><time>2026-04-19T09:59:59.86Z</time></trkpt><trkpt lat="40.7052431944225" lon="15.019818810256673"><ele>666.0</ele><time>2026-04-19T10:00:00.86Z</time></trkpt><trkpt lat="40.70529412563738" lon="15.019905547832508"><ele>666.0</ele><time>2026-04-19T10:00:01.86Z</time></trkpt><trkpt lat="40.705340884451616" lon="15.019986582857843"><ele>666.0</ele><time>2026-04-19T10:00:02.86Z</time></trkpt><trkpt lat="40.705403550867494" lon="15.020086100862171"><ele>667.8333333333334</ele><time>2026-04-19T10:00:04.86Z</time></trkpt><trkpt lat="40.7054600602783" lon="15.020160222006242"><ele>669.6666666666666</ele><time>2026-04-19T10:00:06.86Z</time></trkpt><trkpt lat="40.70553067672048" lon="15.020236844710775"><ele>671.5</ele><time>2026-04-19T10:00:09.86Z</time></trkpt><trkpt lat="40.70559451319467" lon="15.020301815211706"><ele>673.3333333333333</ele><time>2026-04-19T10:00:12.86Z</time></trkpt><trkpt lat="40.705666114117044" lon="15.020342604542364"><ele>675.1666666666666</ele><time>2026-04-19T10:00:15.86Z</time></trkpt><trkpt lat="40.705730889565196" lon="15.020367019915646"><ele>677.0</ele><time>2026-04-19T10:00:17.86Z</time></trkpt><trkpt lat="40.70586201150162" lon="15.020386262902692"><ele>677.0</ele><time>2026-04-19T10:00:19.86Z</time></trkpt><trkpt lat="40.70594593539339" lon="15.020396638083334"><ele>677.0</ele><time>2026-04-19T10:00:20.86Z</time></trkpt><trkpt lat="40.706026997866466" lon="15.020405959505668"><ele>677.0</ele><time>2026-04-19T10:00:21.86Z</time></trkpt><trkpt lat="40.70608615460381" lon="15.020439147362488"><ele>677.0</ele><time>2026-04-19T10:00:22.86Z</time></trkpt><trkpt lat="40.70619166808964" lon="15.020507937671667"><ele>677.0</ele><time>2026-04-19T10:00:24.86Z</time></trkpt><trkpt lat="40.70628620213853" lon="15.020410536827434"><ele>679.0</ele><time>2026-04-19T10:00:25.86Z</time></trkpt><trkpt lat="40.7063564364662" lon="15.02042681655135"><ele>681.0</ele><time>2026-04-19T10:00:26.86Z</time></trkpt><trkpt lat="40.706421989568454" lon="15.020458122553256"><ele>683.0</ele><time>2026-04-19T10:00:27.86Z</time></trkpt><trkpt lat="40.706535628075194" lon="15.020517021754326"><ele>685.0</ele><time>2026-04-19T10:00:29.86Z</time></trkpt><trkpt lat="40.706624681957145" lon="15.020558025950038"><ele>687.0</ele><time>2026-04-19T10:00:31.86Z</time></trkpt><trkpt lat="40.706678337019945" lon="15.020479998516969"><ele>689.0</ele><time>2026-04-19T10:00:33.86Z</time></trkpt><trkpt lat="40.70669572855213" lon="15.020396315115352"><ele>689.0</ele><time>2026-04-19T10:00:34.86Z</time></trkpt><trkpt lat="40.706627868853694" lon="15.020257996178627"><ele>689.0</ele><time>2026-04-19T10:00:36.86Z</time></trkpt><trkpt lat="40.706560982716205" lon="15.020230027491165"><ele>689.0</ele><time>2026-04-19T10:00:37.86Z</time></trkpt><trkpt lat="40.70648645714202" lon="15.02021410973359"><ele>689.0</ele><time>2026-04-19T10:00:38.86Z</time></trkpt><trkpt lat="40.70642750894618" lon="15.020154566450797"><ele>689.0</ele><time>2026-04-19T10:00:39.86Z</time></trkpt><trkpt lat="40.706360331881704" lon="15.020098203426633"><ele>689.0</ele><time>2026-04-19T10:00:41.86Z</time></trkpt><trkpt lat="40.70637967560301" lon="15.019981145184321"><ele>689.0</ele><time>2026-04-19T10:00:43.86Z</time></trkpt><trkpt lat="40.70643462453862" lon="15.01992828397356"><ele>689.0</ele><time>2026-04-19T10:00:45.86Z</time></trkpt><trkpt lat="40.706556021958875" lon="15.02008089534426"><ele>689.0</ele><time>2026-04-19T10:00:47.86Z</time></trkpt><trkpt lat="40.70667008661029" lon="15.020138943841019"><ele>689.0</ele><time>2026-04-19T10:00:49.86Z</time></trkpt><trkpt lat="40.706738736372486" lon="15.020122581510904"><ele>689.0</ele><time>2026-04-19T10:00:50.86Z</time></trkpt><trkpt lat="40.706816524489966" lon="15.02011849643989"><ele>689.0</ele><time>2026-04-19T10:00:51.86Z</time></trkpt><trkpt lat="40.70690347693281" lon="15.020102891203871"><ele>689.0</ele><time>2026-04-19T10:00:52.86Z</time></trkpt><trkpt lat="40.706986635921155" lon="15.020117021518246"><ele>689.0</ele><time>2026-04-19T10:00:53.86Z</time></trkpt><trkpt lat="40.70706703576196" lon="15.020123406416984"><ele>689.0</ele><time>2026-04-19T10:00:54.86Z</time></trkpt><trkpt lat="40.70714098313646" lon="15.020125494878926"><ele>689.0</ele><time>2026-04-19T10:00:55.86Z</time></trkpt><trkpt lat="40.707225558421655" lon="15.02012267682879"><ele>689.0</ele><time>2026-04-19T10:00:56.86Z</time></trkpt><trkpt lat="40.70729499656078" lon="15.020102284985795"><ele>690.5</ele><time>2026-04-19T10:00:57.86Z</time></trkpt><trkpt lat="40.70737693450669" lon="15.020097681339406"><ele>692.0</ele><time>2026-04-19T10:00:58.86Z</time></trkpt><trkpt lat="40.707476263144834" lon="15.020065846809583"><ele>693.5</ele><time>2026-04-19T10:00:59.86Z</time></trkpt><trkpt lat="40.707553368673175" lon="15.020047366057874"><ele>695.0</ele><time>2026-04-19T10:01:00.86Z</time></trkpt><trkpt lat="40.707619705147366" lon="15.020040935712343"><ele>696.5</ele><time>2026-04-19T10:01:01.86Z</time></trkpt><trkpt lat="40.70768053722757" lon="15.020112618126264"><ele>698.0</ele><time>2026-04-19T10:01:02.86Z</time></trkpt><trkpt lat="40.70775805554798" lon="15.020128463302163"><ele>699.3333333333333</ele><time>2026-04-19T10:01:03.86Z</time></trkpt><trkpt lat="40.70784284132532" lon="15.020122039390667"><ele>700.6666666666666</ele><time>2026-04-19T10:01:04.86Z</time></trkpt><trkpt lat="40.707922942980645" lon="15.020132239547701"><ele>702.0</ele><time>2026-04-19T10:01:05.86Z</time></trkpt><trkpt lat="40.70799920162924" lon="15.020144915855026"><ele>703.3333333333334</ele><time>2026-04-19T10:01:06.86Z</time></trkpt><trkpt lat="40.708069954330355" lon="15.020122994823721"><ele>704.6666666666667</ele><time>2026-04-19T10:01:07.86Z</time></trkpt><trkpt lat="40.70813638145105" lon="15.020046623960903"><ele>706.0</ele><time>2026-04-19T10:01:08.86Z</time></trkpt><trkpt lat="40.70821122740235" lon="15.01998527806704"><ele>705.8333333333334</ele><time>2026-04-19T10:01:09.86Z</time></trkpt><trkpt lat="40.70828850416558" lon="15.019930943930161"><ele>705.6666666666667</ele><time>2026-04-19T10:01:10.86Z</time></trkpt><trkpt lat="40.70835966378947" lon="15.01994330864688"><ele>705.5</ele><time>2026-04-19T10:01:11.86Z</time></trkpt><trkpt lat="40.7084404947838" lon="15.019960950858403"><ele>705.3333333333334</ele><time>2026-04-19T10:01:12.86Z</time></trkpt><trkpt lat="40.7085200086093" lon="15.019943483357277"><ele>705.1666666666666</ele><time>2026-04-19T10:01:13.86Z</time></trkpt><trkpt lat="40.708603991000004" lon="15.019911429809438"><ele>705.0</ele><time>2026-04-19T10:01:14.86Z</time></trkpt><trkpt lat="40.70867326275917" lon="15.01987834452566"><ele>707.4</ele><time>2026-04-19T10:01:15.86Z</time></trkpt><trkpt lat="40.708750626654655" lon="15.019826538752522"><ele>709.8</ele><time>2026-04-19T10:01:16.86Z</time></trkpt><trkpt lat="40.708833927852005" lon="15.01974333301048"><ele>712.2</ele><time>2026-04-19T10:01:17.86Z</time></trkpt><trkpt lat="40.70890039590296" lon="15.019710866276094"><ele>714.6</ele><time>2026-04-19T10:01:18.86Z</time></trkpt><trkpt lat="40.709030244378305" lon="15.019764332200184"><ele>717.0</ele><time>2026-04-19T10:01:20.86Z</time></trkpt><trkpt lat="40.709123668653994" lon="15.019793950622663"><ele>717.0</ele><time>2026-04-19T10:01:21.86Z</time></trkpt><trkpt lat="40.70921416574123" lon="15.019804496732391"><ele>717.0</ele><time>2026-04-19T10:01:22.86Z</time></trkpt><trkpt lat="40.709294988646874" lon="15.019854696530194"><ele>717.0</ele><time>2026-04-19T10:01:23.86Z</time></trkpt><trkpt lat="40.70937848793154" lon="15.019862857867814"><ele>717.0</ele><time>2026-04-19T10:01:24.86Z</time></trkpt><trkpt lat="40.70946078124887" lon="15.019883769718936"><ele>717.0</ele><time>2026-04-19T10:01:25.86Z</time></trkpt><trkpt lat="40.70955111562695" lon="15.019898852507001"><ele>717.0</ele><time>2026-04-19T10:01:26.86Z</time></trkpt><trkpt lat="40.70964068039657" lon="15.019908264904386"><ele>718.2</ele><time>2026-04-19T10:01:27.86Z</time></trkpt><trkpt lat="40.70972173399404" lon="15.019902426281396"><ele>719.4000000000001</ele><time>2026-04-19T10:01:28.86Z</time></trkpt><trkpt lat="40.709812395948006" lon="15.019889615152023"><ele>720.5999999999999</ele><time>2026-04-19T10:01:29.86Z</time></trkpt><trkpt lat="40.70990744426546" lon="15.019889493142028"><ele>721.8</ele><time>2026-04-19T10:01:30.86Z</time></trkpt><trkpt lat="40.710000553575" lon="15.019857640855804"><ele>723.0</ele><time>2026-04-19T10:01:31.86Z</time></trkpt><trkpt lat="40.71009522031849" lon="15.019845720690816"><ele>723.0</ele><time>2026-04-19T10:01:32.86Z</time></trkpt><trkpt lat="40.71019667830099" lon="15.01982463301765"><ele>723.0</ele><time>2026-04-19T10:01:33.86Z</time></trkpt><trkpt lat="40.71034219536849" lon="15.019798188654642"><ele>723.0</ele><time>2026-04-19T10:01:34.86Z</time></trkpt><trkpt lat="40.71046598249796" lon="15.019776279810166"><ele>723.0</ele><time>2026-04-19T10:01:35.86Z</time></trkpt><trkpt lat="40.71058471382041" lon="15.019755019919975"><ele>723.8333333333334</ele><time>2026-04-19T10:01:36.86Z</time></trkpt><trkpt lat="40.71068475753961" lon="15.019738922226525"><ele>724.6666666666666</ele><time>2026-04-19T10:01:37.86Z</time></trkpt><trkpt lat="40.71077423213151" lon="15.0197210957556"><ele>725.5</ele><time>2026-04-19T10:01:38.86Z</time></trkpt><trkpt lat="40.710854009291786" lon="15.019707764905066"><ele>726.3333333333333</ele><time>2026-04-19T10:01:39.861Z</time></trkpt><trkpt lat="40.710934919731194" lon="15.019675350589601"><ele>727.1666666666666</ele><time>2026-04-19T10:01:40.862Z</time></trkpt><trkpt lat="40.711002771635314" lon="15.019610436752822"><ele>728.0</ele><time>2026-04-19T10:01:41.862Z</time></trkpt><trkpt lat="40.71106739769588" lon="15.01949307757279"><ele>728.8</ele><time>2026-04-19T10:01:42.862Z</time></trkpt><trkpt lat="40.7111363965982" lon="15.01939073691815"><ele>729.5999999999999</ele><time>2026-04-19T10:01:43.861Z</time></trkpt><trkpt lat="40.71120846694271" lon="15.019311431464223"><ele>730.4000000000001</ele><time>2026-04-19T10:01:44.861Z</time></trkpt><trkpt lat="40.71129764492139" lon="15.019243941864872"><ele>731.2</ele><time>2026-04-19T10:01:45.862Z</time></trkpt><trkpt lat="40.711377727349074" lon="15.019184084238438"><ele>732.0</ele><time>2026-04-19T10:01:46.861Z</time></trkpt><trkpt lat="40.71144974107985" lon="15.019156394461803"><ele>732.1666666666666</ele><time>2026-04-19T10:01:47.861Z</time></trkpt><trkpt lat="40.71151675062651" lon="15.019143445341776"><ele>732.3333333333334</ele><time>2026-04-19T10:01:48.862Z</time></trkpt><trkpt lat="40.71159259999514" lon="15.019120373669573"><ele>732.5</ele><time>2026-04-19T10:01:49.861Z</time></trkpt><trkpt lat="40.71167766500888" lon="15.019093155574373"><ele>732.6666666666667</ele><time>2026-04-19T10:01:50.861Z</time></trkpt><trkpt lat="40.71176785141991" lon="15.019079515031269"><ele>732.8333333333334</ele><time>2026-04-19T10:01:51.862Z</time></trkpt><trkpt lat="40.711854144691316" lon="15.019075633243034"><ele>733.0</ele><time>2026-04-19T10:01:52.862Z</time></trkpt><trkpt lat="40.71195642397644" lon="15.019081096106811"><ele>734.0</ele><time>2026-04-19T10:01:53.862Z</time></trkpt><trkpt lat="40.71206268867548" lon="15.019086059875555"><ele>735.0</ele><time>2026-04-19T10:01:54.862Z</time></trkpt><trkpt lat="40.712167135205185" lon="15.019074308442674"><ele>736.0</ele><time>2026-04-19T10:01:55.862Z</time></trkpt><trkpt lat="40.712259385354415" lon="15.019061748866468"><ele>737.0</ele><time>2026-04-19T10:01:56.862Z</time></trkpt><trkpt lat="40.71234811686697" lon="15.019054667004607"><ele>738.0</ele><time>2026-04-19T10:01:57.862Z</time></trkpt><trkpt lat="40.71243354506836" lon="15.01903952300806"><ele>738.0</ele><time>2026-04-19T10:01:58.862Z</time></trkpt><trkpt lat="40.71251246416617" lon="15.019014273683796"><ele>738.0</ele><time>2026-04-19T10:01:59.862Z</time></trkpt><trkpt lat="40.712588792152445" lon="15.01898484964606"><ele>738.0</ele><time>2026-04-19T10:02:00.862Z</time></trkpt><trkpt lat="40.71269984238289" lon="15.018949315823829"><ele>738.0</ele><time>2026-04-19T10:02:01.862Z</time></trkpt><trkpt lat="40.712801480439104" lon="15.018918781460263"><ele>738.0</ele><time>2026-04-19T10:02:02.862Z</time></trkpt><trkpt lat="40.71290178057984" lon="15.018923042627083"><ele>739.2</ele><time>2026-04-19T10:02:03.862Z</time></trkpt><trkpt lat="40.71301861204556" lon="15.01889465276913"><ele>740.4</ele><time>2026-04-19T10:02:04.862Z</time></trkpt><trkpt lat="40.71310774250855" lon="15.018882397837594"><ele>741.6</ele><time>2026-04-19T10:02:05.862Z</time></trkpt><trkpt lat="40.713205458706" lon="15.018875679667389"><ele>742.8000000000001</ele><time>2026-04-19T10:02:06.862Z</time></trkpt><trkpt lat="40.71328332807383" lon="15.018871614416973"><ele>744.0</ele><time>2026-04-19T10:02:07.862Z</time></trkpt><trkpt lat="40.71337098506731" lon="15.018853501628966"><ele>744.0</ele><time>2026-04-19T10:02:08.862Z</time></trkpt><trkpt lat="40.71345299664867" lon="15.018837539105581"><ele>744.0</ele><time>2026-04-19T10:02:09.862Z</time></trkpt><trkpt lat="40.71354603328532" lon="15.018827443494748"><ele>744.0</ele><time>2026-04-19T10:02:10.862Z</time></trkpt><trkpt lat="40.71364849511496" lon="15.018812696439985"><ele>744.0</ele><time>2026-04-19T10:02:11.862Z</time></trkpt><trkpt lat="40.71373895432845" lon="15.018810148764736"><ele>744.0</ele><time>2026-04-19T10:02:12.862Z</time></trkpt><trkpt lat="40.71382891858885" lon="15.018809291885301"><ele>745.5</ele><time>2026-04-19T10:02:13.862Z</time></trkpt><trkpt lat="40.71392080319474" lon="15.018817357384087"><ele>747.0</ele><time>2026-04-19T10:02:14.862Z</time></trkpt><trkpt lat="40.7140340925471" lon="15.01882162241644"><ele>748.5</ele><time>2026-04-19T10:02:15.862Z</time></trkpt><trkpt lat="40.71416349724399" lon="15.018832622151466"><ele>750.0</ele><time>2026-04-19T10:02:16.862Z</time></trkpt><trkpt lat="40.714278039745366" lon="15.018814782720293"><ele>750.0</ele><time>2026-04-19T10:02:17.862Z</time></trkpt><trkpt lat="40.71438773309166" lon="15.018801491853159"><ele>750.0</ele><time>2026-04-19T10:02:18.862Z</time></trkpt><trkpt lat="40.714495380020445" lon="15.01877587127767"><ele>750.0</ele><time>2026-04-19T10:02:19.862Z</time></trkpt><trkpt lat="40.71460303358394" lon="15.018720378091514"><ele>750.0</ele><time>2026-04-19T10:02:20.862Z</time></trkpt><trkpt lat="40.714711429068956" lon="15.018662542471962"><ele>750.5</ele><time>2026-04-19T10:02:21.862Z</time></trkpt><trkpt lat="40.71482583835836" lon="15.018627240954979"><ele>751.0</ele><time>2026-04-19T10:02:22.862Z</time></trkpt><trkpt lat="40.71494345440345" lon="15.018602967920584"><ele>751.5</ele><time>2026-04-19T10:02:23.862Z</time></trkpt><trkpt lat="40.71504745342863" lon="15.018583526608891"><ele>752.0</ele><time>2026-04-19T10:02:24.862Z</time></trkpt><trkpt lat="40.715156119403645" lon="15.01856676506474"><ele>752.6666666666666</ele><time>2026-04-19T10:02:25.862Z</time></trkpt><trkpt lat="40.71526815956928" lon="15.018559880306984"><ele>753.3333333333333</ele><time>2026-04-19T10:02:26.862Z</time></trkpt><trkpt lat="40.715362041034574" lon="15.018558736977603"><ele>754.0</ele><time>2026-04-19T10:02:27.862Z</time></trkpt><trkpt lat="40.715438571454385" lon="15.018554225686822"><ele>754.6666666666666</ele><time>2026-04-19T10:02:28.862Z</time></trkpt><trkpt lat="40.71551573216108" lon="15.018564266351172"><ele>755.3333333333334</ele><time>2026-04-19T10:02:29.862Z</time></trkpt><trkpt lat="40.715598258319005" lon="15.018588290858984"><ele>756.0</ele><time>2026-04-19T10:02:30.862Z</time></trkpt><trkpt lat="40.71570109108637" lon="15.018611291731915"><ele>756.0</ele><time>2026-04-19T10:02:31.862Z</time></trkpt><trkpt lat="40.71579154791477" lon="15.018638343644863"><ele>756.0</ele><time>2026-04-19T10:02:32.862Z</time></trkpt><trkpt lat="40.71588065618205" lon="15.018665204319474"><ele>756.0</ele><time>2026-04-19T10:02:33.862Z</time></trkpt><trkpt lat="40.71596418726825" lon="15.018694381417403"><ele>756.0</ele><time>2026-04-19T10:02:34.862Z</time></trkpt><trkpt lat="40.71603309913237" lon="15.018741318061986"><ele>756.0</ele><time>2026-04-19T10:02:35.862Z</time></trkpt><trkpt lat="40.71608933687291" lon="15.018815997256818"><ele>756.0</ele><time>2026-04-19T10:02:36.862Z</time></trkpt><trkpt lat="40.71613070224865" lon="15.018919294704087"><ele>756.0</ele><time>2026-04-19T10:02:37.862Z</time></trkpt><trkpt lat="40.71615721800276" lon="15.019029551843426"><ele>756.0</ele><time>2026-04-19T10:02:38.862Z</time></trkpt><trkpt lat="40.7161878563856" lon="15.019115813901996"><ele>756.0</ele><time>2026-04-19T10:02:39.862Z</time></trkpt><trkpt lat="40.71627339510119" lon="15.0192150841706"><ele>756.0</ele><time>2026-04-19T10:02:41.862Z</time></trkpt><trkpt lat="40.716334676767886" lon="15.019236697093154"><ele>756.0</ele><time>2026-04-19T10:02:42.862Z</time></trkpt><trkpt lat="40.71640315966192" lon="15.019268688928838"><ele>756.0</ele><time>2026-04-19T10:02:43.862Z</time></trkpt><trkpt lat="40.716489259046" lon="15.019300918831545"><ele>756.1999999999999</ele><time>2026-04-19T10:02:44.862Z</time></trkpt><trkpt lat="40.71657827537638" lon="15.019341677209184"><ele>756.4</ele><time>2026-04-19T10:02:45.862Z</time></trkpt><trkpt lat="40.71666503976071" lon="15.019384473432515"><ele>756.6</ele><time>2026-04-19T10:02:46.862Z</time></trkpt><trkpt lat="40.71675549543106" lon="15.01945001370053"><ele>756.8</ele><time>2026-04-19T10:02:47.862Z</time></trkpt><trkpt lat="40.71684797089092" lon="15.019516254089801"><ele>757.0</ele><time>2026-04-19T10:02:48.862Z</time></trkpt><trkpt lat="40.71693669304768" lon="15.019566765299714"><ele>758.1666666666667</ele><time>2026-04-19T10:02:49.862Z</time></trkpt><trkpt lat="40.717021653447" lon="15.01960919227971"><ele>759.3333333333334</ele><time>2026-04-19T10:02:50.862Z</time></trkpt><trkpt lat="40.717094639168856" lon="15.01964236269841"><ele>760.5</ele><time>2026-04-19T10:02:51.862Z</time></trkpt><trkpt lat="40.7171727753976" lon="15.019665800865013"><ele>761.6666666666666</ele><time>2026-04-19T10:02:52.862Z</time></trkpt><trkpt lat="40.71723219390151" lon="15.019724461456828"><ele>762.8333333333333</ele><time>2026-04-19T10:02:53.862Z</time></trkpt><trkpt lat="40.71728731807501" lon="15.019867546025681"><ele>764.0</ele><time>2026-04-19T10:02:55.862Z</time></trkpt><trkpt lat="40.71730627635117" lon="15.019987137753555"><ele>764.0</ele><time>2026-04-19T10:02:56.862Z</time></trkpt><trkpt lat="40.717315689342804" lon="15.02011544841131"><ele>764.0</ele><time>2026-04-19T10:02:57.862Z</time></trkpt><trkpt lat="40.717330809785956" lon="15.020246468711232"><ele>764.0</ele><time>2026-04-19T10:02:58.862Z</time></trkpt><trkpt lat="40.71733840002498" lon="15.020369707518581"><ele>764.0</ele><time>2026-04-19T10:02:59.862Z</time></trkpt><trkpt lat="40.717336579759" lon="15.020479102389974"><ele>764.0</ele><time>2026-04-19T10:03:00.862Z</time></trkpt><trkpt lat="40.717325695763684" lon="15.02057483975783"><ele>764.0</ele><time>2026-04-19T10:03:01.862Z</time></trkpt><trkpt lat="40.71732798023405" lon="15.020681630073362"><ele>764.0</ele><time>2026-04-19T10:03:02.862Z</time></trkpt><trkpt lat="40.71734175661543" lon="15.020776025013982"><ele>764.0</ele><time>2026-04-19T10:03:03.862Z</time></trkpt><trkpt lat="40.717407361965286" lon="15.020936951961351"><ele>764.0</ele><time>2026-04-19T10:03:05.862Z</time></trkpt><trkpt lat="40.71748827248517" lon="15.02104614207445"><ele>764.0</ele><time>2026-04-19T10:03:06.862Z</time></trkpt><trkpt lat="40.71756061592568" lon="15.021129019097271"><ele>764.0</ele><time>2026-04-19T10:03:07.862Z</time></trkpt><trkpt lat="40.717636918867555" lon="15.021232780000846"><ele>764.3333333333333</ele><time>2026-04-19T10:03:08.862Z</time></trkpt><trkpt lat="40.717687338601166" lon="15.021341638257086"><ele>764.6666666666666</ele><time>2026-04-19T10:03:09.862Z</time></trkpt><trkpt lat="40.71773606146112" lon="15.02144900565538"><ele>765.0</ele><time>2026-04-19T10:03:10.862Z</time></trkpt><trkpt lat="40.71777173515068" lon="15.021543677137313"><ele>765.3333333333334</ele><time>2026-04-19T10:03:11.862Z</time></trkpt><trkpt lat="40.7178234130245" lon="15.021638429853583"><ele>765.6666666666667</ele><time>2026-04-19T10:03:12.862Z</time></trkpt><trkpt lat="40.71782974779024" lon="15.021737358567261"><ele>766.0</ele><time>2026-04-19T10:03:13.862Z</time></trkpt><trkpt lat="40.71783343094376" lon="15.02182155886713"><ele>768.4</ele><time>2026-04-19T10:03:14.862Z</time></trkpt><trkpt lat="40.7178842525064" lon="15.021931573035426"><ele>770.8</ele><time>2026-04-19T10:03:16.862Z</time></trkpt><trkpt lat="40.71800135304481" lon="15.021973657855279"><ele>773.1999999999999</ele><time>2026-04-19T10:03:18.862Z</time></trkpt><trkpt lat="40.71808603075625" lon="15.022003074421876"><ele>775.5999999999999</ele><time>2026-04-19T10:03:19.862Z</time></trkpt><trkpt lat="40.71818062562953" lon="15.022032146389385"><ele>778.0</ele><time>2026-04-19T10:03:20.862Z</time></trkpt><trkpt lat="40.718262663981676" lon="15.022075772300319"><ele>777.9999999999999</ele><time>2026-04-19T10:03:21.862Z</time></trkpt><trkpt lat="40.71833543704594" lon="15.022121530089315"><ele>778.0</ele><time>2026-04-19T10:03:22.862Z</time></trkpt><trkpt lat="40.71840298264378" lon="15.022166738767387"><ele>778.0</ele><time>2026-04-19T10:03:23.862Z</time></trkpt><trkpt lat="40.71846198828926" lon="15.022217012624939"><ele>778.0</ele><time>2026-04-19T10:03:24.862Z</time></trkpt><trkpt lat="40.71857577116465" lon="15.022315512830026"><ele>777.9999999999999</ele><time>2026-04-19T10:03:26.862Z</time></trkpt><trkpt lat="40.71863368447143" lon="15.02240084220322"><ele>778.0</ele><time>2026-04-19T10:03:27.862Z</time></trkpt><trkpt lat="40.71869363455613" lon="15.022477915220685"><ele>780.4999999999999</ele><time>2026-04-19T10:03:28.862Z</time></trkpt><trkpt lat="40.7187624769048" lon="15.022570864629538"><ele>783.0</ele><time>2026-04-19T10:03:29.862Z</time></trkpt><trkpt lat="40.718822522190386" lon="15.022651062392477"><ele>785.5</ele><time>2026-04-19T10:03:30.862Z</time></trkpt><trkpt lat="40.718898122917544" lon="15.022732229074075"><ele>788.0</ele><time>2026-04-19T10:03:32.862Z</time></trkpt><trkpt lat="40.71895549681908" lon="15.022773890464578"><ele>790.4999999999999</ele><time>2026-04-19T10:03:45.861Z</time></trkpt><trkpt lat="40.719014779466335" lon="15.022865535014025"><ele>793.0</ele><time>2026-04-19T10:03:48.862Z</time></trkpt><trkpt lat="40.719047539746676" lon="15.022948991178701"><ele>793.0</ele><time>2026-04-19T10:03:50.862Z</time></trkpt><trkpt lat="40.71911232941403" lon="15.02301281184868"><ele>793.0</ele><time>2026-04-19T10:03:52.862Z</time></trkpt><trkpt lat="40.719200340507875" lon="15.023069362068252"><ele>793.0</ele><time>2026-04-19T10:03:54.862Z</time></trkpt><trkpt lat="40.71927975985996" lon="15.023143087523202"><ele>793.0</ele><time>2026-04-19T10:03:56.862Z</time></trkpt><trkpt lat="40.71935369746807" lon="15.02320205102009"><ele>793.0</ele><time>2026-04-19T10:03:58.862Z</time></trkpt><trkpt lat="40.71944075522166" lon="15.023246874227612"><ele>796.4</ele><time>2026-04-19T10:04:00.862Z</time></trkpt><trkpt lat="40.71952663180232" lon="15.023315122108086"><ele>799.8</ele><time>2026-04-19T10:04:02.862Z</time></trkpt><trkpt lat="40.71960300969091" lon="15.02333428626586"><ele>803.2</ele><time>2026-04-19T10:04:04.862Z</time></trkpt><trkpt lat="40.71968771015511" lon="15.023342282432292"><ele>806.6</ele><time>2026-04-19T10:04:06.862Z</time></trkpt><trkpt lat="40.71977971985296" lon="15.023303561209483"><ele>810.0</ele><time>2026-04-19T10:04:08.862Z</time></trkpt><trkpt lat="40.71987426190846" lon="15.023256758659274"><ele>810.0</ele><time>2026-04-19T10:04:10.862Z</time></trkpt><trkpt lat="40.71998840930554" lon="15.02317511288962"><ele>810.0</ele><time>2026-04-19T10:04:12.862Z</time></trkpt><trkpt lat="40.72008533245925" lon="15.023099845911343"><ele>810.0</ele><time>2026-04-19T10:04:14.862Z</time></trkpt><trkpt lat="40.72015200939493" lon="15.023093649070034"><ele>810.0</ele><time>2026-04-19T10:04:20.862Z</time></trkpt><trkpt lat="40.72021665515325" lon="15.023100232974553"><ele>810.0</ele><time>2026-04-19T10:04:29.862Z</time></trkpt><trkpt lat="40.72029120647763" lon="15.023199813776305"><ele>812.2</ele><time>2026-04-19T10:04:32.862Z</time></trkpt><trkpt lat="40.72035282617983" lon="15.023299325721329"><ele>814.4</ele><time>2026-04-19T10:04:34.862Z</time></trkpt><trkpt lat="40.72042465874116" lon="15.023331119526995"><ele>816.5999999999999</ele><time>2026-04-19T10:04:37.862Z</time></trkpt><trkpt lat="40.720481469193686" lon="15.023290277203849"><ele>818.8</ele><time>2026-04-19T10:04:40.862Z</time></trkpt><trkpt lat="40.72052097263635" lon="15.023180469652907"><ele>821.0</ele><time>2026-04-19T10:04:42.862Z</time></trkpt><trkpt lat="40.72057596662036" lon="15.023015998084603"><ele>822.5999999999999</ele><time>2026-04-19T10:04:44.862Z</time></trkpt><trkpt lat="40.72060678415425" lon="15.022896663836647"><ele>824.2</ele><time>2026-04-19T10:04:45.862Z</time></trkpt><trkpt lat="40.72064944535438" lon="15.022784249629483"><ele>825.8</ele><time>2026-04-19T10:04:46.862Z</time></trkpt><trkpt lat="40.72070657355753" lon="15.022677093927541"><ele>827.4000000000001</ele><time>2026-04-19T10:04:47.862Z</time></trkpt><trkpt lat="40.72077303740359" lon="15.022596734750696"><ele>829.0</ele><time>2026-04-19T10:04:48.862Z</time></trkpt><trkpt lat="40.720893557048036" lon="15.022517864537674"><ele>829.6</ele><time>2026-04-19T10:04:50.862Z</time></trkpt><trkpt lat="40.72097839410959" lon="15.022476107198873"><ele>830.2</ele><time>2026-04-19T10:04:51.862Z</time></trkpt><trkpt lat="40.721064636978234" lon="15.02245169026315"><ele>830.8000000000001</ele><time>2026-04-19T10:04:52.862Z</time></trkpt><trkpt lat="40.7211709230665" lon="15.022420785770485"><ele>831.4000000000001</ele><time>2026-04-19T10:04:53.862Z</time></trkpt><trkpt lat="40.7212606670532" lon="15.022401755288184"><ele>832.0</ele><time>2026-04-19T10:04:54.862Z</time></trkpt><trkpt lat="40.72134653518593" lon="15.022393889514431"><ele>832.0</ele><time>2026-04-19T10:04:55.862Z</time></trkpt><trkpt lat="40.72143222050052" lon="15.022383706150217"><ele>832.0</ele><time>2026-04-19T10:04:56.862Z</time></trkpt><trkpt lat="40.72152806985387" lon="15.022346939653968"><ele>832.0</ele><time>2026-04-19T10:04:57.862Z</time></trkpt><trkpt lat="40.72161268451341" lon="15.022299338310495"><ele>832.0</ele><time>2026-04-19T10:04:58.862Z</time></trkpt><trkpt lat="40.72173201387917" lon="15.0222148823713"><ele>832.0</ele><time>2026-04-19T10:04:59.862Z</time></trkpt><trkpt lat="40.72184070029978" lon="15.022165368827578"><ele>835.6</ele><time>2026-04-19T10:05:00.862Z</time></trkpt><trkpt lat="40.72192113579547" lon="15.022146239033964"><ele>839.2</ele><time>2026-04-19T10:05:01.862Z</time></trkpt><trkpt lat="40.722011218325235" lon="15.022124306911653"><ele>842.8</ele><time>2026-04-19T10:05:02.862Z</time></trkpt><trkpt lat="40.7221099417827" lon="15.02213534898873"><ele>846.4</ele><time>2026-04-19T10:05:03.862Z</time></trkpt><trkpt lat="40.72221686191675" lon="15.022134537275791"><ele>850.0</ele><time>2026-04-19T10:05:04.862Z</time></trkpt><trkpt lat="40.722297604174436" lon="15.022115147902426"><ele>850.0</ele><time>2026-04-19T10:05:05.862Z</time></trkpt><trkpt lat="40.72238214512487" lon="15.022000072232219"><ele>850.0</ele><time>2026-04-19T10:05:07.862Z</time></trkpt><trkpt lat="40.72242310423481" lon="15.021927337735738"><ele>850.0</ele><time>2026-04-19T10:05:08.862Z</time></trkpt><trkpt lat="40.72247114887679" lon="15.021844158802661"><ele>850.0</ele><time>2026-04-19T10:05:09.862Z</time></trkpt><trkpt lat="40.72257048116855" lon="15.021803843192137"><ele>850.0</ele><time>2026-04-19T10:05:11.862Z</time></trkpt><trkpt lat="40.72269292642824" lon="15.021781330414269"><ele>850.4</ele><time>2026-04-19T10:05:13.862Z</time></trkpt><trkpt lat="40.72277665328718" lon="15.021767075493674"><ele>850.8</ele><time>2026-04-19T10:05:14.862Z</time></trkpt><trkpt lat="40.72286128558423" lon="15.021743590435566"><ele>851.2</ele><time>2026-04-19T10:05:15.862Z</time></trkpt><trkpt lat="40.722948605331766" lon="15.021690188662502"><ele>851.6</ele><time>2026-04-19T10:05:17.862Z</time></trkpt><trkpt lat="40.72302292365759" lon="15.021601155977002"><ele>852.0</ele><time>2026-04-19T10:05:20.862Z</time></trkpt><trkpt lat="40.72308941138978" lon="15.021531789736262"><ele>854.6</ele><time>2026-04-19T10:05:22.862Z</time></trkpt><trkpt lat="40.72316420148171" lon="15.021429315208325"><ele>857.2</ele><time>2026-04-19T10:05:25.862Z</time></trkpt><trkpt lat="40.72325371139495" lon="15.021349602406008"><ele>859.8</ele><time>2026-04-19T10:05:27.862Z</time></trkpt><trkpt lat="40.72334218628737" lon="15.021360858228535"><ele>862.4</ele><time>2026-04-19T10:05:29.862Z</time></trkpt><trkpt lat="40.723419350259654" lon="15.021353791065915"><ele>865.0</ele><time>2026-04-19T10:05:31.862Z</time></trkpt><trkpt lat="40.723438994592804" lon="15.021245443582862"><ele>865.0</ele><time>2026-04-19T10:05:33.862Z</time></trkpt><trkpt lat="40.72341777343564" lon="15.021140603348185"><ele>865.0</ele><time>2026-04-19T10:05:35.862Z</time></trkpt><trkpt lat="40.72335352022784" lon="15.021027328826143"><ele>865.0</ele><time>2026-04-19T10:05:37.862Z</time></trkpt><trkpt lat="40.72334210421579" lon="15.020884156472064"><ele>865.0</ele><time>2026-04-19T10:05:39.862Z</time></trkpt><trkpt lat="40.72337778257054" lon="15.020799876360124"><ele>865.0</ele><time>2026-04-19T10:05:40.862Z</time></trkpt><trkpt lat="40.72343972811302" lon="15.020708742817586"><ele>865.5</ele><time>2026-04-19T10:05:41.862Z</time></trkpt><trkpt lat="40.723504389103965" lon="15.02056810088976"><ele>866.0</ele><time>2026-04-19T10:05:42.862Z</time></trkpt><trkpt lat="40.72358712795603" lon="15.02045978039467"><ele>866.5</ele><time>2026-04-19T10:05:43.862Z</time></trkpt><trkpt lat="40.72369039710202" lon="15.020372230117994"><ele>867.0</ele><time>2026-04-19T10:05:44.862Z</time></trkpt><trkpt lat="40.72379002731933" lon="15.020286563100155"><ele>867.0</ele><time>2026-04-19T10:05:45.862Z</time></trkpt><trkpt lat="40.72389656371538" lon="15.020227020099256"><ele>867.0</ele><time>2026-04-19T10:05:46.862Z</time></trkpt><trkpt lat="40.72398455728581" lon="15.020187409498263"><ele>867.0</ele><time>2026-04-19T10:05:47.862Z</time></trkpt><trkpt lat="40.724064133353686" lon="15.020163693736652"><ele>867.0</ele><time>2026-04-19T10:05:48.862Z</time></trkpt><trkpt lat="40.72414225419322" lon="15.02009595838861"><ele>867.0</ele><time>2026-04-19T10:05:49.862Z</time></trkpt><trkpt lat="40.724228044062805" lon="15.020015096486489"><ele>864.6</ele><time>2026-04-19T10:05:50.862Z</time></trkpt><trkpt lat="40.72430029674302" lon="15.019914989892053"><ele>862.2</ele><time>2026-04-19T10:05:51.998Z</time></trkpt><trkpt lat="40.72434699770455" lon="15.019835872799531"><ele>859.8</ele><time>2026-04-19T10:05:52.998Z</time></trkpt><trkpt lat="40.724409584604636" lon="15.0198053853003"><ele>857.4</ele><time>2026-04-19T10:05:53.998Z</time></trkpt><trkpt lat="40.724505723130605" lon="15.019828050503902"><ele>855.0</ele><time>2026-04-19T10:05:54.999Z</time></trkpt><trkpt lat="40.72461661549338" lon="15.019825571272873"><ele>855.0</ele><time>2026-04-19T10:05:55.998Z</time></trkpt><trkpt lat="40.72472475435512" lon="15.019778218130122"><ele>855.0</ele><time>2026-04-19T10:05:56.998Z</time></trkpt><trkpt lat="40.724844622920905" lon="15.019737475113397"><ele>855.0</ele><time>2026-04-19T10:05:57.999Z</time></trkpt><trkpt lat="40.724944054709354" lon="15.019715037162424"><ele>855.0</ele><time>2026-04-19T10:05:58.999Z</time></trkpt><trkpt lat="40.72503561451154" lon="15.019714237181734"><ele>855.0</ele><time>2026-04-19T10:05:59.999Z</time></trkpt><trkpt lat="40.72510184001256" lon="15.019695824622174"><ele>855.0</ele><time>2026-04-19T10:06:00.999Z</time></trkpt><trkpt lat="40.725199884462796" lon="15.019717793708873"><ele>855.0</ele><time>2026-04-19T10:06:02.999Z</time></trkpt><trkpt lat="40.725302189369685" lon="15.019788805125398"><ele>855.0</ele><time>2026-04-19T10:06:04.999Z</time></trkpt><trkpt lat="40.7253703322742" lon="15.019817059653398"><ele>855.0</ele><time>2026-04-19T10:06:05.999Z</time></trkpt><trkpt lat="40.725455382212594" lon="15.019839943998043"><ele>855.0</ele><time>2026-04-19T10:06:06.999Z</time></trkpt><trkpt lat="40.72553636119209" lon="15.019827936676137"><ele>855.0</ele><time>2026-04-19T10:06:07.999Z</time></trkpt><trkpt lat="40.72560680085626" lon="15.019809643169268"><ele>855.0</ele><time>2026-04-19T10:06:08.999Z</time></trkpt><trkpt lat="40.72566868552122" lon="15.019769191869887"><ele>855.0</ele><time>2026-04-19T10:06:09.999Z</time></trkpt><trkpt lat="40.72572103217959" lon="15.019719232680691"><ele>855.0</ele><time>2026-04-19T10:06:10.999Z</time></trkpt><trkpt lat="40.725836910357735" lon="15.01969972407795"><ele>855.0</ele><time>2026-04-19T10:06:12.999Z</time></trkpt><trkpt lat="40.725899539674685" lon="15.01973084900385"><ele>855.0</ele><time>2026-04-19T10:06:13.999Z</time></trkpt><trkpt lat="40.725955617684114" lon="15.019780140320083"><ele>855.0</ele><time>2026-04-19T10:06:15Z</time></trkpt><trkpt lat="40.7260162292208" lon="15.019846868839243"><ele>855.0</ele><time>2026-04-19T10:06:16Z</time></trkpt><trkpt lat="40.72607445674409" lon="15.019913918556666"><ele>855.0</ele><time>2026-04-19T10:06:17Z</time></trkpt><trkpt lat="40.72614137638879" lon="15.019980072231705"><ele>855.0</ele><time>2026-04-19T10:06:18Z</time></trkpt><trkpt lat="40.72623200641104" lon="15.019994756315395"><ele>855.0</ele><time>2026-04-19T10:06:19Z</time></trkpt><trkpt lat="40.72631170988596" lon="15.019979049332617"><ele>855.0</ele><time>2026-04-19T10:06:20Z</time></trkpt><trkpt lat="40.72641795202102" lon="15.019969750345162"><ele>856.8</ele><time>2026-04-19T10:06:21Z</time></trkpt><trkpt lat="40.72651650354058" lon="15.01997075924982"><ele>858.6</ele><time>2026-04-19T10:06:22Z</time></trkpt><trkpt lat="40.726616401417715" lon="15.019963813048028"><ele>860.4000000000001</ele><time>2026-04-19T10:06:23Z</time></trkpt><trkpt lat="40.726700346165124" lon="15.019972447574494"><ele>862.2</ele><time>2026-04-19T10:06:24Z</time></trkpt><trkpt lat="40.72676882537372" lon="15.019944702676835"><ele>864.0</ele><time>2026-04-19T10:06:25Z</time></trkpt><trkpt lat="40.72687400125695" lon="15.019850938698495"><ele>866.0</ele><time>2026-04-19T10:06:27Z</time></trkpt><trkpt lat="40.72692008455378" lon="15.01975607995218"><ele>868.0000000000001</ele><time>2026-04-19T10:06:28Z</time></trkpt><trkpt lat="40.726940871018705" lon="15.019644140554611"><ele>870.0000000000001</ele><time>2026-04-19T10:06:29Z</time></trkpt><trkpt lat="40.72698363794768" lon="15.01948829976359"><ele>872.0</ele><time>2026-04-19T10:06:30Z</time></trkpt><trkpt lat="40.726996702691885" lon="15.019332813776883"><ele>874.0</ele><time>2026-04-19T10:06:31Z</time></trkpt><trkpt lat="40.72700700674335" lon="15.019183905308461"><ele>873.9999999999999</ele><time>2026-04-19T10:06:32Z</time></trkpt><trkpt lat="40.72701044627054" lon="15.019071695199264"><ele>874.0</ele><time>2026-04-19T10:06:33Z</time></trkpt><trkpt lat="40.72704280563046" lon="15.018961239712203"><ele>874.0</ele><time>2026-04-19T10:06:35Z</time></trkpt><trkpt lat="40.72714757241053" lon="15.01899075276208"><ele>874.0</ele><time>2026-04-19T10:06:37Z</time></trkpt><trkpt lat="40.72721440440632" lon="15.019026422679243"><ele>873.9999999999999</ele><time>2026-04-19T10:06:38Z</time></trkpt><trkpt lat="40.727277712196226" lon="15.019104528699462"><ele>874.0</ele><time>2026-04-19T10:06:39Z</time></trkpt><trkpt lat="40.727322797176235" lon="15.019177451926561"><ele>874.0</ele><time>2026-04-19T10:06:40Z</time></trkpt><trkpt lat="40.72736776423994" lon="15.019279580927359"><ele>874.0000000000001</ele><time>2026-04-19T10:06:41Z</time></trkpt><trkpt lat="40.72740999748563" lon="15.019384083567301"><ele>874.0000000000001</ele><time>2026-04-19T10:06:42Z</time></trkpt><trkpt lat="40.72751112546536" lon="15.019478836096095"><ele>874.0</ele><time>2026-04-19T10:06:44Z</time></trkpt><trkpt lat="40.7275736051923" lon="15.019497062258143"><ele>874.0</ele><time>2026-04-19T10:06:45Z</time></trkpt><trkpt lat="40.727610231194284" lon="15.019600425123915"><ele>874.0</ele><time>2026-04-19T10:06:47Z</time></trkpt><trkpt lat="40.72763871713151" lon="15.019777309594334"><ele>874.0000000000001</ele><time>2026-04-19T10:06:49.001Z</time></trkpt><trkpt lat="40.72767520289069" lon="15.019901424724333"><ele>874.0000000000001</ele><time>2026-04-19T10:06:50.001Z</time></trkpt><trkpt lat="40.727659491562136" lon="15.02005531997215"><ele>874.0</ele><time>2026-04-19T10:06:51.001Z</time></trkpt><trkpt lat="40.727692719199645" lon="15.020134989906094"><ele>874.0</ele><time>2026-04-19T10:06:52.001Z</time></trkpt><trkpt lat="40.72773490927319" lon="15.02021381860091"><ele>874.2</ele><time>2026-04-19T10:06:53.001Z</time></trkpt><trkpt lat="40.72780303619035" lon="15.0203062390896"><ele>874.4000000000001</ele><time>2026-04-19T10:06:54.001Z</time></trkpt><trkpt lat="40.727873268324025" lon="15.02039491418649"><ele>874.6</ele><time>2026-04-19T10:06:55.001Z</time></trkpt><trkpt lat="40.727961252259796" lon="15.020457122312742"><ele>874.8</ele><time>2026-04-19T10:06:56.001Z</time></trkpt><trkpt lat="40.72804408392512" lon="15.020486227964362"><ele>875.0</ele><time>2026-04-19T10:06:57.001Z</time></trkpt><trkpt lat="40.728126800706264" lon="15.020481433172252"><ele>875.0000000000001</ele><time>2026-04-19T10:06:58.001Z</time></trkpt><trkpt lat="40.72821308821314" lon="15.02045124998643"><ele>875.0</ele><time>2026-04-19T10:06:59.001Z</time></trkpt><trkpt lat="40.72829035956887" lon="15.02040768854339"><ele>875.0</ele><time>2026-04-19T10:07:00.001Z</time></trkpt><trkpt lat="40.72836491653849" lon="15.020369304083893"><ele>875.0</ele><time>2026-04-19T10:07:01.001Z</time></trkpt><trkpt lat="40.728432129567665" lon="15.020360700399472"><ele>875.0000000000001</ele><time>2026-04-19T10:07:02.001Z</time></trkpt><trkpt lat="40.72853219076768" lon="15.020391043011301"><ele>875.0</ele><time>2026-04-19T10:07:04.001Z</time></trkpt><trkpt lat="40.72858743449273" lon="15.020473202441508"><ele>875.1666666666667</ele><time>2026-04-19T10:07:05.001Z</time></trkpt><trkpt lat="40.72864798680278" lon="15.020526453668943"><ele>875.3333333333334</ele><time>2026-04-19T10:07:06.001Z</time></trkpt><trkpt lat="40.72872677279436" lon="15.020571721896898"><ele>875.5</ele><time>2026-04-19T10:07:07.001Z</time></trkpt><trkpt lat="40.72882058034879" lon="15.020562123913555"><ele>875.6666666666667</ele><time>2026-04-19T10:07:08.001Z</time></trkpt><trkpt lat="40.72889892446706" lon="15.0205247989745"><ele>875.8333333333334</ele><time>2026-04-19T10:07:09.001Z</time></trkpt><trkpt lat="40.728984194299" lon="15.020477757241602"><ele>876.0</ele><time>2026-04-19T10:07:10.001Z</time></trkpt><trkpt lat="40.729078953704764" lon="15.020419979698676"><ele>876.0</ele><time>2026-04-19T10:07:11.001Z</time></trkpt><trkpt lat="40.72915164130372" lon="15.02033790046114"><ele>875.9999999999999</ele><time>2026-04-19T10:07:12.001Z</time></trkpt><trkpt lat="40.729192503331085" lon="15.020221594132789"><ele>875.9999999999999</ele><time>2026-04-19T10:07:13.001Z</time></trkpt><trkpt lat="40.729233541938264" lon="15.020084112733013"><ele>876.0</ele><time>2026-04-19T10:07:14.001Z</time></trkpt><trkpt lat="40.729263604476124" lon="15.019968765715118"><ele>876.0</ele><time>2026-04-19T10:07:15.001Z</time></trkpt><trkpt lat="40.72927858781722" lon="15.019880938553854"><ele>876.5</ele><time>2026-04-19T10:07:16.001Z</time></trkpt><trkpt lat="40.72935861357717" lon="15.019824171102757"><ele>877.0</ele><time>2026-04-19T10:07:18.001Z</time></trkpt><trkpt lat="40.72947298482347" lon="15.019878063401286"><ele>877.5</ele><time>2026-04-19T10:07:20.001Z</time></trkpt><trkpt lat="40.72953285544643" lon="15.019950448772036"><ele>878.0</ele><time>2026-04-19T10:07:21.001Z</time></trkpt><trkpt lat="40.72957888351032" lon="15.02002668384252"><ele>878.5</ele><time>2026-04-19T10:07:22.001Z</time></trkpt><trkpt lat="40.729616497289086" lon="15.020107471741456"><ele>879.0</ele><time>2026-04-19T10:07:23.001Z</time></trkpt><trkpt lat="40.72965152649957" lon="15.02020401475443"><ele>879.0</ele><time>2026-04-19T10:07:24.001Z</time></trkpt><trkpt lat="40.72966431030151" lon="15.020306249499807"><ele>879.0</ele><time>2026-04-19T10:07:25.001Z</time></trkpt><trkpt lat="40.72974709593184" lon="15.020391506652432"><ele>879.0</ele><time>2026-04-19T10:07:27.001Z</time></trkpt><trkpt lat="40.72982642302079" lon="15.020376819269723"><ele>879.0</ele><time>2026-04-19T10:07:29.001Z</time></trkpt><trkpt lat="40.729920050407564" lon="15.020332141602614"><ele>879.0</ele><time>2026-04-19T10:07:31.002Z</time></trkpt><trkpt lat="40.72996010157317" lon="15.020265022978894"><ele>879.0</ele><time>2026-04-19T10:07:33.002Z</time></trkpt><trkpt lat="40.73001140748568" lon="15.020154422841962"><ele>879.0</ele><time>2026-04-19T10:07:41.002Z</time></trkpt><trkpt lat="40.73005251114448" lon="15.020082309726845"><ele>879.0</ele><time>2026-04-19T10:07:42.002Z</time></trkpt><trkpt lat="40.73009019294976" lon="15.020010279116562"><ele>879.0</ele><time>2026-04-19T10:07:43.002Z</time></trkpt><trkpt lat="40.73017472344372" lon="15.019912538202286"><ele>879.0</ele><time>2026-04-19T10:07:45.002Z</time></trkpt><trkpt lat="40.73024243222754" lon="15.019847729863429"><ele>879.0</ele><time>2026-04-19T10:07:47.002Z</time></trkpt><trkpt lat="40.73035211050803" lon="15.019811002370092"><ele>879.0</ele><time>2026-04-19T10:07:49.002Z</time></trkpt><trkpt lat="40.73042191306373" lon="15.01979181080269"><ele>876.5</ele><time>2026-04-19T10:07:50.002Z</time></trkpt><trkpt lat="40.730489564170384" lon="15.019752637854372"><ele>874.0</ele><time>2026-04-19T10:07:51.002Z</time></trkpt><trkpt lat="40.73056838259417" lon="15.019715814612361"><ele>871.5</ele><time>2026-04-19T10:07:52.002Z</time></trkpt><trkpt lat="40.73062587768979" lon="15.019654413683641"><ele>869.0</ele><time>2026-04-19T10:07:53.002Z</time></trkpt><trkpt lat="40.73068698986673" lon="15.019578639442638"><ele>866.5</ele><time>2026-04-19T10:07:54.002Z</time></trkpt><trkpt lat="40.730735163084915" lon="15.019519041482274"><ele>864.0</ele><time>2026-04-19T10:07:55.002Z</time></trkpt><trkpt lat="40.73079618541939" lon="15.019424164745695"><ele>864.0</ele><time>2026-04-19T10:07:56.002Z</time></trkpt><trkpt lat="40.730888571839955" lon="15.0193430576887"><ele>864.0</ele><time>2026-04-19T10:07:57.002Z</time></trkpt><trkpt lat="40.730976122960385" lon="15.019273746246046"><ele>864.0</ele><time>2026-04-19T10:07:58.003Z</time></trkpt><trkpt lat="40.73104807214194" lon="15.019214111831179"><ele>864.0</ele><time>2026-04-19T10:07:59.003Z</time></trkpt><trkpt lat="40.73111632584322" lon="15.019210379668605"><ele>864.0</ele><time>2026-04-19T10:08:00.003Z</time></trkpt><trkpt lat="40.73118497891652" lon="15.019201588221398"><ele>864.0</ele><time>2026-04-19T10:08:01.003Z</time></trkpt><trkpt lat="40.731262467577686" lon="15.019148146878155"><ele>862.0</ele><time>2026-04-19T10:08:02.002Z</time></trkpt><trkpt lat="40.73134172834029" lon="15.019087053328215"><ele>860.0000000000001</ele><time>2026-04-19T10:08:03.002Z</time></trkpt><trkpt lat="40.73141969804906" lon="15.018994522347809"><ele>858.0000000000001</ele><time>2026-04-19T10:08:04.002Z</time></trkpt><trkpt lat="40.73149972363604" lon="15.018910566902154"><ele>856.0</ele><time>2026-04-19T10:08:05.002Z</time></trkpt><trkpt lat="40.731585687419184" lon="15.018849185659983"><ele>854.0</ele><time>2026-04-19T10:08:06.002Z</time></trkpt><trkpt lat="40.731663669152034" lon="15.018779968497533"><ele>854.0</ele><time>2026-04-19T10:08:07.002Z</time></trkpt><trkpt lat="40.731725858912505" lon="15.018722658812697"><ele>854.0000000000001</ele><time>2026-04-19T10:08:08.002Z</time></trkpt><trkpt lat="40.73178663417588" lon="15.018673915899928"><ele>854.0000000000001</ele><time>2026-04-19T10:08:09.002Z</time></trkpt><trkpt lat="40.73188202970808" lon="15.018558842505191"><ele>854.0</ele><time>2026-04-19T10:08:11.001Z</time></trkpt><trkpt lat="40.73197530945947" lon="15.018496611998202"><ele>854.0</ele><time>2026-04-19T10:08:13.001Z</time></trkpt><trkpt lat="40.73204684883027" lon="15.01846136241198"><ele>854.8000000000001</ele><time>2026-04-19T10:08:14.001Z</time></trkpt><trkpt lat="40.73214823699618" lon="15.018425605715665"><ele>855.6000000000001</ele><time>2026-04-19T10:08:15.001Z</time></trkpt><trkpt lat="40.732241302932" lon="15.018397462596702"><ele>856.4</ele><time>2026-04-19T10:08:16.001Z</time></trkpt><trkpt lat="40.73233626873801" lon="15.01837318944789"><ele>857.2</ele><time>2026-04-19T10:08:17.001Z</time></trkpt><trkpt lat="40.7324195710048" lon="15.01834094774157"><ele>858.0</ele><time>2026-04-19T10:08:18.001Z</time></trkpt><trkpt lat="40.73249872322496" lon="15.018297974557665"><ele>855.8</ele><time>2026-04-19T10:08:19.001Z</time></trkpt><trkpt lat="40.73259623200904" lon="15.018275257112347"><ele>853.5999999999999</ele><time>2026-04-19T10:08:20.001Z</time></trkpt><trkpt lat="40.73268055809625" lon="15.018246918569133"><ele>851.4000000000001</ele><time>2026-04-19T10:08:21.001Z</time></trkpt><trkpt lat="40.732768068390314" lon="15.018237435851463"><ele>849.2</ele><time>2026-04-19T10:08:22.001Z</time></trkpt><trkpt lat="40.732863621747875" lon="15.018226022632904"><ele>847.0</ele><time>2026-04-19T10:08:23.001Z</time></trkpt><trkpt lat="40.732973194932235" lon="15.018214449022667"><ele>847.0</ele><time>2026-04-19T10:08:24.001Z</time></trkpt><trkpt lat="40.73307876206357" lon="15.018209078157382"><ele>847.0</ele><time>2026-04-19T10:08:25.001Z</time></trkpt><trkpt lat="40.73319132237742" lon="15.018195651432308"><ele>847.0</ele><time>2026-04-19T10:08:26.001Z</time></trkpt><trkpt lat="40.733316542122644" lon="15.018172503767515"><ele>847.0</ele><time>2026-04-19T10:08:27.001Z</time></trkpt><trkpt lat="40.7334475833996" lon="15.018162442530741"><ele>847.0</ele><time>2026-04-19T10:08:28.001Z</time></trkpt><trkpt lat="40.733540786470776" lon="15.018168195738099"><ele>847.0</ele><time>2026-04-19T10:08:29.001Z</time></trkpt><trkpt lat="40.73366874687718" lon="15.018175304828612"><ele>847.0</ele><time>2026-04-19T10:08:31.001Z</time></trkpt><trkpt lat="40.73374733037915" lon="15.018176229332578"><ele>847.0</ele><time>2026-04-19T10:08:32.001Z</time></trkpt><trkpt lat="40.73382401706592" lon="15.018156200062608"><ele>847.0</ele><time>2026-04-19T10:08:33.001Z</time></trkpt><trkpt lat="40.73391659024263" lon="15.018087681103419"><ele>847.8333333333333</ele><time>2026-04-19T10:08:34.001Z</time></trkpt><trkpt lat="40.73397501777752" lon="15.018022706202116"><ele>848.6666666666666</ele><time>2026-04-19T10:08:35.001Z</time></trkpt><trkpt lat="40.734017439307735" lon="15.017913386518812"><ele>849.5</ele><time>2026-04-19T10:08:36.001Z</time></trkpt><trkpt lat="40.73404884811935" lon="15.017794283063154"><ele>850.3333333333333</ele><time>2026-04-19T10:08:37.001Z</time></trkpt><trkpt lat="40.73409050066497" lon="15.017701828408644"><ele>851.1666666666666</ele><time>2026-04-19T10:08:38.001Z</time></trkpt><trkpt lat="40.73413295776716" lon="15.017636647656717"><ele>852.0</ele><time>2026-04-19T10:08:39.001Z</time></trkpt><trkpt lat="40.73418926579875" lon="15.017582184742977"><ele>852.0</ele><time>2026-04-19T10:08:40.001Z</time></trkpt><trkpt lat="40.7342588429211" lon="15.01754721513435"><ele>852.0</ele><time>2026-04-19T10:08:41.001Z</time></trkpt><trkpt lat="40.73433701765233" lon="15.017517169642623"><ele>852.0</ele><time>2026-04-19T10:08:42.001Z</time></trkpt><trkpt lat="40.734456408724256" lon="15.01750768439405"><ele>852.0</ele><time>2026-04-19T10:08:43.001Z</time></trkpt><trkpt lat="40.73459050729349" lon="15.01751890006319"><ele>852.0</ele><time>2026-04-19T10:08:44.001Z</time></trkpt><trkpt lat="40.73470251142827" lon="15.017489041260852"><ele>852.2</ele><time>2026-04-19T10:08:45.001Z</time></trkpt><trkpt lat="40.73479286781047" lon="15.017441348437762"><ele>852.4000000000001</ele><time>2026-04-19T10:08:46.001Z</time></trkpt><trkpt lat="40.734866522642875" lon="15.017372986637715"><ele>852.5999999999999</ele><time>2026-04-19T10:08:47.001Z</time></trkpt><trkpt lat="40.73493667491776" lon="15.017286699719378"><ele>852.8</ele><time>2026-04-19T10:08:48.001Z</time></trkpt><trkpt lat="40.73502201400161" lon="15.01719077869823"><ele>853.0</ele><time>2026-04-19T10:08:49.001Z</time></trkpt><trkpt lat="40.73513057569607" lon="15.017116322710292"><ele>855.5</ele><time>2026-04-19T10:08:50.001Z</time></trkpt><trkpt lat="40.73524512578081" lon="15.017075764416283"><ele>858.0</ele><time>2026-04-19T10:08:51.001Z</time></trkpt><trkpt lat="40.735354895827314" lon="15.017051819244337"><ele>860.5</ele><time>2026-04-19T10:08:52.001Z</time></trkpt><trkpt lat="40.735479391681956" lon="15.017021621950606"><ele>863.0</ele><time>2026-04-19T10:08:53.001Z</time></trkpt><trkpt lat="40.73558661240663" lon="15.016982400939984"><ele>863.0</ele><time>2026-04-19T10:08:54.001Z</time></trkpt><trkpt lat="40.73568405939487" lon="15.016947866608174"><ele>863.0</ele><time>2026-04-19T10:08:55.001Z</time></trkpt><trkpt lat="40.73577854325173" lon="15.016870908001376"><ele>863.0</ele><time>2026-04-19T10:08:56.001Z</time></trkpt><trkpt lat="40.735882166410846" lon="15.01679131904222"><ele>863.0</ele><time>2026-04-19T10:08:57.001Z</time></trkpt><trkpt lat="40.73597718960757" lon="15.016703391264654"><ele>863.0</ele><time>2026-04-19T10:08:58.001Z</time></trkpt><trkpt lat="40.73604878339402" lon="15.016604879382895"><ele>863.0</ele><time>2026-04-19T10:08:59.001Z</time></trkpt><trkpt lat="40.73611152343537" lon="15.016529496286884"><ele>863.0</ele><time>2026-04-19T10:09:00.001Z</time></trkpt><trkpt lat="40.73619850250845" lon="15.016477934356766"><ele>863.0</ele><time>2026-04-19T10:09:01.001Z</time></trkpt><trkpt lat="40.73631926387689" lon="15.01644576083915"><ele>863.0</ele><time>2026-04-19T10:09:02.001Z</time></trkpt><trkpt lat="40.736438622303695" lon="15.016442312310302"><ele>863.0</ele><time>2026-04-19T10:09:03.001Z</time></trkpt><trkpt lat="40.73654563739753" lon="15.016446130451993"><ele>863.0</ele><time>2026-04-19T10:09:04.001Z</time></trkpt><trkpt lat="40.73665290700723" lon="15.016433020763262"><ele>863.0</ele><time>2026-04-19T10:09:05.001Z</time></trkpt><trkpt lat="40.7367611012366" lon="15.016384212715792"><ele>863.0</ele><time>2026-04-19T10:09:06.001Z</time></trkpt><trkpt lat="40.73686964721939" lon="15.01632182258273"><ele>863.0</ele><time>2026-04-19T10:09:07.001Z</time></trkpt><trkpt lat="40.73699105582432" lon="15.016242606998286"><ele>864.75</ele><time>2026-04-19T10:09:08.001Z</time></trkpt><trkpt lat="40.737131274000554" lon="15.016175418686784"><ele>866.5</ele><time>2026-04-19T10:09:09.001Z</time></trkpt><trkpt lat="40.73723588654997" lon="15.016124233879507"><ele>868.25</ele><time>2026-04-19T10:09:10.001Z</time></trkpt><trkpt lat="40.73732804529317" lon="15.016074418907477"><ele>870.0</ele><time>2026-04-19T10:09:11.001Z</time></trkpt><trkpt lat="40.73743219789385" lon="15.016017372477387"><ele>870.0</ele><time>2026-04-19T10:09:12.001Z</time></trkpt><trkpt lat="40.73754803309686" lon="15.015998359412853"><ele>870.0</ele><time>2026-04-19T10:09:13.001Z</time></trkpt><trkpt lat="40.737676732251586" lon="15.015979429193242"><ele>870.0</ele><time>2026-04-19T10:09:14.001Z</time></trkpt><trkpt lat="40.737788720852905" lon="15.015975942507001"><ele>870.0</ele><time>2026-04-19T10:09:15.001Z</time></trkpt><trkpt lat="40.73790139132268" lon="15.015946358335798"><ele>871.0</ele><time>2026-04-19T10:09:16.001Z</time></trkpt><trkpt lat="40.738003360041425" lon="15.0159489805005"><ele>872.0</ele><time>2026-04-19T10:09:17.001Z</time></trkpt><trkpt lat="40.73812787476891" lon="15.015993962356736"><ele>873.0</ele><time>2026-04-19T10:09:18.001Z</time></trkpt><trkpt lat="40.738282554978504" lon="15.016006628547917"><ele>874.0</ele><time>2026-04-19T10:09:19.001Z</time></trkpt><trkpt lat="40.73839498420801" lon="15.016043503047737"><ele>873.9999999999999</ele><time>2026-04-19T10:09:20.001Z</time></trkpt><trkpt lat="40.73848935478102" lon="15.016061364830243"><ele>874.0</ele><time>2026-04-19T10:09:21.001Z</time></trkpt><trkpt lat="40.73856340620588" lon="15.016052846530265"><ele>874.0</ele><time>2026-04-19T10:09:22.001Z</time></trkpt><trkpt lat="40.7386427530981" lon="15.016054885362053"><ele>874.0</ele><time>2026-04-19T10:09:23.001Z</time></trkpt><trkpt lat="40.73872375487625" lon="15.016068137983547"><ele>873.9999999999999</ele><time>2026-04-19T10:09:24.001Z</time></trkpt><trkpt lat="40.738832969302074" lon="15.016102524696654"><ele>874.0</ele><time>2026-04-19T10:09:26.001Z</time></trkpt><trkpt lat="40.73890899068113" lon="15.01613254007647"><ele>874.4999999999999</ele><time>2026-04-19T10:09:28.001Z</time></trkpt><trkpt lat="40.7389267528763" lon="15.016035626191938"><ele>875.0</ele><time>2026-04-19T10:10:09.002Z</time></trkpt><trkpt lat="40.738985680428385" lon="15.015915610775114"><ele>875.5</ele><time>2026-04-19T10:10:11.002Z</time></trkpt><trkpt lat="40.739032707621426" lon="15.015839021128556"><ele>876.0</ele><time>2026-04-19T10:10:12.001Z</time></trkpt><trkpt lat="40.739082830741886" lon="15.015763783219207"><ele>876.4999999999999</ele><time>2026-04-19T10:10:13.001Z</time></trkpt><trkpt lat="40.73913235556113" lon="15.015690716766432"><ele>877.0</ele><time>2026-04-19T10:10:14.001Z</time></trkpt><trkpt lat="40.73921113047726" lon="15.015576221466667"><ele>877.3333333333333</ele><time>2026-04-19T10:10:16.001Z</time></trkpt><trkpt lat="40.73921341952755" lon="15.015416644475065"><ele>877.6666666666666</ele><time>2026-04-19T10:10:18.001Z</time></trkpt><trkpt lat="40.73923640162495" lon="15.01532352278368"><ele>878.0</ele><time>2026-04-19T10:10:19.001Z</time></trkpt><trkpt lat="40.7392525850871" lon="15.015215182256043"><ele>878.3333333333333</ele><time>2026-04-19T10:10:20.001Z</time></trkpt><trkpt lat="40.73924416505523" lon="15.015104292687383"><ele>878.6666666666666</ele><time>2026-04-19T10:10:21.001Z</time></trkpt><trkpt lat="40.73923303663036" lon="15.015006135549148"><ele>879.0</ele><time>2026-04-19T10:10:22.001Z</time></trkpt><trkpt lat="40.739202420927874" lon="15.014917318790578"><ele>879.0</ele><time>2026-04-19T10:10:23.001Z</time></trkpt><trkpt lat="40.739167580653294" lon="15.014845618760033"><ele>879.0</ele><time>2026-04-19T10:10:24.001Z</time></trkpt><trkpt lat="40.73915650813964" lon="15.014752911449882"><ele>879.0</ele><time>2026-04-19T10:10:25.001Z</time></trkpt><trkpt lat="40.73916362617119" lon="15.014660583106409"><ele>879.0</ele><time>2026-04-19T10:10:26.001Z</time></trkpt><trkpt lat="40.739152856753" lon="15.01453433323027"><ele>879.0</ele><time>2026-04-19T10:10:27.001Z</time></trkpt><trkpt lat="40.739153775852195" lon="15.014392366412276"><ele>879.0</ele><time>2026-04-19T10:10:28.001Z</time></trkpt><trkpt lat="40.73915958863213" lon="15.014293902907164"><ele>879.0</ele><time>2026-04-19T10:10:29.001Z</time></trkpt><trkpt lat="40.73920370992597" lon="15.014227327114261"><ele>879.0</ele><time>2026-04-19T10:10:30.001Z</time></trkpt><trkpt lat="40.73921387183305" lon="15.0141194239717"><ele>879.0</ele><time>2026-04-19T10:10:31.001Z</time></trkpt><trkpt lat="40.73925660005531" lon="15.01397980485598"><ele>879.0</ele><time>2026-04-19T10:10:33.001Z</time></trkpt><trkpt lat="40.73928723565192" lon="15.01388091887183"><ele>879.0</ele><time>2026-04-19T10:10:37.001Z</time></trkpt><trkpt lat="40.73932179782464" lon="15.01375738121778"><ele>879.0</ele><time>2026-04-19T10:10:39.001Z</time></trkpt><trkpt lat="40.739395562660384" lon="15.01362688636552"><ele>878.8333333333334</ele><time>2026-04-19T10:10:41Z</time></trkpt><trkpt lat="40.73943872812637" lon="15.013550193882145"><ele>878.6666666666667</ele><time>2026-04-19T10:10:42Z</time></trkpt><trkpt lat="40.739526059022516" lon="15.013492376260666"><ele>878.5</ele><time>2026-04-19T10:10:43Z</time></trkpt><trkpt lat="40.73957168044564" lon="15.013382338813667"><ele>878.3333333333334</ele><time>2026-04-19T10:10:44Z</time></trkpt><trkpt lat="40.739587053213185" lon="15.013292618155427"><ele>878.1666666666667</ele><time>2026-04-19T10:10:45Z</time></trkpt><trkpt lat="40.7396135863837" lon="15.013167845798773"><ele>878.0</ele><time>2026-04-19T10:10:46Z</time></trkpt><trkpt lat="40.739635855554916" lon="15.013054692119066"><ele>878.0000000000001</ele><time>2026-04-19T10:10:47Z</time></trkpt><trkpt lat="40.73965133664488" lon="15.01296077905728"><ele>878.0</ele><time>2026-04-19T10:10:48Z</time></trkpt><trkpt lat="40.73965468806867" lon="15.012874191613406"><ele>878.0</ele><time>2026-04-19T10:10:49Z</time></trkpt><trkpt lat="40.739674957860174" lon="15.012787427573686"><ele>878.0</ele><time>2026-04-19T10:10:50.001Z</time></trkpt><trkpt lat="40.73972281159103" lon="15.012641786209993"><ele>878.0000000000001</ele><time>2026-04-19T10:10:52.001Z</time></trkpt><trkpt lat="40.739747115178574" lon="15.012548168922665"><ele>878.0</ele><time>2026-04-19T10:10:53.001Z</time></trkpt><trkpt lat="40.739746392374" lon="15.012460109784346"><ele>878.8333333333334</ele><time>2026-04-19T10:10:54.001Z</time></trkpt><trkpt lat="40.7397256312931" lon="15.012330763208093"><ele>879.6666666666667</ele><time>2026-04-19T10:10:55.001Z</time></trkpt><trkpt lat="40.73972210309393" lon="15.012204525229986"><ele>880.5</ele><time>2026-04-19T10:10:56.001Z</time></trkpt><trkpt lat="40.739710722270914" lon="15.012106999135245"><ele>881.3333333333333</ele><time>2026-04-19T10:10:57.001Z</time></trkpt><trkpt lat="40.73969600381254" lon="15.01202240112212"><ele>882.1666666666666</ele><time>2026-04-19T10:10:58.001Z</time></trkpt><trkpt lat="40.73967705571543" lon="15.011898499007494"><ele>883.0</ele><time>2026-04-19T10:11:00.001Z</time></trkpt><trkpt lat="40.739590698313094" lon="15.011796377174214"><ele>883.0</ele><time>2026-04-19T10:11:02.001Z</time></trkpt><trkpt lat="40.73947895459006" lon="15.011679552577576"><ele>883.0</ele><time>2026-04-19T10:11:04.001Z</time></trkpt><trkpt lat="40.73940017621" lon="15.01162737561155"><ele>883.0</ele><time>2026-04-19T10:11:05.001Z</time></trkpt><trkpt lat="40.73933193812126" lon="15.011499254233819"><ele>883.0</ele><time>2026-04-19T10:11:07.001Z</time></trkpt><trkpt lat="40.73933153710929" lon="15.0113848115823"><ele>883.0</ele><time>2026-04-19T10:11:08.001Z</time></trkpt><trkpt lat="40.73935478588952" lon="15.011303511432905"><ele>884.75</ele><time>2026-04-19T10:11:09.001Z</time></trkpt><trkpt lat="40.73939358290764" lon="15.011217456324054"><ele>886.5</ele><time>2026-04-19T10:11:10.001Z</time></trkpt><trkpt lat="40.73948636901982" lon="15.011048651197898"><ele>888.25</ele><time>2026-04-19T10:11:12.001Z</time></trkpt><trkpt lat="40.73956564266788" lon="15.010922152859498"><ele>890.0</ele><time>2026-04-19T10:11:13.001Z</time></trkpt><trkpt lat="40.73961313518619" lon="15.010804993914455"><ele>891.8</ele><time>2026-04-19T10:11:14.001Z</time></trkpt><trkpt lat="40.739635215345494" lon="15.0106924951348"><ele>893.6</ele><time>2026-04-19T10:11:15.001Z</time></trkpt><trkpt lat="40.73962601235251" lon="15.010577867658974"><ele>895.4000000000001</ele><time>2026-04-19T10:11:16.001Z</time></trkpt><trkpt lat="40.73959995259639" lon="15.010460793042714"><ele>897.2</ele><time>2026-04-19T10:11:17.001Z</time></trkpt><trkpt lat="40.73956607579348" lon="15.010323568652405"><ele>899.0</ele><time>2026-04-19T10:11:18.001Z</time></trkpt><trkpt lat="40.73953661221982" lon="15.010195380088767"><ele>899.0000000000001</ele><time>2026-04-19T10:11:19.001Z</time></trkpt><trkpt lat="40.739509805561916" lon="15.010092595827306"><ele>899.0</ele><time>2026-04-19T10:11:20.001Z</time></trkpt><trkpt lat="40.739500267773636" lon="15.009998655036114"><ele>899.0</ele><time>2026-04-19T10:11:21.001Z</time></trkpt><trkpt lat="40.73951023108716" lon="15.00989945908084"><ele>899.0</ele><time>2026-04-19T10:11:22.001Z</time></trkpt><trkpt lat="40.73955889710484" lon="15.00984051772152"><ele>899.0000000000001</ele><time>2026-04-19T10:11:23.001Z</time></trkpt><trkpt lat="40.73962430899414" lon="15.009791304644786"><ele>899.0</ele><time>2026-04-19T10:11:24.001Z</time></trkpt><trkpt lat="40.73970530250732" lon="15.009730683026357"><ele>901.8000000000001</ele><time>2026-04-19T10:11:25.001Z</time></trkpt><trkpt lat="40.739746181586824" lon="15.009661484221473"><ele>904.6000000000001</ele><time>2026-04-19T10:11:26.001Z</time></trkpt><trkpt lat="40.739816072316344" lon="15.009532045949314"><ele>907.4</ele><time>2026-04-19T10:11:28.001Z</time></trkpt><trkpt lat="40.739854134144295" lon="15.00945285173126"><ele>910.2</ele><time>2026-04-19T10:11:29.001Z</time></trkpt><trkpt lat="40.73994035543544" lon="15.00937300345829"><ele>913.0</ele><time>2026-04-19T10:11:31.001Z</time></trkpt><trkpt lat="40.73999822559642" lon="15.009219820307038"><ele>913.6666666666666</ele><time>2026-04-19T10:11:33.001Z</time></trkpt><trkpt lat="40.74004379709513" lon="15.009151030241703"><ele>914.3333333333333</ele><time>2026-04-19T10:11:34.001Z</time></trkpt><trkpt lat="40.74007864246085" lon="15.009046305450159"><ele>915.0</ele><time>2026-04-19T10:11:35.001Z</time></trkpt><trkpt lat="40.74011316220399" lon="15.008929126974092"><ele>915.6666666666667</ele><time>2026-04-19T10:11:36.001Z</time></trkpt><trkpt lat="40.740133495862146" lon="15.008842130606014"><ele>916.3333333333334</ele><time>2026-04-19T10:11:37.001Z</time></trkpt><trkpt lat="40.740156255986676" lon="15.008731012815062"><ele>917.0</ele><time>2026-04-19T10:11:38.001Z</time></trkpt><trkpt lat="40.74016456805043" lon="15.008644725986565"><ele>917.0000000000001</ele><time>2026-04-19T10:11:39.001Z</time></trkpt><trkpt lat="40.74019127635029" lon="15.008556130058894"><ele>917.0</ele><time>2026-04-19T10:11:40.001Z</time></trkpt><trkpt lat="40.74019837322639" lon="15.008448471577255"><ele>917.0</ele><time>2026-04-19T10:11:41.001Z</time></trkpt><trkpt lat="40.740188577741" lon="15.008312024006573"><ele>917.0</ele><time>2026-04-19T10:11:42.002Z</time></trkpt><trkpt lat="40.74014309501361" lon="15.008195415296466"><ele>917.0000000000001</ele><time>2026-04-19T10:11:43.002Z</time></trkpt><trkpt lat="40.740119969522254" lon="15.008086906222742"><ele>917.0</ele><time>2026-04-19T10:11:44.002Z</time></trkpt><trkpt lat="40.74009652156101" lon="15.007973835501483"><ele>916.3333333333334</ele><time>2026-04-19T10:11:45.002Z</time></trkpt><trkpt lat="40.74009242321714" lon="15.007876135221702"><ele>915.6666666666667</ele><time>2026-04-19T10:11:46.002Z</time></trkpt><trkpt lat="40.7400661987856" lon="15.007734505471522"><ele>915.0</ele><time>2026-04-19T10:11:48.002Z</time></trkpt><trkpt lat="40.74006842643903" lon="15.00764082882996"><ele>914.3333333333333</ele><time>2026-04-19T10:11:49.002Z</time></trkpt><trkpt lat="40.740062241035915" lon="15.007540902746326"><ele>913.6666666666666</ele><time>2026-04-19T10:11:50.002Z</time></trkpt><trkpt lat="40.74004303723788" lon="15.007393017875781"><ele>913.0</ele><time>2026-04-19T10:11:51.002Z</time></trkpt><trkpt lat="40.740034329615696" lon="15.00728352623681"><ele>912.8333333333333</ele><time>2026-04-19T10:11:52.002Z</time></trkpt><trkpt lat="40.740054573945365" lon="15.007139217072213"><ele>912.6666666666666</ele><time>2026-04-19T10:11:54.002Z</time></trkpt><trkpt lat="40.740100718563774" lon="15.007076859752782"><ele>912.5</ele><time>2026-04-19T10:11:56.002Z</time></trkpt><trkpt lat="40.74013973421643" lon="15.006975101205748"><ele>912.3333333333333</ele><time>2026-04-19T10:11:59.002Z</time></trkpt><trkpt lat="40.740184382132796" lon="15.006907401978777"><ele>912.1666666666666</ele><time>2026-04-19T10:12:01.002Z</time></trkpt><trkpt lat="40.740221405151146" lon="15.006801662031359"><ele>912.0</ele><time>2026-04-19T10:12:05.002Z</time></trkpt><trkpt lat="40.74025103743621" lon="15.006716446498404"><ele>911.6666666666666</ele><time>2026-04-19T10:12:07.002Z</time></trkpt><trkpt lat="40.74028322693969" lon="15.006620639957355"><ele>911.3333333333333</ele><time>2026-04-19T10:12:09.002Z</time></trkpt><trkpt lat="40.740275095529945" lon="15.006510588936994"><ele>911.0</ele><time>2026-04-19T10:12:11.002Z</time></trkpt><trkpt lat="40.74021941765222" lon="15.006381149327963"><ele>910.6666666666666</ele><time>2026-04-19T10:12:13.002Z</time></trkpt><trkpt lat="40.740190532226535" lon="15.006293621857898"><ele>910.3333333333333</ele><time>2026-04-19T10:12:14.002Z</time></trkpt><trkpt lat="40.740226471558785" lon="15.006169783717569"><ele>910.0</ele><time>2026-04-19T10:12:16.002Z</time></trkpt><trkpt lat="40.74033058540812" lon="15.00612468370693"><ele>908.4999999999999</ele><time>2026-04-19T10:12:18.001Z</time></trkpt><trkpt lat="40.74041234667922" lon="15.006171993759947"><ele>907.0</ele><time>2026-04-19T10:12:20.001Z</time></trkpt><trkpt lat="40.74048360593506" lon="15.006198495793438"><ele>905.5</ele><time>2026-04-19T10:12:22.001Z</time></trkpt><trkpt lat="40.74059993992163" lon="15.00620081654492"><ele>904.0</ele><time>2026-04-19T10:12:24.001Z</time></trkpt><trkpt lat="40.74067101434788" lon="15.006178248866174"><ele>902.4999999999999</ele><time>2026-04-19T10:12:25.001Z</time></trkpt><trkpt lat="40.74074722019606" lon="15.0061589192999"><ele>901.0</ele><time>2026-04-19T10:12:26.001Z</time></trkpt><trkpt lat="40.740832907504156" lon="15.00615463887192"><ele>900.9999999999999</ele><time>2026-04-19T10:12:27.001Z</time></trkpt><trkpt lat="40.74090375383399" lon="15.006150286190744"><ele>901.0</ele><time>2026-04-19T10:12:28.001Z</time></trkpt><trkpt lat="40.74098862161695" lon="15.006112960574544"><ele>901.0</ele><time>2026-04-19T10:12:29.001Z</time></trkpt><trkpt lat="40.74107428998766" lon="15.006063903473846"><ele>901.0</ele><time>2026-04-19T10:12:30.001Z</time></trkpt><trkpt lat="40.741164685630615" lon="15.006057145040197"><ele>900.9999999999999</ele><time>2026-04-19T10:12:31.001Z</time></trkpt><trkpt lat="40.74126102624679" lon="15.006042635578794"><ele>901.0</ele><time>2026-04-19T10:12:32.001Z</time></trkpt><trkpt lat="40.74134477054013" lon="15.006051180966896"><ele>898.6666666666666</ele><time>2026-04-19T10:12:33.001Z</time></trkpt><trkpt lat="40.741435848346995" lon="15.006068290741544"><ele>896.3333333333333</ele><time>2026-04-19T10:12:34.001Z</time></trkpt><trkpt lat="40.74151160707629" lon="15.00608526687475"><ele>894.0</ele><time>2026-04-19T10:12:35.001Z</time></trkpt><trkpt lat="40.74160391867681" lon="15.006118855123011"><ele>891.6666666666667</ele><time>2026-04-19T10:12:36.001Z</time></trkpt><trkpt lat="40.74168921096317" lon="15.006155701535478"><ele>889.3333333333334</ele><time>2026-04-19T10:12:37.001Z</time></trkpt><trkpt lat="40.74176269040694" lon="15.00617822027337"><ele>887.0</ele><time>2026-04-19T10:12:38.001Z</time></trkpt><trkpt lat="40.7418659371573" lon="15.006192521862914"><ele>886.4000000000001</ele><time>2026-04-19T10:12:40.001Z</time></trkpt><trkpt lat="40.74200020084307" lon="15.006209435915446"><ele>885.8000000000001</ele><time>2026-04-19T10:12:42.001Z</time></trkpt><trkpt lat="40.74208662466789" lon="15.006193407900605"><ele>885.2</ele><time>2026-04-19T10:12:43.001Z</time></trkpt><trkpt lat="40.742162782474274" lon="15.006200361704957"><ele>884.6</ele><time>2026-04-19T10:12:44.001Z</time></trkpt><trkpt lat="40.742254315652204" lon="15.006225242506211"><ele>884.0</ele><time>2026-04-19T10:12:45.001Z</time></trkpt><trkpt lat="40.742343672526424" lon="15.006221192597513"><ele>884.0000000000001</ele><time>2026-04-19T10:12:46.001Z</time></trkpt><trkpt lat="40.74241292844026" lon="15.006186104294494"><ele>884.0</ele><time>2026-04-19T10:12:47.001Z</time></trkpt><trkpt lat="40.74247621602684" lon="15.006145189780886"><ele>884.0</ele><time>2026-04-19T10:12:48.001Z</time></trkpt><trkpt lat="40.74254653686057" lon="15.006129465205706"><ele>884.0</ele><time>2026-04-19T10:12:49.001Z</time></trkpt><trkpt lat="40.74262572374564" lon="15.006116713871348"><ele>884.0000000000001</ele><time>2026-04-19T10:12:50.001Z</time></trkpt><trkpt lat="40.742747235359026" lon="15.006075648498323"><ele>884.0</ele><time>2026-04-19T10:12:52.001Z</time></trkpt><trkpt lat="40.74284973279848" lon="15.006078477812935"><ele>885.0</ele><time>2026-04-19T10:12:53.001Z</time></trkpt><trkpt lat="40.74294716607914" lon="15.006074964236491"><ele>886.0000000000001</ele><time>2026-04-19T10:12:54.001Z</time></trkpt><trkpt lat="40.74301829880514" lon="15.006111291199433"><ele>887.0000000000001</ele><time>2026-04-19T10:12:55.001Z</time></trkpt><trkpt lat="40.74311060590668" lon="15.006196840857832"><ele>888.0</ele><time>2026-04-19T10:12:57.001Z</time></trkpt><trkpt lat="40.74322062413219" lon="15.006198163954117"><ele>889.0</ele><time>2026-04-19T10:12:59.001Z</time></trkpt><trkpt lat="40.74324861289613" lon="15.006123572613626"><ele>888.9999999999999</ele><time>2026-04-19T10:13:01.001Z</time></trkpt><trkpt lat="40.743309211876635" lon="15.006068233106781"><ele>889.0</ele><time>2026-04-19T10:13:05.001Z</time></trkpt><trkpt lat="40.743383526901056" lon="15.006096140607196"><ele>889.0</ele><time>2026-04-19T10:13:17.001Z</time></trkpt><trkpt lat="40.743462933412665" lon="15.006085924982479"><ele>889.0</ele><time>2026-04-19T10:13:19.001Z</time></trkpt><trkpt lat="40.74357175224239" lon="15.006130530698039"><ele>888.9999999999999</ele><time>2026-04-19T10:13:21.001Z</time></trkpt><trkpt lat="40.74366224037041" lon="15.006126722758928"><ele>889.0</ele><time>2026-04-19T10:13:23.001Z</time></trkpt><trkpt lat="40.743772751545784" lon="15.00614012750317"><ele>890.1666666666666</ele><time>2026-04-19T10:13:25.001Z</time></trkpt><trkpt lat="40.743834148781445" lon="15.006162899159204"><ele>891.3333333333333</ele><time>2026-04-19T10:13:26.001Z</time></trkpt><trkpt lat="40.74390594644319" lon="15.006196054340386"><ele>892.5</ele><time>2026-04-19T10:13:27.001Z</time></trkpt><trkpt lat="40.744009673500116" lon="15.006200272657482"><ele>893.6666666666667</ele><time>2026-04-19T10:13:29.001Z</time></trkpt><trkpt lat="40.74409725376218" lon="15.006163033157092"><ele>894.8333333333334</ele><time>2026-04-19T10:13:30.001Z</time></trkpt><trkpt lat="40.74419609752088" lon="15.006139449608968"><ele>896.0</ele><time>2026-04-19T10:13:31.001Z</time></trkpt><trkpt lat="40.74427026311185" lon="15.006137934389578"><ele>896.0</ele><time>2026-04-19T10:13:32.001Z</time></trkpt><trkpt lat="40.74436566743989" lon="15.006196837934494"><ele>895.9999999999999</ele><time>2026-04-19T10:13:34.001Z</time></trkpt><trkpt lat="40.74445843421095" lon="15.006298126468728"><ele>895.9999999999999</ele><time>2026-04-19T10:13:36.001Z</time></trkpt><trkpt lat="40.74450394765198" lon="15.00635957224093"><ele>896.0</ele><time>2026-04-19T10:13:37.001Z</time></trkpt><trkpt lat="40.744560420367" lon="15.00640688210281"><ele>896.0</ele><time>2026-04-19T10:13:38.001Z</time></trkpt><trkpt lat="40.744640342833755" lon="15.006479409783019"><ele>895.5999999999999</ele><time>2026-04-19T10:13:39.001Z</time></trkpt><trkpt lat="40.74469991964814" lon="15.006554692156184"><ele>895.1999999999999</ele><time>2026-04-19T10:13:40.001Z</time></trkpt><trkpt lat="40.74474763439138" lon="15.006685099482361"><ele>894.8000000000001</ele><time>2026-04-19T10:13:42.001Z</time></trkpt><trkpt lat="40.74481171133369" lon="15.00683675038772"><ele>894.4000000000001</ele><time>2026-04-19T10:13:44.001Z</time></trkpt><trkpt lat="40.744880905693336" lon="15.00688738481448"><ele>894.0</ele><time>2026-04-19T10:13:45.001Z</time></trkpt><trkpt lat="40.74500600351153" lon="15.006936783879345"><ele>896.1666666666666</ele><time>2026-04-19T10:13:47.001Z</time></trkpt><trkpt lat="40.74506509654146" lon="15.006968756472387"><ele>898.3333333333333</ele><time>2026-04-19T10:13:48.001Z</time></trkpt><trkpt lat="40.74512360489353" lon="15.007007236725137"><ele>900.5</ele><time>2026-04-19T10:13:49.001Z</time></trkpt><trkpt lat="40.745218885223785" lon="15.00708083613918"><ele>902.6666666666666</ele><time>2026-04-19T10:13:51.001Z</time></trkpt><trkpt lat="40.74527419140812" lon="15.00715417232028"><ele>904.8333333333333</ele><time>2026-04-19T10:13:53.001Z</time></trkpt><trkpt lat="40.745318075447294" lon="15.007263358238049"><ele>907.0</ele><time>2026-04-19T10:13:55.001Z</time></trkpt><trkpt lat="40.74536327193045" lon="15.007366989397962"><ele>909.8333333333333</ele><time>2026-04-19T10:13:57.001Z</time></trkpt><trkpt lat="40.74540245153021" lon="15.00749559859681"><ele>912.6666666666666</ele><time>2026-04-19T10:13:59.001Z</time></trkpt><trkpt lat="40.74543278252284" lon="15.007578624287087"><ele>915.5</ele><time>2026-04-19T10:14:00.001Z</time></trkpt><trkpt lat="40.74551718226924" lon="15.007686571891474"><ele>918.3333333333333</ele><time>2026-04-19T10:14:02.001Z</time></trkpt><trkpt lat="40.745575060582254" lon="15.007732197373945"><ele>921.1666666666666</ele><time>2026-04-19T10:14:03.001Z</time></trkpt><trkpt lat="40.745626730837" lon="15.007799276370784"><ele>924.0</ele><time>2026-04-19T10:14:04.001Z</time></trkpt><trkpt lat="40.745667228901745" lon="15.007869618501958"><ele>924.0</ele><time>2026-04-19T10:14:05.001Z</time></trkpt><trkpt lat="40.74571679295262" lon="15.007934601299803"><ele>924.0</ele><time>2026-04-19T10:14:07.001Z</time></trkpt><trkpt lat="40.74569063531612" lon="15.008017804251889"><ele>924.0</ele><time>2026-04-19T10:14:15.001Z</time></trkpt><trkpt lat="40.74575267469841" lon="15.008066700746433"><ele>924.0</ele><time>2026-04-19T10:14:27.001Z</time></trkpt><trkpt lat="40.74581553479292" lon="15.008090552458235"><ele>924.0</ele><time>2026-04-19T10:14:29.001Z</time></trkpt><trkpt lat="40.74588610478951" lon="15.008096359545805"><ele>924.0</ele><time>2026-04-19T10:14:31.001Z</time></trkpt><trkpt lat="40.74599061563873" lon="15.008137386646736"><ele>923.8333333333334</ele><time>2026-04-19T10:14:33.001Z</time></trkpt><trkpt lat="40.74605484551751" lon="15.008244199261107"><ele>923.6666666666667</ele><time>2026-04-19T10:14:35.001Z</time></trkpt><trkpt lat="40.74611969669222" lon="15.008279913277304"><ele>923.5</ele><time>2026-04-19T10:14:37.001Z</time></trkpt><trkpt lat="40.746231031131025" lon="15.008336884731367"><ele>923.3333333333334</ele><time>2026-04-19T10:14:39.001Z</time></trkpt><trkpt lat="40.74627636979231" lon="15.008400338821158"><ele>923.1666666666667</ele><time>2026-04-19T10:14:40.001Z</time></trkpt><trkpt lat="40.74633480998086" lon="15.008461809814548"><ele>923.0</ele><time>2026-04-19T10:14:41.001Z</time></trkpt><trkpt lat="40.74638764060746" lon="15.008537133481735"><ele>923.0</ele><time>2026-04-19T10:14:42Z</time></trkpt><trkpt lat="40.74646024337491" lon="15.008625685039899"><ele>923.0</ele><time>2026-04-19T10:14:43Z</time></trkpt><trkpt lat="40.74650750842644" lon="15.008717757940294"><ele>923.0</ele><time>2026-04-19T10:14:44Z</time></trkpt><trkpt lat="40.7465456674794" lon="15.008800030887112"><ele>923.0</ele><time>2026-04-19T10:14:45Z</time></trkpt><trkpt lat="40.74664024673905" lon="15.00891714253433"><ele>923.0</ele><time>2026-04-19T10:14:47Z</time></trkpt><trkpt lat="40.74672078756247" lon="15.008978655508617"><ele>923.0000000000001</ele><time>2026-04-19T10:14:48Z</time></trkpt><trkpt lat="40.746791253045416" lon="15.009037741730841"><ele>923.0</ele><time>2026-04-19T10:14:49Z</time></trkpt><trkpt lat="40.74684538221194" lon="15.009100367804667"><ele>923.0</ele><time>2026-04-19T10:14:50Z</time></trkpt><trkpt lat="40.74695580179385" lon="15.00913795767656"><ele>923.0</ele><time>2026-04-19T10:14:52Z</time></trkpt><trkpt lat="40.74702449960238" lon="15.009135580806495"><ele>923.0000000000001</ele><time>2026-04-19T10:14:53Z</time></trkpt><trkpt lat="40.74709988438162" lon="15.009100336500921"><ele>923.0</ele><time>2026-04-19T10:14:55Z</time></trkpt><trkpt lat="40.74717370504182" lon="15.009033529275234"><ele>924.0</ele><time>2026-04-19T10:14:57Z</time></trkpt><trkpt lat="40.74723784220196" lon="15.009040733469535"><ele>925.0</ele><time>2026-04-19T10:15:00Z</time></trkpt><trkpt lat="40.74731409119563" lon="15.009094821849809"><ele>926.0</ele><time>2026-04-19T10:15:03Z</time></trkpt><trkpt lat="40.74737406455989" lon="15.009153869211536"><ele>927.0</ele><time>2026-04-19T10:15:06Z</time></trkpt><trkpt lat="40.747456602795445" lon="15.009160742941704"><ele>928.0</ele><time>2026-04-19T10:15:09Z</time></trkpt><trkpt lat="40.74751532191076" lon="15.009191944876639"><ele>929.0</ele><time>2026-04-19T10:15:15Z</time></trkpt><trkpt lat="40.74758821470365" lon="15.00922084975663"><ele>930.0</ele><time>2026-04-19T10:15:20Z</time></trkpt><trkpt lat="40.74767606956944" lon="15.009228631610899"><ele>926.8333333333334</ele><time>2026-04-19T10:15:23Z</time></trkpt><trkpt lat="40.74772444228299" lon="15.009291811960825"><ele>923.6666666666667</ele><time>2026-04-19T10:15:26Z</time></trkpt><trkpt lat="40.74776337265223" lon="15.009365545806213"><ele>920.5</ele><time>2026-04-19T10:15:28Z</time></trkpt><trkpt lat="40.747849462505584" lon="15.00940636843271"><ele>917.3333333333334</ele><time>2026-04-19T10:15:31Z</time></trkpt><trkpt lat="40.74789718301975" lon="15.00949349803129"><ele>914.1666666666667</ele><time>2026-04-19T10:15:33Z</time></trkpt><trkpt lat="40.747870273807784" lon="15.009573872145534"><ele>911.0</ele><time>2026-04-19T10:15:34Z</time></trkpt><trkpt lat="40.747840454581194" lon="15.009670151765972"><ele>911.0</ele><time>2026-04-19T10:15:36Z</time></trkpt><trkpt lat="40.747848182033145" lon="15.009827946911464"><ele>910.9999999999999</ele><time>2026-04-19T10:15:38Z</time></trkpt><trkpt lat="40.74783497442653" lon="15.009994845566604"><ele>910.9999999999999</ele><time>2026-04-19T10:15:40Z</time></trkpt><trkpt lat="40.74783648669399" lon="15.010107859332045"><ele>911.0</ele><time>2026-04-19T10:15:42Z</time></trkpt><trkpt lat="40.74783104162331" lon="15.01020183090878"><ele>911.0</ele><time>2026-04-19T10:15:47Z</time></trkpt><trkpt lat="40.74784955765521" lon="15.010326118263983"><ele>906.5000000000001</ele><time>2026-04-19T10:16:02Z</time></trkpt><trkpt lat="40.74788831298197" lon="15.010406369875463"><ele>902.0</ele><time>2026-04-19T10:16:04Z</time></trkpt><trkpt lat="40.74795597421094" lon="15.010402784426592"><ele>897.5</ele><time>2026-04-19T10:16:10Z</time></trkpt><trkpt lat="40.748032440816324" lon="15.01046681125382"><ele>893.0</ele><time>2026-04-19T10:16:13Z</time></trkpt><trkpt lat="40.74804940730485" lon="15.01055074122115"><ele>888.5000000000001</ele><time>2026-04-19T10:16:16Z</time></trkpt><trkpt lat="40.74806963313536" lon="15.010668134531327"><ele>884.0</ele><time>2026-04-19T10:16:20Z</time></trkpt><trkpt lat="40.74808478855181" lon="15.010757360722023"><ele>881.6</ele><time>2026-04-19T10:16:23.001Z</time></trkpt><trkpt lat="40.74812513352548" lon="15.010869525601558"><ele>879.2</ele><time>2026-04-19T10:16:26Z</time></trkpt><trkpt lat="40.74811955082214" lon="15.011004554113862"><ele>876.8000000000001</ele><time>2026-04-19T10:16:30.001Z</time></trkpt><trkpt lat="40.74808426605826" lon="15.011090433881678"><ele>874.4000000000001</ele><time>2026-04-19T10:16:32.001Z</time></trkpt><trkpt lat="40.74805530333041" lon="15.011180172771724"><ele>872.0</ele><time>2026-04-19T10:16:34.001Z</time></trkpt><trkpt lat="40.74811233307738" lon="15.011313067732722"><ele>872.0000000000001</ele><time>2026-04-19T10:16:36.001Z</time></trkpt><trkpt lat="40.74816513725924" lon="15.01142950423179"><ele>872.0</ele><time>2026-04-19T10:16:38.001Z</time></trkpt><trkpt lat="40.74818420971208" lon="15.01154561291165"><ele>872.0</ele><time>2026-04-19T10:16:40.001Z</time></trkpt><trkpt lat="40.7481727986658" lon="15.011640286264699"><ele>872.0</ele><time>2026-04-19T10:16:43.001Z</time></trkpt><trkpt lat="40.74808231062465" lon="15.011734520878585"><ele>872.0000000000001</ele><time>2026-04-19T10:16:45.001Z</time></trkpt><trkpt lat="40.74805171199067" lon="15.011814351924277"><ele>872.0</ele><time>2026-04-19T10:16:47.001Z</time></trkpt><trkpt lat="40.7480483967864" lon="15.011917634895969"><ele>870.8333333333334</ele><time>2026-04-19T10:16:49.001Z</time></trkpt><trkpt lat="40.74803730227742" lon="15.012013202475082"><ele>869.6666666666667</ele><time>2026-04-19T10:16:51.001Z</time></trkpt><trkpt lat="40.74797993144254" lon="15.012101718408847"><ele>868.5</ele><time>2026-04-19T10:16:53.001Z</time></trkpt><trkpt lat="40.7479690559852" lon="15.01220042666064"><ele>867.3333333333333</ele><time>2026-04-19T10:16:55.001Z</time></trkpt><trkpt lat="40.74800014527604" lon="15.01229225494917"><ele>866.1666666666666</ele><time>2026-04-19T10:16:57.001Z</time></trkpt><trkpt lat="40.74802685231692" lon="15.012399115655086"><ele>865.0</ele><time>2026-04-19T10:16:59.001Z</time></trkpt><trkpt lat="40.74801568575742" lon="15.012511020234031"><ele>863.4</ele><time>2026-04-19T10:17:01.001Z</time></trkpt><trkpt lat="40.747980501709726" lon="15.012627117085952"><ele>861.8</ele><time>2026-04-19T10:17:03.001Z</time></trkpt><trkpt lat="40.74796887790391" lon="15.012749424791814"><ele>860.2</ele><time>2026-04-19T10:17:05.001Z</time></trkpt><trkpt lat="40.747939383020864" lon="15.012849563747631"><ele>858.6</ele><time>2026-04-19T10:17:07.001Z</time></trkpt><trkpt lat="40.74796310588163" lon="15.012960689781467"><ele>857.0</ele><time>2026-04-19T10:17:09.001Z</time></trkpt><trkpt lat="40.747979525900604" lon="15.013106665001715"><ele>857.0000000000001</ele><time>2026-04-19T10:17:11.001Z</time></trkpt><trkpt lat="40.74801789313356" lon="15.013177027771297"><ele>857.0</ele><time>2026-04-19T10:17:12.001Z</time></trkpt><trkpt lat="40.748050046560515" lon="15.013273090508864"><ele>857.0</ele><time>2026-04-19T10:17:13.001Z</time></trkpt><trkpt lat="40.74808366353603" lon="15.013387700640594"><ele>857.0</ele><time>2026-04-19T10:17:14.001Z</time></trkpt><trkpt lat="40.74812294691216" lon="15.01346250195937"><ele>857.0000000000001</ele><time>2026-04-19T10:17:15.001Z</time></trkpt><trkpt lat="40.74816545974595" lon="15.0135488220307"><ele>857.0</ele><time>2026-04-19T10:17:16.001Z</time></trkpt><trkpt lat="40.74819153651389" lon="15.013670895486047"><ele>855.2</ele><time>2026-04-19T10:17:18.001Z</time></trkpt><trkpt lat="40.74821383461035" lon="15.01380454294206"><ele>853.4000000000001</ele><time>2026-04-19T10:17:20.001Z</time></trkpt><trkpt lat="40.748186956720254" lon="15.01393149492122"><ele>851.5999999999999</ele><time>2026-04-19T10:17:22.001Z</time></trkpt><trkpt lat="40.74817655917113" lon="15.014031372189523"><ele>849.8</ele><time>2026-04-19T10:17:24.001Z</time></trkpt><trkpt lat="40.74814374913721" lon="15.01414328671659"><ele>848.0</ele><time>2026-04-19T10:17:27.001Z</time></trkpt><trkpt lat="40.748113814549775" lon="15.01427928727823"><ele>848.0</ele><time>2026-04-19T10:17:29.001Z</time></trkpt><trkpt lat="40.748125708747224" lon="15.0144231813262"><ele>848.0</ele><time>2026-04-19T10:17:31.001Z</time></trkpt><trkpt lat="40.74814058001422" lon="15.014537883321523"><ele>848.0</ele><time>2026-04-19T10:17:33.001Z</time></trkpt><trkpt lat="40.74814025942879" lon="15.014670988544282"><ele>848.0</ele><time>2026-04-19T10:17:35.001Z</time></trkpt><trkpt lat="40.74818948365948" lon="15.014784870598195"><ele>848.0</ele><time>2026-04-19T10:17:37.001Z</time></trkpt><trkpt lat="40.74824177659569" lon="15.014835592960676"><ele>848.0</ele><time>2026-04-19T10:17:39.001Z</time></trkpt><trkpt lat="40.74830073669297" lon="15.01498556887873"><ele>848.0</ele><time>2026-04-19T10:17:42.001Z</time></trkpt><trkpt lat="40.7483197530419" lon="15.015082687125979"><ele>848.0</ele><time>2026-04-19T10:17:43.001Z</time></trkpt><trkpt lat="40.748352345336066" lon="15.01524742393734"><ele>848.0</ele><time>2026-04-19T10:17:45.001Z</time></trkpt><trkpt lat="40.74835607330137" lon="15.015358017990907"><ele>848.0</ele><time>2026-04-19T10:17:46.001Z</time></trkpt><trkpt lat="40.74837688538807" lon="15.01547912749693"><ele>847.3333333333334</ele><time>2026-04-19T10:17:47.001Z</time></trkpt><trkpt lat="40.748391679316505" lon="15.01560488780542"><ele>846.6666666666667</ele><time>2026-04-19T10:17:48.001Z</time></trkpt><trkpt lat="40.74840708728611" lon="15.015721288964123"><ele>846.0</ele><time>2026-04-19T10:17:49.001Z</time></trkpt><trkpt lat="40.74840794925363" lon="15.015823052618032"><ele>845.3333333333333</ele><time>2026-04-19T10:17:50.001Z</time></trkpt><trkpt lat="40.74838633360216" lon="15.015964714902069"><ele>844.6666666666666</ele><time>2026-04-19T10:17:52.001Z</time></trkpt><trkpt lat="40.748426991196055" lon="15.016036125287307"><ele>844.0</ele><time>2026-04-19T10:17:54.001Z</time></trkpt><trkpt lat="40.748494021793014" lon="15.01613861171633"><ele>842.2</ele><time>2026-04-19T10:17:56.001Z</time></trkpt><trkpt lat="40.74852536751503" lon="15.016218622015092"><ele>840.4000000000001</ele><time>2026-04-19T10:17:57.001Z</time></trkpt><trkpt lat="40.74852270098443" lon="15.016400672601058"><ele>838.6</ele><time>2026-04-19T10:17:59.001Z</time></trkpt><trkpt lat="40.74852039883425" lon="15.016496448726258"><ele>836.8</ele><time>2026-04-19T10:18:00.001Z</time></trkpt><trkpt lat="40.74855448690077" lon="15.016616980369527"><ele>835.0</ele><time>2026-04-19T10:18:02.001Z</time></trkpt><trkpt lat="40.74859777658796" lon="15.016695800820552"><ele>832.6666666666666</ele><time>2026-04-19T10:18:04.001Z</time></trkpt><trkpt lat="40.7486206712453" lon="15.01677560434627"><ele>830.3333333333333</ele><time>2026-04-19T10:18:06.001Z</time></trkpt><trkpt lat="40.74864868252221" lon="15.016873726975337"><ele>828.0</ele><time>2026-04-19T10:18:08.001Z</time></trkpt><trkpt lat="40.74866986388713" lon="15.01696685581625"><ele>825.6666666666667</ele><time>2026-04-19T10:18:10.001Z</time></trkpt><trkpt lat="40.74867766424186" lon="15.017055275435396"><ele>823.3333333333334</ele><time>2026-04-19T10:18:11.001Z</time></trkpt><trkpt lat="40.74865475876207" lon="15.017141622303255"><ele>821.0</ele><time>2026-04-19T10:18:12.001Z</time></trkpt><trkpt lat="40.748626609181386" lon="15.017285951232521"><ele>821.0000000000001</ele><time>2026-04-19T10:18:14.001Z</time></trkpt><trkpt lat="40.7486295509542" lon="15.017369497621365"><ele>821.0</ele><time>2026-04-19T10:18:15.001Z</time></trkpt><trkpt lat="40.748621726741526" lon="15.017484120993302"><ele>821.0</ele><time>2026-04-19T10:18:16.001Z</time></trkpt><trkpt lat="40.74861904777682" lon="15.017603581341655"><ele>821.0</ele><time>2026-04-19T10:18:17.001Z</time></trkpt><trkpt lat="40.74860495119424" lon="15.017716626191561"><ele>821.0000000000001</ele><time>2026-04-19T10:18:18.001Z</time></trkpt><trkpt lat="40.74861380595651" lon="15.017799016946396"><ele>821.0</ele><time>2026-04-19T10:18:19.001Z</time></trkpt><trkpt lat="40.748611406980054" lon="15.017944234993818"><ele>819.5000000000001</ele><time>2026-04-19T10:18:21.001Z</time></trkpt><trkpt lat="40.74858792460244" lon="15.01802209677844"><ele>818.0</ele><time>2026-04-19T10:18:22.001Z</time></trkpt><trkpt lat="40.7485587325279" lon="15.018113017002541"><ele>816.5</ele><time>2026-04-19T10:18:23.001Z</time></trkpt><trkpt lat="40.74855961583762" lon="15.018250990152675"><ele>815.0</ele><time>2026-04-19T10:18:25.001Z</time></trkpt><trkpt lat="40.748567888678615" lon="15.018402938752214"><ele>813.5000000000001</ele><time>2026-04-19T10:18:27.001Z</time></trkpt><trkpt lat="40.74858102075174" lon="15.018496704047303"><ele>812.0</ele><time>2026-04-19T10:18:28.001Z</time></trkpt><trkpt lat="40.7485938688692" lon="15.018594853868475"><ele>811.1666666666667</ele><time>2026-04-19T10:18:29.001Z</time></trkpt><trkpt lat="40.74861241505898" lon="15.018692154805198"><ele>810.3333333333334</ele><time>2026-04-19T10:18:30.001Z</time></trkpt><trkpt lat="40.74864547870734" lon="15.018769743627281"><ele>809.5</ele><time>2026-04-19T10:18:31Z</time></trkpt><trkpt lat="40.748681168183964" lon="15.018876503462522"><ele>808.6666666666667</ele><time>2026-04-19T10:18:33.001Z</time></trkpt><trkpt lat="40.74873795923938" lon="15.018974743960383"><ele>807.8333333333334</ele><time>2026-04-19T10:18:35Z</time></trkpt><trkpt lat="40.74874078995493" lon="15.019058989801852"><ele>807.0</ele><time>2026-04-19T10:18:41.001Z</time></trkpt><trkpt lat="40.74876885875093" lon="15.019161484952411"><ele>806.3333333333334</ele><time>2026-04-19T10:18:52.001Z</time></trkpt><trkpt lat="40.74881936710283" lon="15.019302571465051"><ele>805.6666666666667</ele><time>2026-04-19T10:18:54.001Z</time></trkpt><trkpt lat="40.74884956577153" lon="15.019403890687054"><ele>805.0</ele><time>2026-04-19T10:18:55.001Z</time></trkpt><trkpt lat="40.74887643879749" lon="15.019492327755449"><ele>804.3333333333334</ele><time>2026-04-19T10:18:56.001Z</time></trkpt><trkpt lat="40.74890492608873" lon="15.019577987433218"><ele>803.6666666666667</ele><time>2026-04-19T10:18:57.001Z</time></trkpt><trkpt lat="40.74892975628832" lon="15.019670514106938"><ele>803.0</ele><time>2026-04-19T10:18:58.001Z</time></trkpt><trkpt lat="40.7489636181642" lon="15.019768873353831"><ele>803.0000000000001</ele><time>2026-04-19T10:18:59.001Z</time></trkpt><trkpt lat="40.74898644916076" lon="15.01985557189882"><ele>803.0</ele><time>2026-04-19T10:19:00.001Z</time></trkpt><trkpt lat="40.74900259881863" lon="15.019940607681411"><ele>803.0</ele><time>2026-04-19T10:19:01.001Z</time></trkpt><trkpt lat="40.74902185212271" lon="15.020029739347029"><ele>803.0</ele><time>2026-04-19T10:19:02.001Z</time></trkpt><trkpt lat="40.74904730080819" lon="15.020148505903169"><ele>803.0000000000001</ele><time>2026-04-19T10:19:03.001Z</time></trkpt><trkpt lat="40.749080221187285" lon="15.020235557828457"><ele>803.0</ele><time>2026-04-19T10:19:04.001Z</time></trkpt><trkpt lat="40.7491085032528" lon="15.020345000693501"><ele>801.8333333333334</ele><time>2026-04-19T10:19:05.001Z</time></trkpt><trkpt lat="40.74914240886731" lon="15.020425251223116"><ele>800.6666666666667</ele><time>2026-04-19T10:19:06.001Z</time></trkpt><trkpt lat="40.749182110767435" lon="15.020504470147332"><ele>799.5</ele><time>2026-04-19T10:19:07.001Z</time></trkpt><trkpt lat="40.74922366983593" lon="15.02058643854026"><ele>798.3333333333333</ele><time>2026-04-19T10:19:08.001Z</time></trkpt><trkpt lat="40.74924481962677" lon="15.02068212059681"><ele>797.1666666666666</ele><time>2026-04-19T10:19:09.001Z</time></trkpt><trkpt lat="40.749264440811565" lon="15.020826280093484"><ele>796.0</ele><time>2026-04-19T10:19:11.001Z</time></trkpt><trkpt lat="40.74930449550363" lon="15.020984719487474"><ele>794.8</ele><time>2026-04-19T10:19:13.001Z</time></trkpt><trkpt lat="40.749350441605664" lon="15.02115388374181"><ele>793.5999999999999</ele><time>2026-04-19T10:19:15.001Z</time></trkpt><trkpt lat="40.74935366519002" lon="15.021239004577355"><ele>792.4</ele><time>2026-04-19T10:19:16.001Z</time></trkpt><trkpt lat="40.749363530155165" lon="15.021326972282392"><ele>791.2</ele><time>2026-04-19T10:19:17.001Z</time></trkpt><trkpt lat="40.74941331379666" lon="15.021447771667901"><ele>790.0</ele><time>2026-04-19T10:19:19.001Z</time></trkpt><trkpt lat="40.749470624500226" lon="15.021544016115154"><ele>789.0</ele><time>2026-04-19T10:19:21.001Z</time></trkpt><trkpt lat="40.749554550040145" lon="15.021658695874311"><ele>788.0</ele><time>2026-04-19T10:19:23.001Z</time></trkpt><trkpt lat="40.74960892818612" lon="15.02170988520305"><ele>787.0</ele><time>2026-04-19T10:19:24.001Z</time></trkpt><trkpt lat="40.7496975491732" lon="15.021805257730978"><ele>786.0</ele><time>2026-04-19T10:19:26.001Z</time></trkpt><trkpt lat="40.7497272943965" lon="15.02191748900475"><ele>785.0</ele><time>2026-04-19T10:19:29.001Z</time></trkpt><trkpt lat="40.74968827301231" lon="15.022015119841507"><ele>785.0000000000001</ele><time>2026-04-19T10:19:32.001Z</time></trkpt><trkpt lat="40.7496338443618" lon="15.022070867207958"><ele>785.0</ele><time>2026-04-19T10:19:34.001Z</time></trkpt><trkpt lat="40.749574547152804" lon="15.022159917292784"><ele>785.0</ele><time>2026-04-19T10:19:37.001Z</time></trkpt><trkpt lat="40.74953710495288" lon="15.02223801416164"><ele>785.0</ele><time>2026-04-19T10:19:39.001Z</time></trkpt><trkpt lat="40.7494523723958" lon="15.022265658815419"><ele>785.0000000000001</ele><time>2026-04-19T10:19:41.001Z</time></trkpt><trkpt lat="40.749388198701595" lon="15.022279128095912"><ele>785.0</ele><time>2026-04-19T10:19:43.001Z</time></trkpt><trkpt lat="40.74931972348887" lon="15.022285779349382"><ele>784.4285714285714</ele><time>2026-04-19T10:19:45.001Z</time></trkpt><trkpt lat="40.749258323956205" lon="15.022357020609105"><ele>783.8571428571428</ele><time>2026-04-19T10:19:47.001Z</time></trkpt><trkpt lat="40.74922763347426" lon="15.02243501985574"><ele>783.2857142857142</ele><time>2026-04-19T10:19:49.001Z</time></trkpt><trkpt lat="40.749176921203755" lon="15.022489054185236"><ele>782.7142857142858</ele><time>2026-04-19T10:19:53Z</time></trkpt><trkpt lat="40.74914786923789" lon="15.022582218370172"><ele>782.1428571428571</ele><time>2026-04-19T10:19:56Z</time></trkpt><trkpt lat="40.74914822063874" lon="15.022670203222745"><ele>781.5714285714286</ele><time>2026-04-19T10:19:57Z</time></trkpt><trkpt lat="40.749149406463395" lon="15.022763458861945"><ele>781.0</ele><time>2026-04-19T10:19:58Z</time></trkpt><trkpt lat="40.7491303292941" lon="15.022898041134937"><ele>778.8</ele><time>2026-04-19T10:20:00Z</time></trkpt><trkpt lat="40.749129237058206" lon="15.022981789561156"><ele>776.5999999999999</ele><time>2026-04-19T10:20:01Z</time></trkpt><trkpt lat="40.749104118372294" lon="15.023135383925254"><ele>774.4</ele><time>2026-04-19T10:20:03Z</time></trkpt><trkpt lat="40.74905041350895" lon="15.023266248537261"><ele>772.2</ele><time>2026-04-19T10:20:05Z</time></trkpt><trkpt lat="40.74906079128511" lon="15.023404358707028"><ele>770.0</ele><time>2026-04-19T10:20:07Z</time></trkpt><trkpt lat="40.74908240988414" lon="15.023532025843677"><ele>768.5000000000001</ele><time>2026-04-19T10:20:09Z</time></trkpt><trkpt lat="40.74911134135837" lon="15.023642312421233"><ele>767.0</ele><time>2026-04-19T10:20:11Z</time></trkpt><trkpt lat="40.74913788297409" lon="15.02377078573626"><ele>765.5</ele><time>2026-04-19T10:20:13Z</time></trkpt><trkpt lat="40.749162766103694" lon="15.023888642972894"><ele>764.0</ele><time>2026-04-19T10:20:15Z</time></trkpt><trkpt lat="40.74918129836847" lon="15.0239793478016"><ele>762.5</ele><time>2026-04-19T10:20:17Z</time></trkpt><trkpt lat="40.74922832753934" lon="15.024070331027255"><ele>761.0</ele><time>2026-04-19T10:20:19Z</time></trkpt><trkpt lat="40.74929567044732" lon="15.024172102908834"><ele>757.5999999999999</ele><time>2026-04-19T10:20:21Z</time></trkpt><trkpt lat="40.74934308680538" lon="15.02430066627664"><ele>754.2</ele><time>2026-04-19T10:20:23Z</time></trkpt><trkpt lat="40.749358149990755" lon="15.024420960493094"><ele>750.8</ele><time>2026-04-19T10:20:25Z</time></trkpt><trkpt lat="40.74935985510169" lon="15.024511276801778"><ele>747.4000000000001</ele><time>2026-04-19T10:20:26Z</time></trkpt><trkpt lat="40.74937277539959" lon="15.024634818158521"><ele>744.0</ele><time>2026-04-19T10:20:28Z</time></trkpt><trkpt lat="40.74937193106208" lon="15.024762346321927"><ele>744.3333333333334</ele><time>2026-04-19T10:20:30Z</time></trkpt><trkpt lat="40.74939169823573" lon="15.024857045833079"><ele>744.6666666666666</ele><time>2026-04-19T10:20:32Z</time></trkpt><trkpt lat="40.749436557353015" lon="15.024976896336387"><ele>745.0</ele><time>2026-04-19T10:20:35Z</time></trkpt><trkpt lat="40.74945912075038" lon="15.025071362454922"><ele>745.3333333333333</ele><time>2026-04-19T10:20:37Z</time></trkpt><trkpt lat="40.74952289707608" lon="15.025158134319364"><ele>745.6666666666666</ele><time>2026-04-19T10:20:39Z</time></trkpt><trkpt lat="40.749582296846526" lon="15.025239194062856"><ele>746.0</ele><time>2026-04-19T10:20:41Z</time></trkpt><trkpt lat="40.749684919601926" lon="15.025331204430572"><ele>743.4</ele><time>2026-04-19T10:20:43Z</time></trkpt><trkpt lat="40.7497522391709" lon="15.025384129451583"><ele>740.8</ele><time>2026-04-19T10:20:45Z</time></trkpt><trkpt lat="40.749778278754796" lon="15.025505365075478"><ele>738.1999999999999</ele><time>2026-04-19T10:20:48Z</time></trkpt><trkpt lat="40.749737547223155" lon="15.025631665044918"><ele>735.5999999999999</ele><time>2026-04-19T10:20:50Z</time></trkpt><trkpt lat="40.749671901028215" lon="15.025812217494444"><ele>733.0</ele><time>2026-04-19T10:20:52Z</time></trkpt><trkpt lat="40.749643458530294" lon="15.025947358755444"><ele>732.0</ele><time>2026-04-19T10:20:53Z</time></trkpt><trkpt lat="40.749618407953875" lon="15.02607403668102"><ele>731.0</ele><time>2026-04-19T10:20:54Z</time></trkpt><trkpt lat="40.749594679142405" lon="15.026180272583177"><ele>730.0</ele><time>2026-04-19T10:20:55Z</time></trkpt><trkpt lat="40.749568049138134" lon="15.026272546427464"><ele>729.0</ele><time>2026-04-19T10:20:56Z</time></trkpt><trkpt lat="40.74955306387923" lon="15.02636993861601"><ele>728.0</ele><time>2026-04-19T10:20:57Z</time></trkpt><trkpt lat="40.749534385257455" lon="15.026472052416686"><ele>727.0</ele><time>2026-04-19T10:20:58Z</time></trkpt><trkpt lat="40.74953223474979" lon="15.02664502360677"><ele>724.6</ele><time>2026-04-19T10:21:00Z</time></trkpt><trkpt lat="40.74952977661889" lon="15.02674588409377"><ele>722.2</ele><time>2026-04-19T10:21:01Z</time></trkpt><trkpt lat="40.749515985346285" lon="15.02683629258915"><ele>719.8</ele><time>2026-04-19T10:21:02Z</time></trkpt><trkpt lat="40.749460996366246" lon="15.027013011916027"><ele>717.4</ele><time>2026-04-19T10:21:04Z</time></trkpt><trkpt lat="40.74941378112449" lon="15.027126099274403"><ele>715.0</ele><time>2026-04-19T10:21:05Z</time></trkpt><trkpt lat="40.749377080795156" lon="15.027246757119732"><ele>714.0</ele><time>2026-04-19T10:21:06Z</time></trkpt><trkpt lat="40.74935825509038" lon="15.027351438651678"><ele>713.0</ele><time>2026-04-19T10:21:07Z</time></trkpt><trkpt lat="40.749353858222854" lon="15.027468981225745"><ele>712.0</ele><time>2026-04-19T10:21:08Z</time></trkpt><trkpt lat="40.74938906013171" lon="15.027645654254847"><ele>711.0</ele><time>2026-04-19T10:21:10Z</time></trkpt><trkpt lat="40.749416562048054" lon="15.02775131328624"><ele>710.0</ele><time>2026-04-19T10:21:11Z</time></trkpt><trkpt lat="40.74944152570165" lon="15.027854413915103"><ele>709.3333333333333</ele><time>2026-04-19T10:21:12Z</time></trkpt><trkpt lat="40.749471837480954" lon="15.027951191268542"><ele>708.6666666666666</ele><time>2026-04-19T10:21:13Z</time></trkpt><trkpt lat="40.749502970326986" lon="15.028046033194187"><ele>708.0</ele><time>2026-04-19T10:21:14Z</time></trkpt><trkpt lat="40.7495274306086" lon="15.028143321670893"><ele>707.3333333333334</ele><time>2026-04-19T10:21:15Z</time></trkpt><trkpt lat="40.74956381860863" lon="15.028213016731586"><ele>706.6666666666667</ele><time>2026-04-19T10:21:16Z</time></trkpt><trkpt lat="40.74961513341282" lon="15.028360621114446"><ele>706.0</ele><time>2026-04-19T10:21:18Z</time></trkpt><trkpt lat="40.7496154357237" lon="15.028459388944983"><ele>706.0</ele><time>2026-04-19T10:21:19Z</time></trkpt><trkpt lat="40.74961822507833" lon="15.028578120143225"><ele>706.0</ele><time>2026-04-19T10:21:20Z</time></trkpt><trkpt lat="40.74962240813563" lon="15.028717082627061"><ele>706.0</ele><time>2026-04-19T10:21:21Z</time></trkpt><trkpt lat="40.749617885096775" lon="15.028833505248853"><ele>706.0</ele><time>2026-04-19T10:21:22Z</time></trkpt><trkpt lat="40.74961759652173" lon="15.028951930981055"><ele>706.0</ele><time>2026-04-19T10:21:23Z</time></trkpt><trkpt lat="40.74959848468906" lon="15.029064750470969"><ele>705.3333333333334</ele><time>2026-04-19T10:21:24Z</time></trkpt><trkpt lat="40.74956394035645" lon="15.029178674704703"><ele>704.6666666666667</ele><time>2026-04-19T10:21:25Z</time></trkpt><trkpt lat="40.749539813700515" lon="15.029275695173334"><ele>704.0</ele><time>2026-04-19T10:21:26Z</time></trkpt><trkpt lat="40.74953179206832" lon="15.029364075553097"><ele>703.3333333333334</ele><time>2026-04-19T10:21:27Z</time></trkpt><trkpt lat="40.74954729869509" lon="15.02951460579907"><ele>702.6666666666666</ele><time>2026-04-19T10:21:29Z</time></trkpt><trkpt lat="40.749563392903454" lon="15.029612401738177"><ele>702.0</ele><time>2026-04-19T10:21:30Z</time></trkpt><trkpt lat="40.74958882013418" lon="15.029721465329219"><ele>702.0</ele><time>2026-04-19T10:21:31Z</time></trkpt><trkpt lat="40.749610838450124" lon="15.029821390731449"><ele>702.0</ele><time>2026-04-19T10:21:32Z</time></trkpt><trkpt lat="40.74962544273049" lon="15.029934281725055"><ele>702.0</ele><time>2026-04-19T10:21:33Z</time></trkpt><trkpt lat="40.74964244263884" lon="15.030048562438676"><ele>702.0</ele><time>2026-04-19T10:21:34Z</time></trkpt><trkpt lat="40.74967335275073" lon="15.03015741940473"><ele>702.0</ele><time>2026-04-19T10:21:35Z</time></trkpt><trkpt lat="40.74970210123261" lon="15.030281834534717"><ele>702.0</ele><time>2026-04-19T10:21:36Z</time></trkpt><trkpt lat="40.749721880441946" lon="15.030371913285194"><ele>701.2</ele><time>2026-04-19T10:21:37Z</time></trkpt><trkpt lat="40.74967212808257" lon="15.030518948630085"><ele>700.4000000000001</ele><time>2026-04-19T10:21:39Z</time></trkpt><trkpt lat="40.74963122457916" lon="15.030629719598869"><ele>699.5999999999999</ele><time>2026-04-19T10:21:40Z</time></trkpt><trkpt lat="40.74962186282985" lon="15.030734824764476"><ele>698.8</ele><time>2026-04-19T10:21:41Z</time></trkpt><trkpt lat="40.749637534836204" lon="15.030835373869973"><ele>698.0</ele><time>2026-04-19T10:21:42Z</time></trkpt><trkpt lat="40.74966150088075" lon="15.030942503857958"><ele>697.6666666666666</ele><time>2026-04-19T10:21:43Z</time></trkpt><trkpt lat="40.74969811651781" lon="15.031032411315953"><ele>697.3333333333333</ele><time>2026-04-19T10:21:44Z</time></trkpt><trkpt lat="40.74975001570963" lon="15.031103068573998"><ele>697.0</ele><time>2026-04-19T10:21:45Z</time></trkpt><trkpt lat="40.74979307103405" lon="15.031240548397497"><ele>696.6666666666666</ele><time>2026-04-19T10:21:47Z</time></trkpt><trkpt lat="40.74977893657032" lon="15.031384013274776"><ele>696.3333333333334</ele><time>2026-04-19T10:21:49Z</time></trkpt><trkpt lat="40.7497718045158" lon="15.031479136752207"><ele>696.0</ele><time>2026-04-19T10:21:50Z</time></trkpt><trkpt lat="40.74977662906614" lon="15.03156579434909"><ele>697.0</ele><time>2026-04-19T10:21:51Z</time></trkpt><trkpt lat="40.749784072569625" lon="15.031727165150544"><ele>698.0</ele><time>2026-04-19T10:21:53Z</time></trkpt><trkpt lat="40.749805316979035" lon="15.031808204655354"><ele>699.0</ele><time>2026-04-19T10:21:54Z</time></trkpt><trkpt lat="40.74984236184077" lon="15.03191039589348"><ele>700.0</ele><time>2026-04-19T10:21:55Z</time></trkpt><trkpt lat="40.74985974353346" lon="15.032004995210128"><ele>701.0</ele><time>2026-04-19T10:21:56Z</time></trkpt><trkpt lat="40.749854135225874" lon="15.032093939294358"><ele>702.0</ele><time>2026-04-19T10:21:57Z</time></trkpt><trkpt lat="40.749835838276724" lon="15.03217996882715"><ele>702.0000000000001</ele><time>2026-04-19T10:21:58Z</time></trkpt><trkpt lat="40.74981870661738" lon="15.032265009018102"><ele>702.0</ele><time>2026-04-19T10:21:59Z</time></trkpt><trkpt lat="40.749781001552336" lon="15.032344308830911"><ele>702.0</ele><time>2026-04-19T10:22:00Z</time></trkpt><trkpt lat="40.74971886365026" lon="15.032407894571685"><ele>702.0</ele><time>2026-04-19T10:22:01Z</time></trkpt><trkpt lat="40.74965736383636" lon="15.032459089233372"><ele>702.0</ele><time>2026-04-19T10:22:02Z</time></trkpt><trkpt lat="40.749599321185954" lon="15.032517409380837"><ele>702.0000000000001</ele><time>2026-04-19T10:22:03Z</time></trkpt><trkpt lat="40.74955448773106" lon="15.032581889340207"><ele>702.0</ele><time>2026-04-19T10:22:04Z</time></trkpt><trkpt lat="40.74949792945289" lon="15.032701426781948"><ele>702.2</ele><time>2026-04-19T10:22:06Z</time></trkpt><trkpt lat="40.74946510234729" lon="15.032775388816079"><ele>702.4000000000001</ele><time>2026-04-19T10:22:08Z</time></trkpt><trkpt lat="40.74945926108404" lon="15.032907224814753"><ele>702.5999999999999</ele><time>2026-04-19T10:22:10Z</time></trkpt><trkpt lat="40.749491671442165" lon="15.033043894228152"><ele>702.8</ele><time>2026-04-19T10:22:12Z</time></trkpt><trkpt lat="40.74952641231818" lon="15.033194423966071"><ele>703.0</ele><time>2026-04-19T10:22:14Z</time></trkpt><trkpt lat="40.749538956888216" lon="15.033350303328179"><ele>701.2</ele><time>2026-04-19T10:22:16Z</time></trkpt><trkpt lat="40.74955045779302" lon="15.033519657927076"><ele>699.4</ele><time>2026-04-19T10:22:18Z</time></trkpt><trkpt lat="40.74954225687199" lon="15.033676929370971"><ele>697.6</ele><time>2026-04-19T10:22:20Z</time></trkpt><trkpt lat="40.74951264884066" lon="15.033781328043954"><ele>695.8000000000001</ele><time>2026-04-19T10:22:21Z</time></trkpt><trkpt lat="40.74948650325848" lon="15.033918434203342"><ele>694.0</ele><time>2026-04-19T10:22:23Z</time></trkpt><trkpt lat="40.74949141940362" lon="15.034078081415984"><ele>691.0</ele><time>2026-04-19T10:22:25Z</time></trkpt><trkpt lat="40.749509624486734" lon="15.034186023619839"><ele>688.0</ele><time>2026-04-19T10:22:26Z</time></trkpt><trkpt lat="40.74952257343992" lon="15.03428788658947"><ele>685.0</ele><time>2026-04-19T10:22:27Z</time></trkpt><trkpt lat="40.74952766203568" lon="15.034383284486479"><ele>682.0</ele><time>2026-04-19T10:22:28Z</time></trkpt><trkpt lat="40.74951567167551" lon="15.03447908252662"><ele>679.0</ele><time>2026-04-19T10:22:29Z</time></trkpt><trkpt lat="40.74950396213031" lon="15.034570574774742"><ele>676.0</ele><time>2026-04-19T10:22:30Z</time></trkpt><trkpt lat="40.74949057517252" lon="15.034652819024382"><ele>673.0</ele><time>2026-04-19T10:22:31Z</time></trkpt><trkpt lat="40.74948797960844" lon="15.034803508241204"><ele>673.0</ele><time>2026-04-19T10:22:33Z</time></trkpt><trkpt lat="40.749496255491856" lon="15.03488741394998"><ele>673.0</ele><time>2026-04-19T10:22:34Z</time></trkpt><trkpt lat="40.749510987576556" lon="15.034971726674762"><ele>673.0</ele><time>2026-04-19T10:22:35Z</time></trkpt><trkpt lat="40.74952024485579" lon="15.035074337584232"><ele>673.0</ele><time>2026-04-19T10:22:36Z</time></trkpt><trkpt lat="40.74951722120123" lon="15.03523018100994"><ele>673.0</ele><time>2026-04-19T10:22:38Z</time></trkpt><trkpt lat="40.74948915559863" lon="15.035368284081999"><ele>673.0</ele><time>2026-04-19T10:22:40Z</time></trkpt><trkpt lat="40.749423001629914" lon="15.035496635251736"><ele>671.0</ele><time>2026-04-19T10:22:42.001Z</time></trkpt><trkpt lat="40.7493785021197" lon="15.0355752940271"><ele>669.0</ele><time>2026-04-19T10:22:43Z</time></trkpt><trkpt lat="40.74934156321335" lon="15.035644412559062"><ele>667.0</ele><time>2026-04-19T10:22:44Z</time></trkpt><trkpt lat="40.74931567799055" lon="15.03572798602893"><ele>665.0</ele><time>2026-04-19T10:22:45.001Z</time></trkpt><trkpt lat="40.749308056912184" lon="15.035900720183337"><ele>663.0</ele><time>2026-04-19T10:22:47Z</time></trkpt><trkpt lat="40.74931551223115" lon="15.036006921228363"><ele>661.0</ele><time>2026-04-19T10:22:48.001Z</time></trkpt><trkpt lat="40.749302977545" lon="15.036101527234871"><ele>660.0</ele><time>2026-04-19T10:22:49.001Z</time></trkpt><trkpt lat="40.749289843104734" lon="15.036240388650436"><ele>659.0</ele><time>2026-04-19T10:22:51.001Z</time></trkpt><trkpt lat="40.749190945530515" lon="15.03629564948183"><ele>658.0</ele><time>2026-04-19T10:22:53.001Z</time></trkpt><trkpt lat="40.749080534498766" lon="15.036287527186795"><ele>657.0</ele><time>2026-04-19T10:22:55.001Z</time></trkpt><trkpt lat="40.74901479076068" lon="15.036292017461202"><ele>656.0</ele><time>2026-04-19T10:22:56.001Z</time></trkpt><trkpt lat="40.748922814347516" lon="15.036256604756213"><ele>656.0</ele><time>2026-04-19T10:22:57.001Z</time></trkpt><trkpt lat="40.748825305067" lon="15.03621813008373"><ele>656.0</ele><time>2026-04-19T10:22:58.001Z</time></trkpt><trkpt lat="40.74875065097427" lon="15.036218325849891"><ele>656.0</ele><time>2026-04-19T10:22:59.001Z</time></trkpt><trkpt lat="40.748678923107036" lon="15.036245983341056"><ele>656.0</ele><time>2026-04-19T10:23:00.001Z</time></trkpt><trkpt lat="40.74860169483168" lon="15.036285041771775"><ele>656.0</ele><time>2026-04-19T10:23:01.001Z</time></trkpt><trkpt lat="40.74851586872154" lon="15.036366297922356"><ele>656.0</ele><time>2026-04-19T10:23:02.001Z</time></trkpt><trkpt lat="40.74844551812832" lon="15.036435472912826"><ele>655.5</ele><time>2026-04-19T10:23:03.001Z</time></trkpt><trkpt lat="40.748403303516575" lon="15.036505534880286"><ele>655.0</ele><time>2026-04-19T10:23:04.001Z</time></trkpt><trkpt lat="40.74835376628383" lon="15.036597373364714"><ele>654.5</ele><time>2026-04-19T10:23:05.001Z</time></trkpt><trkpt lat="40.74831581792024" lon="15.036673837926722"><ele>654.0</ele><time>2026-04-19T10:23:06.001Z</time></trkpt><trkpt lat="40.748312324308074" lon="15.036784435361392"><ele>653.5</ele><time>2026-04-19T10:23:08.001Z</time></trkpt><trkpt lat="40.74832948929368" lon="15.03693321797889"><ele>653.0</ele><time>2026-04-19T10:23:10.001Z</time></trkpt><trkpt lat="40.748332521876534" lon="15.037017163713163"><ele>653.0</ele><time>2026-04-19T10:23:11.001Z</time></trkpt><trkpt lat="40.74835602967603" lon="15.03712198066826"><ele>653.0</ele><time>2026-04-19T10:23:12.001Z</time></trkpt><trkpt lat="40.74838380879634" lon="15.037209789477542"><ele>653.0</ele><time>2026-04-19T10:23:13.001Z</time></trkpt><trkpt lat="40.74841596979724" lon="15.037315570949819"><ele>653.0</ele><time>2026-04-19T10:23:14.001Z</time></trkpt><trkpt lat="40.74844248973538" lon="15.037404560508302"><ele>653.0</ele><time>2026-04-19T10:23:15.001Z</time></trkpt><trkpt lat="40.74845175234785" lon="15.0375097982291"><ele>653.0</ele><time>2026-04-19T10:23:16.001Z</time></trkpt><trkpt lat="40.74844228013819" lon="15.037609174517247"><ele>652.1666666666666</ele><time>2026-04-19T10:23:17.001Z</time></trkpt><trkpt lat="40.748430890530244" lon="15.037699716033858"><ele>651.3333333333333</ele><time>2026-04-19T10:23:18.001Z</time></trkpt><trkpt lat="40.74839751828372" lon="15.03779421587501"><ele>650.5</ele><time>2026-04-19T10:23:19.001Z</time></trkpt><trkpt lat="40.74838079281768" lon="15.037887189996741"><ele>649.6666666666666</ele><time>2026-04-19T10:23:20.001Z</time></trkpt><trkpt lat="40.74835237613358" lon="15.038042191761079"><ele>648.8333333333334</ele><time>2026-04-19T10:23:22.001Z</time></trkpt><trkpt lat="40.74837311653377" lon="15.038144820697852"><ele>648.0</ele><time>2026-04-19T10:23:23.001Z</time></trkpt><trkpt lat="40.748417681972185" lon="15.03832803980076"><ele>647.1666666666666</ele><time>2026-04-19T10:23:25Z</time></trkpt><trkpt lat="40.74843952096043" lon="15.03842849554224"><ele>646.3333333333334</ele><time>2026-04-19T10:23:26Z</time></trkpt><trkpt lat="40.74847747395501" lon="15.038526484254486"><ele>645.5</ele><time>2026-04-19T10:23:27Z</time></trkpt><trkpt lat="40.74851759687221" lon="15.038628496124469"><ele>644.6666666666667</ele><time>2026-04-19T10:23:28Z</time></trkpt><trkpt lat="40.74855597555279" lon="15.038715016782275"><ele>643.8333333333334</ele><time>2026-04-19T10:23:29Z</time></trkpt><trkpt lat="40.748594316033376" lon="15.038796814607437"><ele>643.0</ele><time>2026-04-19T10:23:30Z</time></trkpt><trkpt lat="40.748631596990045" lon="15.038873559231728"><ele>642.4285714285714</ele><time>2026-04-19T10:23:31Z</time></trkpt><trkpt lat="40.74864856440422" lon="15.038964232107675"><ele>641.8571428571429</ele><time>2026-04-19T10:23:32Z</time></trkpt><trkpt lat="40.74867487980151" lon="15.039056111924156"><ele>641.2857142857143</ele><time>2026-04-19T10:23:33Z</time></trkpt><trkpt lat="40.748703765833135" lon="15.039139930128837"><ele>640.7142857142858</ele><time>2026-04-19T10:23:34Z</time></trkpt><trkpt lat="40.74872555769188" lon="15.039218417992128"><ele>640.1428571428571</ele><time>2026-04-19T10:23:35Z</time></trkpt><trkpt lat="40.748747588964434" lon="15.039332097418232"><ele>639.5714285714287</ele><time>2026-04-19T10:23:37Z</time></trkpt><trkpt lat="40.748742861978755" lon="15.039424435283184"><ele>639.0</ele><time>2026-04-19T10:23:38Z</time></trkpt><trkpt lat="40.748692060784414" lon="15.03955733819304"><ele>638.2</ele><time>2026-04-19T10:23:40Z</time></trkpt><trkpt lat="40.748650670514586" lon="15.039633077546013"><ele>637.4</ele><time>2026-04-19T10:23:41Z</time></trkpt><trkpt lat="40.74862190805219" lon="15.039804783244778"><ele>636.6</ele><time>2026-04-19T10:23:43Z</time></trkpt><trkpt lat="40.748628868720544" lon="15.039942662275044"><ele>635.8</ele><time>2026-04-19T10:23:45Z</time></trkpt><trkpt lat="40.7486049597083" lon="15.040082371043347"><ele>635.0</ele><time>2026-04-19T10:23:47Z</time></trkpt><trkpt lat="40.74855045218912" lon="15.040229799040828"><ele>634.2</ele><time>2026-04-19T10:23:49Z</time></trkpt><trkpt lat="40.74851583445756" lon="15.040300829277749"><ele>633.4</ele><time>2026-04-19T10:23:50Z</time></trkpt><trkpt lat="40.7484728295707" lon="15.04042870831639"><ele>632.6</ele><time>2026-04-19T10:23:52Z</time></trkpt><trkpt lat="40.74841462449039" lon="15.0405466980286"><ele>631.8</ele><time>2026-04-19T10:23:54Z</time></trkpt><trkpt lat="40.748329716285795" lon="15.040660080844813"><ele>631.0</ele><time>2026-04-19T10:23:56Z</time></trkpt><trkpt lat="40.74828951167894" lon="15.040725058140566"><ele>629.3333333333334</ele><time>2026-04-19T10:23:57Z</time></trkpt><trkpt lat="40.74824628386482" lon="15.040805179676113"><ele>627.6666666666667</ele><time>2026-04-19T10:23:58Z</time></trkpt><trkpt lat="40.74818159263511" lon="15.04093151571441"><ele>626.0</ele><time>2026-04-19T10:24:00Z</time></trkpt><trkpt lat="40.748123967489676" lon="15.041019279605658"><ele>624.3333333333334</ele><time>2026-04-19T10:24:02Z</time></trkpt><trkpt lat="40.74808964335642" lon="15.041139255037974"><ele>622.6666666666666</ele><time>2026-04-19T10:24:04Z</time></trkpt><trkpt lat="40.74804762602838" lon="15.041218748565013"><ele>621.0</ele><time>2026-04-19T10:24:06Z</time></trkpt><trkpt lat="40.747940015017974" lon="15.041241915355148"><ele>621.0</ele><time>2026-04-19T10:24:08Z</time></trkpt><trkpt lat="40.747846668049334" lon="15.041272346351867"><ele>621.0</ele><time>2026-04-19T10:24:10Z</time></trkpt><trkpt lat="40.74777955288707" lon="15.04134126926734"><ele>621.0</ele><time>2026-04-19T10:24:12Z</time></trkpt><trkpt lat="40.74776127590668" lon="15.041442706423387"><ele>621.0</ele><time>2026-04-19T10:24:14Z</time></trkpt><trkpt lat="40.74772001270648" lon="15.041567674868462"><ele>621.0</ele><time>2026-04-19T10:24:17Z</time></trkpt><trkpt lat="40.74768371221245" lon="15.041662715504177"><ele>621.0</ele><time>2026-04-19T10:24:19Z</time></trkpt><trkpt lat="40.74765820206238" lon="15.041760624272495"><ele>618.5</ele><time>2026-04-19T10:24:21Z</time></trkpt><trkpt lat="40.74763298894124" lon="15.041870411717872"><ele>616.0</ele><time>2026-04-19T10:24:23Z</time></trkpt><trkpt lat="40.747572728810994" lon="15.041946055819619"><ele>613.5</ele><time>2026-04-19T10:24:25Z</time></trkpt><trkpt lat="40.747481394758864" lon="15.042008669795079"><ele>611.0</ele><time>2026-04-19T10:24:27Z</time></trkpt><trkpt lat="40.7474023096757" lon="15.042045174964892"><ele>608.5</ele><time>2026-04-19T10:24:29Z</time></trkpt><trkpt lat="40.74734157387399" lon="15.042092457346909"><ele>606.0</ele><time>2026-04-19T10:24:31Z</time></trkpt><trkpt lat="40.74729693173596" lon="15.042169887488278"><ele>606.0</ele><time>2026-04-19T10:24:33Z</time></trkpt><trkpt lat="40.747272077419474" lon="15.0422807780982"><ele>606.0</ele><time>2026-04-19T10:24:35Z</time></trkpt><trkpt lat="40.747231833853164" lon="15.042397692039339"><ele>606.0</ele><time>2026-04-19T10:24:37Z</time></trkpt><trkpt lat="40.74721648838299" lon="15.042493151437993"><ele>606.0</ele><time>2026-04-19T10:24:39Z</time></trkpt><trkpt lat="40.747185510858515" lon="15.042621011740204"><ele>606.0</ele><time>2026-04-19T10:24:41Z</time></trkpt><trkpt lat="40.74714449028818" lon="15.042701822795657"><ele>606.0</ele><time>2026-04-19T10:24:43Z</time></trkpt><trkpt lat="40.74705042706282" lon="15.042775470754515"><ele>604.5</ele><time>2026-04-19T10:24:45.001Z</time></trkpt><trkpt lat="40.746974564660384" lon="15.04286171814611"><ele>603.0</ele><time>2026-04-19T10:24:47Z</time></trkpt><trkpt lat="40.746922026764466" lon="15.042915336977506"><ele>601.5</ele><time>2026-04-19T10:24:49Z</time></trkpt><trkpt lat="40.74685093825352" lon="15.042973455180178"><ele>600.0</ele><time>2026-04-19T10:24:52.001Z</time></trkpt><trkpt lat="40.74683110817916" lon="15.04306225459559"><ele>598.5</ele><time>2026-04-19T10:25:03Z</time></trkpt><trkpt lat="40.74680956689413" lon="15.043164826173513"><ele>597.0</ele><time>2026-04-19T10:25:05Z</time></trkpt><trkpt lat="40.746822364347345" lon="15.043303960434493"><ele>596.6666666666666</ele><time>2026-04-19T10:25:07Z</time></trkpt><trkpt lat="40.74681012415916" lon="15.043385777383214"><ele>596.3333333333334</ele><time>2026-04-19T10:25:08Z</time></trkpt><trkpt lat="40.74681121570354" lon="15.043503745733666"><ele>596.0</ele><time>2026-04-19T10:25:09Z</time></trkpt><trkpt lat="40.74680533900556" lon="15.043642285098754"><ele>595.6666666666667</ele><time>2026-04-19T10:25:10Z</time></trkpt><trkpt lat="40.74677248716328" lon="15.043741575875886"><ele>595.3333333333334</ele><time>2026-04-19T10:25:11Z</time></trkpt><trkpt lat="40.74676423025354" lon="15.04383240191949"><ele>595.0</ele><time>2026-04-19T10:25:12Z</time></trkpt><trkpt lat="40.74675674082042" lon="15.043916379003328"><ele>595.0</ele><time>2026-04-19T10:25:13Z</time></trkpt><trkpt lat="40.746748879356545" lon="15.044073421619094"><ele>595.0</ele><time>2026-04-19T10:25:15Z</time></trkpt><trkpt lat="40.74671333492309" lon="15.04417280360485"><ele>595.0</ele><time>2026-04-19T10:25:17Z</time></trkpt><trkpt lat="40.74666620895003" lon="15.044236387338614"><ele>595.0</ele><time>2026-04-19T10:25:19Z</time></trkpt><trkpt lat="40.746539187530075" lon="15.044297983942037"><ele>595.0</ele><time>2026-04-19T10:25:21Z</time></trkpt><trkpt lat="40.74644681920445" lon="15.044370499649869"><ele>594.5</ele><time>2026-04-19T10:25:22Z</time></trkpt><trkpt lat="40.74637713165964" lon="15.044473084236731"><ele>594.0</ele><time>2026-04-19T10:25:23Z</time></trkpt><trkpt lat="40.74631028664047" lon="15.044606281128866"><ele>593.5</ele><time>2026-04-19T10:25:24Z</time></trkpt><trkpt lat="40.74624885022772" lon="15.04475234455373"><ele>593.0</ele><time>2026-04-19T10:25:25Z</time></trkpt><trkpt lat="40.746187313209454" lon="15.044929894863271"><ele>593.0</ele><time>2026-04-19T10:25:26Z</time></trkpt><trkpt lat="40.746128798271116" lon="15.045131808926785"><ele>593.0</ele><time>2026-04-19T10:25:27Z</time></trkpt><trkpt lat="40.74606893225943" lon="15.045350701969571"><ele>593.0</ele><time>2026-04-19T10:25:28Z</time></trkpt><trkpt lat="40.74600219549869" lon="15.045536592336619"><ele>591.75</ele><time>2026-04-19T10:25:29Z</time></trkpt><trkpt lat="40.7459495634736" lon="15.045704853524697"><ele>590.5</ele><time>2026-04-19T10:25:30Z</time></trkpt><trkpt lat="40.745890842020685" lon="15.045850765813064"><ele>589.25</ele><time>2026-04-19T10:25:31Z</time></trkpt><trkpt lat="40.7458446716124" lon="15.045972462883094"><ele>588.0</ele><time>2026-04-19T10:25:32Z</time></trkpt><trkpt lat="40.745798741486254" lon="15.046070964193618"><ele>588.0</ele><time>2026-04-19T10:25:33Z</time></trkpt><trkpt lat="40.74575334553922" lon="15.046170038541552"><ele>588.0</ele><time>2026-04-19T10:25:34Z</time></trkpt><trkpt lat="40.74571768663714" lon="15.046241335298621"><ele>588.0</ele><time>2026-04-19T10:25:35Z</time></trkpt><trkpt lat="40.7456866519347" lon="15.046329910816615"><ele>588.0</ele><time>2026-04-19T10:25:36Z</time></trkpt><trkpt lat="40.74566002412492" lon="15.04640587139408"><ele>588.0</ele><time>2026-04-19T10:25:37Z</time></trkpt><trkpt lat="40.74559684568081" lon="15.046545504738779"><ele>588.0</ele><time>2026-04-19T10:25:39Z</time></trkpt><trkpt lat="40.74556064247625" lon="15.046618215629264"><ele>589.1999999999999</ele><time>2026-04-19T10:25:40Z</time></trkpt><trkpt lat="40.74549370106661" lon="15.046698521328464"><ele>590.4</ele><time>2026-04-19T10:25:41Z</time></trkpt><trkpt lat="40.745419302316115" lon="15.046764384172306"><ele>591.5999999999999</ele><time>2026-04-19T10:25:42Z</time></trkpt><trkpt lat="40.74532983087462" lon="15.046810563943897"><ele>592.8</ele><time>2026-04-19T10:25:43Z</time></trkpt><trkpt lat="40.745215920952525" lon="15.046846691073704"><ele>594.0</ele><time>2026-04-19T10:25:44Z</time></trkpt><trkpt lat="40.745100779131334" lon="15.04686599744558"><ele>594.25</ele><time>2026-04-19T10:25:45Z</time></trkpt><trkpt lat="40.744987197427335" lon="15.046871951235255"><ele>594.5</ele><time>2026-04-19T10:25:46Z</time></trkpt><trkpt lat="40.74486359099052" lon="15.04686383493244"><ele>594.75</ele><time>2026-04-19T10:25:47Z</time></trkpt><trkpt lat="40.7447349531664" lon="15.046862486014675"><ele>595.0</ele><time>2026-04-19T10:25:48Z</time></trkpt><trkpt lat="40.74460042999361" lon="15.046857019244428"><ele>595.0</ele><time>2026-04-19T10:25:49Z</time></trkpt><trkpt lat="40.74447658345887" lon="15.046854193031011"><ele>595.0</ele><time>2026-04-19T10:25:50Z</time></trkpt><trkpt lat="40.744343611252255" lon="15.046848648446502"><ele>595.0</ele><time>2026-04-19T10:25:51Z</time></trkpt><trkpt lat="40.74421624441967" lon="15.046827143534365"><ele>595.0</ele><time>2026-04-19T10:25:52Z</time></trkpt><trkpt lat="40.744094543630446" lon="15.046768674633991"><ele>593.5</ele><time>2026-04-19T10:25:53Z</time></trkpt><trkpt lat="40.74399743193897" lon="15.046670577269495"><ele>592.0</ele><time>2026-04-19T10:25:54Z</time></trkpt><trkpt lat="40.74390598220009" lon="15.046560826962782"><ele>590.5</ele><time>2026-04-19T10:25:55Z</time></trkpt><trkpt lat="40.74382083818734" lon="15.046434876439616"><ele>589.0</ele><time>2026-04-19T10:25:56Z</time></trkpt><trkpt lat="40.74370516848607" lon="15.046302631146355"><ele>589.0</ele><time>2026-04-19T10:25:57Z</time></trkpt><trkpt lat="40.74358027948548" lon="15.046195058106912"><ele>589.0</ele><time>2026-04-19T10:25:58Z</time></trkpt><trkpt lat="40.74346683940664" lon="15.046101238384388"><ele>589.0</ele><time>2026-04-19T10:25:59Z</time></trkpt><trkpt lat="40.743335567893205" lon="15.04602573816638"><ele>589.0</ele><time>2026-04-19T10:26:00Z</time></trkpt><trkpt lat="40.74319752500388" lon="15.045961686648997"><ele>591.75</ele><time>2026-04-19T10:26:01Z</time></trkpt><trkpt lat="40.743067708435134" lon="15.04589879614927"><ele>594.5</ele><time>2026-04-19T10:26:02Z</time></trkpt><trkpt lat="40.74295890453148" lon="15.045862637963646"><ele>597.25</ele><time>2026-04-19T10:26:03Z</time></trkpt><trkpt lat="40.742852394344595" lon="15.045836517157241"><ele>600.0</ele><time>2026-04-19T10:26:04Z</time></trkpt><trkpt lat="40.7427515152244" lon="15.045814027150817"><ele>598.0</ele><time>2026-04-19T10:26:05Z</time></trkpt><trkpt lat="40.74264806239464" lon="15.045793991161085"><ele>596.0</ele><time>2026-04-19T10:26:06Z</time></trkpt><trkpt lat="40.74253610670786" lon="15.045775221104472"><ele>594.0</ele><time>2026-04-19T10:26:07Z</time></trkpt><trkpt lat="40.74241848081486" lon="15.045743461554597"><ele>592.0</ele><time>2026-04-19T10:26:08Z</time></trkpt><trkpt lat="40.74230617808075" lon="15.045715191051272"><ele>592.0</ele><time>2026-04-19T10:26:09Z</time></trkpt><trkpt lat="40.74217756437212" lon="15.045662960687617"><ele>592.0</ele><time>2026-04-19T10:26:10Z</time></trkpt><trkpt lat="40.742062567443135" lon="15.045577173947102"><ele>592.0</ele><time>2026-04-19T10:26:11Z</time></trkpt><trkpt lat="40.7419666234405" lon="15.04546768366395"><ele>592.0</ele><time>2026-04-19T10:26:12Z</time></trkpt><trkpt lat="40.74187606144026" lon="15.045368136037672"><ele>594.25</ele><time>2026-04-19T10:26:13Z</time></trkpt><trkpt lat="40.74178634934511" lon="15.04528426764832"><ele>596.5</ele><time>2026-04-19T10:26:14Z</time></trkpt><trkpt lat="40.74168045804441" lon="15.045233254990773"><ele>598.75</ele><time>2026-04-19T10:26:15Z</time></trkpt><trkpt lat="40.741548502003994" lon="15.04518359917141"><ele>601.0</ele><time>2026-04-19T10:26:16Z</time></trkpt><trkpt lat="40.74143776109204" lon="15.045174127571062"><ele>601.0</ele><time>2026-04-19T10:26:17Z</time></trkpt><trkpt lat="40.741324523251734" lon="15.045186410272331"><ele>601.0</ele><time>2026-04-19T10:26:18Z</time></trkpt><trkpt lat="40.741206598481845" lon="15.045197635656736"><ele>601.0</ele><time>2026-04-19T10:26:19Z</time></trkpt><trkpt lat="40.74110655947851" lon="15.045207554877248"><ele>601.0</ele><time>2026-04-19T10:26:20Z</time></trkpt><trkpt lat="40.74099776380626" lon="15.045239257921795"><ele>601.0</ele><time>2026-04-19T10:26:21Z</time></trkpt><trkpt lat="40.740888238474895" lon="15.045263215880537"><ele>603.6</ele><time>2026-04-19T10:26:22Z</time></trkpt><trkpt lat="40.74078394986644" lon="15.045313178488009"><ele>606.2</ele><time>2026-04-19T10:26:23Z</time></trkpt><trkpt lat="40.74068299499206" lon="15.045360923466708"><ele>608.8</ele><time>2026-04-19T10:26:24Z</time></trkpt><trkpt lat="40.74058845736451" lon="15.045392556069896"><ele>611.4</ele><time>2026-04-19T10:26:25Z</time></trkpt><trkpt lat="40.74049134183778" lon="15.045428990072004"><ele>614.0</ele><time>2026-04-19T10:26:26Z</time></trkpt><trkpt lat="40.74040269681492" lon="15.045471977212507"><ele>614.0</ele><time>2026-04-19T10:26:27Z</time></trkpt><trkpt lat="40.74031245452524" lon="15.045497531960626"><ele>614.0</ele><time>2026-04-19T10:26:28Z</time></trkpt><trkpt lat="40.7402118174703" lon="15.045510519089449"><ele>614.0</ele><time>2026-04-19T10:26:29Z</time></trkpt><trkpt lat="40.740114648508126" lon="15.045510712345823"><ele>614.0</ele><time>2026-04-19T10:26:30Z</time></trkpt><trkpt lat="40.74000399260258" lon="15.045504182710367"><ele>614.0</ele><time>2026-04-19T10:26:31Z</time></trkpt><trkpt lat="40.73989357173322" lon="15.045484922075907"><ele>616.0</ele><time>2026-04-19T10:26:32Z</time></trkpt><trkpt lat="40.73977923755622" lon="15.045449058159518"><ele>618.0</ele><time>2026-04-19T10:26:33Z</time></trkpt><trkpt lat="40.73966088888149" lon="15.045405806981726"><ele>620.0</ele><time>2026-04-19T10:26:34Z</time></trkpt><trkpt lat="40.73954070466509" lon="15.045369148574942"><ele>622.0</ele><time>2026-04-19T10:26:35Z</time></trkpt><trkpt lat="40.739412221385656" lon="15.045324340342994"><ele>626.0</ele><time>2026-04-19T10:26:36Z</time></trkpt><trkpt lat="40.739271723491726" lon="15.0452807298422"><ele>630.0</ele><time>2026-04-19T10:26:37Z</time></trkpt><trkpt lat="40.73912296230502" lon="15.045253211878853"><ele>634.0</ele><time>2026-04-19T10:26:38Z</time></trkpt><trkpt lat="40.738963292528396" lon="15.045213787497085"><ele>634.0</ele><time>2026-04-19T10:26:39Z</time></trkpt><trkpt lat="40.73879090886187" lon="15.045155950300703"><ele>634.0</ele><time>2026-04-19T10:26:40Z</time></trkpt><trkpt lat="40.738608688858115" lon="15.045115378035515"><ele>634.0</ele><time>2026-04-19T10:26:41Z</time></trkpt><trkpt lat="40.73842330416782" lon="15.045098365284796"><ele>634.0</ele><time>2026-04-19T10:26:42Z</time></trkpt><trkpt lat="40.7382624420839" lon="15.045070317529872"><ele>634.0</ele><time>2026-04-19T10:26:43Z</time></trkpt><trkpt lat="40.73812407246936" lon="15.045036819111441"><ele>634.0</ele><time>2026-04-19T10:26:44Z</time></trkpt><trkpt lat="40.73800361767364" lon="15.044989545820844"><ele>634.0</ele><time>2026-04-19T10:26:45Z</time></trkpt><trkpt lat="40.73788077895223" lon="15.04491873051689"><ele>634.0</ele><time>2026-04-19T10:26:46Z</time></trkpt><trkpt lat="40.73775627932906" lon="15.044843429280727"><ele>634.0</ele><time>2026-04-19T10:26:47Z</time></trkpt><trkpt lat="40.73763763737151" lon="15.044773490766875"><ele>634.0</ele><time>2026-04-19T10:26:48Z</time></trkpt><trkpt lat="40.73753266868075" lon="15.04472204648396"><ele>634.0</ele><time>2026-04-19T10:26:49Z</time></trkpt><trkpt lat="40.73744201618558" lon="15.044693996517669"><ele>635.3333333333334</ele><time>2026-04-19T10:26:50Z</time></trkpt><trkpt lat="40.737374241270864" lon="15.04467719814578"><ele>636.6666666666667</ele><time>2026-04-19T10:26:51.001Z</time></trkpt><trkpt lat="40.737310744536686" lon="15.04472512821105"><ele>638.0</ele><time>2026-04-19T10:26:54.001Z</time></trkpt><trkpt lat="40.737346404230934" lon="15.04480575002276"><ele>639.3333333333334</ele><time>2026-04-19T10:26:56.001Z</time></trkpt><trkpt lat="40.73741348598258" lon="15.04485533709934"><ele>640.6666666666666</ele><time>2026-04-19T10:26:57.001Z</time></trkpt><trkpt lat="40.73750059553184" lon="15.044899368230741"><ele>642.0</ele><time>2026-04-19T10:26:58.001Z</time></trkpt><trkpt lat="40.737602885400385" lon="15.044962259237526"><ele>641.8</ele><time>2026-04-19T10:26:59.001Z</time></trkpt><trkpt lat="40.73770537919914" lon="15.045015420468976"><ele>641.6</ele><time>2026-04-19T10:27:00.001Z</time></trkpt><trkpt lat="40.73777274074314" lon="15.045081037721838"><ele>641.4</ele><time>2026-04-19T10:27:01.001Z</time></trkpt><trkpt lat="40.73776130597224" lon="15.045216604477302"><ele>641.1999999999999</ele><time>2026-04-19T10:27:03.001Z</time></trkpt><trkpt lat="40.737698810952956" lon="15.045242193762707"><ele>641.0</ele><time>2026-04-19T10:27:04Z</time></trkpt><trkpt lat="40.737604067836365" lon="15.045206593125743"><ele>641.25</ele><time>2026-04-19T10:27:05Z</time></trkpt><trkpt lat="40.737516018545904" lon="15.045114240683652"><ele>641.5</ele><time>2026-04-19T10:27:06Z</time></trkpt><trkpt lat="40.73739723477681" lon="15.045033669123532"><ele>641.75</ele><time>2026-04-19T10:27:07Z</time></trkpt><trkpt lat="40.7372553960076" lon="15.044948992727651"><ele>642.0</ele><time>2026-04-19T10:27:08Z</time></trkpt><trkpt lat="40.73707567246711" lon="15.044864103678089"><ele>642.0</ele><time>2026-04-19T10:27:09Z</time></trkpt><trkpt lat="40.73690727822743" lon="15.04475994270935"><ele>642.0</ele><time>2026-04-19T10:27:10Z</time></trkpt><trkpt lat="40.736742150462526" lon="15.044636343399958"><ele>642.0</ele><time>2026-04-19T10:27:11Z</time></trkpt><trkpt lat="40.73659157792719" lon="15.044506015740051"><ele>644.5</ele><time>2026-04-19T10:27:12Z</time></trkpt><trkpt lat="40.73647483609822" lon="15.04436625547903"><ele>647.0</ele><time>2026-04-19T10:27:13Z</time></trkpt><trkpt lat="40.736363970213766" lon="15.044247735065902"><ele>649.5</ele><time>2026-04-19T10:27:14Z</time></trkpt><trkpt lat="40.73625854381149" lon="15.044181827835187"><ele>652.0</ele><time>2026-04-19T10:27:15Z</time></trkpt><trkpt lat="40.73615934887584" lon="15.044170836013677"><ele>652.0</ele><time>2026-04-19T10:27:16Z</time></trkpt><trkpt lat="40.73607967105362" lon="15.044225382833954"><ele>652.0</ele><time>2026-04-19T10:27:17Z</time></trkpt><trkpt lat="40.73602992321136" lon="15.044311805409697"><ele>652.0</ele><time>2026-04-19T10:27:18Z</time></trkpt><trkpt lat="40.735991640689356" lon="15.044409967646498"><ele>652.0</ele><time>2026-04-19T10:27:19Z</time></trkpt><trkpt lat="40.73593600566211" lon="15.04451415593897"><ele>652.0</ele><time>2026-04-19T10:27:20Z</time></trkpt><trkpt lat="40.735869330943004" lon="15.04459729055637"><ele>652.0</ele><time>2026-04-19T10:27:21Z</time></trkpt><trkpt lat="40.73577718330343" lon="15.04466228173878"><ele>653.5</ele><time>2026-04-19T10:27:22Z</time></trkpt><trkpt lat="40.73566330294063" lon="15.044728195344245"><ele>655.0</ele><time>2026-04-19T10:27:23Z</time></trkpt><trkpt lat="40.73556121106088" lon="15.04482233574677"><ele>656.5</ele><time>2026-04-19T10:27:24Z</time></trkpt><trkpt lat="40.73546310817535" lon="15.04493635911702"><ele>658.0</ele><time>2026-04-19T10:27:25Z</time></trkpt><trkpt lat="40.73538476814179" lon="15.045077515589085"><ele>658.5</ele><time>2026-04-19T10:27:26Z</time></trkpt><trkpt lat="40.735335513884465" lon="15.045226218167425"><ele>659.0</ele><time>2026-04-19T10:27:27Z</time></trkpt><trkpt lat="40.73529988229091" lon="15.045390906721916"><ele>659.5</ele><time>2026-04-19T10:27:28Z</time></trkpt><trkpt lat="40.735266281008435" lon="15.045541396807126"><ele>660.0</ele><time>2026-04-19T10:27:29Z</time></trkpt><trkpt lat="40.735215362889456" lon="15.045673107351018"><ele>660.0</ele><time>2026-04-19T10:27:30Z</time></trkpt><trkpt lat="40.7351503016543" lon="15.045757310098429"><ele>660.0</ele><time>2026-04-19T10:27:31Z</time></trkpt><trkpt lat="40.73508688855117" lon="15.045800556745482"><ele>660.0</ele><time>2026-04-19T10:27:32Z</time></trkpt><trkpt lat="40.735014885275454" lon="15.045817308679085"><ele>660.0</ele><time>2026-04-19T10:27:33Z</time></trkpt><trkpt lat="40.7348894398874" lon="15.04584185152378"><ele>660.0</ele><time>2026-04-19T10:27:35Z</time></trkpt><trkpt lat="40.73482432369769" lon="15.04591643205084"><ele>660.0</ele><time>2026-04-19T10:27:37Z</time></trkpt><trkpt lat="40.73489323237341" lon="15.046027772703008"><ele>663.4</ele><time>2026-04-19T10:27:39Z</time></trkpt><trkpt lat="40.734977029412164" lon="15.046042688735492"><ele>666.8</ele><time>2026-04-19T10:27:40Z</time></trkpt><trkpt lat="40.73507801748867" lon="15.046041405165775"><ele>670.2</ele><time>2026-04-19T10:27:41Z</time></trkpt><trkpt lat="40.73518779178402" lon="15.046035757864642"><ele>673.6</ele><time>2026-04-19T10:27:42Z</time></trkpt><trkpt lat="40.73530313667711" lon="15.046016053019452"><ele>677.0</ele><time>2026-04-19T10:27:43Z</time></trkpt><trkpt lat="40.73542116468902" lon="15.045996473938457"><ele>680.25</ele><time>2026-04-19T10:27:44Z</time></trkpt><trkpt lat="40.7355361791126" lon="15.04597905194925"><ele>683.5</ele><time>2026-04-19T10:27:45Z</time></trkpt><trkpt lat="40.73565043608505" lon="15.045958871308386"><ele>686.75</ele><time>2026-04-19T10:27:46Z</time></trkpt><trkpt lat="40.73576800766995" lon="15.045945113481617"><ele>690.0</ele><time>2026-04-19T10:27:47Z</time></trkpt><trkpt lat="40.7358913244246" lon="15.045963341948088"><ele>690.0</ele><time>2026-04-19T10:27:48Z</time></trkpt><trkpt lat="40.73602131986831" lon="15.046007930656287"><ele>690.0</ele><time>2026-04-19T10:27:49Z</time></trkpt><trkpt lat="40.73616738813703" lon="15.046054179599695"><ele>690.0</ele><time>2026-04-19T10:27:50Z</time></trkpt><trkpt lat="40.736333717472995" lon="15.046146043286205"><ele>691.3333333333334</ele><time>2026-04-19T10:27:51Z</time></trkpt><trkpt lat="40.736499315967286" lon="15.046223561244824"><ele>692.6666666666667</ele><time>2026-04-19T10:27:52Z</time></trkpt><trkpt lat="40.73667131033957" lon="15.046317916373702"><ele>694.0</ele><time>2026-04-19T10:27:53Z</time></trkpt><trkpt lat="40.736849374599906" lon="15.0463922224467"><ele>691.0</ele><time>2026-04-19T10:27:54Z</time></trkpt><trkpt lat="40.73702595137804" lon="15.046467103442696"><ele>688.0</ele><time>2026-04-19T10:27:55Z</time></trkpt><trkpt lat="40.73720530740086" lon="15.046542215094233"><ele>685.0</ele><time>2026-04-19T10:27:56Z</time></trkpt><trkpt lat="40.73739105051267" lon="15.046618375031214"><ele>688.0</ele><time>2026-04-19T10:27:57Z</time></trkpt><trkpt lat="40.737567306951306" lon="15.046690851851528"><ele>691.0</ele><time>2026-04-19T10:27:58Z</time></trkpt><trkpt lat="40.7377222704552" lon="15.046746492825912"><ele>694.0</ele><time>2026-04-19T10:27:59Z</time></trkpt><trkpt lat="40.737867548001745" lon="15.046783930326463"><ele>694.0</ele><time>2026-04-19T10:28:00Z</time></trkpt><trkpt lat="40.738000561868645" lon="15.046822790726171"><ele>694.0</ele><time>2026-04-19T10:28:01Z</time></trkpt><trkpt lat="40.73810539523839" lon="15.04688472828344"><ele>694.0</ele><time>2026-04-19T10:28:02Z</time></trkpt><trkpt lat="40.73816455907506" lon="15.046995259774462"><ele>694.0</ele><time>2026-04-19T10:28:03Z</time></trkpt><trkpt lat="40.73820815520338" lon="15.047155701905318"><ele>694.0</ele><time>2026-04-19T10:28:04Z</time></trkpt><trkpt lat="40.73824839580126" lon="15.047355106805114"><ele>694.0</ele><time>2026-04-19T10:28:05Z</time></trkpt><trkpt lat="40.73826010166779" lon="15.047574628343607"><ele>694.0</ele><time>2026-04-19T10:28:06Z</time></trkpt><trkpt lat="40.738262438442476" lon="15.047834419033451"><ele>696.3333333333334</ele><time>2026-04-19T10:28:07Z</time></trkpt><trkpt lat="40.738268477801476" lon="15.04810478381305"><ele>698.6666666666666</ele><time>2026-04-19T10:28:08Z</time></trkpt><trkpt lat="40.73827285838213" lon="15.048386840884039"><ele>701.0</ele><time>2026-04-19T10:28:09Z</time></trkpt><trkpt lat="40.73827060903677" lon="15.048679785285938"><ele>701.3333333333333</ele><time>2026-04-19T10:28:10Z</time></trkpt><trkpt lat="40.73827016273938" lon="15.048964581627114"><ele>701.6666666666666</ele><time>2026-04-19T10:28:11Z</time></trkpt><trkpt lat="40.73827230219284" lon="15.049229603227774"><ele>702.0</ele><time>2026-04-19T10:28:12Z</time></trkpt><trkpt lat="40.73827527666918" lon="15.04948419944387"><ele>702.6666666666666</ele><time>2026-04-19T10:28:13Z</time></trkpt><trkpt lat="40.738267653510476" lon="15.049718431530984"><ele>703.3333333333333</ele><time>2026-04-19T10:28:14Z</time></trkpt><trkpt lat="40.73826581251144" lon="15.049933745935824"><ele>704.0</ele><time>2026-04-19T10:28:15Z</time></trkpt><trkpt lat="40.7382597687839" lon="15.05014157689944"><ele>704.4000000000001</ele><time>2026-04-19T10:28:16Z</time></trkpt><trkpt lat="40.73826509779287" lon="15.050324601219708"><ele>704.8</ele><time>2026-04-19T10:28:17Z</time></trkpt><trkpt lat="40.73827378000278" lon="15.050485913476212"><ele>705.2</ele><time>2026-04-19T10:28:18Z</time></trkpt><trkpt lat="40.73828664515347" lon="15.050611844734838"><ele>705.5999999999999</ele><time>2026-04-19T10:28:19Z</time></trkpt><trkpt lat="40.73831546617189" lon="15.050726054680096"><ele>706.0</ele><time>2026-04-19T10:28:20Z</time></trkpt><trkpt lat="40.73835464823912" lon="15.050831433735876"><ele>706.5999999999999</ele><time>2026-04-19T10:28:21Z</time></trkpt><trkpt lat="40.73840243785997" lon="15.05093555129019"><ele>707.2</ele><time>2026-04-19T10:28:22Z</time></trkpt><trkpt lat="40.73845550787821" lon="15.051053642247902"><ele>707.8</ele><time>2026-04-19T10:28:23Z</time></trkpt><trkpt lat="40.738506825056" lon="15.051187645819322"><ele>708.4000000000001</ele><time>2026-04-19T10:28:24Z</time></trkpt><trkpt lat="40.73854839256364" lon="15.051333220019872"><ele>709.0</ele><time>2026-04-19T10:28:25Z</time></trkpt><trkpt lat="40.7386034484311" lon="15.05147771936408"><ele>710.25</ele><time>2026-04-19T10:28:26Z</time></trkpt><trkpt lat="40.73865057443096" lon="15.051652713916178"><ele>711.5</ele><time>2026-04-19T10:28:27Z</time></trkpt><trkpt lat="40.738693716653366" lon="15.0518468970438"><ele>712.75</ele><time>2026-04-19T10:28:28Z</time></trkpt><trkpt lat="40.738725410918036" lon="15.052038120442937"><ele>714.0</ele><time>2026-04-19T10:28:29Z</time></trkpt><trkpt lat="40.73875897873766" lon="15.052241953150705"><ele>714.0</ele><time>2026-04-19T10:28:30Z</time></trkpt><trkpt lat="40.73879555824167" lon="15.0524113068781"><ele>714.0</ele><time>2026-04-19T10:28:31Z</time></trkpt><trkpt lat="40.73882545148042" lon="15.05256392650604"><ele>714.0</ele><time>2026-04-19T10:28:32Z</time></trkpt><trkpt lat="40.73883973013146" lon="15.05270019913321"><ele>714.0</ele><time>2026-04-19T10:28:33Z</time></trkpt><trkpt lat="40.738825054038564" lon="15.052861215487631"><ele>714.75</ele><time>2026-04-19T10:28:34Z</time></trkpt><trkpt lat="40.73879142665868" lon="15.05303619098275"><ele>715.5</ele><time>2026-04-19T10:28:35Z</time></trkpt><trkpt lat="40.73876140670029" lon="15.053234854807823"><ele>716.25</ele><time>2026-04-19T10:28:36Z</time></trkpt><trkpt lat="40.73875227259377" lon="15.053441036052668"><ele>717.0</ele><time>2026-04-19T10:28:37Z</time></trkpt><trkpt lat="40.7387461979713" lon="15.053644954363818"><ele>717.25</ele><time>2026-04-19T10:28:38Z</time></trkpt><trkpt lat="40.73875544937397" lon="15.053826924307597"><ele>717.5</ele><time>2026-04-19T10:28:39Z</time></trkpt><trkpt lat="40.738768478176155" lon="15.05399327967124"><ele>717.75</ele><time>2026-04-19T10:28:40Z</time></trkpt><trkpt lat="40.73878277603711" lon="15.05416574024588"><ele>718.0</ele><time>2026-04-19T10:28:41Z</time></trkpt><trkpt lat="40.7388048812618" lon="15.05433971943768"><ele>718.2</ele><time>2026-04-19T10:28:42Z</time></trkpt><trkpt lat="40.7388260336817" lon="15.054494175992385"><ele>718.4</ele><time>2026-04-19T10:28:43Z</time></trkpt><trkpt lat="40.73884989093046" lon="15.05462795873241"><ele>718.6</ele><time>2026-04-19T10:28:44Z</time></trkpt><trkpt lat="40.738859972595584" lon="15.054750265024305"><ele>718.8000000000001</ele><time>2026-04-19T10:28:45Z</time></trkpt><trkpt lat="40.738873611236464" lon="15.05486538105156"><ele>719.0</ele><time>2026-04-19T10:28:46Z</time></trkpt><trkpt lat="40.738902438639386" lon="15.054975686656594"><ele>719.6666666666666</ele><time>2026-04-19T10:28:47Z</time></trkpt><trkpt lat="40.738912693321176" lon="15.055107882520646"><ele>720.3333333333333</ele><time>2026-04-19T10:28:48Z</time></trkpt><trkpt lat="40.73893086836927" lon="15.055224819232158"><ele>721.0</ele><time>2026-04-19T10:28:49Z</time></trkpt><trkpt lat="40.73894469282768" lon="15.055314434800097"><ele>721.6666666666666</ele><time>2026-04-19T10:28:50Z</time></trkpt><trkpt lat="40.738970347658004" lon="15.05539499778777"><ele>722.3333333333334</ele><time>2026-04-19T10:28:52Z</time></trkpt><trkpt lat="40.73900266317868" lon="15.055483440674232"><ele>723.0</ele><time>2026-04-19T10:28:56Z</time></trkpt><trkpt lat="40.739076012632495" lon="15.055504031692085"><ele>723.0</ele><time>2026-04-19T10:28:59Z</time></trkpt><trkpt lat="40.7391404696801" lon="15.055508453712639"><ele>723.0</ele><time>2026-04-19T10:29:02Z</time></trkpt></trkseg></trk></gpx>